<?xml version="1.0" encoding="UTF-8" standalone="no" ?>
<gpx xmlns="http://www.topografix.com/GPX/1/1" xmlns:xsi="http://www.w3.org/2001/XMLSchema-instance" xsi:schemaLocation="http://www.topografix.com/GPX/1/1 http://www.topografix.com/GPX/1/1/gpx.xsd" version="1.1" creator="VisuGPX - https://www.visugpx.com">
  <metadata>
    <name>Transvercors 2016. 60 km</name>
    <desc><![CDATA[Parcours de l'epreuve 60 km. Villard de lans. Saint Jean en Royan.]]></desc>
  </metadata>
  <wpt lat="45.07065" lon="5.55141">
    <ele>1028</ele>
  </wpt>
  <wpt lat="45.01929" lon="5.29296">
    <ele>254</ele>
  </wpt>
  <trk>
    <name><![CDATA[Transvercors 2016. 60 km_1]]></name>
    <trkseg>
      <trkpt lat="45.07065" lon="5.55141">
        <ele>1028</ele>
        <time>2016-08-28T07:12:18Z</time>
      </trkpt>
      <trkpt lat="45.07056" lon="5.55139">
        <ele>1028</ele>
        <time>2016-08-28T07:13:26Z</time>
      </trkpt>
      <trkpt lat="45.07065" lon="5.55143">
        <ele>1028</ele>
        <time>2016-08-28T07:16:17Z</time>
      </trkpt>
      <trkpt lat="45.07069" lon="5.55155">
        <ele>1028</ele>
        <time>2016-08-28T07:16:38Z</time>
      </trkpt>
      <trkpt lat="45.07077" lon="5.55148">
        <ele>1028</ele>
        <time>2016-08-28T07:16:58Z</time>
      </trkpt>
      <trkpt lat="45.07086" lon="5.55138">
        <ele>1026</ele>
        <time>2016-08-28T07:17:15Z</time>
      </trkpt>
      <trkpt lat="45.0708" lon="5.55149">
        <ele>1028</ele>
        <time>2016-08-28T07:17:39Z</time>
      </trkpt>
      <trkpt lat="45.0707" lon="5.55144">
        <ele>1028</ele>
        <time>2016-08-28T07:17:57Z</time>
      </trkpt>
      <trkpt lat="45.07059" lon="5.55146">
        <ele>1028</ele>
        <time>2016-08-28T07:18:06Z</time>
      </trkpt>
      <trkpt lat="45.07051" lon="5.55152">
        <ele>1028</ele>
        <time>2016-08-28T07:18:13Z</time>
      </trkpt>
      <trkpt lat="45.07059" lon="5.55148">
        <ele>1028</ele>
        <time>2016-08-28T07:18:30Z</time>
      </trkpt>
      <trkpt lat="45.0707" lon="5.55151">
        <ele>1028</ele>
        <time>2016-08-28T07:19:21Z</time>
      </trkpt>
      <trkpt lat="45.07079" lon="5.55148">
        <ele>1028</ele>
        <time>2016-08-28T07:19:48Z</time>
      </trkpt>
      <trkpt lat="45.0707" lon="5.55151">
        <ele>1028</ele>
        <time>2016-08-28T07:20:36Z</time>
      </trkpt>
      <trkpt lat="45.0708" lon="5.55147">
        <ele>1028</ele>
        <time>2016-08-28T07:20:50Z</time>
      </trkpt>
      <trkpt lat="45.0707" lon="5.55153">
        <ele>1028</ele>
        <time>2016-08-28T07:21:02Z</time>
      </trkpt>
      <trkpt lat="45.07061" lon="5.55157">
        <ele>1028</ele>
        <time>2016-08-28T07:21:17Z</time>
      </trkpt>
      <trkpt lat="45.07052" lon="5.55161">
        <ele>1028</ele>
        <time>2016-08-28T07:23:15Z</time>
      </trkpt>
      <trkpt lat="45.07061" lon="5.55157">
        <ele>1028</ele>
        <time>2016-08-28T07:23:27Z</time>
      </trkpt>
      <trkpt lat="45.07052" lon="5.55154">
        <ele>1028</ele>
        <time>2016-08-28T07:24:04Z</time>
      </trkpt>
      <trkpt lat="45.07045" lon="5.55164">
        <ele>1028</ele>
        <time>2016-08-28T07:24:35Z</time>
      </trkpt>
      <trkpt lat="45.07053" lon="5.55157">
        <ele>1028</ele>
        <time>2016-08-28T07:24:55Z</time>
      </trkpt>
      <trkpt lat="45.07063" lon="5.55153">
        <ele>1028</ele>
        <time>2016-08-28T07:25:04Z</time>
      </trkpt>
      <trkpt lat="45.07073" lon="5.55148">
        <ele>1028</ele>
        <time>2016-08-28T07:25:29Z</time>
      </trkpt>
      <trkpt lat="45.07084" lon="5.55145">
        <ele>1026</ele>
        <time>2016-08-28T07:26:02Z</time>
      </trkpt>
      <trkpt lat="45.07077" lon="5.55153">
        <ele>1028</ele>
        <time>2016-08-28T07:26:19Z</time>
      </trkpt>
      <trkpt lat="45.07085" lon="5.55145">
        <ele>1026</ele>
        <time>2016-08-28T07:26:33Z</time>
      </trkpt>
      <trkpt lat="45.07094" lon="5.5514">
        <ele>1026</ele>
        <time>2016-08-28T07:26:45Z</time>
      </trkpt>
      <trkpt lat="45.07085" lon="5.55145">
        <ele>1026</ele>
        <time>2016-08-28T07:27:03Z</time>
      </trkpt>
      <trkpt lat="45.07075" lon="5.55147">
        <ele>1028</ele>
        <time>2016-08-28T07:27:15Z</time>
      </trkpt>
      <trkpt lat="45.07066" lon="5.55154">
        <ele>1028</ele>
        <time>2016-08-28T07:28:25Z</time>
      </trkpt>
      <trkpt lat="45.07056" lon="5.55153">
        <ele>1028</ele>
        <time>2016-08-28T07:29:31Z</time>
      </trkpt>
      <trkpt lat="45.07062" lon="5.55142">
        <ele>1028</ele>
        <time>2016-08-28T07:29:47Z</time>
      </trkpt>
      <trkpt lat="45.07072" lon="5.55143">
        <ele>1028</ele>
        <time>2016-08-28T07:29:56Z</time>
      </trkpt>
      <trkpt lat="45.07063" lon="5.55146">
        <ele>1028</ele>
        <time>2016-08-28T07:30:11Z</time>
      </trkpt>
      <trkpt lat="45.07072" lon="5.55142">
        <ele>1028</ele>
        <time>2016-08-28T07:30:21Z</time>
      </trkpt>
      <trkpt lat="45.07063" lon="5.55142">
        <ele>1028</ele>
        <time>2016-08-28T07:30:39Z</time>
      </trkpt>
      <trkpt lat="45.07052" lon="5.55138">
        <ele>1028</ele>
        <time>2016-08-28T07:30:44Z</time>
      </trkpt>
      <trkpt lat="45.07047" lon="5.55126">
        <ele>1027</ele>
        <time>2016-08-28T07:30:49Z</time>
      </trkpt>
      <trkpt lat="45.07054" lon="5.55116">
        <ele>1027</ele>
        <time>2016-08-28T07:30:53Z</time>
      </trkpt>
      <trkpt lat="45.07065" lon="5.55115">
        <ele>1027</ele>
        <time>2016-08-28T07:30:56Z</time>
      </trkpt>
      <trkpt lat="45.07078" lon="5.55115">
        <ele>1027</ele>
        <time>2016-08-28T07:30:59Z</time>
      </trkpt>
      <trkpt lat="45.07089" lon="5.55118">
        <ele>1025</ele>
        <time>2016-08-28T07:31:03Z</time>
      </trkpt>
      <trkpt lat="45.07101" lon="5.55126">
        <ele>1025</ele>
        <time>2016-08-28T07:31:06Z</time>
      </trkpt>
      <trkpt lat="45.07112" lon="5.5513">
        <ele>1025</ele>
        <time>2016-08-28T07:31:09Z</time>
      </trkpt>
      <trkpt lat="45.07121" lon="5.55139">
        <ele>1025</ele>
        <time>2016-08-28T07:31:13Z</time>
      </trkpt>
      <trkpt lat="45.07131" lon="5.55145">
        <ele>1025</ele>
        <time>2016-08-28T07:31:16Z</time>
      </trkpt>
      <trkpt lat="45.07142" lon="5.55152">
        <ele>1025</ele>
        <time>2016-08-28T07:31:19Z</time>
      </trkpt>
      <trkpt lat="45.0715" lon="5.55162">
        <ele>1025</ele>
        <time>2016-08-28T07:31:22Z</time>
      </trkpt>
      <trkpt lat="45.07163" lon="5.55167">
        <ele>1025</ele>
        <time>2016-08-28T07:31:25Z</time>
      </trkpt>
      <trkpt lat="45.07175" lon="5.55171">
        <ele>1024</ele>
        <time>2016-08-28T07:31:27Z</time>
      </trkpt>
      <trkpt lat="45.07188" lon="5.55176">
        <ele>1024</ele>
        <time>2016-08-28T07:31:29Z</time>
      </trkpt>
      <trkpt lat="45.07198" lon="5.55185">
        <ele>1023</ele>
        <time>2016-08-28T07:31:31Z</time>
      </trkpt>
      <trkpt lat="45.07207" lon="5.55195">
        <ele>1023</ele>
        <time>2016-08-28T07:31:33Z</time>
      </trkpt>
      <trkpt lat="45.07215" lon="5.55207">
        <ele>1022</ele>
        <time>2016-08-28T07:31:35Z</time>
      </trkpt>
      <trkpt lat="45.07222" lon="5.55219">
        <ele>1022</ele>
        <time>2016-08-28T07:31:37Z</time>
      </trkpt>
      <trkpt lat="45.07231" lon="5.55231">
        <ele>1022</ele>
        <time>2016-08-28T07:31:39Z</time>
      </trkpt>
      <trkpt lat="45.0724" lon="5.55249">
        <ele>1021</ele>
        <time>2016-08-28T07:31:41Z</time>
      </trkpt>
      <trkpt lat="45.07248" lon="5.55265">
        <ele>1022</ele>
        <time>2016-08-28T07:31:43Z</time>
      </trkpt>
      <trkpt lat="45.07255" lon="5.55274">
        <ele>1019</ele>
        <time>2016-08-28T07:31:45Z</time>
      </trkpt>
      <trkpt lat="45.07263" lon="5.55286">
        <ele>1018</ele>
        <time>2016-08-28T07:31:47Z</time>
      </trkpt>
      <trkpt lat="45.07272" lon="5.55304">
        <ele>1019</ele>
        <time>2016-08-28T07:31:50Z</time>
      </trkpt>
      <trkpt lat="45.0728" lon="5.55313">
        <ele>1019</ele>
        <time>2016-08-28T07:31:52Z</time>
      </trkpt>
      <trkpt lat="45.07287" lon="5.55322">
        <ele>1018</ele>
        <time>2016-08-28T07:31:54Z</time>
      </trkpt>
      <trkpt lat="45.07294" lon="5.55333">
        <ele>1018</ele>
        <time>2016-08-28T07:31:56Z</time>
      </trkpt>
      <trkpt lat="45.07302" lon="5.55343">
        <ele>1020</ele>
        <time>2016-08-28T07:31:58Z</time>
      </trkpt>
      <trkpt lat="45.0731" lon="5.55353">
        <ele>1019</ele>
        <time>2016-08-28T07:32:00Z</time>
      </trkpt>
      <trkpt lat="45.07318" lon="5.55363">
        <ele>1019</ele>
        <time>2016-08-28T07:32:02Z</time>
      </trkpt>
      <trkpt lat="45.07327" lon="5.55375">
        <ele>1020</ele>
        <time>2016-08-28T07:32:05Z</time>
      </trkpt>
      <trkpt lat="45.07334" lon="5.55386">
        <ele>1017</ele>
        <time>2016-08-28T07:32:07Z</time>
      </trkpt>
      <trkpt lat="45.07341" lon="5.554">
        <ele>1017</ele>
        <time>2016-08-28T07:32:10Z</time>
      </trkpt>
      <trkpt lat="45.07341" lon="5.55414">
        <ele>1018</ele>
        <time>2016-08-28T07:32:14Z</time>
      </trkpt>
      <trkpt lat="45.07336" lon="5.55426">
        <ele>1019</ele>
        <time>2016-08-28T07:32:16Z</time>
      </trkpt>
      <trkpt lat="45.0733" lon="5.55436">
        <ele>1021</ele>
        <time>2016-08-28T07:32:18Z</time>
      </trkpt>
      <trkpt lat="45.07322" lon="5.55449">
        <ele>1022</ele>
        <time>2016-08-28T07:32:21Z</time>
      </trkpt>
      <trkpt lat="45.07313" lon="5.55458">
        <ele>1023</ele>
        <time>2016-08-28T07:32:24Z</time>
      </trkpt>
      <trkpt lat="45.07305" lon="5.55469">
        <ele>1023</ele>
        <time>2016-08-28T07:32:27Z</time>
      </trkpt>
      <trkpt lat="45.07296" lon="5.55477">
        <ele>1023</ele>
        <time>2016-08-28T07:32:31Z</time>
      </trkpt>
      <trkpt lat="45.0729" lon="5.55489">
        <ele>1024</ele>
        <time>2016-08-28T07:32:36Z</time>
      </trkpt>
      <trkpt lat="45.07282" lon="5.55497">
        <ele>1024</ele>
        <time>2016-08-28T07:32:40Z</time>
      </trkpt>
      <trkpt lat="45.07276" lon="5.55507">
        <ele>1025</ele>
        <time>2016-08-28T07:32:44Z</time>
      </trkpt>
      <trkpt lat="45.07269" lon="5.55516">
        <ele>1025</ele>
        <time>2016-08-28T07:32:49Z</time>
      </trkpt>
      <trkpt lat="45.07262" lon="5.55526">
        <ele>1025</ele>
        <time>2016-08-28T07:32:53Z</time>
      </trkpt>
      <trkpt lat="45.07254" lon="5.55538">
        <ele>1025</ele>
        <time>2016-08-28T07:32:58Z</time>
      </trkpt>
      <trkpt lat="45.07246" lon="5.55549">
        <ele>1028</ele>
        <time>2016-08-28T07:33:03Z</time>
      </trkpt>
      <trkpt lat="45.07238" lon="5.55557">
        <ele>1028</ele>
        <time>2016-08-28T07:33:07Z</time>
      </trkpt>
      <trkpt lat="45.07231" lon="5.55566">
        <ele>1028</ele>
        <time>2016-08-28T07:33:11Z</time>
      </trkpt>
      <trkpt lat="45.0722" lon="5.55572">
        <ele>1029</ele>
        <time>2016-08-28T07:33:16Z</time>
      </trkpt>
      <trkpt lat="45.0721" lon="5.55573">
        <ele>1029</ele>
        <time>2016-08-28T07:33:21Z</time>
      </trkpt>
      <trkpt lat="45.07201" lon="5.5557">
        <ele>1030</ele>
        <time>2016-08-28T07:33:26Z</time>
      </trkpt>
      <trkpt lat="45.07191" lon="5.55566">
        <ele>1030</ele>
        <time>2016-08-28T07:33:32Z</time>
      </trkpt>
      <trkpt lat="45.07182" lon="5.55557">
        <ele>1031</ele>
        <time>2016-08-28T07:33:38Z</time>
      </trkpt>
      <trkpt lat="45.07174" lon="5.55546">
        <ele>1031</ele>
        <time>2016-08-28T07:33:43Z</time>
      </trkpt>
      <trkpt lat="45.07166" lon="5.55535">
        <ele>1036</ele>
        <time>2016-08-28T07:33:49Z</time>
      </trkpt>
      <trkpt lat="45.07159" lon="5.55524">
        <ele>1036</ele>
        <time>2016-08-28T07:33:54Z</time>
      </trkpt>
      <trkpt lat="45.07152" lon="5.55513">
        <ele>1036</ele>
        <time>2016-08-28T07:33:59Z</time>
      </trkpt>
      <trkpt lat="45.07143" lon="5.55507">
        <ele>1036</ele>
        <time>2016-08-28T07:34:04Z</time>
      </trkpt>
      <trkpt lat="45.07133" lon="5.55502">
        <ele>1037</ele>
        <time>2016-08-28T07:34:09Z</time>
      </trkpt>
      <trkpt lat="45.07122" lon="5.55499">
        <ele>1036</ele>
        <time>2016-08-28T07:34:12Z</time>
      </trkpt>
      <trkpt lat="45.07112" lon="5.55497">
        <ele>1036</ele>
        <time>2016-08-28T07:34:15Z</time>
      </trkpt>
      <trkpt lat="45.07099" lon="5.55492">
        <ele>1037</ele>
        <time>2016-08-28T07:34:18Z</time>
      </trkpt>
      <trkpt lat="45.0709" lon="5.55489">
        <ele>1037</ele>
        <time>2016-08-28T07:34:20Z</time>
      </trkpt>
      <trkpt lat="45.07079" lon="5.55484">
        <ele>1036</ele>
        <time>2016-08-28T07:34:23Z</time>
      </trkpt>
      <trkpt lat="45.07066" lon="5.55482">
        <ele>1036</ele>
        <time>2016-08-28T07:34:26Z</time>
      </trkpt>
      <trkpt lat="45.07058" lon="5.55479">
        <ele>1036</ele>
        <time>2016-08-28T07:34:28Z</time>
      </trkpt>
      <trkpt lat="45.07049" lon="5.55475">
        <ele>1035</ele>
        <time>2016-08-28T07:34:30Z</time>
      </trkpt>
      <trkpt lat="45.0704" lon="5.55471">
        <ele>1035</ele>
        <time>2016-08-28T07:34:32Z</time>
      </trkpt>
      <trkpt lat="45.07029" lon="5.55464">
        <ele>1035</ele>
        <time>2016-08-28T07:34:35Z</time>
      </trkpt>
      <trkpt lat="45.0702" lon="5.55455">
        <ele>1035</ele>
        <time>2016-08-28T07:34:39Z</time>
      </trkpt>
      <trkpt lat="45.07014" lon="5.55443">
        <ele>1034</ele>
        <time>2016-08-28T07:34:42Z</time>
      </trkpt>
      <trkpt lat="45.07016" lon="5.55428">
        <ele>1034</ele>
        <time>2016-08-28T07:34:44Z</time>
      </trkpt>
      <trkpt lat="45.07019" lon="5.55413">
        <ele>1033</ele>
        <time>2016-08-28T07:34:46Z</time>
      </trkpt>
      <trkpt lat="45.07022" lon="5.55394">
        <ele>1033</ele>
        <time>2016-08-28T07:34:48Z</time>
      </trkpt>
      <trkpt lat="45.07026" lon="5.55374">
        <ele>1033</ele>
        <time>2016-08-28T07:34:50Z</time>
      </trkpt>
      <trkpt lat="45.07031" lon="5.55354">
        <ele>1033</ele>
        <time>2016-08-28T07:34:52Z</time>
      </trkpt>
      <trkpt lat="45.07034" lon="5.55338">
        <ele>1033</ele>
        <time>2016-08-28T07:34:54Z</time>
      </trkpt>
      <trkpt lat="45.07036" lon="5.55324">
        <ele>1033</ele>
        <time>2016-08-28T07:34:56Z</time>
      </trkpt>
      <trkpt lat="45.07028" lon="5.55311">
        <ele>1033</ele>
        <time>2016-08-28T07:35:00Z</time>
      </trkpt>
      <trkpt lat="45.07015" lon="5.5531">
        <ele>1033</ele>
        <time>2016-08-28T07:35:02Z</time>
      </trkpt>
      <trkpt lat="45.07005" lon="5.55303">
        <ele>1033</ele>
        <time>2016-08-28T07:35:04Z</time>
      </trkpt>
      <trkpt lat="45.06993" lon="5.55297">
        <ele>1029</ele>
        <time>2016-08-28T07:35:06Z</time>
      </trkpt>
      <trkpt lat="45.06986" lon="5.55289">
        <ele>1028</ele>
        <time>2016-08-28T07:35:08Z</time>
      </trkpt>
      <trkpt lat="45.06982" lon="5.55273">
        <ele>1029</ele>
        <time>2016-08-28T07:35:10Z</time>
      </trkpt>
      <trkpt lat="45.06984" lon="5.5526">
        <ele>1030</ele>
        <time>2016-08-28T07:35:12Z</time>
      </trkpt>
      <trkpt lat="45.06982" lon="5.55246">
        <ele>1029</ele>
        <time>2016-08-28T07:35:14Z</time>
      </trkpt>
      <trkpt lat="45.06986" lon="5.55229">
        <ele>1028</ele>
        <time>2016-08-28T07:35:16Z</time>
      </trkpt>
      <trkpt lat="45.06986" lon="5.5521">
        <ele>1027</ele>
        <time>2016-08-28T07:35:18Z</time>
      </trkpt>
      <trkpt lat="45.06982" lon="5.55189">
        <ele>1027</ele>
        <time>2016-08-28T07:35:20Z</time>
      </trkpt>
      <trkpt lat="45.06983" lon="5.55166">
        <ele>1026</ele>
        <time>2016-08-28T07:35:22Z</time>
      </trkpt>
      <trkpt lat="45.06984" lon="5.55148">
        <ele>1025</ele>
        <time>2016-08-28T07:35:24Z</time>
      </trkpt>
      <trkpt lat="45.06977" lon="5.55134">
        <ele>1024</ele>
        <time>2016-08-28T07:35:26Z</time>
      </trkpt>
      <trkpt lat="45.06973" lon="5.5512">
        <ele>1024</ele>
        <time>2016-08-28T07:35:28Z</time>
      </trkpt>
      <trkpt lat="45.06974" lon="5.55105">
        <ele>1024</ele>
        <time>2016-08-28T07:35:34Z</time>
      </trkpt>
      <trkpt lat="45.06986" lon="5.55107">
        <ele>1024</ele>
        <time>2016-08-28T07:35:37Z</time>
      </trkpt>
      <trkpt lat="45.06998" lon="5.55105">
        <ele>1025</ele>
        <time>2016-08-28T07:35:39Z</time>
      </trkpt>
      <trkpt lat="45.07008" lon="5.55105">
        <ele>1027</ele>
        <time>2016-08-28T07:35:41Z</time>
      </trkpt>
      <trkpt lat="45.07017" lon="5.55094">
        <ele>1027</ele>
        <time>2016-08-28T07:35:43Z</time>
      </trkpt>
      <trkpt lat="45.07021" lon="5.5508">
        <ele>1026</ele>
        <time>2016-08-28T07:35:45Z</time>
      </trkpt>
      <trkpt lat="45.07013" lon="5.55068">
        <ele>1026</ele>
        <time>2016-08-28T07:35:47Z</time>
      </trkpt>
      <trkpt lat="45.07006" lon="5.55047">
        <ele>1025</ele>
        <time>2016-08-28T07:35:50Z</time>
      </trkpt>
      <trkpt lat="45.07001" lon="5.55028">
        <ele>1025</ele>
        <time>2016-08-28T07:35:52Z</time>
      </trkpt>
      <trkpt lat="45.06994" lon="5.55008">
        <ele>1023</ele>
        <time>2016-08-28T07:35:54Z</time>
      </trkpt>
      <trkpt lat="45.0698" lon="5.55002">
        <ele>1022</ele>
        <time>2016-08-28T07:35:56Z</time>
      </trkpt>
      <trkpt lat="45.0697" lon="5.54995">
        <ele>1020</ele>
        <time>2016-08-28T07:35:58Z</time>
      </trkpt>
      <trkpt lat="45.06954" lon="5.54988">
        <ele>1018</ele>
        <time>2016-08-28T07:36:00Z</time>
      </trkpt>
      <trkpt lat="45.06937" lon="5.54986">
        <ele>1017</ele>
        <time>2016-08-28T07:36:02Z</time>
      </trkpt>
      <trkpt lat="45.06925" lon="5.54984">
        <ele>1017</ele>
        <time>2016-08-28T07:36:03Z</time>
      </trkpt>
      <trkpt lat="45.06916" lon="5.54979">
        <ele>1011</ele>
        <time>2016-08-28T07:36:04Z</time>
      </trkpt>
      <trkpt lat="45.069" lon="5.54974">
        <ele>1009</ele>
        <time>2016-08-28T07:36:06Z</time>
      </trkpt>
      <trkpt lat="45.06896" lon="5.54987">
        <ele>1009</ele>
        <time>2016-08-28T07:36:09Z</time>
      </trkpt>
      <trkpt lat="45.069" lon="5.55001">
        <ele>1011</ele>
        <time>2016-08-28T07:36:10Z</time>
      </trkpt>
      <trkpt lat="45.06902" lon="5.55023">
        <ele>1010</ele>
        <time>2016-08-28T07:36:12Z</time>
      </trkpt>
      <trkpt lat="45.06898" lon="5.55042">
        <ele>1009</ele>
        <time>2016-08-28T07:36:14Z</time>
      </trkpt>
      <trkpt lat="45.06891" lon="5.55074">
        <ele>1010</ele>
        <time>2016-08-28T07:36:17Z</time>
      </trkpt>
      <trkpt lat="45.06892" lon="5.5509">
        <ele>1011</ele>
        <time>2016-08-28T07:36:18Z</time>
      </trkpt>
      <trkpt lat="45.06888" lon="5.55116">
        <ele>1010</ele>
        <time>2016-08-28T07:36:20Z</time>
      </trkpt>
      <trkpt lat="45.06884" lon="5.55128">
        <ele>1010</ele>
        <time>2016-08-28T07:36:21Z</time>
      </trkpt>
      <trkpt lat="45.06881" lon="5.55142">
        <ele>1010</ele>
        <time>2016-08-28T07:36:22Z</time>
      </trkpt>
      <trkpt lat="45.06878" lon="5.55155">
        <ele>1010</ele>
        <time>2016-08-28T07:36:23Z</time>
      </trkpt>
      <trkpt lat="45.06875" lon="5.55168">
        <ele>1011</ele>
        <time>2016-08-28T07:36:24Z</time>
      </trkpt>
      <trkpt lat="45.06872" lon="5.55181">
        <ele>1011</ele>
        <time>2016-08-28T07:36:25Z</time>
      </trkpt>
      <trkpt lat="45.06869" lon="5.55195">
        <ele>1011</ele>
        <time>2016-08-28T07:36:26Z</time>
      </trkpt>
      <trkpt lat="45.06865" lon="5.55208">
        <ele>1011</ele>
        <time>2016-08-28T07:36:27Z</time>
      </trkpt>
      <trkpt lat="45.06862" lon="5.55222">
        <ele>1011</ele>
        <time>2016-08-28T07:36:28Z</time>
      </trkpt>
      <trkpt lat="45.0686" lon="5.55234">
        <ele>1011</ele>
        <time>2016-08-28T07:36:29Z</time>
      </trkpt>
      <trkpt lat="45.06856" lon="5.55248">
        <ele>1011</ele>
        <time>2016-08-28T07:36:30Z</time>
      </trkpt>
      <trkpt lat="45.06849" lon="5.55272">
        <ele>1012</ele>
        <time>2016-08-28T07:36:32Z</time>
      </trkpt>
      <trkpt lat="45.06845" lon="5.55285">
        <ele>1012</ele>
        <time>2016-08-28T07:36:33Z</time>
      </trkpt>
      <trkpt lat="45.06836" lon="5.55307">
        <ele>1012</ele>
        <time>2016-08-28T07:36:35Z</time>
      </trkpt>
      <trkpt lat="45.06826" lon="5.55323">
        <ele>1008</ele>
        <time>2016-08-28T07:36:37Z</time>
      </trkpt>
      <trkpt lat="45.06816" lon="5.55324">
        <ele>1008</ele>
        <time>2016-08-28T07:36:38Z</time>
      </trkpt>
      <trkpt lat="45.06798" lon="5.55318">
        <ele>1007</ele>
        <time>2016-08-28T07:36:40Z</time>
      </trkpt>
      <trkpt lat="45.06788" lon="5.55313">
        <ele>1006</ele>
        <time>2016-08-28T07:36:41Z</time>
      </trkpt>
      <trkpt lat="45.06779" lon="5.55305">
        <ele>1006</ele>
        <time>2016-08-28T07:36:42Z</time>
      </trkpt>
      <trkpt lat="45.06765" lon="5.5529">
        <ele>1005</ele>
        <time>2016-08-28T07:36:44Z</time>
      </trkpt>
      <trkpt lat="45.06756" lon="5.5527">
        <ele>1003</ele>
        <time>2016-08-28T07:36:46Z</time>
      </trkpt>
      <trkpt lat="45.06751" lon="5.55259">
        <ele>1002</ele>
        <time>2016-08-28T07:36:47Z</time>
      </trkpt>
      <trkpt lat="45.06749" lon="5.55233">
        <ele>1000</ele>
        <time>2016-08-28T07:36:49Z</time>
      </trkpt>
      <trkpt lat="45.06749" lon="5.55207">
        <ele>1000</ele>
        <time>2016-08-28T07:36:51Z</time>
      </trkpt>
      <trkpt lat="45.06749" lon="5.55194">
        <ele>999</ele>
        <time>2016-08-28T07:36:52Z</time>
      </trkpt>
      <trkpt lat="45.06752" lon="5.55168">
        <ele>997</ele>
        <time>2016-08-28T07:36:54Z</time>
      </trkpt>
      <trkpt lat="45.06752" lon="5.55154">
        <ele>997</ele>
        <time>2016-08-28T07:36:55Z</time>
      </trkpt>
      <trkpt lat="45.06753" lon="5.5514">
        <ele>997</ele>
        <time>2016-08-28T07:36:56Z</time>
      </trkpt>
      <trkpt lat="45.06752" lon="5.55115">
        <ele>997</ele>
        <time>2016-08-28T07:36:58Z</time>
      </trkpt>
      <trkpt lat="45.06747" lon="5.55093">
        <ele>995</ele>
        <time>2016-08-28T07:37:00Z</time>
      </trkpt>
      <trkpt lat="45.06738" lon="5.5508">
        <ele>995</ele>
        <time>2016-08-28T07:37:02Z</time>
      </trkpt>
      <trkpt lat="45.06725" lon="5.55077">
        <ele>995</ele>
        <time>2016-08-28T07:37:04Z</time>
      </trkpt>
      <trkpt lat="45.06715" lon="5.55078">
        <ele>996</ele>
        <time>2016-08-28T07:37:06Z</time>
      </trkpt>
      <trkpt lat="45.06704" lon="5.55079">
        <ele>996</ele>
        <time>2016-08-28T07:37:09Z</time>
      </trkpt>
      <trkpt lat="45.06694" lon="5.5508">
        <ele>996</ele>
        <time>2016-08-28T07:37:13Z</time>
      </trkpt>
      <trkpt lat="45.06683" lon="5.55083">
        <ele>997</ele>
        <time>2016-08-28T07:37:18Z</time>
      </trkpt>
      <trkpt lat="45.06673" lon="5.55082">
        <ele>998</ele>
        <time>2016-08-28T07:37:24Z</time>
      </trkpt>
      <trkpt lat="45.06663" lon="5.55077">
        <ele>1000</ele>
        <time>2016-08-28T07:37:32Z</time>
      </trkpt>
      <trkpt lat="45.06655" lon="5.55071">
        <ele>1001</ele>
        <time>2016-08-28T07:37:37Z</time>
      </trkpt>
      <trkpt lat="45.06645" lon="5.55065">
        <ele>1002</ele>
        <time>2016-08-28T07:37:44Z</time>
      </trkpt>
      <trkpt lat="45.06635" lon="5.55069">
        <ele>1003</ele>
        <time>2016-08-28T07:37:52Z</time>
      </trkpt>
      <trkpt lat="45.06638" lon="5.55083">
        <ele>1004</ele>
        <time>2016-08-28T07:37:56Z</time>
      </trkpt>
      <trkpt lat="45.06641" lon="5.55099">
        <ele>1004</ele>
        <time>2016-08-28T07:37:59Z</time>
      </trkpt>
      <trkpt lat="45.06644" lon="5.55112">
        <ele>1004</ele>
        <time>2016-08-28T07:38:02Z</time>
      </trkpt>
      <trkpt lat="45.06634" lon="5.55113">
        <ele>1005</ele>
        <time>2016-08-28T07:38:11Z</time>
      </trkpt>
      <trkpt lat="45.06626" lon="5.55104">
        <ele>1005</ele>
        <time>2016-08-28T07:38:19Z</time>
      </trkpt>
      <trkpt lat="45.06619" lon="5.55095">
        <ele>1006</ele>
        <time>2016-08-28T07:38:26Z</time>
      </trkpt>
      <trkpt lat="45.0661" lon="5.55088">
        <ele>1007</ele>
        <time>2016-08-28T07:38:34Z</time>
      </trkpt>
      <trkpt lat="45.066" lon="5.55088">
        <ele>1008</ele>
        <time>2016-08-28T07:38:40Z</time>
      </trkpt>
      <trkpt lat="45.06597" lon="5.55075">
        <ele>1007</ele>
        <time>2016-08-28T07:38:47Z</time>
      </trkpt>
      <trkpt lat="45.06597" lon="5.5506">
        <ele>1006</ele>
        <time>2016-08-28T07:38:53Z</time>
      </trkpt>
      <trkpt lat="45.06594" lon="5.55048">
        <ele>1006</ele>
        <time>2016-08-28T07:38:59Z</time>
      </trkpt>
      <trkpt lat="45.06593" lon="5.55033">
        <ele>1006</ele>
        <time>2016-08-28T07:39:06Z</time>
      </trkpt>
      <trkpt lat="45.0659" lon="5.5502">
        <ele>1007</ele>
        <time>2016-08-28T07:39:13Z</time>
      </trkpt>
      <trkpt lat="45.06588" lon="5.55005">
        <ele>1009</ele>
        <time>2016-08-28T07:39:20Z</time>
      </trkpt>
      <trkpt lat="45.06585" lon="5.54992">
        <ele>1008</ele>
        <time>2016-08-28T07:39:26Z</time>
      </trkpt>
      <trkpt lat="45.06581" lon="5.54979">
        <ele>1010</ele>
        <time>2016-08-28T07:39:32Z</time>
      </trkpt>
      <trkpt lat="45.06577" lon="5.54966">
        <ele>1009</ele>
        <time>2016-08-28T07:39:43Z</time>
      </trkpt>
      <trkpt lat="45.06568" lon="5.5496">
        <ele>1009</ele>
        <time>2016-08-28T07:39:50Z</time>
      </trkpt>
      <trkpt lat="45.06558" lon="5.54966">
        <ele>1010</ele>
        <time>2016-08-28T07:39:57Z</time>
      </trkpt>
      <trkpt lat="45.0655" lon="5.54975">
        <ele>1011</ele>
        <time>2016-08-28T07:40:05Z</time>
      </trkpt>
      <trkpt lat="45.06544" lon="5.54986">
        <ele>1011</ele>
        <time>2016-08-28T07:40:13Z</time>
      </trkpt>
      <trkpt lat="45.06543" lon="5.55">
        <ele>1012</ele>
        <time>2016-08-28T07:40:21Z</time>
      </trkpt>
      <trkpt lat="45.06543" lon="5.55013">
        <ele>1016</ele>
        <time>2016-08-28T07:40:28Z</time>
      </trkpt>
      <trkpt lat="45.06541" lon="5.55028">
        <ele>1017</ele>
        <time>2016-08-28T07:40:36Z</time>
      </trkpt>
      <trkpt lat="45.06533" lon="5.55036">
        <ele>1017</ele>
        <time>2016-08-28T07:40:44Z</time>
      </trkpt>
      <trkpt lat="45.06525" lon="5.55044">
        <ele>1018</ele>
        <time>2016-08-28T07:40:51Z</time>
      </trkpt>
      <trkpt lat="45.06516" lon="5.55053">
        <ele>1019</ele>
        <time>2016-08-28T07:40:58Z</time>
      </trkpt>
      <trkpt lat="45.06513" lon="5.55065">
        <ele>1021</ele>
        <time>2016-08-28T07:41:06Z</time>
      </trkpt>
      <trkpt lat="45.06513" lon="5.55079">
        <ele>1023</ele>
        <time>2016-08-28T07:41:13Z</time>
      </trkpt>
      <trkpt lat="45.06507" lon="5.55091">
        <ele>1025</ele>
        <time>2016-08-28T07:41:20Z</time>
      </trkpt>
      <trkpt lat="45.065" lon="5.551">
        <ele>1025</ele>
        <time>2016-08-28T07:41:28Z</time>
      </trkpt>
      <trkpt lat="45.06493" lon="5.5511">
        <ele>1032</ele>
        <time>2016-08-28T07:41:36Z</time>
      </trkpt>
      <trkpt lat="45.06489" lon="5.55124">
        <ele>1033</ele>
        <time>2016-08-28T07:41:43Z</time>
      </trkpt>
      <trkpt lat="45.06481" lon="5.55134">
        <ele>1034</ele>
        <time>2016-08-28T07:41:50Z</time>
      </trkpt>
      <trkpt lat="45.06472" lon="5.55139">
        <ele>1034</ele>
        <time>2016-08-28T07:41:57Z</time>
      </trkpt>
      <trkpt lat="45.06467" lon="5.55153">
        <ele>1035</ele>
        <time>2016-08-28T07:42:04Z</time>
      </trkpt>
      <trkpt lat="45.06458" lon="5.55157">
        <ele>1035</ele>
        <time>2016-08-28T07:42:09Z</time>
      </trkpt>
      <trkpt lat="45.06449" lon="5.55161">
        <ele>1036</ele>
        <time>2016-08-28T07:42:14Z</time>
      </trkpt>
      <trkpt lat="45.0644" lon="5.55169">
        <ele>1040</ele>
        <time>2016-08-28T07:42:19Z</time>
      </trkpt>
      <trkpt lat="45.06432" lon="5.55176">
        <ele>1040</ele>
        <time>2016-08-28T07:42:23Z</time>
      </trkpt>
      <trkpt lat="45.06424" lon="5.55185">
        <ele>1040</ele>
        <time>2016-08-28T07:42:27Z</time>
      </trkpt>
      <trkpt lat="45.06418" lon="5.55195">
        <ele>1040</ele>
        <time>2016-08-28T07:42:31Z</time>
      </trkpt>
      <trkpt lat="45.06411" lon="5.55205">
        <ele>1044</ele>
        <time>2016-08-28T07:42:35Z</time>
      </trkpt>
      <trkpt lat="45.06404" lon="5.55215">
        <ele>1044</ele>
        <time>2016-08-28T07:42:39Z</time>
      </trkpt>
      <trkpt lat="45.06398" lon="5.55224">
        <ele>1045</ele>
        <time>2016-08-28T07:42:43Z</time>
      </trkpt>
      <trkpt lat="45.06392" lon="5.55234">
        <ele>1045</ele>
        <time>2016-08-28T07:42:47Z</time>
      </trkpt>
      <trkpt lat="45.06385" lon="5.55244">
        <ele>1045</ele>
        <time>2016-08-28T07:42:51Z</time>
      </trkpt>
      <trkpt lat="45.06378" lon="5.55254">
        <ele>1047</ele>
        <time>2016-08-28T07:42:55Z</time>
      </trkpt>
      <trkpt lat="45.06369" lon="5.55263">
        <ele>1047</ele>
        <time>2016-08-28T07:42:59Z</time>
      </trkpt>
      <trkpt lat="45.06359" lon="5.55269">
        <ele>1047</ele>
        <time>2016-08-28T07:43:03Z</time>
      </trkpt>
      <trkpt lat="45.06348" lon="5.55274">
        <ele>1048</ele>
        <time>2016-08-28T07:43:07Z</time>
      </trkpt>
      <trkpt lat="45.06336" lon="5.55277">
        <ele>1048</ele>
        <time>2016-08-28T07:43:11Z</time>
      </trkpt>
      <trkpt lat="45.06325" lon="5.55283">
        <ele>1047</ele>
        <time>2016-08-28T07:43:15Z</time>
      </trkpt>
      <trkpt lat="45.06315" lon="5.55289">
        <ele>1047</ele>
        <time>2016-08-28T07:43:19Z</time>
      </trkpt>
      <trkpt lat="45.06304" lon="5.55296">
        <ele>1047</ele>
        <time>2016-08-28T07:43:23Z</time>
      </trkpt>
      <trkpt lat="45.06295" lon="5.55303">
        <ele>1047</ele>
        <time>2016-08-28T07:43:26Z</time>
      </trkpt>
      <trkpt lat="45.06285" lon="5.5531">
        <ele>1047</ele>
        <time>2016-08-28T07:43:29Z</time>
      </trkpt>
      <trkpt lat="45.06276" lon="5.55316">
        <ele>1047</ele>
        <time>2016-08-28T07:43:31Z</time>
      </trkpt>
      <trkpt lat="45.06268" lon="5.55322">
        <ele>1047</ele>
        <time>2016-08-28T07:43:33Z</time>
      </trkpt>
      <trkpt lat="45.06256" lon="5.55331">
        <ele>1047</ele>
        <time>2016-08-28T07:43:36Z</time>
      </trkpt>
      <trkpt lat="45.06248" lon="5.55339">
        <ele>1047</ele>
        <time>2016-08-28T07:43:38Z</time>
      </trkpt>
      <trkpt lat="45.06241" lon="5.55353">
        <ele>1048</ele>
        <time>2016-08-28T07:43:41Z</time>
      </trkpt>
      <trkpt lat="45.06239" lon="5.55368">
        <ele>1049</ele>
        <time>2016-08-28T07:43:44Z</time>
      </trkpt>
      <trkpt lat="45.0624" lon="5.55383">
        <ele>1050</ele>
        <time>2016-08-28T07:43:48Z</time>
      </trkpt>
      <trkpt lat="45.06239" lon="5.55398">
        <ele>1051</ele>
        <time>2016-08-28T07:43:53Z</time>
      </trkpt>
      <trkpt lat="45.06238" lon="5.55411">
        <ele>1052</ele>
        <time>2016-08-28T07:43:58Z</time>
      </trkpt>
      <trkpt lat="45.06235" lon="5.55426">
        <ele>1056</ele>
        <time>2016-08-28T07:44:03Z</time>
      </trkpt>
      <trkpt lat="45.06229" lon="5.55436">
        <ele>1057</ele>
        <time>2016-08-28T07:44:08Z</time>
      </trkpt>
      <trkpt lat="45.0622" lon="5.55445">
        <ele>1057</ele>
        <time>2016-08-28T07:44:13Z</time>
      </trkpt>
      <trkpt lat="45.06211" lon="5.55451">
        <ele>1057</ele>
        <time>2016-08-28T07:44:18Z</time>
      </trkpt>
      <trkpt lat="45.06202" lon="5.55461">
        <ele>1058</ele>
        <time>2016-08-28T07:44:24Z</time>
      </trkpt>
      <trkpt lat="45.06196" lon="5.55472">
        <ele>1058</ele>
        <time>2016-08-28T07:44:30Z</time>
      </trkpt>
      <trkpt lat="45.06189" lon="5.55484">
        <ele>1059</ele>
        <time>2016-08-28T07:44:36Z</time>
      </trkpt>
      <trkpt lat="45.06183" lon="5.55496">
        <ele>1060</ele>
        <time>2016-08-28T07:44:41Z</time>
      </trkpt>
      <trkpt lat="45.06178" lon="5.5551">
        <ele>1063</ele>
        <time>2016-08-28T07:44:46Z</time>
      </trkpt>
      <trkpt lat="45.06173" lon="5.55522">
        <ele>1063</ele>
        <time>2016-08-28T07:44:50Z</time>
      </trkpt>
      <trkpt lat="45.06169" lon="5.55536">
        <ele>1064</ele>
        <time>2016-08-28T07:44:55Z</time>
      </trkpt>
      <trkpt lat="45.06162" lon="5.55547">
        <ele>1059</ele>
        <time>2016-08-28T07:45:02Z</time>
      </trkpt>
      <trkpt lat="45.06155" lon="5.55556">
        <ele>1059</ele>
        <time>2016-08-28T07:45:05Z</time>
      </trkpt>
      <trkpt lat="45.06143" lon="5.55569">
        <ele>1059</ele>
        <time>2016-08-28T07:45:08Z</time>
      </trkpt>
      <trkpt lat="45.06134" lon="5.55581">
        <ele>1058</ele>
        <time>2016-08-28T07:45:10Z</time>
      </trkpt>
      <trkpt lat="45.06123" lon="5.55596">
        <ele>1059</ele>
        <time>2016-08-28T07:45:12Z</time>
      </trkpt>
      <trkpt lat="45.06115" lon="5.55605">
        <ele>1058</ele>
        <time>2016-08-28T07:45:13Z</time>
      </trkpt>
      <trkpt lat="45.06101" lon="5.55621">
        <ele>1058</ele>
        <time>2016-08-28T07:45:15Z</time>
      </trkpt>
      <trkpt lat="45.06093" lon="5.55629">
        <ele>1057</ele>
        <time>2016-08-28T07:45:16Z</time>
      </trkpt>
      <trkpt lat="45.06079" lon="5.55643">
        <ele>1056</ele>
        <time>2016-08-28T07:45:18Z</time>
      </trkpt>
      <trkpt lat="45.06066" lon="5.5565">
        <ele>1056</ele>
        <time>2016-08-28T07:45:20Z</time>
      </trkpt>
      <trkpt lat="45.06053" lon="5.55644">
        <ele>1057</ele>
        <time>2016-08-28T07:45:22Z</time>
      </trkpt>
      <trkpt lat="45.06041" lon="5.55636">
        <ele>1057</ele>
        <time>2016-08-28T07:45:24Z</time>
      </trkpt>
      <trkpt lat="45.06031" lon="5.55631">
        <ele>1058</ele>
        <time>2016-08-28T07:45:26Z</time>
      </trkpt>
      <trkpt lat="45.06021" lon="5.55621">
        <ele>1058</ele>
        <time>2016-08-28T07:45:30Z</time>
      </trkpt>
      <trkpt lat="45.06012" lon="5.55613">
        <ele>1058</ele>
        <time>2016-08-28T07:45:35Z</time>
      </trkpt>
      <trkpt lat="45.06003" lon="5.55604">
        <ele>1059</ele>
        <time>2016-08-28T07:45:41Z</time>
      </trkpt>
      <trkpt lat="45.05994" lon="5.55597">
        <ele>1064</ele>
        <time>2016-08-28T07:45:46Z</time>
      </trkpt>
      <trkpt lat="45.05984" lon="5.55594">
        <ele>1065</ele>
        <time>2016-08-28T07:45:50Z</time>
      </trkpt>
      <trkpt lat="45.05975" lon="5.55585">
        <ele>1066</ele>
        <time>2016-08-28T07:45:54Z</time>
      </trkpt>
      <trkpt lat="45.05966" lon="5.55573">
        <ele>1063</ele>
        <time>2016-08-28T07:45:58Z</time>
      </trkpt>
      <trkpt lat="45.05958" lon="5.5556">
        <ele>1063</ele>
        <time>2016-08-28T07:46:02Z</time>
      </trkpt>
      <trkpt lat="45.05951" lon="5.55549">
        <ele>1063</ele>
        <time>2016-08-28T07:46:06Z</time>
      </trkpt>
      <trkpt lat="45.05945" lon="5.55538">
        <ele>1062</ele>
        <time>2016-08-28T07:46:10Z</time>
      </trkpt>
      <trkpt lat="45.0594" lon="5.55526">
        <ele>1062</ele>
        <time>2016-08-28T07:46:14Z</time>
      </trkpt>
      <trkpt lat="45.05932" lon="5.55515">
        <ele>1062</ele>
        <time>2016-08-28T07:46:18Z</time>
      </trkpt>
      <trkpt lat="45.05926" lon="5.55503">
        <ele>1062</ele>
        <time>2016-08-28T07:46:22Z</time>
      </trkpt>
      <trkpt lat="45.05918" lon="5.55492">
        <ele>1059</ele>
        <time>2016-08-28T07:46:26Z</time>
      </trkpt>
      <trkpt lat="45.05909" lon="5.55489">
        <ele>1060</ele>
        <time>2016-08-28T07:46:29Z</time>
      </trkpt>
      <trkpt lat="45.05898" lon="5.5549">
        <ele>1060</ele>
        <time>2016-08-28T07:46:33Z</time>
      </trkpt>
      <trkpt lat="45.05887" lon="5.55494">
        <ele>1060</ele>
        <time>2016-08-28T07:46:37Z</time>
      </trkpt>
      <trkpt lat="45.05877" lon="5.55498">
        <ele>1060</ele>
        <time>2016-08-28T07:46:42Z</time>
      </trkpt>
      <trkpt lat="45.05868" lon="5.55504">
        <ele>1067</ele>
        <time>2016-08-28T07:46:48Z</time>
      </trkpt>
      <trkpt lat="45.05858" lon="5.55509">
        <ele>1067</ele>
        <time>2016-08-28T07:46:53Z</time>
      </trkpt>
      <trkpt lat="45.0585" lon="5.55516">
        <ele>1067</ele>
        <time>2016-08-28T07:46:58Z</time>
      </trkpt>
      <trkpt lat="45.05841" lon="5.55524">
        <ele>1068</ele>
        <time>2016-08-28T07:47:03Z</time>
      </trkpt>
      <trkpt lat="45.05833" lon="5.55531">
        <ele>1067</ele>
        <time>2016-08-28T07:47:09Z</time>
      </trkpt>
      <trkpt lat="45.05825" lon="5.5554">
        <ele>1068</ele>
        <time>2016-08-28T07:47:15Z</time>
      </trkpt>
      <trkpt lat="45.05817" lon="5.55551">
        <ele>1069</ele>
        <time>2016-08-28T07:47:21Z</time>
      </trkpt>
      <trkpt lat="45.0581" lon="5.55561">
        <ele>1070</ele>
        <time>2016-08-28T07:47:27Z</time>
      </trkpt>
      <trkpt lat="45.05802" lon="5.5557">
        <ele>1070</ele>
        <time>2016-08-28T07:47:32Z</time>
      </trkpt>
      <trkpt lat="45.05794" lon="5.5558">
        <ele>1070</ele>
        <time>2016-08-28T07:47:38Z</time>
      </trkpt>
      <trkpt lat="45.05787" lon="5.55592">
        <ele>1079</ele>
        <time>2016-08-28T07:47:45Z</time>
      </trkpt>
      <trkpt lat="45.05779" lon="5.55597">
        <ele>1079</ele>
        <time>2016-08-28T07:47:50Z</time>
      </trkpt>
      <trkpt lat="45.0577" lon="5.55604">
        <ele>1079</ele>
        <time>2016-08-28T07:47:55Z</time>
      </trkpt>
      <trkpt lat="45.05763" lon="5.55613">
        <ele>1080</ele>
        <time>2016-08-28T07:48:01Z</time>
      </trkpt>
      <trkpt lat="45.05754" lon="5.55619">
        <ele>1080</ele>
        <time>2016-08-28T07:48:06Z</time>
      </trkpt>
      <trkpt lat="45.05743" lon="5.55622">
        <ele>1083</ele>
        <time>2016-08-28T07:48:12Z</time>
      </trkpt>
      <trkpt lat="45.05734" lon="5.55627">
        <ele>1085</ele>
        <time>2016-08-28T07:48:18Z</time>
      </trkpt>
      <trkpt lat="45.05724" lon="5.55632">
        <ele>1085</ele>
        <time>2016-08-28T07:48:26Z</time>
      </trkpt>
      <trkpt lat="45.05714" lon="5.55636">
        <ele>1086</ele>
        <time>2016-08-28T07:48:32Z</time>
      </trkpt>
      <trkpt lat="45.05704" lon="5.55638">
        <ele>1087</ele>
        <time>2016-08-28T07:48:39Z</time>
      </trkpt>
      <trkpt lat="45.05694" lon="5.55639">
        <ele>1088</ele>
        <time>2016-08-28T07:48:45Z</time>
      </trkpt>
      <trkpt lat="45.05685" lon="5.5564">
        <ele>1089</ele>
        <time>2016-08-28T07:48:49Z</time>
      </trkpt>
      <trkpt lat="45.05672" lon="5.55638">
        <ele>1089</ele>
        <time>2016-08-28T07:48:56Z</time>
      </trkpt>
      <trkpt lat="45.05661" lon="5.55633">
        <ele>1101</ele>
        <time>2016-08-28T07:48:58Z</time>
      </trkpt>
      <trkpt lat="45.05652" lon="5.55632">
        <ele>1102</ele>
        <time>2016-08-28T07:49:09Z</time>
      </trkpt>
      <trkpt lat="45.05644" lon="5.55624">
        <ele>1102</ele>
        <time>2016-08-28T07:49:13Z</time>
      </trkpt>
      <trkpt lat="45.05636" lon="5.55613">
        <ele>1102</ele>
        <time>2016-08-28T07:49:18Z</time>
      </trkpt>
      <trkpt lat="45.05629" lon="5.55604">
        <ele>1103</ele>
        <time>2016-08-28T07:49:29Z</time>
      </trkpt>
      <trkpt lat="45.0562" lon="5.55597">
        <ele>1104</ele>
        <time>2016-08-28T07:49:35Z</time>
      </trkpt>
      <trkpt lat="45.05616" lon="5.55584">
        <ele>1104</ele>
        <time>2016-08-28T07:49:44Z</time>
      </trkpt>
      <trkpt lat="45.05605" lon="5.55579">
        <ele>1100</ele>
        <time>2016-08-28T07:49:56Z</time>
      </trkpt>
      <trkpt lat="45.05598" lon="5.55569">
        <ele>1100</ele>
        <time>2016-08-28T07:50:09Z</time>
      </trkpt>
      <trkpt lat="45.05591" lon="5.5556">
        <ele>1100</ele>
        <time>2016-08-28T07:50:21Z</time>
      </trkpt>
      <trkpt lat="45.05583" lon="5.55552">
        <ele>1114</ele>
        <time>2016-08-28T07:50:31Z</time>
      </trkpt>
      <trkpt lat="45.05574" lon="5.55546">
        <ele>1115</ele>
        <time>2016-08-28T07:50:39Z</time>
      </trkpt>
      <trkpt lat="45.05564" lon="5.5554">
        <ele>1115</ele>
        <time>2016-08-28T07:50:45Z</time>
      </trkpt>
      <trkpt lat="45.05556" lon="5.55532">
        <ele>1115</ele>
        <time>2016-08-28T07:50:50Z</time>
      </trkpt>
      <trkpt lat="45.05552" lon="5.5552">
        <ele>1114</ele>
        <time>2016-08-28T07:50:55Z</time>
      </trkpt>
      <trkpt lat="45.05543" lon="5.55514">
        <ele>1116</ele>
        <time>2016-08-28T07:51:00Z</time>
      </trkpt>
      <trkpt lat="45.05535" lon="5.55507">
        <ele>1117</ele>
        <time>2016-08-28T07:51:12Z</time>
      </trkpt>
      <trkpt lat="45.05524" lon="5.555">
        <ele>1119</ele>
        <time>2016-08-28T07:51:19Z</time>
      </trkpt>
      <trkpt lat="45.05517" lon="5.55489">
        <ele>1112</ele>
        <time>2016-08-28T07:51:26Z</time>
      </trkpt>
      <trkpt lat="45.05508" lon="5.55485">
        <ele>1113</ele>
        <time>2016-08-28T07:51:32Z</time>
      </trkpt>
      <trkpt lat="45.05505" lon="5.55472">
        <ele>1110</ele>
        <time>2016-08-28T07:51:43Z</time>
      </trkpt>
      <trkpt lat="45.05496" lon="5.55464">
        <ele>1123</ele>
        <time>2016-08-28T07:51:57Z</time>
      </trkpt>
      <trkpt lat="45.0549" lon="5.55452">
        <ele>1122</ele>
        <time>2016-08-28T07:52:08Z</time>
      </trkpt>
      <trkpt lat="45.0548" lon="5.55446">
        <ele>1123</ele>
        <time>2016-08-28T07:52:14Z</time>
      </trkpt>
      <trkpt lat="45.0547" lon="5.55438">
        <ele>1123</ele>
        <time>2016-08-28T07:52:20Z</time>
      </trkpt>
      <trkpt lat="45.05465" lon="5.55425">
        <ele>1123</ele>
        <time>2016-08-28T07:52:24Z</time>
      </trkpt>
      <trkpt lat="45.05455" lon="5.55413">
        <ele>1119</ele>
        <time>2016-08-28T07:52:30Z</time>
      </trkpt>
      <trkpt lat="45.05453" lon="5.55399">
        <ele>1119</ele>
        <time>2016-08-28T07:52:34Z</time>
      </trkpt>
      <trkpt lat="45.05442" lon="5.55395">
        <ele>1120</ele>
        <time>2016-08-28T07:52:38Z</time>
      </trkpt>
      <trkpt lat="45.05433" lon="5.5539">
        <ele>1121</ele>
        <time>2016-08-28T07:52:44Z</time>
      </trkpt>
      <trkpt lat="45.05425" lon="5.55383">
        <ele>1121</ele>
        <time>2016-08-28T07:52:51Z</time>
      </trkpt>
      <trkpt lat="45.05414" lon="5.55376">
        <ele>1131</ele>
        <time>2016-08-28T07:53:01Z</time>
      </trkpt>
      <trkpt lat="45.05407" lon="5.55367">
        <ele>1131</ele>
        <time>2016-08-28T07:53:07Z</time>
      </trkpt>
      <trkpt lat="45.05398" lon="5.5536">
        <ele>1131</ele>
        <time>2016-08-28T07:53:15Z</time>
      </trkpt>
      <trkpt lat="45.05388" lon="5.55356">
        <ele>1132</ele>
        <time>2016-08-28T07:53:22Z</time>
      </trkpt>
      <trkpt lat="45.05378" lon="5.55352">
        <ele>1132</ele>
        <time>2016-08-28T07:53:29Z</time>
      </trkpt>
      <trkpt lat="45.05368" lon="5.55346">
        <ele>1133</ele>
        <time>2016-08-28T07:53:34Z</time>
      </trkpt>
      <trkpt lat="45.05358" lon="5.55339">
        <ele>1133</ele>
        <time>2016-08-28T07:53:38Z</time>
      </trkpt>
      <trkpt lat="45.05348" lon="5.55329">
        <ele>1134</ele>
        <time>2016-08-28T07:53:42Z</time>
      </trkpt>
      <trkpt lat="45.05333" lon="5.55321">
        <ele>1133</ele>
        <time>2016-08-28T07:53:47Z</time>
      </trkpt>
      <trkpt lat="45.05324" lon="5.55316">
        <ele>1132</ele>
        <time>2016-08-28T07:53:49Z</time>
      </trkpt>
      <trkpt lat="45.05314" lon="5.55313">
        <ele>1131</ele>
        <time>2016-08-28T07:53:51Z</time>
      </trkpt>
      <trkpt lat="45.05302" lon="5.55308">
        <ele>1130</ele>
        <time>2016-08-28T07:53:53Z</time>
      </trkpt>
      <trkpt lat="45.05288" lon="5.55302">
        <ele>1129</ele>
        <time>2016-08-28T07:53:55Z</time>
      </trkpt>
      <trkpt lat="45.05274" lon="5.55295">
        <ele>1127</ele>
        <time>2016-08-28T07:53:57Z</time>
      </trkpt>
      <trkpt lat="45.05257" lon="5.55291">
        <ele>1126</ele>
        <time>2016-08-28T07:53:59Z</time>
      </trkpt>
      <trkpt lat="45.0524" lon="5.55288">
        <ele>1121</ele>
        <time>2016-08-28T07:54:01Z</time>
      </trkpt>
      <trkpt lat="45.05222" lon="5.5529">
        <ele>1121</ele>
        <time>2016-08-28T07:54:03Z</time>
      </trkpt>
      <trkpt lat="45.05204" lon="5.55294">
        <ele>1122</ele>
        <time>2016-08-28T07:54:05Z</time>
      </trkpt>
      <trkpt lat="45.05179" lon="5.55284">
        <ele>1121</ele>
        <time>2016-08-28T07:54:08Z</time>
      </trkpt>
      <trkpt lat="45.05169" lon="5.55269">
        <ele>1119</ele>
        <time>2016-08-28T07:54:10Z</time>
      </trkpt>
      <trkpt lat="45.05158" lon="5.55259">
        <ele>1120</ele>
        <time>2016-08-28T07:54:12Z</time>
      </trkpt>
      <trkpt lat="45.05148" lon="5.55251">
        <ele>1121</ele>
        <time>2016-08-28T07:54:14Z</time>
      </trkpt>
      <trkpt lat="45.05135" lon="5.55244">
        <ele>1116</ele>
        <time>2016-08-28T07:54:16Z</time>
      </trkpt>
      <trkpt lat="45.05122" lon="5.55237">
        <ele>1117</ele>
        <time>2016-08-28T07:54:18Z</time>
      </trkpt>
      <trkpt lat="45.05109" lon="5.55228">
        <ele>1117</ele>
        <time>2016-08-28T07:54:20Z</time>
      </trkpt>
      <trkpt lat="45.05096" lon="5.55219">
        <ele>1117</ele>
        <time>2016-08-28T07:54:22Z</time>
      </trkpt>
      <trkpt lat="45.05086" lon="5.55212">
        <ele>1116</ele>
        <time>2016-08-28T07:54:24Z</time>
      </trkpt>
      <trkpt lat="45.05077" lon="5.55206">
        <ele>1121</ele>
        <time>2016-08-28T07:54:26Z</time>
      </trkpt>
      <trkpt lat="45.0507" lon="5.55198">
        <ele>1120</ele>
        <time>2016-08-28T07:54:30Z</time>
      </trkpt>
      <trkpt lat="45.05062" lon="5.55189">
        <ele>1120</ele>
        <time>2016-08-28T07:54:34Z</time>
      </trkpt>
      <trkpt lat="45.05053" lon="5.55183">
        <ele>1120</ele>
        <time>2016-08-28T07:54:38Z</time>
      </trkpt>
      <trkpt lat="45.05042" lon="5.55182">
        <ele>1121</ele>
        <time>2016-08-28T07:54:44Z</time>
      </trkpt>
      <trkpt lat="45.05033" lon="5.5518">
        <ele>1121</ele>
        <time>2016-08-28T07:54:50Z</time>
      </trkpt>
      <trkpt lat="45.05023" lon="5.55182">
        <ele>1122</ele>
        <time>2016-08-28T07:54:56Z</time>
      </trkpt>
      <trkpt lat="45.05014" lon="5.55185">
        <ele>1122</ele>
        <time>2016-08-28T07:55:02Z</time>
      </trkpt>
      <trkpt lat="45.05004" lon="5.55189">
        <ele>1122</ele>
        <time>2016-08-28T07:55:07Z</time>
      </trkpt>
      <trkpt lat="45.04995" lon="5.55192">
        <ele>1125</ele>
        <time>2016-08-28T07:55:12Z</time>
      </trkpt>
      <trkpt lat="45.04986" lon="5.55196">
        <ele>1126</ele>
        <time>2016-08-28T07:55:16Z</time>
      </trkpt>
      <trkpt lat="45.04975" lon="5.55198">
        <ele>1127</ele>
        <time>2016-08-28T07:55:20Z</time>
      </trkpt>
      <trkpt lat="45.04965" lon="5.55199">
        <ele>1127</ele>
        <time>2016-08-28T07:55:23Z</time>
      </trkpt>
      <trkpt lat="45.04953" lon="5.55201">
        <ele>1127</ele>
        <time>2016-08-28T07:55:27Z</time>
      </trkpt>
      <trkpt lat="45.04942" lon="5.55202">
        <ele>1127</ele>
        <time>2016-08-28T07:55:31Z</time>
      </trkpt>
      <trkpt lat="45.0493" lon="5.55205">
        <ele>1128</ele>
        <time>2016-08-28T07:55:35Z</time>
      </trkpt>
      <trkpt lat="45.04919" lon="5.55206">
        <ele>1128</ele>
        <time>2016-08-28T07:55:39Z</time>
      </trkpt>
      <trkpt lat="45.04907" lon="5.55207">
        <ele>1127</ele>
        <time>2016-08-28T07:55:43Z</time>
      </trkpt>
      <trkpt lat="45.04898" lon="5.55206">
        <ele>1127</ele>
        <time>2016-08-28T07:55:46Z</time>
      </trkpt>
      <trkpt lat="45.04886" lon="5.55205">
        <ele>1126</ele>
        <time>2016-08-28T07:55:50Z</time>
      </trkpt>
      <trkpt lat="45.04876" lon="5.55205">
        <ele>1126</ele>
        <time>2016-08-28T07:55:53Z</time>
      </trkpt>
      <trkpt lat="45.04864" lon="5.55207">
        <ele>1126</ele>
        <time>2016-08-28T07:55:56Z</time>
      </trkpt>
      <trkpt lat="45.04853" lon="5.55212">
        <ele>1126</ele>
        <time>2016-08-28T07:55:59Z</time>
      </trkpt>
      <trkpt lat="45.04844" lon="5.55221">
        <ele>1126</ele>
        <time>2016-08-28T07:56:02Z</time>
      </trkpt>
      <trkpt lat="45.04837" lon="5.55235">
        <ele>1127</ele>
        <time>2016-08-28T07:56:05Z</time>
      </trkpt>
      <trkpt lat="45.04834" lon="5.55251">
        <ele>1127</ele>
        <time>2016-08-28T07:56:07Z</time>
      </trkpt>
      <trkpt lat="45.0483" lon="5.55268">
        <ele>1121</ele>
        <time>2016-08-28T07:56:09Z</time>
      </trkpt>
      <trkpt lat="45.04827" lon="5.55289">
        <ele>1120</ele>
        <time>2016-08-28T07:56:11Z</time>
      </trkpt>
      <trkpt lat="45.04823" lon="5.55313">
        <ele>1121</ele>
        <time>2016-08-28T07:56:13Z</time>
      </trkpt>
      <trkpt lat="45.04821" lon="5.55339">
        <ele>1125</ele>
        <time>2016-08-28T07:56:15Z</time>
      </trkpt>
      <trkpt lat="45.04819" lon="5.55364">
        <ele>1122</ele>
        <time>2016-08-28T07:56:17Z</time>
      </trkpt>
      <trkpt lat="45.04817" lon="5.55391">
        <ele>1123</ele>
        <time>2016-08-28T07:56:19Z</time>
      </trkpt>
      <trkpt lat="45.04816" lon="5.55405">
        <ele>1124</ele>
        <time>2016-08-28T07:56:20Z</time>
      </trkpt>
      <trkpt lat="45.04816" lon="5.55419">
        <ele>1126</ele>
        <time>2016-08-28T07:56:21Z</time>
      </trkpt>
      <trkpt lat="45.04818" lon="5.55434">
        <ele>1126</ele>
        <time>2016-08-28T07:56:22Z</time>
      </trkpt>
      <trkpt lat="45.04819" lon="5.55447">
        <ele>1125</ele>
        <time>2016-08-28T07:56:23Z</time>
      </trkpt>
      <trkpt lat="45.04822" lon="5.55472">
        <ele>1126</ele>
        <time>2016-08-28T07:56:25Z</time>
      </trkpt>
      <trkpt lat="45.04825" lon="5.55492">
        <ele>1127</ele>
        <time>2016-08-28T07:56:27Z</time>
      </trkpt>
      <trkpt lat="45.04825" lon="5.55512">
        <ele>1129</ele>
        <time>2016-08-28T07:56:29Z</time>
      </trkpt>
      <trkpt lat="45.0482" lon="5.55528">
        <ele>1129</ele>
        <time>2016-08-28T07:56:31Z</time>
      </trkpt>
      <trkpt lat="45.04811" lon="5.55539">
        <ele>1129</ele>
        <time>2016-08-28T07:56:33Z</time>
      </trkpt>
      <trkpt lat="45.048" lon="5.55547">
        <ele>1129</ele>
        <time>2016-08-28T07:56:35Z</time>
      </trkpt>
      <trkpt lat="45.0479" lon="5.55551">
        <ele>1129</ele>
        <time>2016-08-28T07:56:37Z</time>
      </trkpt>
      <trkpt lat="45.0478" lon="5.55551">
        <ele>1129</ele>
        <time>2016-08-28T07:56:39Z</time>
      </trkpt>
      <trkpt lat="45.04769" lon="5.55548">
        <ele>1129</ele>
        <time>2016-08-28T07:56:42Z</time>
      </trkpt>
      <trkpt lat="45.04761" lon="5.5554">
        <ele>1128</ele>
        <time>2016-08-28T07:56:46Z</time>
      </trkpt>
      <trkpt lat="45.04755" lon="5.5553">
        <ele>1127</ele>
        <time>2016-08-28T07:56:50Z</time>
      </trkpt>
      <trkpt lat="45.04752" lon="5.55515">
        <ele>1126</ele>
        <time>2016-08-28T07:56:55Z</time>
      </trkpt>
      <trkpt lat="45.04744" lon="5.55507">
        <ele>1125</ele>
        <time>2016-08-28T07:56:58Z</time>
      </trkpt>
      <trkpt lat="45.04736" lon="5.55497">
        <ele>1122</ele>
        <time>2016-08-28T07:57:01Z</time>
      </trkpt>
      <trkpt lat="45.04729" lon="5.55487">
        <ele>1122</ele>
        <time>2016-08-28T07:57:03Z</time>
      </trkpt>
      <trkpt lat="45.04722" lon="5.55472">
        <ele>1122</ele>
        <time>2016-08-28T07:57:06Z</time>
      </trkpt>
      <trkpt lat="45.04713" lon="5.55458">
        <ele>1121</ele>
        <time>2016-08-28T07:57:09Z</time>
      </trkpt>
      <trkpt lat="45.04702" lon="5.55451">
        <ele>1121</ele>
        <time>2016-08-28T07:57:12Z</time>
      </trkpt>
      <trkpt lat="45.04692" lon="5.55447">
        <ele>1122</ele>
        <time>2016-08-28T07:57:14Z</time>
      </trkpt>
      <trkpt lat="45.0468" lon="5.55448">
        <ele>1122</ele>
        <time>2016-08-28T07:57:16Z</time>
      </trkpt>
      <trkpt lat="45.04669" lon="5.55459">
        <ele>1123</ele>
        <time>2016-08-28T07:57:18Z</time>
      </trkpt>
      <trkpt lat="45.0467" lon="5.55474">
        <ele>1124</ele>
        <time>2016-08-28T07:57:20Z</time>
      </trkpt>
      <trkpt lat="45.04669" lon="5.55489">
        <ele>1125</ele>
        <time>2016-08-28T07:57:22Z</time>
      </trkpt>
      <trkpt lat="45.0466" lon="5.55504">
        <ele>1126</ele>
        <time>2016-08-28T07:57:24Z</time>
      </trkpt>
      <trkpt lat="45.04649" lon="5.55523">
        <ele>1125</ele>
        <time>2016-08-28T07:57:27Z</time>
      </trkpt>
      <trkpt lat="45.04644" lon="5.55535">
        <ele>1125</ele>
        <time>2016-08-28T07:57:30Z</time>
      </trkpt>
      <trkpt lat="45.04634" lon="5.55537">
        <ele>1124</ele>
        <time>2016-08-28T07:57:34Z</time>
      </trkpt>
      <trkpt lat="45.04622" lon="5.55537">
        <ele>1124</ele>
        <time>2016-08-28T07:57:38Z</time>
      </trkpt>
      <trkpt lat="45.04612" lon="5.55539">
        <ele>1123</ele>
        <time>2016-08-28T07:57:42Z</time>
      </trkpt>
      <trkpt lat="45.04601" lon="5.55542">
        <ele>1123</ele>
        <time>2016-08-28T07:57:45Z</time>
      </trkpt>
      <trkpt lat="45.04591" lon="5.55548">
        <ele>1123</ele>
        <time>2016-08-28T07:57:47Z</time>
      </trkpt>
      <trkpt lat="45.04581" lon="5.55559">
        <ele>1114</ele>
        <time>2016-08-28T07:57:49Z</time>
      </trkpt>
      <trkpt lat="45.04572" lon="5.55572">
        <ele>1116</ele>
        <time>2016-08-28T07:57:51Z</time>
      </trkpt>
      <trkpt lat="45.04564" lon="5.55589">
        <ele>1120</ele>
        <time>2016-08-28T07:57:53Z</time>
      </trkpt>
      <trkpt lat="45.04558" lon="5.55608">
        <ele>1119</ele>
        <time>2016-08-28T07:57:55Z</time>
      </trkpt>
      <trkpt lat="45.04553" lon="5.55626">
        <ele>1119</ele>
        <time>2016-08-28T07:57:57Z</time>
      </trkpt>
      <trkpt lat="45.04548" lon="5.55641">
        <ele>1119</ele>
        <time>2016-08-28T07:57:59Z</time>
      </trkpt>
      <trkpt lat="45.04546" lon="5.55654">
        <ele>1119</ele>
        <time>2016-08-28T07:58:01Z</time>
      </trkpt>
      <trkpt lat="45.04541" lon="5.5567">
        <ele>1125</ele>
        <time>2016-08-28T07:58:04Z</time>
      </trkpt>
      <trkpt lat="45.04536" lon="5.55685">
        <ele>1124</ele>
        <time>2016-08-28T07:58:07Z</time>
      </trkpt>
      <trkpt lat="45.04532" lon="5.55698">
        <ele>1124</ele>
        <time>2016-08-28T07:58:09Z</time>
      </trkpt>
      <trkpt lat="45.04523" lon="5.55719">
        <ele>1124</ele>
        <time>2016-08-28T07:58:12Z</time>
      </trkpt>
      <trkpt lat="45.04516" lon="5.55737">
        <ele>1123</ele>
        <time>2016-08-28T07:58:14Z</time>
      </trkpt>
      <trkpt lat="45.04513" lon="5.55756">
        <ele>1126</ele>
        <time>2016-08-28T07:58:16Z</time>
      </trkpt>
      <trkpt lat="45.04506" lon="5.55775">
        <ele>1128</ele>
        <time>2016-08-28T07:58:18Z</time>
      </trkpt>
      <trkpt lat="45.04501" lon="5.5579">
        <ele>1130</ele>
        <time>2016-08-28T07:58:20Z</time>
      </trkpt>
      <trkpt lat="45.04497" lon="5.55805">
        <ele>1127</ele>
        <time>2016-08-28T07:58:22Z</time>
      </trkpt>
      <trkpt lat="45.0449" lon="5.55816">
        <ele>1128</ele>
        <time>2016-08-28T07:58:24Z</time>
      </trkpt>
      <trkpt lat="45.04481" lon="5.55829">
        <ele>1128</ele>
        <time>2016-08-28T07:58:27Z</time>
      </trkpt>
      <trkpt lat="45.04474" lon="5.55839">
        <ele>1136</ele>
        <time>2016-08-28T07:58:32Z</time>
      </trkpt>
      <trkpt lat="45.04464" lon="5.55834">
        <ele>1137</ele>
        <time>2016-08-28T07:58:39Z</time>
      </trkpt>
      <trkpt lat="45.04457" lon="5.55825">
        <ele>1129</ele>
        <time>2016-08-28T07:58:43Z</time>
      </trkpt>
      <trkpt lat="45.04451" lon="5.55813">
        <ele>1129</ele>
        <time>2016-08-28T07:58:49Z</time>
      </trkpt>
      <trkpt lat="45.04443" lon="5.55802">
        <ele>1129</ele>
        <time>2016-08-28T07:58:55Z</time>
      </trkpt>
      <trkpt lat="45.04435" lon="5.55794">
        <ele>1128</ele>
        <time>2016-08-28T07:58:59Z</time>
      </trkpt>
      <trkpt lat="45.0443" lon="5.55782">
        <ele>1128</ele>
        <time>2016-08-28T07:59:04Z</time>
      </trkpt>
      <trkpt lat="45.04423" lon="5.55771">
        <ele>1127</ele>
        <time>2016-08-28T07:59:09Z</time>
      </trkpt>
      <trkpt lat="45.04418" lon="5.5576">
        <ele>1126</ele>
        <time>2016-08-28T07:59:14Z</time>
      </trkpt>
      <trkpt lat="45.04414" lon="5.55746">
        <ele>1129</ele>
        <time>2016-08-28T07:59:20Z</time>
      </trkpt>
      <trkpt lat="45.04408" lon="5.55735">
        <ele>1135</ele>
        <time>2016-08-28T07:59:25Z</time>
      </trkpt>
      <trkpt lat="45.04409" lon="5.55719">
        <ele>1137</ele>
        <time>2016-08-28T07:59:31Z</time>
      </trkpt>
      <trkpt lat="45.04407" lon="5.55705">
        <ele>1138</ele>
        <time>2016-08-28T07:59:35Z</time>
      </trkpt>
      <trkpt lat="45.04409" lon="5.55692">
        <ele>1135</ele>
        <time>2016-08-28T07:59:41Z</time>
      </trkpt>
      <trkpt lat="45.04407" lon="5.55679">
        <ele>1132</ele>
        <time>2016-08-28T07:59:50Z</time>
      </trkpt>
      <trkpt lat="45.044" lon="5.55666">
        <ele>1130</ele>
        <time>2016-08-28T07:59:59Z</time>
      </trkpt>
      <trkpt lat="45.04394" lon="5.55652">
        <ele>1132</ele>
        <time>2016-08-28T08:00:07Z</time>
      </trkpt>
      <trkpt lat="45.04386" lon="5.55644">
        <ele>1135</ele>
        <time>2016-08-28T08:00:13Z</time>
      </trkpt>
      <trkpt lat="45.04378" lon="5.55634">
        <ele>1137</ele>
        <time>2016-08-28T08:00:19Z</time>
      </trkpt>
      <trkpt lat="45.04375" lon="5.55621">
        <ele>1136</ele>
        <time>2016-08-28T08:00:27Z</time>
      </trkpt>
      <trkpt lat="45.04367" lon="5.55613">
        <ele>1138</ele>
        <time>2016-08-28T08:00:33Z</time>
      </trkpt>
      <trkpt lat="45.04357" lon="5.55605">
        <ele>1140</ele>
        <time>2016-08-28T08:00:39Z</time>
      </trkpt>
      <trkpt lat="45.04348" lon="5.55598">
        <ele>1143</ele>
        <time>2016-08-28T08:00:46Z</time>
      </trkpt>
      <trkpt lat="45.04339" lon="5.55589">
        <ele>1148</ele>
        <time>2016-08-28T08:00:52Z</time>
      </trkpt>
      <trkpt lat="45.04337" lon="5.55575">
        <ele>1144</ele>
        <time>2016-08-28T08:00:58Z</time>
      </trkpt>
      <trkpt lat="45.04335" lon="5.5556">
        <ele>1138</ele>
        <time>2016-08-28T08:01:07Z</time>
      </trkpt>
      <trkpt lat="45.04327" lon="5.55551">
        <ele>1155</ele>
        <time>2016-08-28T08:01:17Z</time>
      </trkpt>
      <trkpt lat="45.04325" lon="5.55537">
        <ele>1154</ele>
        <time>2016-08-28T08:01:25Z</time>
      </trkpt>
      <trkpt lat="45.04316" lon="5.55527">
        <ele>1154</ele>
        <time>2016-08-28T08:01:32Z</time>
      </trkpt>
      <trkpt lat="45.04308" lon="5.5552">
        <ele>1154</ele>
        <time>2016-08-28T08:01:37Z</time>
      </trkpt>
      <trkpt lat="45.04301" lon="5.55509">
        <ele>1155</ele>
        <time>2016-08-28T08:01:44Z</time>
      </trkpt>
      <trkpt lat="45.04294" lon="5.55498">
        <ele>1152</ele>
        <time>2016-08-28T08:01:50Z</time>
      </trkpt>
      <trkpt lat="45.04289" lon="5.55485">
        <ele>1153</ele>
        <time>2016-08-28T08:01:59Z</time>
      </trkpt>
      <trkpt lat="45.04287" lon="5.55472">
        <ele>1153</ele>
        <time>2016-08-28T08:02:04Z</time>
      </trkpt>
      <trkpt lat="45.04281" lon="5.55454">
        <ele>1153</ele>
        <time>2016-08-28T08:02:09Z</time>
      </trkpt>
      <trkpt lat="45.04277" lon="5.55441">
        <ele>1154</ele>
        <time>2016-08-28T08:02:12Z</time>
      </trkpt>
      <trkpt lat="45.04272" lon="5.55427">
        <ele>1156</ele>
        <time>2016-08-28T08:02:15Z</time>
      </trkpt>
      <trkpt lat="45.04267" lon="5.55415">
        <ele>1155</ele>
        <time>2016-08-28T08:02:19Z</time>
      </trkpt>
      <trkpt lat="45.04256" lon="5.55401">
        <ele>1156</ele>
        <time>2016-08-28T08:02:25Z</time>
      </trkpt>
      <trkpt lat="45.04248" lon="5.55387">
        <ele>1166</ele>
        <time>2016-08-28T08:02:29Z</time>
      </trkpt>
      <trkpt lat="45.04242" lon="5.55376">
        <ele>1166</ele>
        <time>2016-08-28T08:02:32Z</time>
      </trkpt>
      <trkpt lat="45.04234" lon="5.55357">
        <ele>1164</ele>
        <time>2016-08-28T08:02:35Z</time>
      </trkpt>
      <trkpt lat="45.04229" lon="5.55342">
        <ele>1164</ele>
        <time>2016-08-28T08:02:37Z</time>
      </trkpt>
      <trkpt lat="45.0422" lon="5.55323">
        <ele>1161</ele>
        <time>2016-08-28T08:02:39Z</time>
      </trkpt>
      <trkpt lat="45.0421" lon="5.55306">
        <ele>1161</ele>
        <time>2016-08-28T08:02:41Z</time>
      </trkpt>
      <trkpt lat="45.04203" lon="5.55292">
        <ele>1162</ele>
        <time>2016-08-28T08:02:43Z</time>
      </trkpt>
      <trkpt lat="45.04192" lon="5.5528">
        <ele>1162</ele>
        <time>2016-08-28T08:02:45Z</time>
      </trkpt>
      <trkpt lat="45.04183" lon="5.55263">
        <ele>1163</ele>
        <time>2016-08-28T08:02:47Z</time>
      </trkpt>
      <trkpt lat="45.04172" lon="5.55248">
        <ele>1162</ele>
        <time>2016-08-28T08:02:49Z</time>
      </trkpt>
      <trkpt lat="45.04163" lon="5.55239">
        <ele>1166</ele>
        <time>2016-08-28T08:02:51Z</time>
      </trkpt>
      <trkpt lat="45.04156" lon="5.55224">
        <ele>1165</ele>
        <time>2016-08-28T08:02:53Z</time>
      </trkpt>
      <trkpt lat="45.04146" lon="5.5521">
        <ele>1165</ele>
        <time>2016-08-28T08:02:55Z</time>
      </trkpt>
      <trkpt lat="45.04139" lon="5.55189">
        <ele>1163</ele>
        <time>2016-08-28T08:02:57Z</time>
      </trkpt>
      <trkpt lat="45.04134" lon="5.55169">
        <ele>1163</ele>
        <time>2016-08-28T08:02:59Z</time>
      </trkpt>
      <trkpt lat="45.04138" lon="5.55135">
        <ele>1157</ele>
        <time>2016-08-28T08:03:03Z</time>
      </trkpt>
      <trkpt lat="45.04142" lon="5.55109">
        <ele>1156</ele>
        <time>2016-08-28T08:03:06Z</time>
      </trkpt>
      <trkpt lat="45.04138" lon="5.5509">
        <ele>1155</ele>
        <time>2016-08-28T08:03:08Z</time>
      </trkpt>
      <trkpt lat="45.04135" lon="5.5507">
        <ele>1156</ele>
        <time>2016-08-28T08:03:10Z</time>
      </trkpt>
      <trkpt lat="45.04142" lon="5.55053">
        <ele>1156</ele>
        <time>2016-08-28T08:03:12Z</time>
      </trkpt>
      <trkpt lat="45.04148" lon="5.55039">
        <ele>1156</ele>
        <time>2016-08-28T08:03:14Z</time>
      </trkpt>
      <trkpt lat="45.0416" lon="5.55026">
        <ele>1155</ele>
        <time>2016-08-28T08:03:16Z</time>
      </trkpt>
      <trkpt lat="45.04173" lon="5.55011">
        <ele>1145</ele>
        <time>2016-08-28T08:03:18Z</time>
      </trkpt>
      <trkpt lat="45.04181" lon="5.54998">
        <ele>1146</ele>
        <time>2016-08-28T08:03:20Z</time>
      </trkpt>
      <trkpt lat="45.04194" lon="5.54986">
        <ele>1143</ele>
        <time>2016-08-28T08:03:23Z</time>
      </trkpt>
      <trkpt lat="45.042" lon="5.54975">
        <ele>1142</ele>
        <time>2016-08-28T08:03:25Z</time>
      </trkpt>
      <trkpt lat="45.04212" lon="5.54968">
        <ele>1141</ele>
        <time>2016-08-28T08:03:29Z</time>
      </trkpt>
      <trkpt lat="45.04223" lon="5.54955">
        <ele>1140</ele>
        <time>2016-08-28T08:03:31Z</time>
      </trkpt>
      <trkpt lat="45.04231" lon="5.54941">
        <ele>1140</ele>
        <time>2016-08-28T08:03:33Z</time>
      </trkpt>
      <trkpt lat="45.0424" lon="5.54925">
        <ele>1140</ele>
        <time>2016-08-28T08:03:35Z</time>
      </trkpt>
      <trkpt lat="45.04244" lon="5.54904">
        <ele>1140</ele>
        <time>2016-08-28T08:03:37Z</time>
      </trkpt>
      <trkpt lat="45.04249" lon="5.54887">
        <ele>1140</ele>
        <time>2016-08-28T08:03:39Z</time>
      </trkpt>
      <trkpt lat="45.04257" lon="5.54869">
        <ele>1133</ele>
        <time>2016-08-28T08:03:41Z</time>
      </trkpt>
      <trkpt lat="45.04266" lon="5.54853">
        <ele>1133</ele>
        <time>2016-08-28T08:03:43Z</time>
      </trkpt>
      <trkpt lat="45.04275" lon="5.54845">
        <ele>1132</ele>
        <time>2016-08-28T08:03:45Z</time>
      </trkpt>
      <trkpt lat="45.04291" lon="5.54834">
        <ele>1131</ele>
        <time>2016-08-28T08:03:47Z</time>
      </trkpt>
      <trkpt lat="45.04299" lon="5.54827">
        <ele>1128</ele>
        <time>2016-08-28T08:03:49Z</time>
      </trkpt>
      <trkpt lat="45.04311" lon="5.54824">
        <ele>1127</ele>
        <time>2016-08-28T08:03:51Z</time>
      </trkpt>
      <trkpt lat="45.04327" lon="5.54824">
        <ele>1127</ele>
        <time>2016-08-28T08:03:53Z</time>
      </trkpt>
      <trkpt lat="45.04343" lon="5.54826">
        <ele>1122</ele>
        <time>2016-08-28T08:03:55Z</time>
      </trkpt>
      <trkpt lat="45.04355" lon="5.54824">
        <ele>1119</ele>
        <time>2016-08-28T08:03:57Z</time>
      </trkpt>
      <trkpt lat="45.04369" lon="5.54824">
        <ele>1116</ele>
        <time>2016-08-28T08:04:00Z</time>
      </trkpt>
      <trkpt lat="45.0438" lon="5.54821">
        <ele>1115</ele>
        <time>2016-08-28T08:04:05Z</time>
      </trkpt>
      <trkpt lat="45.04386" lon="5.54808">
        <ele>1113</ele>
        <time>2016-08-28T08:04:08Z</time>
      </trkpt>
      <trkpt lat="45.04392" lon="5.54794">
        <ele>1112</ele>
        <time>2016-08-28T08:04:10Z</time>
      </trkpt>
      <trkpt lat="45.04395" lon="5.54778">
        <ele>1110</ele>
        <time>2016-08-28T08:04:12Z</time>
      </trkpt>
      <trkpt lat="45.04395" lon="5.54756">
        <ele>1108</ele>
        <time>2016-08-28T08:04:14Z</time>
      </trkpt>
      <trkpt lat="45.04392" lon="5.54737">
        <ele>1101</ele>
        <time>2016-08-28T08:04:16Z</time>
      </trkpt>
      <trkpt lat="45.04387" lon="5.54718">
        <ele>1100</ele>
        <time>2016-08-28T08:04:18Z</time>
      </trkpt>
      <trkpt lat="45.04382" lon="5.54703">
        <ele>1099</ele>
        <time>2016-08-28T08:04:20Z</time>
      </trkpt>
      <trkpt lat="45.04372" lon="5.54694">
        <ele>1099</ele>
        <time>2016-08-28T08:04:22Z</time>
      </trkpt>
      <trkpt lat="45.04362" lon="5.54685">
        <ele>1099</ele>
        <time>2016-08-28T08:04:24Z</time>
      </trkpt>
      <trkpt lat="45.04348" lon="5.54684">
        <ele>1100</ele>
        <time>2016-08-28T08:04:27Z</time>
      </trkpt>
      <trkpt lat="45.04331" lon="5.54683">
        <ele>1105</ele>
        <time>2016-08-28T08:04:29Z</time>
      </trkpt>
      <trkpt lat="45.04319" lon="5.54679">
        <ele>1106</ele>
        <time>2016-08-28T08:04:31Z</time>
      </trkpt>
      <trkpt lat="45.04309" lon="5.54673">
        <ele>1108</ele>
        <time>2016-08-28T08:04:33Z</time>
      </trkpt>
      <trkpt lat="45.04301" lon="5.54664">
        <ele>1103</ele>
        <time>2016-08-28T08:04:35Z</time>
      </trkpt>
      <trkpt lat="45.04288" lon="5.54655">
        <ele>1105</ele>
        <time>2016-08-28T08:04:37Z</time>
      </trkpt>
      <trkpt lat="45.0428" lon="5.54643">
        <ele>1106</ele>
        <time>2016-08-28T08:04:39Z</time>
      </trkpt>
      <trkpt lat="45.04269" lon="5.5463">
        <ele>1107</ele>
        <time>2016-08-28T08:04:41Z</time>
      </trkpt>
      <trkpt lat="45.04264" lon="5.54617">
        <ele>1108</ele>
        <time>2016-08-28T08:04:44Z</time>
      </trkpt>
      <trkpt lat="45.04268" lon="5.54605">
        <ele>1108</ele>
        <time>2016-08-28T08:04:51Z</time>
      </trkpt>
      <trkpt lat="45.04276" lon="5.54588">
        <ele>1107</ele>
        <time>2016-08-28T08:05:00Z</time>
      </trkpt>
      <trkpt lat="45.04284" lon="5.5458">
        <ele>1104</ele>
        <time>2016-08-28T08:05:03Z</time>
      </trkpt>
      <trkpt lat="45.04291" lon="5.54571">
        <ele>1102</ele>
        <time>2016-08-28T08:05:09Z</time>
      </trkpt>
      <trkpt lat="45.04291" lon="5.54556">
        <ele>1102</ele>
        <time>2016-08-28T08:05:15Z</time>
      </trkpt>
      <trkpt lat="45.04287" lon="5.54544">
        <ele>1102</ele>
        <time>2016-08-28T08:05:18Z</time>
      </trkpt>
      <trkpt lat="45.04286" lon="5.54529">
        <ele>1103</ele>
        <time>2016-08-28T08:05:23Z</time>
      </trkpt>
      <trkpt lat="45.04279" lon="5.54516">
        <ele>1105</ele>
        <time>2016-08-28T08:05:27Z</time>
      </trkpt>
      <trkpt lat="45.04278" lon="5.54498">
        <ele>1103</ele>
        <time>2016-08-28T08:05:31Z</time>
      </trkpt>
      <trkpt lat="45.04273" lon="5.5448">
        <ele>1102</ele>
        <time>2016-08-28T08:05:34Z</time>
      </trkpt>
      <trkpt lat="45.04266" lon="5.54453">
        <ele>1101</ele>
        <time>2016-08-28T08:05:38Z</time>
      </trkpt>
      <trkpt lat="45.04254" lon="5.54434">
        <ele>1102</ele>
        <time>2016-08-28T08:05:40Z</time>
      </trkpt>
      <trkpt lat="45.04252" lon="5.54416">
        <ele>1105</ele>
        <time>2016-08-28T08:05:42Z</time>
      </trkpt>
      <trkpt lat="45.04245" lon="5.54395">
        <ele>1107</ele>
        <time>2016-08-28T08:05:44Z</time>
      </trkpt>
      <trkpt lat="45.04241" lon="5.54369">
        <ele>1105</ele>
        <time>2016-08-28T08:05:47Z</time>
      </trkpt>
      <trkpt lat="45.04241" lon="5.54352">
        <ele>1102</ele>
        <time>2016-08-28T08:05:48Z</time>
      </trkpt>
      <trkpt lat="45.04241" lon="5.54335">
        <ele>1098</ele>
        <time>2016-08-28T08:05:49Z</time>
      </trkpt>
      <trkpt lat="45.04238" lon="5.54319">
        <ele>1095</ele>
        <time>2016-08-28T08:05:50Z</time>
      </trkpt>
      <trkpt lat="45.04232" lon="5.54305">
        <ele>1095</ele>
        <time>2016-08-28T08:05:51Z</time>
      </trkpt>
      <trkpt lat="45.0423" lon="5.54293">
        <ele>1094</ele>
        <time>2016-08-28T08:05:52Z</time>
      </trkpt>
      <trkpt lat="45.04225" lon="5.5428">
        <ele>1094</ele>
        <time>2016-08-28T08:05:53Z</time>
      </trkpt>
      <trkpt lat="45.04223" lon="5.54268">
        <ele>1093</ele>
        <time>2016-08-28T08:05:54Z</time>
      </trkpt>
      <trkpt lat="45.04215" lon="5.5425">
        <ele>1087</ele>
        <time>2016-08-28T08:05:56Z</time>
      </trkpt>
      <trkpt lat="45.0421" lon="5.54231">
        <ele>1087</ele>
        <time>2016-08-28T08:05:58Z</time>
      </trkpt>
      <trkpt lat="45.04204" lon="5.54216">
        <ele>1087</ele>
        <time>2016-08-28T08:06:00Z</time>
      </trkpt>
      <trkpt lat="45.042" lon="5.54202">
        <ele>1087</ele>
        <time>2016-08-28T08:06:02Z</time>
      </trkpt>
      <trkpt lat="45.04192" lon="5.5419">
        <ele>1087</ele>
        <time>2016-08-28T08:06:04Z</time>
      </trkpt>
      <trkpt lat="45.0418" lon="5.54181">
        <ele>1088</ele>
        <time>2016-08-28T08:06:06Z</time>
      </trkpt>
      <trkpt lat="45.04167" lon="5.54173">
        <ele>1089</ele>
        <time>2016-08-28T08:06:08Z</time>
      </trkpt>
      <trkpt lat="45.04155" lon="5.54161">
        <ele>1093</ele>
        <time>2016-08-28T08:06:10Z</time>
      </trkpt>
      <trkpt lat="45.04146" lon="5.54146">
        <ele>1094</ele>
        <time>2016-08-28T08:06:12Z</time>
      </trkpt>
      <trkpt lat="45.04144" lon="5.54132">
        <ele>1094</ele>
        <time>2016-08-28T08:06:14Z</time>
      </trkpt>
      <trkpt lat="45.04144" lon="5.54118">
        <ele>1094</ele>
        <time>2016-08-28T08:06:17Z</time>
      </trkpt>
      <trkpt lat="45.04144" lon="5.54104">
        <ele>1093</ele>
        <time>2016-08-28T08:06:20Z</time>
      </trkpt>
      <trkpt lat="45.04145" lon="5.5409">
        <ele>1092</ele>
        <time>2016-08-28T08:06:26Z</time>
      </trkpt>
      <trkpt lat="45.04148" lon="5.54075">
        <ele>1090</ele>
        <time>2016-08-28T08:06:31Z</time>
      </trkpt>
      <trkpt lat="45.04147" lon="5.5406">
        <ele>1092</ele>
        <time>2016-08-28T08:06:34Z</time>
      </trkpt>
      <trkpt lat="45.04145" lon="5.54045">
        <ele>1092</ele>
        <time>2016-08-28T08:06:37Z</time>
      </trkpt>
      <trkpt lat="45.04143" lon="5.54028">
        <ele>1093</ele>
        <time>2016-08-28T08:06:40Z</time>
      </trkpt>
      <trkpt lat="45.04141" lon="5.54013">
        <ele>1093</ele>
        <time>2016-08-28T08:06:42Z</time>
      </trkpt>
      <trkpt lat="45.04133" lon="5.53996">
        <ele>1092</ele>
        <time>2016-08-28T08:06:44Z</time>
      </trkpt>
      <trkpt lat="45.04127" lon="5.53986">
        <ele>1093</ele>
        <time>2016-08-28T08:06:46Z</time>
      </trkpt>
      <trkpt lat="45.04122" lon="5.5397">
        <ele>1093</ele>
        <time>2016-08-28T08:06:48Z</time>
      </trkpt>
      <trkpt lat="45.0412" lon="5.53953">
        <ele>1093</ele>
        <time>2016-08-28T08:06:50Z</time>
      </trkpt>
      <trkpt lat="45.04117" lon="5.53936">
        <ele>1093</ele>
        <time>2016-08-28T08:06:52Z</time>
      </trkpt>
      <trkpt lat="45.04113" lon="5.53924">
        <ele>1094</ele>
        <time>2016-08-28T08:06:54Z</time>
      </trkpt>
      <trkpt lat="45.04115" lon="5.53907">
        <ele>1090</ele>
        <time>2016-08-28T08:06:59Z</time>
      </trkpt>
      <trkpt lat="45.04113" lon="5.5389">
        <ele>1089</ele>
        <time>2016-08-28T08:07:03Z</time>
      </trkpt>
      <trkpt lat="45.04105" lon="5.53881">
        <ele>1089</ele>
        <time>2016-08-28T08:07:07Z</time>
      </trkpt>
      <trkpt lat="45.04096" lon="5.53874">
        <ele>1089</ele>
        <time>2016-08-28T08:07:10Z</time>
      </trkpt>
      <trkpt lat="45.04076" lon="5.53864">
        <ele>1098</ele>
        <time>2016-08-28T08:07:17Z</time>
      </trkpt>
      <trkpt lat="45.04067" lon="5.53855">
        <ele>1098</ele>
        <time>2016-08-28T08:07:20Z</time>
      </trkpt>
      <trkpt lat="45.04055" lon="5.53842">
        <ele>1098</ele>
        <time>2016-08-28T08:07:25Z</time>
      </trkpt>
      <trkpt lat="45.04043" lon="5.53831">
        <ele>1094</ele>
        <time>2016-08-28T08:07:30Z</time>
      </trkpt>
      <trkpt lat="45.04032" lon="5.53823">
        <ele>1095</ele>
        <time>2016-08-28T08:07:33Z</time>
      </trkpt>
      <trkpt lat="45.04021" lon="5.53813">
        <ele>1095</ele>
        <time>2016-08-28T08:07:36Z</time>
      </trkpt>
      <trkpt lat="45.04011" lon="5.53799">
        <ele>1094</ele>
        <time>2016-08-28T08:07:39Z</time>
      </trkpt>
      <trkpt lat="45.04006" lon="5.53783">
        <ele>1092</ele>
        <time>2016-08-28T08:07:42Z</time>
      </trkpt>
      <trkpt lat="45.0401" lon="5.53768">
        <ele>1090</ele>
        <time>2016-08-28T08:07:48Z</time>
      </trkpt>
      <trkpt lat="45.03982" lon="5.53731">
        <ele>1090</ele>
        <time>2016-08-28T08:07:57Z</time>
      </trkpt>
      <trkpt lat="45.0396" lon="5.53723">
        <ele>1092</ele>
        <time>2016-08-28T08:07:58Z</time>
      </trkpt>
      <trkpt lat="45.0395" lon="5.53718">
        <ele>1092</ele>
        <time>2016-08-28T08:07:59Z</time>
      </trkpt>
      <trkpt lat="45.03932" lon="5.53709">
        <ele>1092</ele>
        <time>2016-08-28T08:08:01Z</time>
      </trkpt>
      <trkpt lat="45.03922" lon="5.53703">
        <ele>1092</ele>
        <time>2016-08-28T08:08:02Z</time>
      </trkpt>
      <trkpt lat="45.03912" lon="5.53697">
        <ele>1096</ele>
        <time>2016-08-28T08:08:03Z</time>
      </trkpt>
      <trkpt lat="45.03903" lon="5.53691">
        <ele>1096</ele>
        <time>2016-08-28T08:08:04Z</time>
      </trkpt>
      <trkpt lat="45.03887" lon="5.53677">
        <ele>1096</ele>
        <time>2016-08-28T08:08:06Z</time>
      </trkpt>
      <trkpt lat="45.03878" lon="5.53669">
        <ele>1096</ele>
        <time>2016-08-28T08:08:07Z</time>
      </trkpt>
      <trkpt lat="45.0387" lon="5.53661">
        <ele>1094</ele>
        <time>2016-08-28T08:08:08Z</time>
      </trkpt>
      <trkpt lat="45.03855" lon="5.53645">
        <ele>1094</ele>
        <time>2016-08-28T08:08:10Z</time>
      </trkpt>
      <trkpt lat="45.03842" lon="5.53631">
        <ele>1094</ele>
        <time>2016-08-28T08:08:12Z</time>
      </trkpt>
      <trkpt lat="45.03829" lon="5.53617">
        <ele>1097</ele>
        <time>2016-08-28T08:08:14Z</time>
      </trkpt>
      <trkpt lat="45.03818" lon="5.53605">
        <ele>1097</ele>
        <time>2016-08-28T08:08:16Z</time>
      </trkpt>
      <trkpt lat="45.03808" lon="5.53594">
        <ele>1097</ele>
        <time>2016-08-28T08:08:18Z</time>
      </trkpt>
      <trkpt lat="45.03797" lon="5.53583">
        <ele>1094</ele>
        <time>2016-08-28T08:08:20Z</time>
      </trkpt>
      <trkpt lat="45.03784" lon="5.53571">
        <ele>1095</ele>
        <time>2016-08-28T08:08:22Z</time>
      </trkpt>
      <trkpt lat="45.03772" lon="5.5356">
        <ele>1096</ele>
        <time>2016-08-28T08:08:24Z</time>
      </trkpt>
      <trkpt lat="45.03759" lon="5.53552">
        <ele>1096</ele>
        <time>2016-08-28T08:08:26Z</time>
      </trkpt>
      <trkpt lat="45.03747" lon="5.53542">
        <ele>1101</ele>
        <time>2016-08-28T08:08:28Z</time>
      </trkpt>
      <trkpt lat="45.03736" lon="5.53531">
        <ele>1100</ele>
        <time>2016-08-28T08:08:30Z</time>
      </trkpt>
      <trkpt lat="45.03727" lon="5.5352">
        <ele>1100</ele>
        <time>2016-08-28T08:08:32Z</time>
      </trkpt>
      <trkpt lat="45.03716" lon="5.5351">
        <ele>1101</ele>
        <time>2016-08-28T08:08:34Z</time>
      </trkpt>
      <trkpt lat="45.03705" lon="5.53498">
        <ele>1099</ele>
        <time>2016-08-28T08:08:36Z</time>
      </trkpt>
      <trkpt lat="45.03694" lon="5.53483">
        <ele>1101</ele>
        <time>2016-08-28T08:08:38Z</time>
      </trkpt>
      <trkpt lat="45.03685" lon="5.53467">
        <ele>1100</ele>
        <time>2016-08-28T08:08:40Z</time>
      </trkpt>
      <trkpt lat="45.03674" lon="5.53449">
        <ele>1099</ele>
        <time>2016-08-28T08:08:42Z</time>
      </trkpt>
      <trkpt lat="45.03664" lon="5.53431">
        <ele>1098</ele>
        <time>2016-08-28T08:08:44Z</time>
      </trkpt>
      <trkpt lat="45.03657" lon="5.53422">
        <ele>1097</ele>
        <time>2016-08-28T08:08:45Z</time>
      </trkpt>
      <trkpt lat="45.03648" lon="5.53406">
        <ele>1096</ele>
        <time>2016-08-28T08:08:47Z</time>
      </trkpt>
      <trkpt lat="45.03634" lon="5.53392">
        <ele>1097</ele>
        <time>2016-08-28T08:08:49Z</time>
      </trkpt>
      <trkpt lat="45.03621" lon="5.53382">
        <ele>1097</ele>
        <time>2016-08-28T08:08:51Z</time>
      </trkpt>
      <trkpt lat="45.03606" lon="5.53375">
        <ele>1097</ele>
        <time>2016-08-28T08:08:53Z</time>
      </trkpt>
      <trkpt lat="45.03593" lon="5.5337">
        <ele>1096</ele>
        <time>2016-08-28T08:08:55Z</time>
      </trkpt>
      <trkpt lat="45.0358" lon="5.53369">
        <ele>1096</ele>
        <time>2016-08-28T08:08:57Z</time>
      </trkpt>
      <trkpt lat="45.03566" lon="5.53366">
        <ele>1096</ele>
        <time>2016-08-28T08:08:59Z</time>
      </trkpt>
      <trkpt lat="45.03555" lon="5.53364">
        <ele>1096</ele>
        <time>2016-08-28T08:09:01Z</time>
      </trkpt>
      <trkpt lat="45.03543" lon="5.53361">
        <ele>1096</ele>
        <time>2016-08-28T08:09:03Z</time>
      </trkpt>
      <trkpt lat="45.03531" lon="5.53358">
        <ele>1096</ele>
        <time>2016-08-28T08:09:05Z</time>
      </trkpt>
      <trkpt lat="45.0352" lon="5.53356">
        <ele>1096</ele>
        <time>2016-08-28T08:09:07Z</time>
      </trkpt>
      <trkpt lat="45.0351" lon="5.53353">
        <ele>1095</ele>
        <time>2016-08-28T08:09:09Z</time>
      </trkpt>
      <trkpt lat="45.03498" lon="5.5335">
        <ele>1097</ele>
        <time>2016-08-28T08:09:11Z</time>
      </trkpt>
      <trkpt lat="45.03486" lon="5.53345">
        <ele>1097</ele>
        <time>2016-08-28T08:09:13Z</time>
      </trkpt>
      <trkpt lat="45.03476" lon="5.5334">
        <ele>1098</ele>
        <time>2016-08-28T08:09:15Z</time>
      </trkpt>
      <trkpt lat="45.03466" lon="5.53334">
        <ele>1099</ele>
        <time>2016-08-28T08:09:17Z</time>
      </trkpt>
      <trkpt lat="45.03453" lon="5.53327">
        <ele>1093</ele>
        <time>2016-08-28T08:09:19Z</time>
      </trkpt>
      <trkpt lat="45.03444" lon="5.53319">
        <ele>1094</ele>
        <time>2016-08-28T08:09:21Z</time>
      </trkpt>
      <trkpt lat="45.03435" lon="5.53311">
        <ele>1094</ele>
        <time>2016-08-28T08:09:23Z</time>
      </trkpt>
      <trkpt lat="45.03425" lon="5.53303">
        <ele>1094</ele>
        <time>2016-08-28T08:09:25Z</time>
      </trkpt>
      <trkpt lat="45.03416" lon="5.53296">
        <ele>1099</ele>
        <time>2016-08-28T08:09:27Z</time>
      </trkpt>
      <trkpt lat="45.03407" lon="5.53286">
        <ele>1099</ele>
        <time>2016-08-28T08:09:29Z</time>
      </trkpt>
      <trkpt lat="45.03399" lon="5.53276">
        <ele>1099</ele>
        <time>2016-08-28T08:09:31Z</time>
      </trkpt>
      <trkpt lat="45.03391" lon="5.53265">
        <ele>1099</ele>
        <time>2016-08-28T08:09:33Z</time>
      </trkpt>
      <trkpt lat="45.03384" lon="5.53253">
        <ele>1099</ele>
        <time>2016-08-28T08:09:35Z</time>
      </trkpt>
      <trkpt lat="45.03375" lon="5.5324">
        <ele>1096</ele>
        <time>2016-08-28T08:09:37Z</time>
      </trkpt>
      <trkpt lat="45.03367" lon="5.53228">
        <ele>1097</ele>
        <time>2016-08-28T08:09:39Z</time>
      </trkpt>
      <trkpt lat="45.03363" lon="5.53216">
        <ele>1097</ele>
        <time>2016-08-28T08:09:41Z</time>
      </trkpt>
      <trkpt lat="45.03362" lon="5.53199">
        <ele>1096</ele>
        <time>2016-08-28T08:09:44Z</time>
      </trkpt>
      <trkpt lat="45.03358" lon="5.53185">
        <ele>1096</ele>
        <time>2016-08-28T08:09:46Z</time>
      </trkpt>
      <trkpt lat="45.03354" lon="5.5317">
        <ele>1096</ele>
        <time>2016-08-28T08:09:48Z</time>
      </trkpt>
      <trkpt lat="45.03351" lon="5.53156">
        <ele>1095</ele>
        <time>2016-08-28T08:09:50Z</time>
      </trkpt>
      <trkpt lat="45.03346" lon="5.53142">
        <ele>1094</ele>
        <time>2016-08-28T08:09:52Z</time>
      </trkpt>
      <trkpt lat="45.03341" lon="5.5313">
        <ele>1094</ele>
        <time>2016-08-28T08:09:54Z</time>
      </trkpt>
      <trkpt lat="45.03331" lon="5.53122">
        <ele>1096</ele>
        <time>2016-08-28T08:09:56Z</time>
      </trkpt>
      <trkpt lat="45.03318" lon="5.53124">
        <ele>1096</ele>
        <time>2016-08-28T08:09:59Z</time>
      </trkpt>
      <trkpt lat="45.0331" lon="5.53131">
        <ele>1097</ele>
        <time>2016-08-28T08:10:02Z</time>
      </trkpt>
      <trkpt lat="45.033" lon="5.53139">
        <ele>1097</ele>
        <time>2016-08-28T08:10:06Z</time>
      </trkpt>
      <trkpt lat="45.03288" lon="5.53144">
        <ele>1098</ele>
        <time>2016-08-28T08:10:11Z</time>
      </trkpt>
      <trkpt lat="45.03276" lon="5.53139">
        <ele>1098</ele>
        <time>2016-08-28T08:10:15Z</time>
      </trkpt>
      <trkpt lat="45.03267" lon="5.53133">
        <ele>1098</ele>
        <time>2016-08-28T08:10:17Z</time>
      </trkpt>
      <trkpt lat="45.03258" lon="5.53125">
        <ele>1098</ele>
        <time>2016-08-28T08:10:19Z</time>
      </trkpt>
      <trkpt lat="45.03245" lon="5.53116">
        <ele>1104</ele>
        <time>2016-08-28T08:10:21Z</time>
      </trkpt>
      <trkpt lat="45.03246" lon="5.53101">
        <ele>1102</ele>
        <time>2016-08-28T08:10:26Z</time>
      </trkpt>
      <trkpt lat="45.03244" lon="5.53086">
        <ele>1100</ele>
        <time>2016-08-28T08:10:31Z</time>
      </trkpt>
      <trkpt lat="45.03236" lon="5.53077">
        <ele>1100</ele>
        <time>2016-08-28T08:10:34Z</time>
      </trkpt>
      <trkpt lat="45.03229" lon="5.53068">
        <ele>1101</ele>
        <time>2016-08-28T08:10:38Z</time>
      </trkpt>
      <trkpt lat="45.03217" lon="5.53062">
        <ele>1101</ele>
        <time>2016-08-28T08:10:42Z</time>
      </trkpt>
      <trkpt lat="45.03209" lon="5.53054">
        <ele>1102</ele>
        <time>2016-08-28T08:10:47Z</time>
      </trkpt>
      <trkpt lat="45.03199" lon="5.53047">
        <ele>1102</ele>
        <time>2016-08-28T08:10:53Z</time>
      </trkpt>
      <trkpt lat="45.03189" lon="5.53043">
        <ele>1102</ele>
        <time>2016-08-28T08:10:56Z</time>
      </trkpt>
      <trkpt lat="45.03178" lon="5.53042">
        <ele>1103</ele>
        <time>2016-08-28T08:10:59Z</time>
      </trkpt>
      <trkpt lat="45.03167" lon="5.5304">
        <ele>1103</ele>
        <time>2016-08-28T08:11:02Z</time>
      </trkpt>
      <trkpt lat="45.03158" lon="5.53034">
        <ele>1107</ele>
        <time>2016-08-28T08:11:06Z</time>
      </trkpt>
      <trkpt lat="45.03146" lon="5.53029">
        <ele>1108</ele>
        <time>2016-08-28T08:11:10Z</time>
      </trkpt>
      <trkpt lat="45.03136" lon="5.53028">
        <ele>1108</ele>
        <time>2016-08-28T08:11:13Z</time>
      </trkpt>
      <trkpt lat="45.03125" lon="5.53027">
        <ele>1109</ele>
        <time>2016-08-28T08:11:17Z</time>
      </trkpt>
      <trkpt lat="45.03114" lon="5.5303">
        <ele>1109</ele>
        <time>2016-08-28T08:11:21Z</time>
      </trkpt>
      <trkpt lat="45.03105" lon="5.53033">
        <ele>1110</ele>
        <time>2016-08-28T08:11:25Z</time>
      </trkpt>
      <trkpt lat="45.03095" lon="5.53034">
        <ele>1110</ele>
        <time>2016-08-28T08:11:30Z</time>
      </trkpt>
      <trkpt lat="45.03085" lon="5.53035">
        <ele>1110</ele>
        <time>2016-08-28T08:11:35Z</time>
      </trkpt>
      <trkpt lat="45.03076" lon="5.53033">
        <ele>1114</ele>
        <time>2016-08-28T08:11:40Z</time>
      </trkpt>
      <trkpt lat="45.03066" lon="5.53031">
        <ele>1114</ele>
        <time>2016-08-28T08:11:45Z</time>
      </trkpt>
      <trkpt lat="45.03055" lon="5.53029">
        <ele>1115</ele>
        <time>2016-08-28T08:11:49Z</time>
      </trkpt>
      <trkpt lat="45.03045" lon="5.53025">
        <ele>1115</ele>
        <time>2016-08-28T08:11:54Z</time>
      </trkpt>
      <trkpt lat="45.03035" lon="5.53022">
        <ele>1115</ele>
        <time>2016-08-28T08:11:59Z</time>
      </trkpt>
      <trkpt lat="45.03024" lon="5.53019">
        <ele>1115</ele>
        <time>2016-08-28T08:12:04Z</time>
      </trkpt>
      <trkpt lat="45.03013" lon="5.53019">
        <ele>1115</ele>
        <time>2016-08-28T08:12:09Z</time>
      </trkpt>
      <trkpt lat="45.03004" lon="5.53018">
        <ele>1114</ele>
        <time>2016-08-28T08:12:13Z</time>
      </trkpt>
      <trkpt lat="45.02993" lon="5.5302">
        <ele>1118</ele>
        <time>2016-08-28T08:12:19Z</time>
      </trkpt>
      <trkpt lat="45.02983" lon="5.53023">
        <ele>1119</ele>
        <time>2016-08-28T08:12:24Z</time>
      </trkpt>
      <trkpt lat="45.02974" lon="5.53025">
        <ele>1120</ele>
        <time>2016-08-28T08:12:29Z</time>
      </trkpt>
      <trkpt lat="45.02964" lon="5.53029">
        <ele>1120</ele>
        <time>2016-08-28T08:12:37Z</time>
      </trkpt>
      <trkpt lat="45.02955" lon="5.53033">
        <ele>1121</ele>
        <time>2016-08-28T08:12:43Z</time>
      </trkpt>
      <trkpt lat="45.02945" lon="5.53034">
        <ele>1122</ele>
        <time>2016-08-28T08:12:49Z</time>
      </trkpt>
      <trkpt lat="45.02935" lon="5.53033">
        <ele>1122</ele>
        <time>2016-08-28T08:12:55Z</time>
      </trkpt>
      <trkpt lat="45.02924" lon="5.53032">
        <ele>1122</ele>
        <time>2016-08-28T08:13:01Z</time>
      </trkpt>
      <trkpt lat="45.02914" lon="5.53031">
        <ele>1129</ele>
        <time>2016-08-28T08:13:06Z</time>
      </trkpt>
      <trkpt lat="45.02904" lon="5.53029">
        <ele>1130</ele>
        <time>2016-08-28T08:13:12Z</time>
      </trkpt>
      <trkpt lat="45.02894" lon="5.53024">
        <ele>1130</ele>
        <time>2016-08-28T08:13:17Z</time>
      </trkpt>
      <trkpt lat="45.02885" lon="5.53018">
        <ele>1131</ele>
        <time>2016-08-28T08:13:22Z</time>
      </trkpt>
      <trkpt lat="45.02877" lon="5.53009">
        <ele>1132</ele>
        <time>2016-08-28T08:13:28Z</time>
      </trkpt>
      <trkpt lat="45.02869" lon="5.53001">
        <ele>1133</ele>
        <time>2016-08-28T08:13:33Z</time>
      </trkpt>
      <trkpt lat="45.02862" lon="5.52992">
        <ele>1130</ele>
        <time>2016-08-28T08:13:39Z</time>
      </trkpt>
      <trkpt lat="45.02853" lon="5.52982">
        <ele>1131</ele>
        <time>2016-08-28T08:13:43Z</time>
      </trkpt>
      <trkpt lat="45.02843" lon="5.52975">
        <ele>1131</ele>
        <time>2016-08-28T08:13:47Z</time>
      </trkpt>
      <trkpt lat="45.02832" lon="5.52966">
        <ele>1140</ele>
        <time>2016-08-28T08:13:51Z</time>
      </trkpt>
      <trkpt lat="45.02824" lon="5.52955">
        <ele>1139</ele>
        <time>2016-08-28T08:13:55Z</time>
      </trkpt>
      <trkpt lat="45.02824" lon="5.52941">
        <ele>1138</ele>
        <time>2016-08-28T08:13:58Z</time>
      </trkpt>
      <trkpt lat="45.0283" lon="5.52925">
        <ele>1134</ele>
        <time>2016-08-28T08:14:01Z</time>
      </trkpt>
      <trkpt lat="45.02839" lon="5.52914">
        <ele>1129</ele>
        <time>2016-08-28T08:14:03Z</time>
      </trkpt>
      <trkpt lat="45.0285" lon="5.52899">
        <ele>1126</ele>
        <time>2016-08-28T08:14:05Z</time>
      </trkpt>
      <trkpt lat="45.02859" lon="5.52881">
        <ele>1124</ele>
        <time>2016-08-28T08:14:07Z</time>
      </trkpt>
      <trkpt lat="45.02868" lon="5.52865">
        <ele>1123</ele>
        <time>2016-08-28T08:14:09Z</time>
      </trkpt>
      <trkpt lat="45.02878" lon="5.52848">
        <ele>1122</ele>
        <time>2016-08-28T08:14:11Z</time>
      </trkpt>
      <trkpt lat="45.02885" lon="5.52835">
        <ele>1121</ele>
        <time>2016-08-28T08:14:13Z</time>
      </trkpt>
      <trkpt lat="45.0289" lon="5.52821">
        <ele>1119</ele>
        <time>2016-08-28T08:14:15Z</time>
      </trkpt>
      <trkpt lat="45.02893" lon="5.52808">
        <ele>1119</ele>
        <time>2016-08-28T08:14:17Z</time>
      </trkpt>
      <trkpt lat="45.02897" lon="5.52791">
        <ele>1118</ele>
        <time>2016-08-28T08:14:20Z</time>
      </trkpt>
      <trkpt lat="45.02908" lon="5.52783">
        <ele>1117</ele>
        <time>2016-08-28T08:14:23Z</time>
      </trkpt>
      <trkpt lat="45.0292" lon="5.52778">
        <ele>1110</ele>
        <time>2016-08-28T08:14:26Z</time>
      </trkpt>
      <trkpt lat="45.02928" lon="5.52769">
        <ele>1110</ele>
        <time>2016-08-28T08:14:30Z</time>
      </trkpt>
      <trkpt lat="45.02923" lon="5.52758">
        <ele>1110</ele>
        <time>2016-08-28T08:14:32Z</time>
      </trkpt>
      <trkpt lat="45.02916" lon="5.52743">
        <ele>1111</ele>
        <time>2016-08-28T08:14:35Z</time>
      </trkpt>
      <trkpt lat="45.02906" lon="5.52735">
        <ele>1112</ele>
        <time>2016-08-28T08:14:39Z</time>
      </trkpt>
      <trkpt lat="45.02897" lon="5.52728">
        <ele>1113</ele>
        <time>2016-08-28T08:14:44Z</time>
      </trkpt>
      <trkpt lat="45.02889" lon="5.52718">
        <ele>1114</ele>
        <time>2016-08-28T08:14:49Z</time>
      </trkpt>
      <trkpt lat="45.02881" lon="5.5271">
        <ele>1114</ele>
        <time>2016-08-28T08:14:53Z</time>
      </trkpt>
      <trkpt lat="45.02873" lon="5.52702">
        <ele>1115</ele>
        <time>2016-08-28T08:14:56Z</time>
      </trkpt>
      <trkpt lat="45.02863" lon="5.52695">
        <ele>1115</ele>
        <time>2016-08-28T08:14:59Z</time>
      </trkpt>
      <trkpt lat="45.02853" lon="5.52689">
        <ele>1116</ele>
        <time>2016-08-28T08:15:02Z</time>
      </trkpt>
      <trkpt lat="45.02843" lon="5.52684">
        <ele>1116</ele>
        <time>2016-08-28T08:15:05Z</time>
      </trkpt>
      <trkpt lat="45.02834" lon="5.52678">
        <ele>1117</ele>
        <time>2016-08-28T08:15:09Z</time>
      </trkpt>
      <trkpt lat="45.02825" lon="5.52669">
        <ele>1121</ele>
        <time>2016-08-28T08:15:14Z</time>
      </trkpt>
      <trkpt lat="45.02817" lon="5.5266">
        <ele>1120</ele>
        <time>2016-08-28T08:15:18Z</time>
      </trkpt>
      <trkpt lat="45.02811" lon="5.52648">
        <ele>1121</ele>
        <time>2016-08-28T08:15:22Z</time>
      </trkpt>
      <trkpt lat="45.02806" lon="5.52634">
        <ele>1121</ele>
        <time>2016-08-28T08:15:26Z</time>
      </trkpt>
      <trkpt lat="45.02804" lon="5.52619">
        <ele>1121</ele>
        <time>2016-08-28T08:15:29Z</time>
      </trkpt>
      <trkpt lat="45.028" lon="5.52604">
        <ele>1121</ele>
        <time>2016-08-28T08:15:32Z</time>
      </trkpt>
      <trkpt lat="45.02799" lon="5.52589">
        <ele>1121</ele>
        <time>2016-08-28T08:15:35Z</time>
      </trkpt>
      <trkpt lat="45.02799" lon="5.5257">
        <ele>1120</ele>
        <time>2016-08-28T08:15:38Z</time>
      </trkpt>
      <trkpt lat="45.02799" lon="5.52552">
        <ele>1120</ele>
        <time>2016-08-28T08:15:41Z</time>
      </trkpt>
      <trkpt lat="45.02799" lon="5.52536">
        <ele>1120</ele>
        <time>2016-08-28T08:15:44Z</time>
      </trkpt>
      <trkpt lat="45.02799" lon="5.52521">
        <ele>1120</ele>
        <time>2016-08-28T08:15:47Z</time>
      </trkpt>
      <trkpt lat="45.028" lon="5.52505">
        <ele>1120</ele>
        <time>2016-08-28T08:15:50Z</time>
      </trkpt>
      <trkpt lat="45.02797" lon="5.52486">
        <ele>1119</ele>
        <time>2016-08-28T08:15:53Z</time>
      </trkpt>
      <trkpt lat="45.0279" lon="5.52471">
        <ele>1120</ele>
        <time>2016-08-28T08:15:56Z</time>
      </trkpt>
      <trkpt lat="45.02782" lon="5.52458">
        <ele>1120</ele>
        <time>2016-08-28T08:15:59Z</time>
      </trkpt>
      <trkpt lat="45.02778" lon="5.52444">
        <ele>1120</ele>
        <time>2016-08-28T08:16:02Z</time>
      </trkpt>
      <trkpt lat="45.02775" lon="5.52431">
        <ele>1120</ele>
        <time>2016-08-28T08:16:05Z</time>
      </trkpt>
      <trkpt lat="45.02771" lon="5.52417">
        <ele>1120</ele>
        <time>2016-08-28T08:16:08Z</time>
      </trkpt>
      <trkpt lat="45.02766" lon="5.52402">
        <ele>1120</ele>
        <time>2016-08-28T08:16:11Z</time>
      </trkpt>
      <trkpt lat="45.0276" lon="5.52388">
        <ele>1120</ele>
        <time>2016-08-28T08:16:14Z</time>
      </trkpt>
      <trkpt lat="45.02753" lon="5.52373">
        <ele>1120</ele>
        <time>2016-08-28T08:16:17Z</time>
      </trkpt>
      <trkpt lat="45.02747" lon="5.52358">
        <ele>1124</ele>
        <time>2016-08-28T08:16:20Z</time>
      </trkpt>
      <trkpt lat="45.02742" lon="5.52342">
        <ele>1123</ele>
        <time>2016-08-28T08:16:23Z</time>
      </trkpt>
      <trkpt lat="45.02736" lon="5.52326">
        <ele>1123</ele>
        <time>2016-08-28T08:16:26Z</time>
      </trkpt>
      <trkpt lat="45.02729" lon="5.5231">
        <ele>1123</ele>
        <time>2016-08-28T08:16:29Z</time>
      </trkpt>
      <trkpt lat="45.02723" lon="5.52295">
        <ele>1123</ele>
        <time>2016-08-28T08:16:32Z</time>
      </trkpt>
      <trkpt lat="45.02718" lon="5.5228">
        <ele>1123</ele>
        <time>2016-08-28T08:16:35Z</time>
      </trkpt>
      <trkpt lat="45.02711" lon="5.52265">
        <ele>1123</ele>
        <time>2016-08-28T08:16:38Z</time>
      </trkpt>
      <trkpt lat="45.02704" lon="5.52253">
        <ele>1123</ele>
        <time>2016-08-28T08:16:41Z</time>
      </trkpt>
      <trkpt lat="45.02697" lon="5.52239">
        <ele>1122</ele>
        <time>2016-08-28T08:16:44Z</time>
      </trkpt>
      <trkpt lat="45.02685" lon="5.52222">
        <ele>1123</ele>
        <time>2016-08-28T08:16:49Z</time>
      </trkpt>
      <trkpt lat="45.02676" lon="5.52216">
        <ele>1123</ele>
        <time>2016-08-28T08:16:53Z</time>
      </trkpt>
      <trkpt lat="45.02669" lon="5.52206">
        <ele>1122</ele>
        <time>2016-08-28T08:16:58Z</time>
      </trkpt>
      <trkpt lat="45.02661" lon="5.52198">
        <ele>1129</ele>
        <time>2016-08-28T08:17:03Z</time>
      </trkpt>
      <trkpt lat="45.02652" lon="5.52189">
        <ele>1129</ele>
        <time>2016-08-28T08:17:08Z</time>
      </trkpt>
      <trkpt lat="45.02644" lon="5.52183">
        <ele>1129</ele>
        <time>2016-08-28T08:17:12Z</time>
      </trkpt>
      <trkpt lat="45.02635" lon="5.52176">
        <ele>1130</ele>
        <time>2016-08-28T08:17:16Z</time>
      </trkpt>
      <trkpt lat="45.02628" lon="5.52165">
        <ele>1127</ele>
        <time>2016-08-28T08:17:20Z</time>
      </trkpt>
      <trkpt lat="45.0262" lon="5.52153">
        <ele>1128</ele>
        <time>2016-08-28T08:17:24Z</time>
      </trkpt>
      <trkpt lat="45.02613" lon="5.52143">
        <ele>1128</ele>
        <time>2016-08-28T08:17:27Z</time>
      </trkpt>
      <trkpt lat="45.02602" lon="5.52132">
        <ele>1128</ele>
        <time>2016-08-28T08:17:31Z</time>
      </trkpt>
      <trkpt lat="45.02594" lon="5.52125">
        <ele>1129</ele>
        <time>2016-08-28T08:17:34Z</time>
      </trkpt>
      <trkpt lat="45.02586" lon="5.52116">
        <ele>1129</ele>
        <time>2016-08-28T08:17:37Z</time>
      </trkpt>
      <trkpt lat="45.02578" lon="5.52106">
        <ele>1137</ele>
        <time>2016-08-28T08:17:40Z</time>
      </trkpt>
      <trkpt lat="45.02581" lon="5.52091">
        <ele>1134</ele>
        <time>2016-08-28T08:17:44Z</time>
      </trkpt>
      <trkpt lat="45.02588" lon="5.52081">
        <ele>1130</ele>
        <time>2016-08-28T08:17:47Z</time>
      </trkpt>
      <trkpt lat="45.02597" lon="5.52075">
        <ele>1127</ele>
        <time>2016-08-28T08:17:50Z</time>
      </trkpt>
      <trkpt lat="45.02606" lon="5.5207">
        <ele>1126</ele>
        <time>2016-08-28T08:18:20Z</time>
      </trkpt>
      <trkpt lat="45.02606" lon="5.52056">
        <ele>1125</ele>
        <time>2016-08-28T08:18:27Z</time>
      </trkpt>
      <trkpt lat="45.02604" lon="5.52042">
        <ele>1125</ele>
        <time>2016-08-28T08:18:36Z</time>
      </trkpt>
      <trkpt lat="45.02602" lon="5.52027">
        <ele>1125</ele>
        <time>2016-08-28T08:18:45Z</time>
      </trkpt>
      <trkpt lat="45.02593" lon="5.52026">
        <ele>1125</ele>
        <time>2016-08-28T08:18:54Z</time>
      </trkpt>
      <trkpt lat="45.02592" lon="5.52013">
        <ele>1126</ele>
        <time>2016-08-28T08:19:12Z</time>
      </trkpt>
      <trkpt lat="45.02584" lon="5.52007">
        <ele>1126</ele>
        <time>2016-08-28T08:19:26Z</time>
      </trkpt>
      <trkpt lat="45.02577" lon="5.51995">
        <ele>1130</ele>
        <time>2016-08-28T08:19:38Z</time>
      </trkpt>
      <trkpt lat="45.02567" lon="5.5199">
        <ele>1132</ele>
        <time>2016-08-28T08:19:47Z</time>
      </trkpt>
      <trkpt lat="45.02558" lon="5.51985">
        <ele>1134</ele>
        <time>2016-08-28T08:19:53Z</time>
      </trkpt>
      <trkpt lat="45.02549" lon="5.51979">
        <ele>1135</ele>
        <time>2016-08-28T08:20:03Z</time>
      </trkpt>
      <trkpt lat="45.02543" lon="5.51969">
        <ele>1136</ele>
        <time>2016-08-28T08:20:10Z</time>
      </trkpt>
      <trkpt lat="45.02536" lon="5.51958">
        <ele>1137</ele>
        <time>2016-08-28T08:20:20Z</time>
      </trkpt>
      <trkpt lat="45.02526" lon="5.51949">
        <ele>1138</ele>
        <time>2016-08-28T08:20:25Z</time>
      </trkpt>
      <trkpt lat="45.0252" lon="5.51939">
        <ele>1138</ele>
        <time>2016-08-28T08:20:30Z</time>
      </trkpt>
      <trkpt lat="45.02515" lon="5.51927">
        <ele>1139</ele>
        <time>2016-08-28T08:20:38Z</time>
      </trkpt>
      <trkpt lat="45.02509" lon="5.51916">
        <ele>1141</ele>
        <time>2016-08-28T08:20:45Z</time>
      </trkpt>
      <trkpt lat="45.02505" lon="5.51903">
        <ele>1140</ele>
        <time>2016-08-28T08:20:53Z</time>
      </trkpt>
      <trkpt lat="45.02502" lon="5.51889">
        <ele>1139</ele>
        <time>2016-08-28T08:21:00Z</time>
      </trkpt>
      <trkpt lat="45.02495" lon="5.5188">
        <ele>1146</ele>
        <time>2016-08-28T08:21:05Z</time>
      </trkpt>
      <trkpt lat="45.02487" lon="5.51867">
        <ele>1146</ele>
        <time>2016-08-28T08:21:14Z</time>
      </trkpt>
      <trkpt lat="45.02479" lon="5.51858">
        <ele>1146</ele>
        <time>2016-08-28T08:21:18Z</time>
      </trkpt>
      <trkpt lat="45.02471" lon="5.51848">
        <ele>1146</ele>
        <time>2016-08-28T08:21:22Z</time>
      </trkpt>
      <trkpt lat="45.02465" lon="5.51835">
        <ele>1146</ele>
        <time>2016-08-28T08:21:25Z</time>
      </trkpt>
      <trkpt lat="45.02457" lon="5.51823">
        <ele>1146</ele>
        <time>2016-08-28T08:21:27Z</time>
      </trkpt>
      <trkpt lat="45.02449" lon="5.51807">
        <ele>1146</ele>
        <time>2016-08-28T08:21:29Z</time>
      </trkpt>
      <trkpt lat="45.02441" lon="5.51793">
        <ele>1146</ele>
        <time>2016-08-28T08:21:31Z</time>
      </trkpt>
      <trkpt lat="45.02435" lon="5.51781">
        <ele>1146</ele>
        <time>2016-08-28T08:21:33Z</time>
      </trkpt>
      <trkpt lat="45.02427" lon="5.5177">
        <ele>1146</ele>
        <time>2016-08-28T08:21:36Z</time>
      </trkpt>
      <trkpt lat="45.02419" lon="5.51762">
        <ele>1146</ele>
        <time>2016-08-28T08:21:40Z</time>
      </trkpt>
      <trkpt lat="45.0241" lon="5.51757">
        <ele>1147</ele>
        <time>2016-08-28T08:21:44Z</time>
      </trkpt>
      <trkpt lat="45.02401" lon="5.51752">
        <ele>1149</ele>
        <time>2016-08-28T08:21:50Z</time>
      </trkpt>
      <trkpt lat="45.0239" lon="5.5175">
        <ele>1152</ele>
        <time>2016-08-28T08:21:56Z</time>
      </trkpt>
      <trkpt lat="45.02377" lon="5.5175">
        <ele>1153</ele>
        <time>2016-08-28T08:21:59Z</time>
      </trkpt>
      <trkpt lat="45.02367" lon="5.51749">
        <ele>1154</ele>
        <time>2016-08-28T08:22:03Z</time>
      </trkpt>
      <trkpt lat="45.02357" lon="5.51745">
        <ele>1154</ele>
        <time>2016-08-28T08:22:07Z</time>
      </trkpt>
      <trkpt lat="45.02346" lon="5.51745">
        <ele>1155</ele>
        <time>2016-08-28T08:22:14Z</time>
      </trkpt>
      <trkpt lat="45.02334" lon="5.51744">
        <ele>1155</ele>
        <time>2016-08-28T08:22:18Z</time>
      </trkpt>
      <trkpt lat="45.02322" lon="5.51741">
        <ele>1157</ele>
        <time>2016-08-28T08:22:22Z</time>
      </trkpt>
      <trkpt lat="45.0231" lon="5.51738">
        <ele>1157</ele>
        <time>2016-08-28T08:22:26Z</time>
      </trkpt>
      <trkpt lat="45.02299" lon="5.51733">
        <ele>1158</ele>
        <time>2016-08-28T08:22:30Z</time>
      </trkpt>
      <trkpt lat="45.02289" lon="5.51728">
        <ele>1158</ele>
        <time>2016-08-28T08:22:34Z</time>
      </trkpt>
      <trkpt lat="45.02278" lon="5.51723">
        <ele>1159</ele>
        <time>2016-08-28T08:22:38Z</time>
      </trkpt>
      <trkpt lat="45.02268" lon="5.51721">
        <ele>1159</ele>
        <time>2016-08-28T08:22:43Z</time>
      </trkpt>
      <trkpt lat="45.02257" lon="5.5172">
        <ele>1159</ele>
        <time>2016-08-28T08:22:47Z</time>
      </trkpt>
      <trkpt lat="45.02248" lon="5.51717">
        <ele>1160</ele>
        <time>2016-08-28T08:22:50Z</time>
      </trkpt>
      <trkpt lat="45.02237" lon="5.51717">
        <ele>1160</ele>
        <time>2016-08-28T08:22:53Z</time>
      </trkpt>
      <trkpt lat="45.02226" lon="5.51714">
        <ele>1160</ele>
        <time>2016-08-28T08:22:57Z</time>
      </trkpt>
      <trkpt lat="45.02217" lon="5.51708">
        <ele>1161</ele>
        <time>2016-08-28T08:23:01Z</time>
      </trkpt>
      <trkpt lat="45.02208" lon="5.51699">
        <ele>1161</ele>
        <time>2016-08-28T08:23:05Z</time>
      </trkpt>
      <trkpt lat="45.02206" lon="5.51683">
        <ele>1161</ele>
        <time>2016-08-28T08:23:08Z</time>
      </trkpt>
      <trkpt lat="45.02204" lon="5.51666">
        <ele>1162</ele>
        <time>2016-08-28T08:23:11Z</time>
      </trkpt>
      <trkpt lat="45.022" lon="5.51649">
        <ele>1162</ele>
        <time>2016-08-28T08:23:14Z</time>
      </trkpt>
      <trkpt lat="45.02197" lon="5.51637">
        <ele>1162</ele>
        <time>2016-08-28T08:23:17Z</time>
      </trkpt>
      <trkpt lat="45.02192" lon="5.51622">
        <ele>1163</ele>
        <time>2016-08-28T08:23:21Z</time>
      </trkpt>
      <trkpt lat="45.02184" lon="5.51609">
        <ele>1163</ele>
        <time>2016-08-28T08:23:25Z</time>
      </trkpt>
      <trkpt lat="45.02176" lon="5.516">
        <ele>1163</ele>
        <time>2016-08-28T08:23:28Z</time>
      </trkpt>
      <trkpt lat="45.02169" lon="5.5159">
        <ele>1163</ele>
        <time>2016-08-28T08:23:31Z</time>
      </trkpt>
      <trkpt lat="45.02162" lon="5.5158">
        <ele>1164</ele>
        <time>2016-08-28T08:23:34Z</time>
      </trkpt>
      <trkpt lat="45.02155" lon="5.51569">
        <ele>1165</ele>
        <time>2016-08-28T08:23:37Z</time>
      </trkpt>
      <trkpt lat="45.02149" lon="5.51555">
        <ele>1166</ele>
        <time>2016-08-28T08:23:41Z</time>
      </trkpt>
      <trkpt lat="45.02144" lon="5.51541">
        <ele>1166</ele>
        <time>2016-08-28T08:23:46Z</time>
      </trkpt>
      <trkpt lat="45.02141" lon="5.51529">
        <ele>1167</ele>
        <time>2016-08-28T08:23:50Z</time>
      </trkpt>
      <trkpt lat="45.02138" lon="5.51516">
        <ele>1167</ele>
        <time>2016-08-28T08:23:54Z</time>
      </trkpt>
      <trkpt lat="45.02135" lon="5.51504">
        <ele>1167</ele>
        <time>2016-08-28T08:23:59Z</time>
      </trkpt>
      <trkpt lat="45.02133" lon="5.51489">
        <ele>1171</ele>
        <time>2016-08-28T08:24:05Z</time>
      </trkpt>
      <trkpt lat="45.02132" lon="5.51476">
        <ele>1171</ele>
        <time>2016-08-28T08:24:12Z</time>
      </trkpt>
      <trkpt lat="45.02132" lon="5.51462">
        <ele>1172</ele>
        <time>2016-08-28T08:24:17Z</time>
      </trkpt>
      <trkpt lat="45.0213" lon="5.51447">
        <ele>1172</ele>
        <time>2016-08-28T08:24:22Z</time>
      </trkpt>
      <trkpt lat="45.02127" lon="5.51434">
        <ele>1172</ele>
        <time>2016-08-28T08:24:27Z</time>
      </trkpt>
      <trkpt lat="45.02123" lon="5.5142">
        <ele>1173</ele>
        <time>2016-08-28T08:24:32Z</time>
      </trkpt>
      <trkpt lat="45.02116" lon="5.51408">
        <ele>1176</ele>
        <time>2016-08-28T08:24:36Z</time>
      </trkpt>
      <trkpt lat="45.02106" lon="5.51396">
        <ele>1176</ele>
        <time>2016-08-28T08:24:40Z</time>
      </trkpt>
      <trkpt lat="45.02098" lon="5.51382">
        <ele>1176</ele>
        <time>2016-08-28T08:24:44Z</time>
      </trkpt>
      <trkpt lat="45.02093" lon="5.51369">
        <ele>1176</ele>
        <time>2016-08-28T08:24:47Z</time>
      </trkpt>
      <trkpt lat="45.02088" lon="5.51357">
        <ele>1176</ele>
        <time>2016-08-28T08:24:50Z</time>
      </trkpt>
      <trkpt lat="45.02077" lon="5.51348">
        <ele>1175</ele>
        <time>2016-08-28T08:24:54Z</time>
      </trkpt>
      <trkpt lat="45.02069" lon="5.51337">
        <ele>1175</ele>
        <time>2016-08-28T08:24:58Z</time>
      </trkpt>
      <trkpt lat="45.02062" lon="5.51326">
        <ele>1176</ele>
        <time>2016-08-28T08:25:01Z</time>
      </trkpt>
      <trkpt lat="45.02056" lon="5.51312">
        <ele>1177</ele>
        <time>2016-08-28T08:25:04Z</time>
      </trkpt>
      <trkpt lat="45.02052" lon="5.513">
        <ele>1177</ele>
        <time>2016-08-28T08:25:07Z</time>
      </trkpt>
      <trkpt lat="45.02052" lon="5.51286">
        <ele>1178</ele>
        <time>2016-08-28T08:25:10Z</time>
      </trkpt>
      <trkpt lat="45.02051" lon="5.51271">
        <ele>1178</ele>
        <time>2016-08-28T08:25:14Z</time>
      </trkpt>
      <trkpt lat="45.02049" lon="5.51257">
        <ele>1178</ele>
        <time>2016-08-28T08:25:18Z</time>
      </trkpt>
      <trkpt lat="45.02046" lon="5.51242">
        <ele>1182</ele>
        <time>2016-08-28T08:25:22Z</time>
      </trkpt>
      <trkpt lat="45.02045" lon="5.51228">
        <ele>1183</ele>
        <time>2016-08-28T08:25:29Z</time>
      </trkpt>
      <trkpt lat="45.02044" lon="5.51213">
        <ele>1183</ele>
        <time>2016-08-28T08:25:34Z</time>
      </trkpt>
      <trkpt lat="45.02041" lon="5.512">
        <ele>1184</ele>
        <time>2016-08-28T08:25:38Z</time>
      </trkpt>
      <trkpt lat="45.02039" lon="5.51187">
        <ele>1184</ele>
        <time>2016-08-28T08:25:43Z</time>
      </trkpt>
      <trkpt lat="45.02037" lon="5.51174">
        <ele>1185</ele>
        <time>2016-08-28T08:25:48Z</time>
      </trkpt>
      <trkpt lat="45.02033" lon="5.51161">
        <ele>1189</ele>
        <time>2016-08-28T08:25:52Z</time>
      </trkpt>
      <trkpt lat="45.02028" lon="5.51149">
        <ele>1190</ele>
        <time>2016-08-28T08:25:56Z</time>
      </trkpt>
      <trkpt lat="45.02028" lon="5.51134">
        <ele>1190</ele>
        <time>2016-08-28T08:26:01Z</time>
      </trkpt>
      <trkpt lat="45.02028" lon="5.5112">
        <ele>1191</ele>
        <time>2016-08-28T08:26:05Z</time>
      </trkpt>
      <trkpt lat="45.02027" lon="5.51105">
        <ele>1192</ele>
        <time>2016-08-28T08:26:09Z</time>
      </trkpt>
      <trkpt lat="45.02021" lon="5.51091">
        <ele>1193</ele>
        <time>2016-08-28T08:26:14Z</time>
      </trkpt>
      <trkpt lat="45.02019" lon="5.51078">
        <ele>1196</ele>
        <time>2016-08-28T08:26:21Z</time>
      </trkpt>
      <trkpt lat="45.02021" lon="5.51063">
        <ele>1196</ele>
        <time>2016-08-28T08:26:27Z</time>
      </trkpt>
      <trkpt lat="45.02018" lon="5.5105">
        <ele>1197</ele>
        <time>2016-08-28T08:26:32Z</time>
      </trkpt>
      <trkpt lat="45.02013" lon="5.51037">
        <ele>1197</ele>
        <time>2016-08-28T08:26:37Z</time>
      </trkpt>
      <trkpt lat="45.0201" lon="5.51022">
        <ele>1198</ele>
        <time>2016-08-28T08:26:42Z</time>
      </trkpt>
      <trkpt lat="45.0201" lon="5.51007">
        <ele>1199</ele>
        <time>2016-08-28T08:26:48Z</time>
      </trkpt>
      <trkpt lat="45.02007" lon="5.50993">
        <ele>1201</ele>
        <time>2016-08-28T08:26:53Z</time>
      </trkpt>
      <trkpt lat="45.02003" lon="5.50982">
        <ele>1202</ele>
        <time>2016-08-28T08:26:58Z</time>
      </trkpt>
      <trkpt lat="45.01997" lon="5.50968">
        <ele>1206</ele>
        <time>2016-08-28T08:27:03Z</time>
      </trkpt>
      <trkpt lat="45.01995" lon="5.50955">
        <ele>1207</ele>
        <time>2016-08-28T08:27:08Z</time>
      </trkpt>
      <trkpt lat="45.01988" lon="5.50946">
        <ele>1208</ele>
        <time>2016-08-28T08:27:14Z</time>
      </trkpt>
      <trkpt lat="45.01983" lon="5.50931">
        <ele>1208</ele>
        <time>2016-08-28T08:27:22Z</time>
      </trkpt>
      <trkpt lat="45.01976" lon="5.50921">
        <ele>1208</ele>
        <time>2016-08-28T08:27:29Z</time>
      </trkpt>
      <trkpt lat="45.01969" lon="5.5091">
        <ele>1213</ele>
        <time>2016-08-28T08:27:34Z</time>
      </trkpt>
      <trkpt lat="45.01962" lon="5.50898">
        <ele>1214</ele>
        <time>2016-08-28T08:27:40Z</time>
      </trkpt>
      <trkpt lat="45.01955" lon="5.5089">
        <ele>1215</ele>
        <time>2016-08-28T08:27:45Z</time>
      </trkpt>
      <trkpt lat="45.01948" lon="5.5088">
        <ele>1215</ele>
        <time>2016-08-28T08:27:49Z</time>
      </trkpt>
      <trkpt lat="45.01944" lon="5.50867">
        <ele>1216</ele>
        <time>2016-08-28T08:27:55Z</time>
      </trkpt>
      <trkpt lat="45.01935" lon="5.50866">
        <ele>1217</ele>
        <time>2016-08-28T08:28:07Z</time>
      </trkpt>
      <trkpt lat="45.01925" lon="5.50861">
        <ele>1217</ele>
        <time>2016-08-28T08:28:14Z</time>
      </trkpt>
      <trkpt lat="45.0192" lon="5.5085">
        <ele>1219</ele>
        <time>2016-08-28T08:28:21Z</time>
      </trkpt>
      <trkpt lat="45.01914" lon="5.50839">
        <ele>1221</ele>
        <time>2016-08-28T08:28:28Z</time>
      </trkpt>
      <trkpt lat="45.01905" lon="5.50833">
        <ele>1223</ele>
        <time>2016-08-28T08:28:36Z</time>
      </trkpt>
      <trkpt lat="45.01898" lon="5.50822">
        <ele>1224</ele>
        <time>2016-08-28T08:28:41Z</time>
      </trkpt>
      <trkpt lat="45.01893" lon="5.5081">
        <ele>1224</ele>
        <time>2016-08-28T08:28:50Z</time>
      </trkpt>
      <trkpt lat="45.01887" lon="5.50798">
        <ele>1225</ele>
        <time>2016-08-28T08:28:56Z</time>
      </trkpt>
      <trkpt lat="45.01879" lon="5.50789">
        <ele>1225</ele>
        <time>2016-08-28T08:29:03Z</time>
      </trkpt>
      <trkpt lat="45.01872" lon="5.5078">
        <ele>1225</ele>
        <time>2016-08-28T08:29:10Z</time>
      </trkpt>
      <trkpt lat="45.01868" lon="5.50767">
        <ele>1226</ele>
        <time>2016-08-28T08:29:19Z</time>
      </trkpt>
      <trkpt lat="45.01861" lon="5.50758">
        <ele>1226</ele>
        <time>2016-08-28T08:29:24Z</time>
      </trkpt>
      <trkpt lat="45.01851" lon="5.50754">
        <ele>1226</ele>
        <time>2016-08-28T08:29:30Z</time>
      </trkpt>
      <trkpt lat="45.01841" lon="5.50744">
        <ele>1228</ele>
        <time>2016-08-28T08:29:37Z</time>
      </trkpt>
      <trkpt lat="45.01834" lon="5.50734">
        <ele>1229</ele>
        <time>2016-08-28T08:29:43Z</time>
      </trkpt>
      <trkpt lat="45.01832" lon="5.5072">
        <ele>1228</ele>
        <time>2016-08-28T08:29:52Z</time>
      </trkpt>
      <trkpt lat="45.01828" lon="5.50709">
        <ele>1229</ele>
        <time>2016-08-28T08:30:04Z</time>
      </trkpt>
      <trkpt lat="45.0183" lon="5.50695">
        <ele>1230</ele>
        <time>2016-08-28T08:30:12Z</time>
      </trkpt>
      <trkpt lat="45.01825" lon="5.50683">
        <ele>1230</ele>
        <time>2016-08-28T08:30:20Z</time>
      </trkpt>
      <trkpt lat="45.01827" lon="5.5067">
        <ele>1232</ele>
        <time>2016-08-28T08:30:29Z</time>
      </trkpt>
      <trkpt lat="45.01826" lon="5.50657">
        <ele>1234</ele>
        <time>2016-08-28T08:30:37Z</time>
      </trkpt>
      <trkpt lat="45.01824" lon="5.50642">
        <ele>1234</ele>
        <time>2016-08-28T08:30:43Z</time>
      </trkpt>
      <trkpt lat="45.01823" lon="5.50629">
        <ele>1235</ele>
        <time>2016-08-28T08:30:47Z</time>
      </trkpt>
      <trkpt lat="45.01816" lon="5.50619">
        <ele>1235</ele>
        <time>2016-08-28T08:30:50Z</time>
      </trkpt>
      <trkpt lat="45.01809" lon="5.50606">
        <ele>1236</ele>
        <time>2016-08-28T08:30:55Z</time>
      </trkpt>
      <trkpt lat="45.01804" lon="5.50595">
        <ele>1236</ele>
        <time>2016-08-28T08:30:58Z</time>
      </trkpt>
      <trkpt lat="45.01797" lon="5.50584">
        <ele>1236</ele>
        <time>2016-08-28T08:31:01Z</time>
      </trkpt>
      <trkpt lat="45.0179" lon="5.50573">
        <ele>1239</ele>
        <time>2016-08-28T08:31:04Z</time>
      </trkpt>
      <trkpt lat="45.0178" lon="5.50565">
        <ele>1239</ele>
        <time>2016-08-28T08:31:07Z</time>
      </trkpt>
      <trkpt lat="45.01772" lon="5.50552">
        <ele>1239</ele>
        <time>2016-08-28T08:31:13Z</time>
      </trkpt>
      <trkpt lat="45.01765" lon="5.50542">
        <ele>1240</ele>
        <time>2016-08-28T08:31:17Z</time>
      </trkpt>
      <trkpt lat="45.01757" lon="5.50533">
        <ele>1240</ele>
        <time>2016-08-28T08:31:23Z</time>
      </trkpt>
      <trkpt lat="45.01747" lon="5.50524">
        <ele>1244</ele>
        <time>2016-08-28T08:31:26Z</time>
      </trkpt>
      <trkpt lat="45.01738" lon="5.50524">
        <ele>1244</ele>
        <time>2016-08-28T08:31:30Z</time>
      </trkpt>
      <trkpt lat="45.01728" lon="5.50526">
        <ele>1244</ele>
        <time>2016-08-28T08:31:36Z</time>
      </trkpt>
      <trkpt lat="45.01717" lon="5.50523">
        <ele>1244</ele>
        <time>2016-08-28T08:31:41Z</time>
      </trkpt>
      <trkpt lat="45.01708" lon="5.50518">
        <ele>1245</ele>
        <time>2016-08-28T08:31:47Z</time>
      </trkpt>
      <trkpt lat="45.01698" lon="5.50519">
        <ele>1245</ele>
        <time>2016-08-28T08:31:58Z</time>
      </trkpt>
      <trkpt lat="45.01689" lon="5.5052">
        <ele>1246</ele>
        <time>2016-08-28T08:32:06Z</time>
      </trkpt>
      <trkpt lat="45.01682" lon="5.50511">
        <ele>1246</ele>
        <time>2016-08-28T08:32:10Z</time>
      </trkpt>
      <trkpt lat="45.01677" lon="5.50498">
        <ele>1249</ele>
        <time>2016-08-28T08:32:16Z</time>
      </trkpt>
      <trkpt lat="45.0167" lon="5.50483">
        <ele>1249</ele>
        <time>2016-08-28T08:32:21Z</time>
      </trkpt>
      <trkpt lat="45.01664" lon="5.50473">
        <ele>1253</ele>
        <time>2016-08-28T08:32:23Z</time>
      </trkpt>
      <trkpt lat="45.01656" lon="5.50467">
        <ele>1253</ele>
        <time>2016-08-28T08:32:26Z</time>
      </trkpt>
      <trkpt lat="45.01648" lon="5.50459">
        <ele>1254</ele>
        <time>2016-08-28T08:32:33Z</time>
      </trkpt>
      <trkpt lat="45.0164" lon="5.50448">
        <ele>1255</ele>
        <time>2016-08-28T08:32:42Z</time>
      </trkpt>
      <trkpt lat="45.01631" lon="5.50444">
        <ele>1255</ele>
        <time>2016-08-28T08:32:49Z</time>
      </trkpt>
      <trkpt lat="45.01621" lon="5.50438">
        <ele>1256</ele>
        <time>2016-08-28T08:32:58Z</time>
      </trkpt>
      <trkpt lat="45.01613" lon="5.50427">
        <ele>1257</ele>
        <time>2016-08-28T08:33:08Z</time>
      </trkpt>
      <trkpt lat="45.01603" lon="5.50427">
        <ele>1257</ele>
        <time>2016-08-28T08:33:15Z</time>
      </trkpt>
      <trkpt lat="45.01592" lon="5.50427">
        <ele>1258</ele>
        <time>2016-08-28T08:33:22Z</time>
      </trkpt>
      <trkpt lat="45.01584" lon="5.5042">
        <ele>1260</ele>
        <time>2016-08-28T08:33:25Z</time>
      </trkpt>
      <trkpt lat="45.01573" lon="5.50416">
        <ele>1263</ele>
        <time>2016-08-28T08:33:34Z</time>
      </trkpt>
      <trkpt lat="45.0156" lon="5.50412">
        <ele>1265</ele>
        <time>2016-08-28T08:33:39Z</time>
      </trkpt>
      <trkpt lat="45.0155" lon="5.50412">
        <ele>1266</ele>
        <time>2016-08-28T08:33:41Z</time>
      </trkpt>
      <trkpt lat="45.0154" lon="5.50408">
        <ele>1266</ele>
        <time>2016-08-28T08:33:44Z</time>
      </trkpt>
      <trkpt lat="45.0153" lon="5.50407">
        <ele>1266</ele>
        <time>2016-08-28T08:33:48Z</time>
      </trkpt>
      <trkpt lat="45.01521" lon="5.50403">
        <ele>1267</ele>
        <time>2016-08-28T08:33:54Z</time>
      </trkpt>
      <trkpt lat="45.0151" lon="5.50404">
        <ele>1266</ele>
        <time>2016-08-28T08:34:01Z</time>
      </trkpt>
      <trkpt lat="45.015" lon="5.50392">
        <ele>1270</ele>
        <time>2016-08-28T08:34:04Z</time>
      </trkpt>
      <trkpt lat="45.01493" lon="5.50383">
        <ele>1272</ele>
        <time>2016-08-28T08:34:09Z</time>
      </trkpt>
      <trkpt lat="45.01486" lon="5.50373">
        <ele>1273</ele>
        <time>2016-08-28T08:34:14Z</time>
      </trkpt>
      <trkpt lat="45.0148" lon="5.50362">
        <ele>1274</ele>
        <time>2016-08-28T08:34:32Z</time>
      </trkpt>
      <trkpt lat="45.01477" lon="5.50349">
        <ele>1275</ele>
        <time>2016-08-28T08:34:41Z</time>
      </trkpt>
      <trkpt lat="45.0148" lon="5.50337">
        <ele>1276</ele>
        <time>2016-08-28T08:34:52Z</time>
      </trkpt>
      <trkpt lat="45.01487" lon="5.50329">
        <ele>1280</ele>
        <time>2016-08-28T08:35:02Z</time>
      </trkpt>
      <trkpt lat="45.01491" lon="5.50314">
        <ele>1282</ele>
        <time>2016-08-28T08:35:10Z</time>
      </trkpt>
      <trkpt lat="45.015" lon="5.50304">
        <ele>1279</ele>
        <time>2016-08-28T08:35:22Z</time>
      </trkpt>
      <trkpt lat="45.01506" lon="5.50293">
        <ele>1280</ele>
        <time>2016-08-28T08:35:29Z</time>
      </trkpt>
      <trkpt lat="45.01514" lon="5.50283">
        <ele>1281</ele>
        <time>2016-08-28T08:35:39Z</time>
      </trkpt>
      <trkpt lat="45.01523" lon="5.50271">
        <ele>1282</ele>
        <time>2016-08-28T08:35:49Z</time>
      </trkpt>
      <trkpt lat="45.01528" lon="5.50259">
        <ele>1282</ele>
        <time>2016-08-28T08:35:54Z</time>
      </trkpt>
      <trkpt lat="45.01528" lon="5.50245">
        <ele>1289</ele>
        <time>2016-08-28T08:36:00Z</time>
      </trkpt>
      <trkpt lat="45.01531" lon="5.50233">
        <ele>1289</ele>
        <time>2016-08-28T08:36:18Z</time>
      </trkpt>
      <trkpt lat="45.01528" lon="5.50218">
        <ele>1290</ele>
        <time>2016-08-28T08:36:26Z</time>
      </trkpt>
      <trkpt lat="45.01523" lon="5.50204">
        <ele>1291</ele>
        <time>2016-08-28T08:36:31Z</time>
      </trkpt>
      <trkpt lat="45.01516" lon="5.50194">
        <ele>1292</ele>
        <time>2016-08-28T08:36:41Z</time>
      </trkpt>
      <trkpt lat="45.01506" lon="5.50187">
        <ele>1293</ele>
        <time>2016-08-28T08:36:59Z</time>
      </trkpt>
      <trkpt lat="45.01496" lon="5.50185">
        <ele>1296</ele>
        <time>2016-08-28T08:37:21Z</time>
      </trkpt>
      <trkpt lat="45.01489" lon="5.50176">
        <ele>1296</ele>
        <time>2016-08-28T08:37:31Z</time>
      </trkpt>
      <trkpt lat="45.01479" lon="5.50177">
        <ele>1297</ele>
        <time>2016-08-28T08:37:44Z</time>
      </trkpt>
      <trkpt lat="45.0147" lon="5.50172">
        <ele>1297</ele>
        <time>2016-08-28T08:38:03Z</time>
      </trkpt>
      <trkpt lat="45.01463" lon="5.50162">
        <ele>1304</ele>
        <time>2016-08-28T08:38:13Z</time>
      </trkpt>
      <trkpt lat="45.01453" lon="5.50158">
        <ele>1304</ele>
        <time>2016-08-28T08:38:18Z</time>
      </trkpt>
      <trkpt lat="45.01448" lon="5.50144">
        <ele>1305</ele>
        <time>2016-08-28T08:38:27Z</time>
      </trkpt>
      <trkpt lat="45.01438" lon="5.50135">
        <ele>1306</ele>
        <time>2016-08-28T08:38:36Z</time>
      </trkpt>
      <trkpt lat="45.01431" lon="5.50124">
        <ele>1307</ele>
        <time>2016-08-28T08:38:43Z</time>
      </trkpt>
      <trkpt lat="45.01422" lon="5.50126">
        <ele>1307</ele>
        <time>2016-08-28T08:38:52Z</time>
      </trkpt>
      <trkpt lat="45.01412" lon="5.50117">
        <ele>1310</ele>
        <time>2016-08-28T08:38:58Z</time>
      </trkpt>
      <trkpt lat="45.01403" lon="5.50109">
        <ele>1310</ele>
        <time>2016-08-28T08:39:05Z</time>
      </trkpt>
      <trkpt lat="45.01391" lon="5.50114">
        <ele>1310</ele>
        <time>2016-08-28T08:39:10Z</time>
      </trkpt>
      <trkpt lat="45.01381" lon="5.5011">
        <ele>1310</ele>
        <time>2016-08-28T08:39:15Z</time>
      </trkpt>
      <trkpt lat="45.01376" lon="5.50097">
        <ele>1311</ele>
        <time>2016-08-28T08:39:21Z</time>
      </trkpt>
      <trkpt lat="45.01367" lon="5.5009">
        <ele>1311</ele>
        <time>2016-08-28T08:39:32Z</time>
      </trkpt>
      <trkpt lat="45.01358" lon="5.50083">
        <ele>1318</ele>
        <time>2016-08-28T08:39:40Z</time>
      </trkpt>
      <trkpt lat="45.0135" lon="5.50073">
        <ele>1318</ele>
        <time>2016-08-28T08:39:53Z</time>
      </trkpt>
      <trkpt lat="45.0134" lon="5.50067">
        <ele>1318</ele>
        <time>2016-08-28T08:40:00Z</time>
      </trkpt>
      <trkpt lat="45.01331" lon="5.50067">
        <ele>1319</ele>
        <time>2016-08-28T08:40:13Z</time>
      </trkpt>
      <trkpt lat="45.01321" lon="5.50068">
        <ele>1319</ele>
        <time>2016-08-28T08:40:22Z</time>
      </trkpt>
      <trkpt lat="45.01312" lon="5.50065">
        <ele>1320</ele>
        <time>2016-08-28T08:40:32Z</time>
      </trkpt>
      <trkpt lat="45.01303" lon="5.50058">
        <ele>1321</ele>
        <time>2016-08-28T08:40:41Z</time>
      </trkpt>
      <trkpt lat="45.01293" lon="5.5006">
        <ele>1321</ele>
        <time>2016-08-28T08:40:47Z</time>
      </trkpt>
      <trkpt lat="45.01285" lon="5.50052">
        <ele>1322</ele>
        <time>2016-08-28T08:40:56Z</time>
      </trkpt>
      <trkpt lat="45.01275" lon="5.50048">
        <ele>1322</ele>
        <time>2016-08-28T08:41:04Z</time>
      </trkpt>
      <trkpt lat="45.01267" lon="5.50037">
        <ele>1323</ele>
        <time>2016-08-28T08:41:12Z</time>
      </trkpt>
      <trkpt lat="45.01259" lon="5.50028">
        <ele>1325</ele>
        <time>2016-08-28T08:41:16Z</time>
      </trkpt>
      <trkpt lat="45.01248" lon="5.50026">
        <ele>1326</ele>
        <time>2016-08-28T08:41:23Z</time>
      </trkpt>
      <trkpt lat="45.01238" lon="5.5002">
        <ele>1326</ele>
        <time>2016-08-28T08:41:27Z</time>
      </trkpt>
      <trkpt lat="45.0123" lon="5.50011">
        <ele>1327</ele>
        <time>2016-08-28T08:41:36Z</time>
      </trkpt>
      <trkpt lat="45.0122" lon="5.5001">
        <ele>1326</ele>
        <time>2016-08-28T08:41:44Z</time>
      </trkpt>
      <trkpt lat="45.01211" lon="5.50004">
        <ele>1326</ele>
        <time>2016-08-28T08:41:49Z</time>
      </trkpt>
      <trkpt lat="45.01201" lon="5.49998">
        <ele>1333</ele>
        <time>2016-08-28T08:41:58Z</time>
      </trkpt>
      <trkpt lat="45.01192" lon="5.49991">
        <ele>1333</ele>
        <time>2016-08-28T08:42:06Z</time>
      </trkpt>
      <trkpt lat="45.01189" lon="5.49978">
        <ele>1333</ele>
        <time>2016-08-28T08:42:19Z</time>
      </trkpt>
      <trkpt lat="45.01192" lon="5.49966">
        <ele>1334</ele>
        <time>2016-08-28T08:42:29Z</time>
      </trkpt>
      <trkpt lat="45.01196" lon="5.4995">
        <ele>1335</ele>
        <time>2016-08-28T08:42:37Z</time>
      </trkpt>
      <trkpt lat="45.01205" lon="5.49943">
        <ele>1336</ele>
        <time>2016-08-28T08:42:46Z</time>
      </trkpt>
      <trkpt lat="45.01212" lon="5.49933">
        <ele>1336</ele>
        <time>2016-08-28T08:42:56Z</time>
      </trkpt>
      <trkpt lat="45.01218" lon="5.49922">
        <ele>1337</ele>
        <time>2016-08-28T08:43:05Z</time>
      </trkpt>
      <trkpt lat="45.01228" lon="5.49917">
        <ele>1338</ele>
        <time>2016-08-28T08:43:12Z</time>
      </trkpt>
      <trkpt lat="45.01234" lon="5.49906">
        <ele>1341</ele>
        <time>2016-08-28T08:43:18Z</time>
      </trkpt>
      <trkpt lat="45.01238" lon="5.49894">
        <ele>1341</ele>
        <time>2016-08-28T08:43:24Z</time>
      </trkpt>
      <trkpt lat="45.01245" lon="5.49884">
        <ele>1342</ele>
        <time>2016-08-28T08:43:30Z</time>
      </trkpt>
      <trkpt lat="45.0124" lon="5.49872">
        <ele>1342</ele>
        <time>2016-08-28T08:43:46Z</time>
      </trkpt>
      <trkpt lat="45.01231" lon="5.49866">
        <ele>1342</ele>
        <time>2016-08-28T08:44:02Z</time>
      </trkpt>
      <trkpt lat="45.0122" lon="5.49866">
        <ele>1342</ele>
        <time>2016-08-28T08:44:09Z</time>
      </trkpt>
      <trkpt lat="45.01209" lon="5.49862">
        <ele>1342</ele>
        <time>2016-08-28T08:44:18Z</time>
      </trkpt>
      <trkpt lat="45.01206" lon="5.49849">
        <ele>1342</ele>
        <time>2016-08-28T08:44:25Z</time>
      </trkpt>
      <trkpt lat="45.01204" lon="5.49835">
        <ele>1342</ele>
        <time>2016-08-28T08:44:36Z</time>
      </trkpt>
      <trkpt lat="45.012" lon="5.49815">
        <ele>1343</ele>
        <time>2016-08-28T08:44:39Z</time>
      </trkpt>
      <trkpt lat="45.01195" lon="5.49799">
        <ele>1343</ele>
        <time>2016-08-28T08:44:41Z</time>
      </trkpt>
      <trkpt lat="45.01191" lon="5.49784">
        <ele>1343</ele>
        <time>2016-08-28T08:44:43Z</time>
      </trkpt>
      <trkpt lat="45.01186" lon="5.4977">
        <ele>1343</ele>
        <time>2016-08-28T08:44:45Z</time>
      </trkpt>
      <trkpt lat="45.01182" lon="5.49752">
        <ele>1342</ele>
        <time>2016-08-28T08:44:47Z</time>
      </trkpt>
      <trkpt lat="45.01177" lon="5.49738">
        <ele>1345</ele>
        <time>2016-08-28T08:44:49Z</time>
      </trkpt>
      <trkpt lat="45.01168" lon="5.49732">
        <ele>1345</ele>
        <time>2016-08-28T08:44:55Z</time>
      </trkpt>
      <trkpt lat="45.01158" lon="5.49727">
        <ele>1347</ele>
        <time>2016-08-28T08:44:58Z</time>
      </trkpt>
      <trkpt lat="45.01148" lon="5.49722">
        <ele>1347</ele>
        <time>2016-08-28T08:45:05Z</time>
      </trkpt>
      <trkpt lat="45.0114" lon="5.49716">
        <ele>1348</ele>
        <time>2016-08-28T08:45:11Z</time>
      </trkpt>
      <trkpt lat="45.0113" lon="5.49714">
        <ele>1348</ele>
        <time>2016-08-28T08:45:16Z</time>
      </trkpt>
      <trkpt lat="45.0112" lon="5.49713">
        <ele>1349</ele>
        <time>2016-08-28T08:45:23Z</time>
      </trkpt>
      <trkpt lat="45.01112" lon="5.49709">
        <ele>1349</ele>
        <time>2016-08-28T08:45:31Z</time>
      </trkpt>
      <trkpt lat="45.01102" lon="5.49704">
        <ele>1350</ele>
        <time>2016-08-28T08:45:36Z</time>
      </trkpt>
      <trkpt lat="45.01092" lon="5.49699">
        <ele>1351</ele>
        <time>2016-08-28T08:45:45Z</time>
      </trkpt>
      <trkpt lat="45.01082" lon="5.49699">
        <ele>1353</ele>
        <time>2016-08-28T08:45:50Z</time>
      </trkpt>
      <trkpt lat="45.01072" lon="5.497">
        <ele>1353</ele>
        <time>2016-08-28T08:46:02Z</time>
      </trkpt>
      <trkpt lat="45.01062" lon="5.497">
        <ele>1353</ele>
        <time>2016-08-28T08:46:11Z</time>
      </trkpt>
      <trkpt lat="45.01052" lon="5.49703">
        <ele>1353</ele>
        <time>2016-08-28T08:46:16Z</time>
      </trkpt>
      <trkpt lat="45.01041" lon="5.49703">
        <ele>1354</ele>
        <time>2016-08-28T08:46:20Z</time>
      </trkpt>
      <trkpt lat="45.01031" lon="5.49694">
        <ele>1354</ele>
        <time>2016-08-28T08:46:27Z</time>
      </trkpt>
      <trkpt lat="45.01021" lon="5.49688">
        <ele>1355</ele>
        <time>2016-08-28T08:46:33Z</time>
      </trkpt>
      <trkpt lat="45.01012" lon="5.49681">
        <ele>1356</ele>
        <time>2016-08-28T08:46:36Z</time>
      </trkpt>
      <trkpt lat="45.01001" lon="5.49676">
        <ele>1357</ele>
        <time>2016-08-28T08:46:40Z</time>
      </trkpt>
      <trkpt lat="45.0099" lon="5.49674">
        <ele>1358</ele>
        <time>2016-08-28T08:46:43Z</time>
      </trkpt>
      <trkpt lat="45.0098" lon="5.49673">
        <ele>1357</ele>
        <time>2016-08-28T08:46:45Z</time>
      </trkpt>
      <trkpt lat="45.00971" lon="5.49671">
        <ele>1357</ele>
        <time>2016-08-28T08:46:47Z</time>
      </trkpt>
      <trkpt lat="45.0096" lon="5.49671">
        <ele>1357</ele>
        <time>2016-08-28T08:46:50Z</time>
      </trkpt>
      <trkpt lat="45.0095" lon="5.49676">
        <ele>1357</ele>
        <time>2016-08-28T08:46:54Z</time>
      </trkpt>
      <trkpt lat="45.00929" lon="5.4968">
        <ele>1357</ele>
        <time>2016-08-28T08:46:59Z</time>
      </trkpt>
      <trkpt lat="45.00913" lon="5.49682">
        <ele>1356</ele>
        <time>2016-08-28T08:47:04Z</time>
      </trkpt>
      <trkpt lat="45.00902" lon="5.49681">
        <ele>1356</ele>
        <time>2016-08-28T08:47:09Z</time>
      </trkpt>
      <trkpt lat="45.00888" lon="5.49676">
        <ele>1356</ele>
        <time>2016-08-28T08:47:17Z</time>
      </trkpt>
      <trkpt lat="45.00879" lon="5.49675">
        <ele>1356</ele>
        <time>2016-08-28T08:47:24Z</time>
      </trkpt>
      <trkpt lat="45.00869" lon="5.49674">
        <ele>1357</ele>
        <time>2016-08-28T08:47:30Z</time>
      </trkpt>
      <trkpt lat="45.0086" lon="5.49668">
        <ele>1357</ele>
        <time>2016-08-28T08:47:36Z</time>
      </trkpt>
      <trkpt lat="45.00852" lon="5.4966">
        <ele>1362</ele>
        <time>2016-08-28T08:47:42Z</time>
      </trkpt>
      <trkpt lat="45.00843" lon="5.49655">
        <ele>1361</ele>
        <time>2016-08-28T08:47:48Z</time>
      </trkpt>
      <trkpt lat="45.00835" lon="5.49647">
        <ele>1362</ele>
        <time>2016-08-28T08:47:55Z</time>
      </trkpt>
      <trkpt lat="45.00826" lon="5.4964">
        <ele>1366</ele>
        <time>2016-08-28T08:48:00Z</time>
      </trkpt>
      <trkpt lat="45.00819" lon="5.49629">
        <ele>1367</ele>
        <time>2016-08-28T08:48:08Z</time>
      </trkpt>
      <trkpt lat="45.00813" lon="5.49619">
        <ele>1368</ele>
        <time>2016-08-28T08:48:15Z</time>
      </trkpt>
      <trkpt lat="45.00805" lon="5.49609">
        <ele>1369</ele>
        <time>2016-08-28T08:48:22Z</time>
      </trkpt>
      <trkpt lat="45.00797" lon="5.49601">
        <ele>1370</ele>
        <time>2016-08-28T08:48:32Z</time>
      </trkpt>
      <trkpt lat="45.00794" lon="5.49588">
        <ele>1370</ele>
        <time>2016-08-28T08:48:43Z</time>
      </trkpt>
      <trkpt lat="45.00788" lon="5.49575">
        <ele>1376</ele>
        <time>2016-08-28T08:48:50Z</time>
      </trkpt>
      <trkpt lat="45.00785" lon="5.49561">
        <ele>1376</ele>
        <time>2016-08-28T08:48:53Z</time>
      </trkpt>
      <trkpt lat="45.00777" lon="5.49554">
        <ele>1376</ele>
        <time>2016-08-28T08:48:59Z</time>
      </trkpt>
      <trkpt lat="45.00767" lon="5.4955">
        <ele>1376</ele>
        <time>2016-08-28T08:49:07Z</time>
      </trkpt>
      <trkpt lat="45.00757" lon="5.49551">
        <ele>1376</ele>
        <time>2016-08-28T08:49:13Z</time>
      </trkpt>
      <trkpt lat="45.00754" lon="5.49538">
        <ele>1377</ele>
        <time>2016-08-28T08:49:21Z</time>
      </trkpt>
      <trkpt lat="45.0076" lon="5.49526">
        <ele>1378</ele>
        <time>2016-08-28T08:49:32Z</time>
      </trkpt>
      <trkpt lat="45.00767" lon="5.49516">
        <ele>1378</ele>
        <time>2016-08-28T08:49:38Z</time>
      </trkpt>
      <trkpt lat="45.00776" lon="5.49508">
        <ele>1378</ele>
        <time>2016-08-28T08:49:43Z</time>
      </trkpt>
      <trkpt lat="45.00782" lon="5.49497">
        <ele>1382</ele>
        <time>2016-08-28T08:49:49Z</time>
      </trkpt>
      <trkpt lat="45.00787" lon="5.49485">
        <ele>1382</ele>
        <time>2016-08-28T08:49:56Z</time>
      </trkpt>
      <trkpt lat="45.00797" lon="5.49476">
        <ele>1382</ele>
        <time>2016-08-28T08:50:03Z</time>
      </trkpt>
      <trkpt lat="45.00805" lon="5.49466">
        <ele>1383</ele>
        <time>2016-08-28T08:50:07Z</time>
      </trkpt>
      <trkpt lat="45.00812" lon="5.4945">
        <ele>1383</ele>
        <time>2016-08-28T08:50:12Z</time>
      </trkpt>
      <trkpt lat="45.00816" lon="5.49438">
        <ele>1384</ele>
        <time>2016-08-28T08:50:15Z</time>
      </trkpt>
      <trkpt lat="45.00823" lon="5.49428">
        <ele>1385</ele>
        <time>2016-08-28T08:50:19Z</time>
      </trkpt>
      <trkpt lat="45.00828" lon="5.49416">
        <ele>1387</ele>
        <time>2016-08-28T08:50:22Z</time>
      </trkpt>
      <trkpt lat="45.00832" lon="5.49403">
        <ele>1389</ele>
        <time>2016-08-28T08:50:27Z</time>
      </trkpt>
      <trkpt lat="45.00838" lon="5.49393">
        <ele>1388</ele>
        <time>2016-08-28T08:50:32Z</time>
      </trkpt>
      <trkpt lat="45.00845" lon="5.49381">
        <ele>1389</ele>
        <time>2016-08-28T08:50:35Z</time>
      </trkpt>
      <trkpt lat="45.00855" lon="5.49367">
        <ele>1390</ele>
        <time>2016-08-28T08:50:39Z</time>
      </trkpt>
      <trkpt lat="45.00864" lon="5.49361">
        <ele>1390</ele>
        <time>2016-08-28T08:50:43Z</time>
      </trkpt>
      <trkpt lat="45.00871" lon="5.49352">
        <ele>1390</ele>
        <time>2016-08-28T08:50:48Z</time>
      </trkpt>
      <trkpt lat="45.00869" lon="5.49338">
        <ele>1391</ele>
        <time>2016-08-28T08:50:58Z</time>
      </trkpt>
      <trkpt lat="45.00879" lon="5.49331">
        <ele>1396</ele>
        <time>2016-08-28T08:51:06Z</time>
      </trkpt>
      <trkpt lat="45.00888" lon="5.49334">
        <ele>1390</ele>
        <time>2016-08-28T08:51:14Z</time>
      </trkpt>
      <trkpt lat="45.00896" lon="5.49326">
        <ele>1395</ele>
        <time>2016-08-28T08:51:21Z</time>
      </trkpt>
      <trkpt lat="45.00906" lon="5.49319">
        <ele>1394</ele>
        <time>2016-08-28T08:51:27Z</time>
      </trkpt>
      <trkpt lat="45.00915" lon="5.49317">
        <ele>1394</ele>
        <time>2016-08-28T08:51:34Z</time>
      </trkpt>
      <trkpt lat="45.00924" lon="5.49313">
        <ele>1395</ele>
        <time>2016-08-28T08:51:39Z</time>
      </trkpt>
      <trkpt lat="45.00933" lon="5.49308">
        <ele>1396</ele>
        <time>2016-08-28T08:51:45Z</time>
      </trkpt>
      <trkpt lat="45.00944" lon="5.49302">
        <ele>1397</ele>
        <time>2016-08-28T08:51:54Z</time>
      </trkpt>
      <trkpt lat="45.00953" lon="5.49298">
        <ele>1398</ele>
        <time>2016-08-28T08:51:59Z</time>
      </trkpt>
      <trkpt lat="45.00962" lon="5.49292">
        <ele>1398</ele>
        <time>2016-08-28T08:52:08Z</time>
      </trkpt>
      <trkpt lat="45.00972" lon="5.49288">
        <ele>1399</ele>
        <time>2016-08-28T08:52:16Z</time>
      </trkpt>
      <trkpt lat="45.00982" lon="5.49288">
        <ele>1399</ele>
        <time>2016-08-28T08:52:28Z</time>
      </trkpt>
      <trkpt lat="45.00993" lon="5.49284">
        <ele>1400</ele>
        <time>2016-08-28T08:52:38Z</time>
      </trkpt>
      <trkpt lat="45.01003" lon="5.49279">
        <ele>1402</ele>
        <time>2016-08-28T08:52:47Z</time>
      </trkpt>
      <trkpt lat="45.01011" lon="5.4927">
        <ele>1403</ele>
        <time>2016-08-28T08:52:55Z</time>
      </trkpt>
      <trkpt lat="45.01015" lon="5.49257">
        <ele>1404</ele>
        <time>2016-08-28T08:53:04Z</time>
      </trkpt>
      <trkpt lat="45.01025" lon="5.49245">
        <ele>1409</ele>
        <time>2016-08-28T08:53:11Z</time>
      </trkpt>
      <trkpt lat="45.01027" lon="5.49232">
        <ele>1410</ele>
        <time>2016-08-28T08:53:17Z</time>
      </trkpt>
      <trkpt lat="45.01034" lon="5.49224">
        <ele>1410</ele>
        <time>2016-08-28T08:53:23Z</time>
      </trkpt>
      <trkpt lat="45.01041" lon="5.49214">
        <ele>1410</ele>
        <time>2016-08-28T08:53:33Z</time>
      </trkpt>
      <trkpt lat="45.01047" lon="5.49202">
        <ele>1411</ele>
        <time>2016-08-28T08:53:43Z</time>
      </trkpt>
      <trkpt lat="45.01052" lon="5.4919">
        <ele>1412</ele>
        <time>2016-08-28T08:53:50Z</time>
      </trkpt>
      <trkpt lat="45.01054" lon="5.49178">
        <ele>1412</ele>
        <time>2016-08-28T08:53:58Z</time>
      </trkpt>
      <trkpt lat="45.0106" lon="5.49166">
        <ele>1418</ele>
        <time>2016-08-28T08:54:05Z</time>
      </trkpt>
      <trkpt lat="45.01069" lon="5.4916">
        <ele>1417</ele>
        <time>2016-08-28T08:54:11Z</time>
      </trkpt>
      <trkpt lat="45.01066" lon="5.49146">
        <ele>1418</ele>
        <time>2016-08-28T08:54:16Z</time>
      </trkpt>
      <trkpt lat="45.01074" lon="5.49139">
        <ele>1418</ele>
        <time>2016-08-28T08:54:22Z</time>
      </trkpt>
      <trkpt lat="45.01083" lon="5.4913">
        <ele>1419</ele>
        <time>2016-08-28T08:54:26Z</time>
      </trkpt>
      <trkpt lat="45.01091" lon="5.49123">
        <ele>1420</ele>
        <time>2016-08-28T08:54:30Z</time>
      </trkpt>
      <trkpt lat="45.01101" lon="5.49124">
        <ele>1420</ele>
        <time>2016-08-28T08:54:45Z</time>
      </trkpt>
      <trkpt lat="45.0111" lon="5.4912">
        <ele>1421</ele>
        <time>2016-08-28T08:54:55Z</time>
      </trkpt>
      <trkpt lat="45.01119" lon="5.49111">
        <ele>1421</ele>
        <time>2016-08-28T08:55:05Z</time>
      </trkpt>
      <trkpt lat="45.01126" lon="5.49102">
        <ele>1422</ele>
        <time>2016-08-28T08:55:11Z</time>
      </trkpt>
      <trkpt lat="45.01131" lon="5.49091">
        <ele>1422</ele>
        <time>2016-08-28T08:55:15Z</time>
      </trkpt>
      <trkpt lat="45.01134" lon="5.49077">
        <ele>1422</ele>
        <time>2016-08-28T08:55:22Z</time>
      </trkpt>
      <trkpt lat="45.01141" lon="5.49068">
        <ele>1422</ele>
        <time>2016-08-28T08:55:26Z</time>
      </trkpt>
      <trkpt lat="45.0115" lon="5.49061">
        <ele>1422</ele>
        <time>2016-08-28T08:55:30Z</time>
      </trkpt>
      <trkpt lat="45.01159" lon="5.49056">
        <ele>1422</ele>
        <time>2016-08-28T08:55:36Z</time>
      </trkpt>
      <trkpt lat="45.0117" lon="5.49055">
        <ele>1421</ele>
        <time>2016-08-28T08:55:42Z</time>
      </trkpt>
      <trkpt lat="45.01179" lon="5.49057">
        <ele>1421</ele>
        <time>2016-08-28T08:55:47Z</time>
      </trkpt>
      <trkpt lat="45.01189" lon="5.49058">
        <ele>1421</ele>
        <time>2016-08-28T08:55:51Z</time>
      </trkpt>
      <trkpt lat="45.01198" lon="5.49064">
        <ele>1421</ele>
        <time>2016-08-28T08:55:56Z</time>
      </trkpt>
      <trkpt lat="45.0121" lon="5.49068">
        <ele>1421</ele>
        <time>2016-08-28T08:56:00Z</time>
      </trkpt>
      <trkpt lat="45.01218" lon="5.49061">
        <ele>1421</ele>
        <time>2016-08-28T08:56:04Z</time>
      </trkpt>
      <trkpt lat="45.01228" lon="5.49056">
        <ele>1420</ele>
        <time>2016-08-28T08:56:07Z</time>
      </trkpt>
      <trkpt lat="45.01238" lon="5.4905">
        <ele>1420</ele>
        <time>2016-08-28T08:56:09Z</time>
      </trkpt>
      <trkpt lat="45.0125" lon="5.49044">
        <ele>1420</ele>
        <time>2016-08-28T08:56:12Z</time>
      </trkpt>
      <trkpt lat="45.01257" lon="5.49031">
        <ele>1419</ele>
        <time>2016-08-28T08:56:14Z</time>
      </trkpt>
      <trkpt lat="45.01268" lon="5.49036">
        <ele>1419</ele>
        <time>2016-08-28T08:56:19Z</time>
      </trkpt>
      <trkpt lat="45.01277" lon="5.4904">
        <ele>1419</ele>
        <time>2016-08-28T08:56:24Z</time>
      </trkpt>
      <trkpt lat="45.01288" lon="5.49044">
        <ele>1420</ele>
        <time>2016-08-28T08:56:30Z</time>
      </trkpt>
      <trkpt lat="45.013" lon="5.49048">
        <ele>1420</ele>
        <time>2016-08-28T08:56:35Z</time>
      </trkpt>
      <trkpt lat="45.01309" lon="5.49046">
        <ele>1420</ele>
        <time>2016-08-28T08:56:38Z</time>
      </trkpt>
      <trkpt lat="45.01321" lon="5.49042">
        <ele>1420</ele>
        <time>2016-08-28T08:56:41Z</time>
      </trkpt>
      <trkpt lat="45.01331" lon="5.4904">
        <ele>1420</ele>
        <time>2016-08-28T08:56:45Z</time>
      </trkpt>
      <trkpt lat="45.0134" lon="5.49041">
        <ele>1418</ele>
        <time>2016-08-28T08:56:48Z</time>
      </trkpt>
      <trkpt lat="45.01352" lon="5.49046">
        <ele>1418</ele>
        <time>2016-08-28T08:56:52Z</time>
      </trkpt>
      <trkpt lat="45.01366" lon="5.49044">
        <ele>1418</ele>
        <time>2016-08-28T08:56:55Z</time>
      </trkpt>
      <trkpt lat="45.01375" lon="5.49043">
        <ele>1417</ele>
        <time>2016-08-28T08:56:57Z</time>
      </trkpt>
      <trkpt lat="45.01386" lon="5.49037">
        <ele>1417</ele>
        <time>2016-08-28T08:57:01Z</time>
      </trkpt>
      <trkpt lat="45.01394" lon="5.49029">
        <ele>1415</ele>
        <time>2016-08-28T08:57:09Z</time>
      </trkpt>
      <trkpt lat="45.01396" lon="5.49016">
        <ele>1414</ele>
        <time>2016-08-28T08:57:25Z</time>
      </trkpt>
      <trkpt lat="45.01396" lon="5.49031">
        <ele>1415</ele>
        <time>2016-08-28T08:57:51Z</time>
      </trkpt>
      <trkpt lat="45.01404" lon="5.4902">
        <ele>1414</ele>
        <time>2016-08-28T08:57:58Z</time>
      </trkpt>
      <trkpt lat="45.01407" lon="5.49005">
        <ele>1411</ele>
        <time>2016-08-28T08:58:03Z</time>
      </trkpt>
      <trkpt lat="45.0141" lon="5.48991">
        <ele>1410</ele>
        <time>2016-08-28T08:58:08Z</time>
      </trkpt>
      <trkpt lat="45.01415" lon="5.48976">
        <ele>1411</ele>
        <time>2016-08-28T08:58:13Z</time>
      </trkpt>
      <trkpt lat="45.01426" lon="5.4896">
        <ele>1407</ele>
        <time>2016-08-28T08:58:19Z</time>
      </trkpt>
      <trkpt lat="45.01434" lon="5.48952">
        <ele>1407</ele>
        <time>2016-08-28T08:58:22Z</time>
      </trkpt>
      <trkpt lat="45.01444" lon="5.48952">
        <ele>1406</ele>
        <time>2016-08-28T08:58:29Z</time>
      </trkpt>
      <trkpt lat="45.01455" lon="5.48947">
        <ele>1406</ele>
        <time>2016-08-28T08:58:37Z</time>
      </trkpt>
      <trkpt lat="45.01465" lon="5.4895">
        <ele>1406</ele>
        <time>2016-08-28T08:58:43Z</time>
      </trkpt>
      <trkpt lat="45.01473" lon="5.48958">
        <ele>1405</ele>
        <time>2016-08-28T08:58:52Z</time>
      </trkpt>
      <trkpt lat="45.01482" lon="5.48962">
        <ele>1405</ele>
        <time>2016-08-28T08:58:57Z</time>
      </trkpt>
      <trkpt lat="45.0149" lon="5.48971">
        <ele>1404</ele>
        <time>2016-08-28T08:59:02Z</time>
      </trkpt>
      <trkpt lat="45.01499" lon="5.48979">
        <ele>1404</ele>
        <time>2016-08-28T08:59:10Z</time>
      </trkpt>
      <trkpt lat="45.01508" lon="5.48985">
        <ele>1402</ele>
        <time>2016-08-28T08:59:15Z</time>
      </trkpt>
      <trkpt lat="45.01516" lon="5.48993">
        <ele>1402</ele>
        <time>2016-08-28T08:59:20Z</time>
      </trkpt>
      <trkpt lat="45.01524" lon="5.49002">
        <ele>1406</ele>
        <time>2016-08-28T08:59:25Z</time>
      </trkpt>
      <trkpt lat="45.01531" lon="5.4901">
        <ele>1407</ele>
        <time>2016-08-28T08:59:30Z</time>
      </trkpt>
      <trkpt lat="45.01542" lon="5.49006">
        <ele>1407</ele>
        <time>2016-08-28T08:59:37Z</time>
      </trkpt>
      <trkpt lat="45.01551" lon="5.49005">
        <ele>1407</ele>
        <time>2016-08-28T08:59:45Z</time>
      </trkpt>
      <trkpt lat="45.01561" lon="5.49005">
        <ele>1407</ele>
        <time>2016-08-28T08:59:52Z</time>
      </trkpt>
      <trkpt lat="45.01569" lon="5.49015">
        <ele>1407</ele>
        <time>2016-08-28T08:59:57Z</time>
      </trkpt>
      <trkpt lat="45.01578" lon="5.49011">
        <ele>1405</ele>
        <time>2016-08-28T09:00:08Z</time>
      </trkpt>
      <trkpt lat="45.01588" lon="5.49004">
        <ele>1405</ele>
        <time>2016-08-28T09:00:19Z</time>
      </trkpt>
      <trkpt lat="45.01598" lon="5.48997">
        <ele>1405</ele>
        <time>2016-08-28T09:00:27Z</time>
      </trkpt>
      <trkpt lat="45.01607" lon="5.48996">
        <ele>1406</ele>
        <time>2016-08-28T09:00:34Z</time>
      </trkpt>
      <trkpt lat="45.01617" lon="5.48991">
        <ele>1407</ele>
        <time>2016-08-28T09:00:39Z</time>
      </trkpt>
      <trkpt lat="45.01626" lon="5.48995">
        <ele>1408</ele>
        <time>2016-08-28T09:00:48Z</time>
      </trkpt>
      <trkpt lat="45.01638" lon="5.48995">
        <ele>1409</ele>
        <time>2016-08-28T09:01:02Z</time>
      </trkpt>
      <trkpt lat="45.01648" lon="5.48994">
        <ele>1410</ele>
        <time>2016-08-28T09:01:12Z</time>
      </trkpt>
      <trkpt lat="45.01658" lon="5.48996">
        <ele>1411</ele>
        <time>2016-08-28T09:01:18Z</time>
      </trkpt>
      <trkpt lat="45.01663" lon="5.48984">
        <ele>1411</ele>
        <time>2016-08-28T09:01:28Z</time>
      </trkpt>
      <trkpt lat="45.01672" lon="5.4898">
        <ele>1416</ele>
        <time>2016-08-28T09:01:35Z</time>
      </trkpt>
      <trkpt lat="45.01682" lon="5.48978">
        <ele>1417</ele>
        <time>2016-08-28T09:01:43Z</time>
      </trkpt>
      <trkpt lat="45.01685" lon="5.48965">
        <ele>1417</ele>
        <time>2016-08-28T09:01:53Z</time>
      </trkpt>
      <trkpt lat="45.01696" lon="5.48959">
        <ele>1418</ele>
        <time>2016-08-28T09:01:58Z</time>
      </trkpt>
      <trkpt lat="45.01705" lon="5.48953">
        <ele>1418</ele>
        <time>2016-08-28T09:02:05Z</time>
      </trkpt>
      <trkpt lat="45.01712" lon="5.48944">
        <ele>1419</ele>
        <time>2016-08-28T09:02:17Z</time>
      </trkpt>
      <trkpt lat="45.01721" lon="5.48937">
        <ele>1419</ele>
        <time>2016-08-28T09:02:30Z</time>
      </trkpt>
      <trkpt lat="45.01729" lon="5.4893">
        <ele>1420</ele>
        <time>2016-08-28T09:02:43Z</time>
      </trkpt>
      <trkpt lat="45.0173" lon="5.48914">
        <ele>1422</ele>
        <time>2016-08-28T09:02:47Z</time>
      </trkpt>
      <trkpt lat="45.01726" lon="5.48901">
        <ele>1422</ele>
        <time>2016-08-28T09:02:53Z</time>
      </trkpt>
      <trkpt lat="45.01737" lon="5.48898">
        <ele>1423</ele>
        <time>2016-08-28T09:03:15Z</time>
      </trkpt>
      <trkpt lat="45.01746" lon="5.48904">
        <ele>1423</ele>
        <time>2016-08-28T09:03:21Z</time>
      </trkpt>
      <trkpt lat="45.01755" lon="5.48911">
        <ele>1425</ele>
        <time>2016-08-28T09:03:27Z</time>
      </trkpt>
      <trkpt lat="45.01765" lon="5.4891">
        <ele>1427</ele>
        <time>2016-08-28T09:03:32Z</time>
      </trkpt>
      <trkpt lat="45.01775" lon="5.48911">
        <ele>1429</ele>
        <time>2016-08-28T09:03:41Z</time>
      </trkpt>
      <trkpt lat="45.01787" lon="5.48902">
        <ele>1431</ele>
        <time>2016-08-28T09:03:49Z</time>
      </trkpt>
      <trkpt lat="45.01797" lon="5.48895">
        <ele>1432</ele>
        <time>2016-08-28T09:03:57Z</time>
      </trkpt>
      <trkpt lat="45.01807" lon="5.48895">
        <ele>1432</ele>
        <time>2016-08-28T09:04:05Z</time>
      </trkpt>
      <trkpt lat="45.01816" lon="5.48889">
        <ele>1433</ele>
        <time>2016-08-28T09:04:12Z</time>
      </trkpt>
      <trkpt lat="45.01823" lon="5.4888">
        <ele>1434</ele>
        <time>2016-08-28T09:04:21Z</time>
      </trkpt>
      <trkpt lat="45.01832" lon="5.48884">
        <ele>1434</ele>
        <time>2016-08-28T09:04:31Z</time>
      </trkpt>
      <trkpt lat="45.01841" lon="5.48891">
        <ele>1439</ele>
        <time>2016-08-28T09:04:38Z</time>
      </trkpt>
      <trkpt lat="45.0185" lon="5.48888">
        <ele>1440</ele>
        <time>2016-08-28T09:04:47Z</time>
      </trkpt>
      <trkpt lat="45.0186" lon="5.48886">
        <ele>1441</ele>
        <time>2016-08-28T09:04:58Z</time>
      </trkpt>
      <trkpt lat="45.01867" lon="5.48877">
        <ele>1442</ele>
        <time>2016-08-28T09:05:04Z</time>
      </trkpt>
      <trkpt lat="45.01876" lon="5.48866">
        <ele>1442</ele>
        <time>2016-08-28T09:05:10Z</time>
      </trkpt>
      <trkpt lat="45.01886" lon="5.48863">
        <ele>1443</ele>
        <time>2016-08-28T09:05:18Z</time>
      </trkpt>
      <trkpt lat="45.01897" lon="5.4886">
        <ele>1443</ele>
        <time>2016-08-28T09:05:30Z</time>
      </trkpt>
      <trkpt lat="45.01906" lon="5.48855">
        <ele>1444</ele>
        <time>2016-08-28T09:05:41Z</time>
      </trkpt>
      <trkpt lat="45.01916" lon="5.48854">
        <ele>1444</ele>
        <time>2016-08-28T09:05:45Z</time>
      </trkpt>
      <trkpt lat="45.01926" lon="5.48858">
        <ele>1450</ele>
        <time>2016-08-28T09:05:50Z</time>
      </trkpt>
      <trkpt lat="45.01936" lon="5.48853">
        <ele>1450</ele>
        <time>2016-08-28T09:05:56Z</time>
      </trkpt>
      <trkpt lat="45.01946" lon="5.48851">
        <ele>1451</ele>
        <time>2016-08-28T09:06:02Z</time>
      </trkpt>
      <trkpt lat="45.01955" lon="5.48847">
        <ele>1452</ele>
        <time>2016-08-28T09:06:12Z</time>
      </trkpt>
      <trkpt lat="45.01965" lon="5.48846">
        <ele>1452</ele>
        <time>2016-08-28T09:06:21Z</time>
      </trkpt>
      <trkpt lat="45.01974" lon="5.48842">
        <ele>1453</ele>
        <time>2016-08-28T09:06:33Z</time>
      </trkpt>
      <trkpt lat="45.01985" lon="5.48841">
        <ele>1453</ele>
        <time>2016-08-28T09:06:38Z</time>
      </trkpt>
      <trkpt lat="45.01994" lon="5.48837">
        <ele>1454</ele>
        <time>2016-08-28T09:06:45Z</time>
      </trkpt>
      <trkpt lat="45.02003" lon="5.48842">
        <ele>1456</ele>
        <time>2016-08-28T09:06:53Z</time>
      </trkpt>
      <trkpt lat="45.02012" lon="5.48846">
        <ele>1457</ele>
        <time>2016-08-28T09:06:57Z</time>
      </trkpt>
      <trkpt lat="45.02022" lon="5.48848">
        <ele>1458</ele>
        <time>2016-08-28T09:07:04Z</time>
      </trkpt>
      <trkpt lat="45.02032" lon="5.48847">
        <ele>1459</ele>
        <time>2016-08-28T09:07:13Z</time>
      </trkpt>
      <trkpt lat="45.02044" lon="5.4885">
        <ele>1459</ele>
        <time>2016-08-28T09:07:22Z</time>
      </trkpt>
      <trkpt lat="45.02054" lon="5.48853">
        <ele>1459</ele>
        <time>2016-08-28T09:07:27Z</time>
      </trkpt>
      <trkpt lat="45.02063" lon="5.48846">
        <ele>1459</ele>
        <time>2016-08-28T09:07:35Z</time>
      </trkpt>
      <trkpt lat="45.02071" lon="5.48833">
        <ele>1459</ele>
        <time>2016-08-28T09:07:41Z</time>
      </trkpt>
      <trkpt lat="45.02083" lon="5.48828">
        <ele>1459</ele>
        <time>2016-08-28T09:07:43Z</time>
      </trkpt>
      <trkpt lat="45.02087" lon="5.48813">
        <ele>1462</ele>
        <time>2016-08-28T09:07:49Z</time>
      </trkpt>
      <trkpt lat="45.02097" lon="5.48808">
        <ele>1463</ele>
        <time>2016-08-28T09:07:53Z</time>
      </trkpt>
      <trkpt lat="45.02106" lon="5.48804">
        <ele>1464</ele>
        <time>2016-08-28T09:07:56Z</time>
      </trkpt>
      <trkpt lat="45.02116" lon="5.48806">
        <ele>1464</ele>
        <time>2016-08-28T09:08:04Z</time>
      </trkpt>
      <trkpt lat="45.02126" lon="5.48813">
        <ele>1464</ele>
        <time>2016-08-28T09:08:08Z</time>
      </trkpt>
      <trkpt lat="45.02133" lon="5.48822">
        <ele>1464</ele>
        <time>2016-08-28T09:08:11Z</time>
      </trkpt>
      <trkpt lat="45.02144" lon="5.48826">
        <ele>1463</ele>
        <time>2016-08-28T09:08:14Z</time>
      </trkpt>
      <trkpt lat="45.02153" lon="5.48829">
        <ele>1463</ele>
        <time>2016-08-28T09:08:16Z</time>
      </trkpt>
      <trkpt lat="45.02166" lon="5.48832">
        <ele>1461</ele>
        <time>2016-08-28T09:08:19Z</time>
      </trkpt>
      <trkpt lat="45.02176" lon="5.48828">
        <ele>1464</ele>
        <time>2016-08-28T09:08:23Z</time>
      </trkpt>
      <trkpt lat="45.02185" lon="5.48832">
        <ele>1466</ele>
        <time>2016-08-28T09:08:26Z</time>
      </trkpt>
      <trkpt lat="45.02195" lon="5.48837">
        <ele>1460</ele>
        <time>2016-08-28T09:08:29Z</time>
      </trkpt>
      <trkpt lat="45.02207" lon="5.48843">
        <ele>1460</ele>
        <time>2016-08-28T09:08:31Z</time>
      </trkpt>
      <trkpt lat="45.02221" lon="5.48851">
        <ele>1460</ele>
        <time>2016-08-28T09:08:33Z</time>
      </trkpt>
      <trkpt lat="45.02238" lon="5.48857">
        <ele>1460</ele>
        <time>2016-08-28T09:08:35Z</time>
      </trkpt>
      <trkpt lat="45.02253" lon="5.48865">
        <ele>1461</ele>
        <time>2016-08-28T09:08:37Z</time>
      </trkpt>
      <trkpt lat="45.02267" lon="5.48881">
        <ele>1460</ele>
        <time>2016-08-28T09:08:39Z</time>
      </trkpt>
      <trkpt lat="45.02272" lon="5.48902">
        <ele>1458</ele>
        <time>2016-08-28T09:08:41Z</time>
      </trkpt>
      <trkpt lat="45.02275" lon="5.48918">
        <ele>1452</ele>
        <time>2016-08-28T09:08:43Z</time>
      </trkpt>
      <trkpt lat="45.02278" lon="5.48934">
        <ele>1452</ele>
        <time>2016-08-28T09:08:45Z</time>
      </trkpt>
      <trkpt lat="45.02283" lon="5.48949">
        <ele>1452</ele>
        <time>2016-08-28T09:08:47Z</time>
      </trkpt>
      <trkpt lat="45.02283" lon="5.48962">
        <ele>1452</ele>
        <time>2016-08-28T09:08:50Z</time>
      </trkpt>
      <trkpt lat="45.02285" lon="5.48983">
        <ele>1451</ele>
        <time>2016-08-28T09:08:53Z</time>
      </trkpt>
      <trkpt lat="45.02287" lon="5.49005">
        <ele>1446</ele>
        <time>2016-08-28T09:08:55Z</time>
      </trkpt>
      <trkpt lat="45.02286" lon="5.49026">
        <ele>1446</ele>
        <time>2016-08-28T09:08:57Z</time>
      </trkpt>
      <trkpt lat="45.02288" lon="5.49061">
        <ele>1444</ele>
        <time>2016-08-28T09:09:01Z</time>
      </trkpt>
      <trkpt lat="45.02295" lon="5.49076">
        <ele>1443</ele>
        <time>2016-08-28T09:09:03Z</time>
      </trkpt>
      <trkpt lat="45.02302" lon="5.49085">
        <ele>1437</ele>
        <time>2016-08-28T09:09:04Z</time>
      </trkpt>
      <trkpt lat="45.02308" lon="5.49096">
        <ele>1436</ele>
        <time>2016-08-28T09:09:05Z</time>
      </trkpt>
      <trkpt lat="45.02324" lon="5.49112">
        <ele>1436</ele>
        <time>2016-08-28T09:09:08Z</time>
      </trkpt>
      <trkpt lat="45.02332" lon="5.49121">
        <ele>1435</ele>
        <time>2016-08-28T09:09:09Z</time>
      </trkpt>
      <trkpt lat="45.02342" lon="5.49129">
        <ele>1430</ele>
        <time>2016-08-28T09:09:10Z</time>
      </trkpt>
      <trkpt lat="45.0235" lon="5.49137">
        <ele>1429</ele>
        <time>2016-08-28T09:09:11Z</time>
      </trkpt>
      <trkpt lat="45.02364" lon="5.4915">
        <ele>1429</ele>
        <time>2016-08-28T09:09:13Z</time>
      </trkpt>
      <trkpt lat="45.02374" lon="5.49158">
        <ele>1428</ele>
        <time>2016-08-28T09:09:15Z</time>
      </trkpt>
      <trkpt lat="45.02389" lon="5.49158">
        <ele>1427</ele>
        <time>2016-08-28T09:09:17Z</time>
      </trkpt>
      <trkpt lat="45.02399" lon="5.49156">
        <ele>1427</ele>
        <time>2016-08-28T09:09:18Z</time>
      </trkpt>
      <trkpt lat="45.02416" lon="5.49155">
        <ele>1426</ele>
        <time>2016-08-28T09:09:20Z</time>
      </trkpt>
      <trkpt lat="45.02432" lon="5.49154">
        <ele>1423</ele>
        <time>2016-08-28T09:09:22Z</time>
      </trkpt>
      <trkpt lat="45.02447" lon="5.4915">
        <ele>1423</ele>
        <time>2016-08-28T09:09:24Z</time>
      </trkpt>
      <trkpt lat="45.02457" lon="5.49147">
        <ele>1423</ele>
        <time>2016-08-28T09:09:26Z</time>
      </trkpt>
      <trkpt lat="45.02467" lon="5.49141">
        <ele>1423</ele>
        <time>2016-08-28T09:09:29Z</time>
      </trkpt>
      <trkpt lat="45.02477" lon="5.49137">
        <ele>1423</ele>
        <time>2016-08-28T09:09:31Z</time>
      </trkpt>
      <trkpt lat="45.02489" lon="5.4913">
        <ele>1423</ele>
        <time>2016-08-28T09:09:33Z</time>
      </trkpt>
      <trkpt lat="45.02502" lon="5.49124">
        <ele>1423</ele>
        <time>2016-08-28T09:09:35Z</time>
      </trkpt>
      <trkpt lat="45.02515" lon="5.49111">
        <ele>1423</ele>
        <time>2016-08-28T09:09:37Z</time>
      </trkpt>
      <trkpt lat="45.02522" lon="5.49102">
        <ele>1423</ele>
        <time>2016-08-28T09:09:38Z</time>
      </trkpt>
      <trkpt lat="45.02534" lon="5.49076">
        <ele>1428</ele>
        <time>2016-08-28T09:09:41Z</time>
      </trkpt>
      <trkpt lat="45.02541" lon="5.4906">
        <ele>1429</ele>
        <time>2016-08-28T09:09:43Z</time>
      </trkpt>
      <trkpt lat="45.0255" lon="5.49049">
        <ele>1429</ele>
        <time>2016-08-28T09:09:45Z</time>
      </trkpt>
      <trkpt lat="45.02555" lon="5.49037">
        <ele>1430</ele>
        <time>2016-08-28T09:09:47Z</time>
      </trkpt>
      <trkpt lat="45.02565" lon="5.49029">
        <ele>1430</ele>
        <time>2016-08-28T09:09:50Z</time>
      </trkpt>
      <trkpt lat="45.02575" lon="5.49028">
        <ele>1430</ele>
        <time>2016-08-28T09:09:54Z</time>
      </trkpt>
      <trkpt lat="45.02584" lon="5.49034">
        <ele>1429</ele>
        <time>2016-08-28T09:10:00Z</time>
      </trkpt>
      <trkpt lat="45.02592" lon="5.49025">
        <ele>1429</ele>
        <time>2016-08-28T09:10:07Z</time>
      </trkpt>
      <trkpt lat="45.02601" lon="5.49019">
        <ele>1430</ele>
        <time>2016-08-28T09:10:20Z</time>
      </trkpt>
      <trkpt lat="45.02598" lon="5.48999">
        <ele>1433</ele>
        <time>2016-08-28T09:10:23Z</time>
      </trkpt>
      <trkpt lat="45.02597" lon="5.48982">
        <ele>1435</ele>
        <time>2016-08-28T09:10:26Z</time>
      </trkpt>
      <trkpt lat="45.02592" lon="5.48963">
        <ele>1436</ele>
        <time>2016-08-28T09:10:32Z</time>
      </trkpt>
      <trkpt lat="45.02594" lon="5.48949">
        <ele>1437</ele>
        <time>2016-08-28T09:10:35Z</time>
      </trkpt>
      <trkpt lat="45.02582" lon="5.48941">
        <ele>1439</ele>
        <time>2016-08-28T09:10:39Z</time>
      </trkpt>
      <trkpt lat="45.02578" lon="5.48929">
        <ele>1439</ele>
        <time>2016-08-28T09:10:47Z</time>
      </trkpt>
      <trkpt lat="45.02572" lon="5.48918">
        <ele>1439</ele>
        <time>2016-08-28T09:10:53Z</time>
      </trkpt>
      <trkpt lat="45.02576" lon="5.48906">
        <ele>1444</ele>
        <time>2016-08-28T09:11:01Z</time>
      </trkpt>
      <trkpt lat="45.02581" lon="5.48894">
        <ele>1447</ele>
        <time>2016-08-28T09:11:08Z</time>
      </trkpt>
      <trkpt lat="45.02576" lon="5.48879">
        <ele>1450</ele>
        <time>2016-08-28T09:11:17Z</time>
      </trkpt>
      <trkpt lat="45.02579" lon="5.48865">
        <ele>1451</ele>
        <time>2016-08-28T09:11:26Z</time>
      </trkpt>
      <trkpt lat="45.02568" lon="5.48859">
        <ele>1452</ele>
        <time>2016-08-28T09:11:39Z</time>
      </trkpt>
      <trkpt lat="45.02562" lon="5.48845">
        <ele>1452</ele>
        <time>2016-08-28T09:11:57Z</time>
      </trkpt>
      <trkpt lat="45.02564" lon="5.48831">
        <ele>1457</ele>
        <time>2016-08-28T09:12:02Z</time>
      </trkpt>
      <trkpt lat="45.02564" lon="5.48816">
        <ele>1459</ele>
        <time>2016-08-28T09:12:13Z</time>
      </trkpt>
      <trkpt lat="45.02573" lon="5.4881">
        <ele>1458</ele>
        <time>2016-08-28T09:12:29Z</time>
      </trkpt>
      <trkpt lat="45.02569" lon="5.48797">
        <ele>1461</ele>
        <time>2016-08-28T09:12:42Z</time>
      </trkpt>
      <trkpt lat="45.02566" lon="5.48784">
        <ele>1462</ele>
        <time>2016-08-28T09:12:48Z</time>
      </trkpt>
      <trkpt lat="45.02561" lon="5.48771">
        <ele>1463</ele>
        <time>2016-08-28T09:12:58Z</time>
      </trkpt>
      <trkpt lat="45.02562" lon="5.48758">
        <ele>1463</ele>
        <time>2016-08-28T09:13:05Z</time>
      </trkpt>
      <trkpt lat="45.02565" lon="5.48743">
        <ele>1465</ele>
        <time>2016-08-28T09:13:13Z</time>
      </trkpt>
      <trkpt lat="45.02565" lon="5.48729">
        <ele>1466</ele>
        <time>2016-08-28T09:13:19Z</time>
      </trkpt>
      <trkpt lat="45.02562" lon="5.48714">
        <ele>1467</ele>
        <time>2016-08-28T09:13:25Z</time>
      </trkpt>
      <trkpt lat="45.02557" lon="5.48703">
        <ele>1468</ele>
        <time>2016-08-28T09:13:29Z</time>
      </trkpt>
      <trkpt lat="45.02562" lon="5.4869">
        <ele>1467</ele>
        <time>2016-08-28T09:13:36Z</time>
      </trkpt>
      <trkpt lat="45.02562" lon="5.48675">
        <ele>1467</ele>
        <time>2016-08-28T09:13:42Z</time>
      </trkpt>
      <trkpt lat="45.02564" lon="5.4866">
        <ele>1467</ele>
        <time>2016-08-28T09:13:47Z</time>
      </trkpt>
      <trkpt lat="45.02564" lon="5.48647">
        <ele>1467</ele>
        <time>2016-08-28T09:13:51Z</time>
      </trkpt>
      <trkpt lat="45.02565" lon="5.48633">
        <ele>1468</ele>
        <time>2016-08-28T09:13:56Z</time>
      </trkpt>
      <trkpt lat="45.02567" lon="5.48618">
        <ele>1467</ele>
        <time>2016-08-28T09:14:02Z</time>
      </trkpt>
      <trkpt lat="45.02569" lon="5.48605">
        <ele>1466</ele>
        <time>2016-08-28T09:14:08Z</time>
      </trkpt>
      <trkpt lat="45.02573" lon="5.48587">
        <ele>1464</ele>
        <time>2016-08-28T09:14:14Z</time>
      </trkpt>
      <trkpt lat="45.02576" lon="5.48572">
        <ele>1465</ele>
        <time>2016-08-28T09:14:18Z</time>
      </trkpt>
      <trkpt lat="45.02578" lon="5.48556">
        <ele>1467</ele>
        <time>2016-08-28T09:14:21Z</time>
      </trkpt>
      <trkpt lat="45.02578" lon="5.48539">
        <ele>1467</ele>
        <time>2016-08-28T09:14:24Z</time>
      </trkpt>
      <trkpt lat="45.02578" lon="5.48523">
        <ele>1466</ele>
        <time>2016-08-28T09:14:27Z</time>
      </trkpt>
      <trkpt lat="45.02581" lon="5.4851">
        <ele>1464</ele>
        <time>2016-08-28T09:14:30Z</time>
      </trkpt>
      <trkpt lat="45.02585" lon="5.48494">
        <ele>1461</ele>
        <time>2016-08-28T09:14:33Z</time>
      </trkpt>
      <trkpt lat="45.02586" lon="5.4848">
        <ele>1464</ele>
        <time>2016-08-28T09:14:35Z</time>
      </trkpt>
      <trkpt lat="45.02587" lon="5.48466">
        <ele>1464</ele>
        <time>2016-08-28T09:14:37Z</time>
      </trkpt>
      <trkpt lat="45.02588" lon="5.48448">
        <ele>1464</ele>
        <time>2016-08-28T09:14:39Z</time>
      </trkpt>
      <trkpt lat="45.02594" lon="5.48432">
        <ele>1463</ele>
        <time>2016-08-28T09:14:41Z</time>
      </trkpt>
      <trkpt lat="45.02598" lon="5.48417">
        <ele>1462</ele>
        <time>2016-08-28T09:14:43Z</time>
      </trkpt>
      <trkpt lat="45.02597" lon="5.48402">
        <ele>1458</ele>
        <time>2016-08-28T09:14:45Z</time>
      </trkpt>
      <trkpt lat="45.02598" lon="5.48381">
        <ele>1457</ele>
        <time>2016-08-28T09:14:48Z</time>
      </trkpt>
      <trkpt lat="45.02596" lon="5.48367">
        <ele>1455</ele>
        <time>2016-08-28T09:14:51Z</time>
      </trkpt>
      <trkpt lat="45.02595" lon="5.48351">
        <ele>1454</ele>
        <time>2016-08-28T09:14:54Z</time>
      </trkpt>
      <trkpt lat="45.02595" lon="5.48334">
        <ele>1451</ele>
        <time>2016-08-28T09:14:58Z</time>
      </trkpt>
      <trkpt lat="45.02595" lon="5.48321">
        <ele>1443</ele>
        <time>2016-08-28T09:15:02Z</time>
      </trkpt>
      <trkpt lat="45.02595" lon="5.48307">
        <ele>1440</ele>
        <time>2016-08-28T09:15:17Z</time>
      </trkpt>
      <trkpt lat="45.02595" lon="5.48294">
        <ele>1437</ele>
        <time>2016-08-28T09:15:30Z</time>
      </trkpt>
      <trkpt lat="45.02604" lon="5.48285">
        <ele>1436</ele>
        <time>2016-08-28T09:15:49Z</time>
      </trkpt>
      <trkpt lat="45.02613" lon="5.48278">
        <ele>1435</ele>
        <time>2016-08-28T09:15:59Z</time>
      </trkpt>
      <trkpt lat="45.02622" lon="5.48275">
        <ele>1435</ele>
        <time>2016-08-28T09:16:07Z</time>
      </trkpt>
      <trkpt lat="45.02616" lon="5.48263">
        <ele>1433</ele>
        <time>2016-08-28T09:16:31Z</time>
      </trkpt>
      <trkpt lat="45.02605" lon="5.4825">
        <ele>1414</ele>
        <time>2016-08-28T09:16:40Z</time>
      </trkpt>
      <trkpt lat="45.02597" lon="5.4824">
        <ele>1415</ele>
        <time>2016-08-28T09:16:43Z</time>
      </trkpt>
      <trkpt lat="45.02587" lon="5.48231">
        <ele>1413</ele>
        <time>2016-08-28T09:16:47Z</time>
      </trkpt>
      <trkpt lat="45.02583" lon="5.48219">
        <ele>1418</ele>
        <time>2016-08-28T09:16:55Z</time>
      </trkpt>
      <trkpt lat="45.02573" lon="5.48214">
        <ele>1418</ele>
        <time>2016-08-28T09:17:05Z</time>
      </trkpt>
      <trkpt lat="45.02572" lon="5.48201">
        <ele>1414</ele>
        <time>2016-08-28T09:17:16Z</time>
      </trkpt>
      <trkpt lat="45.02563" lon="5.48196">
        <ele>1414</ele>
        <time>2016-08-28T09:17:27Z</time>
      </trkpt>
      <trkpt lat="45.02562" lon="5.48183">
        <ele>1410</ele>
        <time>2016-08-28T09:17:44Z</time>
      </trkpt>
      <trkpt lat="45.02553" lon="5.48172">
        <ele>1411</ele>
        <time>2016-08-28T09:18:00Z</time>
      </trkpt>
      <trkpt lat="45.02546" lon="5.48162">
        <ele>1391</ele>
        <time>2016-08-28T09:18:06Z</time>
      </trkpt>
      <trkpt lat="45.02536" lon="5.4816">
        <ele>1393</ele>
        <time>2016-08-28T09:18:10Z</time>
      </trkpt>
      <trkpt lat="45.02544" lon="5.48153">
        <ele>1390</ele>
        <time>2016-08-28T09:18:26Z</time>
      </trkpt>
      <trkpt lat="45.02538" lon="5.48142">
        <ele>1389</ele>
        <time>2016-08-28T09:18:56Z</time>
      </trkpt>
      <trkpt lat="45.02532" lon="5.4813">
        <ele>1388</ele>
        <time>2016-08-28T09:19:03Z</time>
      </trkpt>
      <trkpt lat="45.02522" lon="5.4813">
        <ele>1389</ele>
        <time>2016-08-28T09:19:10Z</time>
      </trkpt>
      <trkpt lat="45.02514" lon="5.48117">
        <ele>1387</ele>
        <time>2016-08-28T09:19:17Z</time>
      </trkpt>
      <trkpt lat="45.02504" lon="5.48109">
        <ele>1385</ele>
        <time>2016-08-28T09:19:20Z</time>
      </trkpt>
      <trkpt lat="45.02495" lon="5.48102">
        <ele>1394</ele>
        <time>2016-08-28T09:19:23Z</time>
      </trkpt>
      <trkpt lat="45.02489" lon="5.48089">
        <ele>1390</ele>
        <time>2016-08-28T09:19:28Z</time>
      </trkpt>
      <trkpt lat="45.0248" lon="5.48082">
        <ele>1375</ele>
        <time>2016-08-28T09:19:33Z</time>
      </trkpt>
      <trkpt lat="45.02471" lon="5.48072">
        <ele>1373</ele>
        <time>2016-08-28T09:19:38Z</time>
      </trkpt>
      <trkpt lat="45.0246" lon="5.48066">
        <ele>1373</ele>
        <time>2016-08-28T09:19:44Z</time>
      </trkpt>
      <trkpt lat="45.02452" lon="5.48058">
        <ele>1373</ele>
        <time>2016-08-28T09:19:51Z</time>
      </trkpt>
      <trkpt lat="45.02443" lon="5.48051">
        <ele>1372</ele>
        <time>2016-08-28T09:19:56Z</time>
      </trkpt>
      <trkpt lat="45.02435" lon="5.48043">
        <ele>1371</ele>
        <time>2016-08-28T09:20:01Z</time>
      </trkpt>
      <trkpt lat="45.02426" lon="5.48039">
        <ele>1371</ele>
        <time>2016-08-28T09:20:04Z</time>
      </trkpt>
      <trkpt lat="45.02417" lon="5.48033">
        <ele>1369</ele>
        <time>2016-08-28T09:20:09Z</time>
      </trkpt>
      <trkpt lat="45.02409" lon="5.48026">
        <ele>1379</ele>
        <time>2016-08-28T09:20:15Z</time>
      </trkpt>
      <trkpt lat="45.024" lon="5.48019">
        <ele>1377</ele>
        <time>2016-08-28T09:20:25Z</time>
      </trkpt>
      <trkpt lat="45.02393" lon="5.48009">
        <ele>1377</ele>
        <time>2016-08-28T09:20:30Z</time>
      </trkpt>
      <trkpt lat="45.02384" lon="5.48007">
        <ele>1379</ele>
        <time>2016-08-28T09:20:32Z</time>
      </trkpt>
      <trkpt lat="45.02376" lon="5.47998">
        <ele>1359</ele>
        <time>2016-08-28T09:20:35Z</time>
      </trkpt>
      <trkpt lat="45.02366" lon="5.47993">
        <ele>1360</ele>
        <time>2016-08-28T09:20:38Z</time>
      </trkpt>
      <trkpt lat="45.02356" lon="5.47989">
        <ele>1362</ele>
        <time>2016-08-28T09:20:44Z</time>
      </trkpt>
      <trkpt lat="45.02355" lon="5.47973">
        <ele>1359</ele>
        <time>2016-08-28T09:20:51Z</time>
      </trkpt>
      <trkpt lat="45.02345" lon="5.47971">
        <ele>1360</ele>
        <time>2016-08-28T09:20:55Z</time>
      </trkpt>
      <trkpt lat="45.02335" lon="5.47962">
        <ele>1358</ele>
        <time>2016-08-28T09:20:58Z</time>
      </trkpt>
      <trkpt lat="45.02327" lon="5.47957">
        <ele>1367</ele>
        <time>2016-08-28T09:21:02Z</time>
      </trkpt>
      <trkpt lat="45.02318" lon="5.47951">
        <ele>1366</ele>
        <time>2016-08-28T09:21:05Z</time>
      </trkpt>
      <trkpt lat="45.02309" lon="5.47942">
        <ele>1365</ele>
        <time>2016-08-28T09:21:08Z</time>
      </trkpt>
      <trkpt lat="45.02297" lon="5.47938">
        <ele>1366</ele>
        <time>2016-08-28T09:21:11Z</time>
      </trkpt>
      <trkpt lat="45.02288" lon="5.47932">
        <ele>1366</ele>
        <time>2016-08-28T09:21:14Z</time>
      </trkpt>
      <trkpt lat="45.02278" lon="5.47932">
        <ele>1367</ele>
        <time>2016-08-28T09:21:18Z</time>
      </trkpt>
      <trkpt lat="45.02269" lon="5.47928">
        <ele>1366</ele>
        <time>2016-08-28T09:21:21Z</time>
      </trkpt>
      <trkpt lat="45.02259" lon="5.47924">
        <ele>1364</ele>
        <time>2016-08-28T09:21:25Z</time>
      </trkpt>
      <trkpt lat="45.02251" lon="5.47915">
        <ele>1359</ele>
        <time>2016-08-28T09:21:28Z</time>
      </trkpt>
      <trkpt lat="45.02242" lon="5.47909">
        <ele>1359</ele>
        <time>2016-08-28T09:21:31Z</time>
      </trkpt>
      <trkpt lat="45.02231" lon="5.47903">
        <ele>1358</ele>
        <time>2016-08-28T09:21:34Z</time>
      </trkpt>
      <trkpt lat="45.02221" lon="5.47892">
        <ele>1357</ele>
        <time>2016-08-28T09:21:39Z</time>
      </trkpt>
      <trkpt lat="45.02211" lon="5.47889">
        <ele>1358</ele>
        <time>2016-08-28T09:21:42Z</time>
      </trkpt>
      <trkpt lat="45.02202" lon="5.47876">
        <ele>1356</ele>
        <time>2016-08-28T09:21:48Z</time>
      </trkpt>
      <trkpt lat="45.02197" lon="5.47865">
        <ele>1355</ele>
        <time>2016-08-28T09:21:55Z</time>
      </trkpt>
      <trkpt lat="45.02189" lon="5.47857">
        <ele>1354</ele>
        <time>2016-08-28T09:22:00Z</time>
      </trkpt>
      <trkpt lat="45.02185" lon="5.47845">
        <ele>1352</ele>
        <time>2016-08-28T09:22:06Z</time>
      </trkpt>
      <trkpt lat="45.02185" lon="5.47831">
        <ele>1340</ele>
        <time>2016-08-28T09:22:13Z</time>
      </trkpt>
      <trkpt lat="45.02175" lon="5.47829">
        <ele>1343</ele>
        <time>2016-08-28T09:22:21Z</time>
      </trkpt>
      <trkpt lat="45.02173" lon="5.47812">
        <ele>1338</ele>
        <time>2016-08-28T09:22:29Z</time>
      </trkpt>
      <trkpt lat="45.02172" lon="5.47798">
        <ele>1334</ele>
        <time>2016-08-28T09:22:35Z</time>
      </trkpt>
      <trkpt lat="45.02172" lon="5.47785">
        <ele>1331</ele>
        <time>2016-08-28T09:22:47Z</time>
      </trkpt>
      <trkpt lat="45.02171" lon="5.4777">
        <ele>1329</ele>
        <time>2016-08-28T09:22:56Z</time>
      </trkpt>
      <trkpt lat="45.0217" lon="5.47754">
        <ele>1327</ele>
        <time>2016-08-28T09:23:03Z</time>
      </trkpt>
      <trkpt lat="45.02175" lon="5.47742">
        <ele>1321</ele>
        <time>2016-08-28T09:23:09Z</time>
      </trkpt>
      <trkpt lat="45.02165" lon="5.4774">
        <ele>1324</ele>
        <time>2016-08-28T09:23:16Z</time>
      </trkpt>
      <trkpt lat="45.02176" lon="5.47737">
        <ele>1319</ele>
        <time>2016-08-28T09:23:28Z</time>
      </trkpt>
      <trkpt lat="45.02188" lon="5.47738">
        <ele>1317</ele>
        <time>2016-08-28T09:23:31Z</time>
      </trkpt>
      <trkpt lat="45.02198" lon="5.4774">
        <ele>1315</ele>
        <time>2016-08-28T09:23:40Z</time>
      </trkpt>
      <trkpt lat="45.02205" lon="5.47731">
        <ele>1314</ele>
        <time>2016-08-28T09:23:47Z</time>
      </trkpt>
      <trkpt lat="45.02214" lon="5.47722">
        <ele>1312</ele>
        <time>2016-08-28T09:23:52Z</time>
      </trkpt>
      <trkpt lat="45.02225" lon="5.47714">
        <ele>1311</ele>
        <time>2016-08-28T09:23:55Z</time>
      </trkpt>
      <trkpt lat="45.02241" lon="5.47697">
        <ele>1308</ele>
        <time>2016-08-28T09:23:59Z</time>
      </trkpt>
      <trkpt lat="45.02248" lon="5.47686">
        <ele>1305</ele>
        <time>2016-08-28T09:24:01Z</time>
      </trkpt>
      <trkpt lat="45.02258" lon="5.47674">
        <ele>1301</ele>
        <time>2016-08-28T09:24:04Z</time>
      </trkpt>
      <trkpt lat="45.02265" lon="5.47657">
        <ele>1297</ele>
        <time>2016-08-28T09:24:07Z</time>
      </trkpt>
      <trkpt lat="45.02271" lon="5.47636">
        <ele>1295</ele>
        <time>2016-08-28T09:24:11Z</time>
      </trkpt>
      <trkpt lat="45.02274" lon="5.47621">
        <ele>1294</ele>
        <time>2016-08-28T09:24:18Z</time>
      </trkpt>
      <trkpt lat="45.02265" lon="5.47614">
        <ele>1294</ele>
        <time>2016-08-28T09:24:28Z</time>
      </trkpt>
      <trkpt lat="45.02256" lon="5.47608">
        <ele>1294</ele>
        <time>2016-08-28T09:24:33Z</time>
      </trkpt>
      <trkpt lat="45.02247" lon="5.47601">
        <ele>1296</ele>
        <time>2016-08-28T09:24:38Z</time>
      </trkpt>
      <trkpt lat="45.02239" lon="5.47593">
        <ele>1296</ele>
        <time>2016-08-28T09:24:43Z</time>
      </trkpt>
      <trkpt lat="45.02229" lon="5.47594">
        <ele>1296</ele>
        <time>2016-08-28T09:24:49Z</time>
      </trkpt>
      <trkpt lat="45.02217" lon="5.47595">
        <ele>1297</ele>
        <time>2016-08-28T09:24:59Z</time>
      </trkpt>
      <trkpt lat="45.02207" lon="5.47592">
        <ele>1298</ele>
        <time>2016-08-28T09:25:04Z</time>
      </trkpt>
      <trkpt lat="45.02199" lon="5.47584">
        <ele>1297</ele>
        <time>2016-08-28T09:25:08Z</time>
      </trkpt>
      <trkpt lat="45.02188" lon="5.4758">
        <ele>1295</ele>
        <time>2016-08-28T09:25:12Z</time>
      </trkpt>
      <trkpt lat="45.02179" lon="5.47576">
        <ele>1295</ele>
        <time>2016-08-28T09:25:14Z</time>
      </trkpt>
      <trkpt lat="45.02167" lon="5.47575">
        <ele>1295</ele>
        <time>2016-08-28T09:25:17Z</time>
      </trkpt>
      <trkpt lat="45.02156" lon="5.47577">
        <ele>1297</ele>
        <time>2016-08-28T09:25:21Z</time>
      </trkpt>
      <trkpt lat="45.02146" lon="5.4758">
        <ele>1298</ele>
        <time>2016-08-28T09:25:24Z</time>
      </trkpt>
      <trkpt lat="45.02136" lon="5.47579">
        <ele>1298</ele>
        <time>2016-08-28T09:25:28Z</time>
      </trkpt>
      <trkpt lat="45.02127" lon="5.47573">
        <ele>1299</ele>
        <time>2016-08-28T09:25:33Z</time>
      </trkpt>
      <trkpt lat="45.02117" lon="5.47571">
        <ele>1300</ele>
        <time>2016-08-28T09:25:36Z</time>
      </trkpt>
      <trkpt lat="45.02106" lon="5.47566">
        <ele>1301</ele>
        <time>2016-08-28T09:25:43Z</time>
      </trkpt>
      <trkpt lat="45.02094" lon="5.47562">
        <ele>1301</ele>
        <time>2016-08-28T09:25:47Z</time>
      </trkpt>
      <trkpt lat="45.02083" lon="5.47557">
        <ele>1308</ele>
        <time>2016-08-28T09:25:51Z</time>
      </trkpt>
      <trkpt lat="45.02073" lon="5.47554">
        <ele>1308</ele>
        <time>2016-08-28T09:25:54Z</time>
      </trkpt>
      <trkpt lat="45.02066" lon="5.47545">
        <ele>1308</ele>
        <time>2016-08-28T09:25:59Z</time>
      </trkpt>
      <trkpt lat="45.02058" lon="5.47538">
        <ele>1309</ele>
        <time>2016-08-28T09:26:03Z</time>
      </trkpt>
      <trkpt lat="45.02053" lon="5.47525">
        <ele>1308</ele>
        <time>2016-08-28T09:26:09Z</time>
      </trkpt>
      <trkpt lat="45.02053" lon="5.47511">
        <ele>1308</ele>
        <time>2016-08-28T09:26:16Z</time>
      </trkpt>
      <trkpt lat="45.02048" lon="5.47498">
        <ele>1304</ele>
        <time>2016-08-28T09:26:21Z</time>
      </trkpt>
      <trkpt lat="45.02048" lon="5.47482">
        <ele>1304</ele>
        <time>2016-08-28T09:26:26Z</time>
      </trkpt>
      <trkpt lat="45.02042" lon="5.47467">
        <ele>1304</ele>
        <time>2016-08-28T09:26:30Z</time>
      </trkpt>
      <trkpt lat="45.02038" lon="5.47453">
        <ele>1304</ele>
        <time>2016-08-28T09:26:34Z</time>
      </trkpt>
      <trkpt lat="45.02034" lon="5.47441">
        <ele>1304</ele>
        <time>2016-08-28T09:26:39Z</time>
      </trkpt>
      <trkpt lat="45.02025" lon="5.47427">
        <ele>1305</ele>
        <time>2016-08-28T09:26:44Z</time>
      </trkpt>
      <trkpt lat="45.02019" lon="5.47415">
        <ele>1305</ele>
        <time>2016-08-28T09:26:48Z</time>
      </trkpt>
      <trkpt lat="45.02011" lon="5.47406">
        <ele>1306</ele>
        <time>2016-08-28T09:26:52Z</time>
      </trkpt>
      <trkpt lat="45.02007" lon="5.47392">
        <ele>1306</ele>
        <time>2016-08-28T09:26:57Z</time>
      </trkpt>
      <trkpt lat="45.02008" lon="5.47377">
        <ele>1305</ele>
        <time>2016-08-28T09:27:05Z</time>
      </trkpt>
      <trkpt lat="45.02001" lon="5.47367">
        <ele>1306</ele>
        <time>2016-08-28T09:27:09Z</time>
      </trkpt>
      <trkpt lat="45.01996" lon="5.47355">
        <ele>1314</ele>
        <time>2016-08-28T09:27:14Z</time>
      </trkpt>
      <trkpt lat="45.01987" lon="5.47347">
        <ele>1314</ele>
        <time>2016-08-28T09:27:21Z</time>
      </trkpt>
      <trkpt lat="45.01977" lon="5.47353">
        <ele>1315</ele>
        <time>2016-08-28T09:27:27Z</time>
      </trkpt>
      <trkpt lat="45.01968" lon="5.47357">
        <ele>1315</ele>
        <time>2016-08-28T09:27:37Z</time>
      </trkpt>
      <trkpt lat="45.01965" lon="5.47371">
        <ele>1315</ele>
        <time>2016-08-28T09:27:45Z</time>
      </trkpt>
      <trkpt lat="45.01962" lon="5.47386">
        <ele>1315</ele>
        <time>2016-08-28T09:27:56Z</time>
      </trkpt>
      <trkpt lat="45.01956" lon="5.47397">
        <ele>1315</ele>
        <time>2016-08-28T09:28:01Z</time>
      </trkpt>
      <trkpt lat="45.01946" lon="5.47397">
        <ele>1316</ele>
        <time>2016-08-28T09:28:09Z</time>
      </trkpt>
      <trkpt lat="45.01943" lon="5.47413">
        <ele>1317</ele>
        <time>2016-08-28T09:28:18Z</time>
      </trkpt>
      <trkpt lat="45.01936" lon="5.47424">
        <ele>1319</ele>
        <time>2016-08-28T09:28:25Z</time>
      </trkpt>
      <trkpt lat="45.01932" lon="5.47435">
        <ele>1319</ele>
        <time>2016-08-28T09:28:32Z</time>
      </trkpt>
      <trkpt lat="45.01923" lon="5.47439">
        <ele>1320</ele>
        <time>2016-08-28T09:28:39Z</time>
      </trkpt>
      <trkpt lat="45.01912" lon="5.47447">
        <ele>1324</ele>
        <time>2016-08-28T09:28:45Z</time>
      </trkpt>
      <trkpt lat="45.01904" lon="5.47456">
        <ele>1325</ele>
        <time>2016-08-28T09:28:48Z</time>
      </trkpt>
      <trkpt lat="45.01899" lon="5.47468">
        <ele>1325</ele>
        <time>2016-08-28T09:28:51Z</time>
      </trkpt>
      <trkpt lat="45.01893" lon="5.47478">
        <ele>1326</ele>
        <time>2016-08-28T09:28:54Z</time>
      </trkpt>
      <trkpt lat="45.01889" lon="5.47492">
        <ele>1326</ele>
        <time>2016-08-28T09:28:58Z</time>
      </trkpt>
      <trkpt lat="45.01887" lon="5.47506">
        <ele>1327</ele>
        <time>2016-08-28T09:29:03Z</time>
      </trkpt>
      <trkpt lat="45.01885" lon="5.4752">
        <ele>1327</ele>
        <time>2016-08-28T09:29:07Z</time>
      </trkpt>
      <trkpt lat="45.01884" lon="5.47534">
        <ele>1327</ele>
        <time>2016-08-28T09:29:11Z</time>
      </trkpt>
      <trkpt lat="45.01876" lon="5.47542">
        <ele>1327</ele>
        <time>2016-08-28T09:29:17Z</time>
      </trkpt>
      <trkpt lat="45.0187" lon="5.47552">
        <ele>1328</ele>
        <time>2016-08-28T09:29:25Z</time>
      </trkpt>
      <trkpt lat="45.01861" lon="5.47559">
        <ele>1328</ele>
        <time>2016-08-28T09:29:34Z</time>
      </trkpt>
      <trkpt lat="45.01852" lon="5.47559">
        <ele>1328</ele>
        <time>2016-08-28T09:29:39Z</time>
      </trkpt>
      <trkpt lat="45.0184" lon="5.47558">
        <ele>1328</ele>
        <time>2016-08-28T09:29:46Z</time>
      </trkpt>
      <trkpt lat="45.0183" lon="5.47564">
        <ele>1329</ele>
        <time>2016-08-28T09:29:49Z</time>
      </trkpt>
      <trkpt lat="45.01825" lon="5.47552">
        <ele>1329</ele>
        <time>2016-08-28T09:29:52Z</time>
      </trkpt>
      <trkpt lat="45.01816" lon="5.47548">
        <ele>1329</ele>
        <time>2016-08-28T09:29:55Z</time>
      </trkpt>
      <trkpt lat="45.01807" lon="5.47545">
        <ele>1329</ele>
        <time>2016-08-28T09:29:58Z</time>
      </trkpt>
      <trkpt lat="45.01796" lon="5.47542">
        <ele>1329</ele>
        <time>2016-08-28T09:30:01Z</time>
      </trkpt>
      <trkpt lat="45.01788" lon="5.47533">
        <ele>1329</ele>
        <time>2016-08-28T09:30:04Z</time>
      </trkpt>
      <trkpt lat="45.0178" lon="5.47526">
        <ele>1329</ele>
        <time>2016-08-28T09:30:08Z</time>
      </trkpt>
      <trkpt lat="45.0177" lon="5.47521">
        <ele>1329</ele>
        <time>2016-08-28T09:30:12Z</time>
      </trkpt>
      <trkpt lat="45.01757" lon="5.47518">
        <ele>1329</ele>
        <time>2016-08-28T09:30:17Z</time>
      </trkpt>
      <trkpt lat="45.01745" lon="5.47517">
        <ele>1329</ele>
        <time>2016-08-28T09:30:19Z</time>
      </trkpt>
      <trkpt lat="45.01734" lon="5.47518">
        <ele>1329</ele>
        <time>2016-08-28T09:30:23Z</time>
      </trkpt>
      <trkpt lat="45.01725" lon="5.47522">
        <ele>1329</ele>
        <time>2016-08-28T09:30:30Z</time>
      </trkpt>
      <trkpt lat="45.01718" lon="5.47531">
        <ele>1329</ele>
        <time>2016-08-28T09:30:44Z</time>
      </trkpt>
      <trkpt lat="45.01709" lon="5.47539">
        <ele>1329</ele>
        <time>2016-08-28T09:30:52Z</time>
      </trkpt>
      <trkpt lat="45.01698" lon="5.47547">
        <ele>1329</ele>
        <time>2016-08-28T09:30:55Z</time>
      </trkpt>
      <trkpt lat="45.01682" lon="5.47545">
        <ele>1329</ele>
        <time>2016-08-28T09:30:57Z</time>
      </trkpt>
      <trkpt lat="45.01668" lon="5.47533">
        <ele>1328</ele>
        <time>2016-08-28T09:30:59Z</time>
      </trkpt>
      <trkpt lat="45.01657" lon="5.47525">
        <ele>1327</ele>
        <time>2016-08-28T09:31:01Z</time>
      </trkpt>
      <trkpt lat="45.01645" lon="5.47515">
        <ele>1327</ele>
        <time>2016-08-28T09:31:03Z</time>
      </trkpt>
      <trkpt lat="45.01626" lon="5.47493">
        <ele>1323</ele>
        <time>2016-08-28T09:31:07Z</time>
      </trkpt>
      <trkpt lat="45.01615" lon="5.47485">
        <ele>1322</ele>
        <time>2016-08-28T09:31:10Z</time>
      </trkpt>
      <trkpt lat="45.01604" lon="5.47471">
        <ele>1322</ele>
        <time>2016-08-28T09:31:12Z</time>
      </trkpt>
      <trkpt lat="45.01591" lon="5.47455">
        <ele>1322</ele>
        <time>2016-08-28T09:31:14Z</time>
      </trkpt>
      <trkpt lat="45.01584" lon="5.47446">
        <ele>1321</ele>
        <time>2016-08-28T09:31:15Z</time>
      </trkpt>
      <trkpt lat="45.01572" lon="5.4743">
        <ele>1320</ele>
        <time>2016-08-28T09:31:17Z</time>
      </trkpt>
      <trkpt lat="45.01561" lon="5.47417">
        <ele>1320</ele>
        <time>2016-08-28T09:31:19Z</time>
      </trkpt>
      <trkpt lat="45.0155" lon="5.47406">
        <ele>1317</ele>
        <time>2016-08-28T09:31:21Z</time>
      </trkpt>
      <trkpt lat="45.01542" lon="5.47415">
        <ele>1317</ele>
        <time>2016-08-28T09:31:34Z</time>
      </trkpt>
      <trkpt lat="45.01535" lon="5.47424">
        <ele>1319</ele>
        <time>2016-08-28T09:31:40Z</time>
      </trkpt>
      <trkpt lat="45.01524" lon="5.47435">
        <ele>1319</ele>
        <time>2016-08-28T09:31:44Z</time>
      </trkpt>
      <trkpt lat="45.01516" lon="5.47441">
        <ele>1319</ele>
        <time>2016-08-28T09:31:46Z</time>
      </trkpt>
      <trkpt lat="45.01501" lon="5.47443">
        <ele>1319</ele>
        <time>2016-08-28T09:31:49Z</time>
      </trkpt>
      <trkpt lat="45.01486" lon="5.47445">
        <ele>1320</ele>
        <time>2016-08-28T09:31:52Z</time>
      </trkpt>
      <trkpt lat="45.01478" lon="5.47455">
        <ele>1321</ele>
        <time>2016-08-28T09:31:57Z</time>
      </trkpt>
      <trkpt lat="45.01466" lon="5.47459">
        <ele>1321</ele>
        <time>2016-08-28T09:32:02Z</time>
      </trkpt>
      <trkpt lat="45.01455" lon="5.47461">
        <ele>1321</ele>
        <time>2016-08-28T09:32:08Z</time>
      </trkpt>
      <trkpt lat="45.01445" lon="5.47465">
        <ele>1322</ele>
        <time>2016-08-28T09:32:15Z</time>
      </trkpt>
      <trkpt lat="45.01435" lon="5.47463">
        <ele>1322</ele>
        <time>2016-08-28T09:32:20Z</time>
      </trkpt>
      <trkpt lat="45.01427" lon="5.47474">
        <ele>1322</ele>
        <time>2016-08-28T09:32:28Z</time>
      </trkpt>
      <trkpt lat="45.0142" lon="5.47485">
        <ele>1323</ele>
        <time>2016-08-28T09:32:37Z</time>
      </trkpt>
      <trkpt lat="45.01409" lon="5.4749">
        <ele>1324</ele>
        <time>2016-08-28T09:32:44Z</time>
      </trkpt>
      <trkpt lat="45.014" lon="5.47497">
        <ele>1324</ele>
        <time>2016-08-28T09:32:48Z</time>
      </trkpt>
      <trkpt lat="45.0139" lon="5.475">
        <ele>1324</ele>
        <time>2016-08-28T09:32:57Z</time>
      </trkpt>
      <trkpt lat="45.01381" lon="5.47496">
        <ele>1324</ele>
        <time>2016-08-28T09:33:04Z</time>
      </trkpt>
      <trkpt lat="45.0137" lon="5.47498">
        <ele>1325</ele>
        <time>2016-08-28T09:33:10Z</time>
      </trkpt>
      <trkpt lat="45.01361" lon="5.47501">
        <ele>1330</ele>
        <time>2016-08-28T09:33:14Z</time>
      </trkpt>
      <trkpt lat="45.0135" lon="5.47505">
        <ele>1330</ele>
        <time>2016-08-28T09:33:23Z</time>
      </trkpt>
      <trkpt lat="45.01341" lon="5.47508">
        <ele>1329</ele>
        <time>2016-08-28T09:33:27Z</time>
      </trkpt>
      <trkpt lat="45.01329" lon="5.47509">
        <ele>1329</ele>
        <time>2016-08-28T09:33:31Z</time>
      </trkpt>
      <trkpt lat="45.01318" lon="5.47509">
        <ele>1329</ele>
        <time>2016-08-28T09:33:35Z</time>
      </trkpt>
      <trkpt lat="45.01312" lon="5.47521">
        <ele>1329</ele>
        <time>2016-08-28T09:33:40Z</time>
      </trkpt>
      <trkpt lat="45.01306" lon="5.47534">
        <ele>1330</ele>
        <time>2016-08-28T09:33:45Z</time>
      </trkpt>
      <trkpt lat="45.01299" lon="5.47545">
        <ele>1330</ele>
        <time>2016-08-28T09:33:51Z</time>
      </trkpt>
      <trkpt lat="45.01289" lon="5.47547">
        <ele>1330</ele>
        <time>2016-08-28T09:33:56Z</time>
      </trkpt>
      <trkpt lat="45.01279" lon="5.47552">
        <ele>1330</ele>
        <time>2016-08-28T09:33:59Z</time>
      </trkpt>
      <trkpt lat="45.01269" lon="5.47556">
        <ele>1329</ele>
        <time>2016-08-28T09:34:02Z</time>
      </trkpt>
      <trkpt lat="45.01259" lon="5.4756">
        <ele>1329</ele>
        <time>2016-08-28T09:34:04Z</time>
      </trkpt>
      <trkpt lat="45.01249" lon="5.47566">
        <ele>1328</ele>
        <time>2016-08-28T09:34:06Z</time>
      </trkpt>
      <trkpt lat="45.01239" lon="5.4757">
        <ele>1328</ele>
        <time>2016-08-28T09:34:08Z</time>
      </trkpt>
      <trkpt lat="45.0123" lon="5.47574">
        <ele>1328</ele>
        <time>2016-08-28T09:34:10Z</time>
      </trkpt>
      <trkpt lat="45.01218" lon="5.47574">
        <ele>1327</ele>
        <time>2016-08-28T09:34:13Z</time>
      </trkpt>
      <trkpt lat="45.01205" lon="5.47581">
        <ele>1327</ele>
        <time>2016-08-28T09:34:16Z</time>
      </trkpt>
      <trkpt lat="45.01196" lon="5.47587">
        <ele>1333</ele>
        <time>2016-08-28T09:34:19Z</time>
      </trkpt>
      <trkpt lat="45.01184" lon="5.4759">
        <ele>1332</ele>
        <time>2016-08-28T09:34:24Z</time>
      </trkpt>
      <trkpt lat="45.01172" lon="5.47593">
        <ele>1331</ele>
        <time>2016-08-28T09:34:28Z</time>
      </trkpt>
      <trkpt lat="45.01161" lon="5.47603">
        <ele>1330</ele>
        <time>2016-08-28T09:34:34Z</time>
      </trkpt>
      <trkpt lat="45.01148" lon="5.47609">
        <ele>1331</ele>
        <time>2016-08-28T09:34:43Z</time>
      </trkpt>
      <trkpt lat="45.01134" lon="5.47609">
        <ele>1330</ele>
        <time>2016-08-28T09:34:46Z</time>
      </trkpt>
      <trkpt lat="45.01125" lon="5.47611">
        <ele>1330</ele>
        <time>2016-08-28T09:34:48Z</time>
      </trkpt>
      <trkpt lat="45.01116" lon="5.47617">
        <ele>1330</ele>
        <time>2016-08-28T09:34:50Z</time>
      </trkpt>
      <trkpt lat="45.01099" lon="5.47618">
        <ele>1329</ele>
        <time>2016-08-28T09:34:52Z</time>
      </trkpt>
      <trkpt lat="45.0108" lon="5.47617">
        <ele>1326</ele>
        <time>2016-08-28T09:34:54Z</time>
      </trkpt>
      <trkpt lat="45.01059" lon="5.47611">
        <ele>1326</ele>
        <time>2016-08-28T09:34:57Z</time>
      </trkpt>
      <trkpt lat="45.01047" lon="5.47613">
        <ele>1326</ele>
        <time>2016-08-28T09:34:58Z</time>
      </trkpt>
      <trkpt lat="45.01036" lon="5.47616">
        <ele>1326</ele>
        <time>2016-08-28T09:34:59Z</time>
      </trkpt>
      <trkpt lat="45.01024" lon="5.47621">
        <ele>1326</ele>
        <time>2016-08-28T09:35:01Z</time>
      </trkpt>
      <trkpt lat="45.01014" lon="5.47625">
        <ele>1326</ele>
        <time>2016-08-28T09:35:04Z</time>
      </trkpt>
      <trkpt lat="45.01003" lon="5.4763">
        <ele>1326</ele>
        <time>2016-08-28T09:35:09Z</time>
      </trkpt>
      <trkpt lat="45.00994" lon="5.47626">
        <ele>1328</ele>
        <time>2016-08-28T09:35:16Z</time>
      </trkpt>
      <trkpt lat="45.00985" lon="5.47626">
        <ele>1329</ele>
        <time>2016-08-28T09:35:22Z</time>
      </trkpt>
      <trkpt lat="45.00976" lon="5.47618">
        <ele>1329</ele>
        <time>2016-08-28T09:35:32Z</time>
      </trkpt>
      <trkpt lat="45.0098" lon="5.47605">
        <ele>1329</ele>
        <time>2016-08-28T09:35:40Z</time>
      </trkpt>
      <trkpt lat="45.00983" lon="5.47589">
        <ele>1328</ele>
        <time>2016-08-28T09:35:47Z</time>
      </trkpt>
      <trkpt lat="45.00984" lon="5.47575">
        <ele>1331</ele>
        <time>2016-08-28T09:35:52Z</time>
      </trkpt>
      <trkpt lat="45.00993" lon="5.47565">
        <ele>1331</ele>
        <time>2016-08-28T09:35:59Z</time>
      </trkpt>
      <trkpt lat="45.00997" lon="5.47553">
        <ele>1332</ele>
        <time>2016-08-28T09:36:12Z</time>
      </trkpt>
      <trkpt lat="45.01003" lon="5.4754">
        <ele>1326</ele>
        <time>2016-08-28T09:36:21Z</time>
      </trkpt>
      <trkpt lat="45.01006" lon="5.47523">
        <ele>1328</ele>
        <time>2016-08-28T09:36:27Z</time>
      </trkpt>
      <trkpt lat="45.01013" lon="5.47512">
        <ele>1328</ele>
        <time>2016-08-28T09:36:29Z</time>
      </trkpt>
      <trkpt lat="45.01018" lon="5.47497">
        <ele>1327</ele>
        <time>2016-08-28T09:36:32Z</time>
      </trkpt>
      <trkpt lat="45.01016" lon="5.4748">
        <ele>1326</ele>
        <time>2016-08-28T09:36:36Z</time>
      </trkpt>
      <trkpt lat="45.01009" lon="5.47468">
        <ele>1325</ele>
        <time>2016-08-28T09:36:38Z</time>
      </trkpt>
      <trkpt lat="45.01006" lon="5.47452">
        <ele>1324</ele>
        <time>2016-08-28T09:36:40Z</time>
      </trkpt>
      <trkpt lat="45.00996" lon="5.47441">
        <ele>1327</ele>
        <time>2016-08-28T09:36:42Z</time>
      </trkpt>
      <trkpt lat="45.00988" lon="5.47426">
        <ele>1325</ele>
        <time>2016-08-28T09:36:45Z</time>
      </trkpt>
      <trkpt lat="45.00984" lon="5.47414">
        <ele>1320</ele>
        <time>2016-08-28T09:36:47Z</time>
      </trkpt>
      <trkpt lat="45.00983" lon="5.47396">
        <ele>1319</ele>
        <time>2016-08-28T09:36:49Z</time>
      </trkpt>
      <trkpt lat="45.0098" lon="5.47371">
        <ele>1317</ele>
        <time>2016-08-28T09:36:52Z</time>
      </trkpt>
      <trkpt lat="45.00976" lon="5.47356">
        <ele>1316</ele>
        <time>2016-08-28T09:36:54Z</time>
      </trkpt>
      <trkpt lat="45.00977" lon="5.47343">
        <ele>1315</ele>
        <time>2016-08-28T09:36:56Z</time>
      </trkpt>
      <trkpt lat="45.0098" lon="5.47328">
        <ele>1309</ele>
        <time>2016-08-28T09:36:58Z</time>
      </trkpt>
      <trkpt lat="45.0098" lon="5.47311">
        <ele>1308</ele>
        <time>2016-08-28T09:37:02Z</time>
      </trkpt>
      <trkpt lat="45.00979" lon="5.47294">
        <ele>1306</ele>
        <time>2016-08-28T09:37:05Z</time>
      </trkpt>
      <trkpt lat="45.00975" lon="5.4728">
        <ele>1305</ele>
        <time>2016-08-28T09:37:07Z</time>
      </trkpt>
      <trkpt lat="45.0097" lon="5.47268">
        <ele>1304</ele>
        <time>2016-08-28T09:37:09Z</time>
      </trkpt>
      <trkpt lat="45.00965" lon="5.47256">
        <ele>1304</ele>
        <time>2016-08-28T09:37:11Z</time>
      </trkpt>
      <trkpt lat="45.00955" lon="5.47256">
        <ele>1303</ele>
        <time>2016-08-28T09:37:14Z</time>
      </trkpt>
      <trkpt lat="45.00944" lon="5.47256">
        <ele>1302</ele>
        <time>2016-08-28T09:37:19Z</time>
      </trkpt>
      <trkpt lat="45.0094" lon="5.47269">
        <ele>1302</ele>
        <time>2016-08-28T09:37:24Z</time>
      </trkpt>
      <trkpt lat="45.00934" lon="5.47281">
        <ele>1303</ele>
        <time>2016-08-28T09:37:34Z</time>
      </trkpt>
      <trkpt lat="45.00925" lon="5.47288">
        <ele>1303</ele>
        <time>2016-08-28T09:37:40Z</time>
      </trkpt>
      <trkpt lat="45.00917" lon="5.47283">
        <ele>1298</ele>
        <time>2016-08-28T09:37:49Z</time>
      </trkpt>
      <trkpt lat="45.00906" lon="5.47285">
        <ele>1298</ele>
        <time>2016-08-28T09:37:54Z</time>
      </trkpt>
      <trkpt lat="45.00897" lon="5.473">
        <ele>1299</ele>
        <time>2016-08-28T09:37:58Z</time>
      </trkpt>
      <trkpt lat="45.00886" lon="5.47309">
        <ele>1299</ele>
        <time>2016-08-28T09:38:02Z</time>
      </trkpt>
      <trkpt lat="45.00876" lon="5.47315">
        <ele>1299</ele>
        <time>2016-08-28T09:38:05Z</time>
      </trkpt>
      <trkpt lat="45.00867" lon="5.47323">
        <ele>1299</ele>
        <time>2016-08-28T09:38:07Z</time>
      </trkpt>
      <trkpt lat="45.00855" lon="5.47329">
        <ele>1299</ele>
        <time>2016-08-28T09:38:10Z</time>
      </trkpt>
      <trkpt lat="45.00841" lon="5.47334">
        <ele>1304</ele>
        <time>2016-08-28T09:38:13Z</time>
      </trkpt>
      <trkpt lat="45.00832" lon="5.47337">
        <ele>1302</ele>
        <time>2016-08-28T09:38:17Z</time>
      </trkpt>
      <trkpt lat="45.00825" lon="5.47325">
        <ele>1297</ele>
        <time>2016-08-28T09:38:21Z</time>
      </trkpt>
      <trkpt lat="45.00816" lon="5.47318">
        <ele>1296</ele>
        <time>2016-08-28T09:38:23Z</time>
      </trkpt>
      <trkpt lat="45.00802" lon="5.4731">
        <ele>1294</ele>
        <time>2016-08-28T09:38:26Z</time>
      </trkpt>
      <trkpt lat="45.00791" lon="5.47301">
        <ele>1293</ele>
        <time>2016-08-28T09:38:28Z</time>
      </trkpt>
      <trkpt lat="45.00774" lon="5.47293">
        <ele>1292</ele>
        <time>2016-08-28T09:38:30Z</time>
      </trkpt>
      <trkpt lat="45.00759" lon="5.47293">
        <ele>1292</ele>
        <time>2016-08-28T09:38:32Z</time>
      </trkpt>
      <trkpt lat="45.0075" lon="5.47294">
        <ele>1291</ele>
        <time>2016-08-28T09:38:33Z</time>
      </trkpt>
      <trkpt lat="45.00734" lon="5.47297">
        <ele>1291</ele>
        <time>2016-08-28T09:38:35Z</time>
      </trkpt>
      <trkpt lat="45.00725" lon="5.473">
        <ele>1291</ele>
        <time>2016-08-28T09:38:38Z</time>
      </trkpt>
      <trkpt lat="45.00712" lon="5.47296">
        <ele>1291</ele>
        <time>2016-08-28T09:38:43Z</time>
      </trkpt>
      <trkpt lat="45.007" lon="5.47296">
        <ele>1291</ele>
        <time>2016-08-28T09:38:46Z</time>
      </trkpt>
      <trkpt lat="45.0069" lon="5.47292">
        <ele>1290</ele>
        <time>2016-08-28T09:38:48Z</time>
      </trkpt>
      <trkpt lat="45.00679" lon="5.4729">
        <ele>1289</ele>
        <time>2016-08-28T09:38:50Z</time>
      </trkpt>
      <trkpt lat="45.00669" lon="5.47278">
        <ele>1287</ele>
        <time>2016-08-28T09:38:53Z</time>
      </trkpt>
      <trkpt lat="45.00662" lon="5.4727">
        <ele>1286</ele>
        <time>2016-08-28T09:38:56Z</time>
      </trkpt>
      <trkpt lat="45.00652" lon="5.47265">
        <ele>1286</ele>
        <time>2016-08-28T09:38:58Z</time>
      </trkpt>
      <trkpt lat="45.00638" lon="5.47262">
        <ele>1287</ele>
        <time>2016-08-28T09:39:00Z</time>
      </trkpt>
      <trkpt lat="45.00624" lon="5.47255">
        <ele>1288</ele>
        <time>2016-08-28T09:39:03Z</time>
      </trkpt>
      <trkpt lat="45.00615" lon="5.47249">
        <ele>1272</ele>
        <time>2016-08-28T09:39:04Z</time>
      </trkpt>
      <trkpt lat="45.00599" lon="5.47245">
        <ele>1274</ele>
        <time>2016-08-28T09:39:06Z</time>
      </trkpt>
      <trkpt lat="45.0059" lon="5.47237">
        <ele>1274</ele>
        <time>2016-08-28T09:39:13Z</time>
      </trkpt>
      <trkpt lat="45.00581" lon="5.47244">
        <ele>1278</ele>
        <time>2016-08-28T09:39:19Z</time>
      </trkpt>
      <trkpt lat="45.00571" lon="5.47242">
        <ele>1276</ele>
        <time>2016-08-28T09:39:28Z</time>
      </trkpt>
      <trkpt lat="45.00562" lon="5.47243">
        <ele>1275</ele>
        <time>2016-08-28T09:39:38Z</time>
      </trkpt>
      <trkpt lat="45.00549" lon="5.47248">
        <ele>1275</ele>
        <time>2016-08-28T09:39:43Z</time>
      </trkpt>
      <trkpt lat="45.00539" lon="5.47249">
        <ele>1275</ele>
        <time>2016-08-28T09:39:47Z</time>
      </trkpt>
      <trkpt lat="45.0053" lon="5.47255">
        <ele>1292</ele>
        <time>2016-08-28T09:39:53Z</time>
      </trkpt>
      <trkpt lat="45.00519" lon="5.47257">
        <ele>1291</ele>
        <time>2016-08-28T09:40:00Z</time>
      </trkpt>
      <trkpt lat="45.00509" lon="5.47265">
        <ele>1291</ele>
        <time>2016-08-28T09:40:07Z</time>
      </trkpt>
      <trkpt lat="45.00502" lon="5.47274">
        <ele>1293</ele>
        <time>2016-08-28T09:40:19Z</time>
      </trkpt>
      <trkpt lat="45.00492" lon="5.47269">
        <ele>1295</ele>
        <time>2016-08-28T09:40:26Z</time>
      </trkpt>
      <trkpt lat="45.00485" lon="5.4726">
        <ele>1294</ele>
        <time>2016-08-28T09:40:31Z</time>
      </trkpt>
      <trkpt lat="45.00476" lon="5.47256">
        <ele>1295</ele>
        <time>2016-08-28T09:40:41Z</time>
      </trkpt>
      <trkpt lat="45.00467" lon="5.47256">
        <ele>1297</ele>
        <time>2016-08-28T09:40:44Z</time>
      </trkpt>
      <trkpt lat="45.00456" lon="5.47257">
        <ele>1298</ele>
        <time>2016-08-28T09:40:49Z</time>
      </trkpt>
      <trkpt lat="45.00446" lon="5.47259">
        <ele>1298</ele>
        <time>2016-08-28T09:40:52Z</time>
      </trkpt>
      <trkpt lat="45.00438" lon="5.47253">
        <ele>1297</ele>
        <time>2016-08-28T09:40:56Z</time>
      </trkpt>
      <trkpt lat="45.00427" lon="5.47243">
        <ele>1287</ele>
        <time>2016-08-28T09:41:00Z</time>
      </trkpt>
      <trkpt lat="45.00415" lon="5.47238">
        <ele>1290</ele>
        <time>2016-08-28T09:41:02Z</time>
      </trkpt>
      <trkpt lat="45.00404" lon="5.47238">
        <ele>1290</ele>
        <time>2016-08-28T09:41:04Z</time>
      </trkpt>
      <trkpt lat="45.00395" lon="5.47234">
        <ele>1289</ele>
        <time>2016-08-28T09:41:11Z</time>
      </trkpt>
      <trkpt lat="45.00386" lon="5.47241">
        <ele>1289</ele>
        <time>2016-08-28T09:41:14Z</time>
      </trkpt>
      <trkpt lat="45.00377" lon="5.47247">
        <ele>1290</ele>
        <time>2016-08-28T09:41:18Z</time>
      </trkpt>
      <trkpt lat="45.00368" lon="5.47244">
        <ele>1290</ele>
        <time>2016-08-28T09:41:32Z</time>
      </trkpt>
      <trkpt lat="45.00354" lon="5.4724">
        <ele>1291</ele>
        <time>2016-08-28T09:41:36Z</time>
      </trkpt>
      <trkpt lat="45.00344" lon="5.4724">
        <ele>1292</ele>
        <time>2016-08-28T09:41:38Z</time>
      </trkpt>
      <trkpt lat="45.00335" lon="5.47236">
        <ele>1292</ele>
        <time>2016-08-28T09:41:41Z</time>
      </trkpt>
      <trkpt lat="45.00325" lon="5.47238">
        <ele>1293</ele>
        <time>2016-08-28T09:41:44Z</time>
      </trkpt>
      <trkpt lat="45.00314" lon="5.47233">
        <ele>1291</ele>
        <time>2016-08-28T09:41:47Z</time>
      </trkpt>
      <trkpt lat="45.00303" lon="5.4723">
        <ele>1291</ele>
        <time>2016-08-28T09:41:52Z</time>
      </trkpt>
      <trkpt lat="45.00294" lon="5.47225">
        <ele>1290</ele>
        <time>2016-08-28T09:41:55Z</time>
      </trkpt>
      <trkpt lat="45.00282" lon="5.47221">
        <ele>1290</ele>
        <time>2016-08-28T09:41:59Z</time>
      </trkpt>
      <trkpt lat="45.00274" lon="5.47212">
        <ele>1289</ele>
        <time>2016-08-28T09:42:05Z</time>
      </trkpt>
      <trkpt lat="45.00269" lon="5.472">
        <ele>1288</ele>
        <time>2016-08-28T09:42:08Z</time>
      </trkpt>
      <trkpt lat="45.00259" lon="5.472">
        <ele>1288</ele>
        <time>2016-08-28T09:42:10Z</time>
      </trkpt>
      <trkpt lat="45.00245" lon="5.47203">
        <ele>1290</ele>
        <time>2016-08-28T09:42:12Z</time>
      </trkpt>
      <trkpt lat="45.00232" lon="5.47204">
        <ele>1290</ele>
        <time>2016-08-28T09:42:15Z</time>
      </trkpt>
      <trkpt lat="45.00223" lon="5.47196">
        <ele>1290</ele>
        <time>2016-08-28T09:42:20Z</time>
      </trkpt>
      <trkpt lat="45.00214" lon="5.47186">
        <ele>1290</ele>
        <time>2016-08-28T09:42:28Z</time>
      </trkpt>
      <trkpt lat="45.00206" lon="5.47179">
        <ele>1290</ele>
        <time>2016-08-28T09:42:32Z</time>
      </trkpt>
      <trkpt lat="45.00196" lon="5.47169">
        <ele>1290</ele>
        <time>2016-08-28T09:42:37Z</time>
      </trkpt>
      <trkpt lat="45.00185" lon="5.4716">
        <ele>1283</ele>
        <time>2016-08-28T09:42:40Z</time>
      </trkpt>
      <trkpt lat="45.00173" lon="5.47153">
        <ele>1284</ele>
        <time>2016-08-28T09:42:42Z</time>
      </trkpt>
      <trkpt lat="45.00163" lon="5.47149">
        <ele>1287</ele>
        <time>2016-08-28T09:42:44Z</time>
      </trkpt>
      <trkpt lat="45.00154" lon="5.47143">
        <ele>1286</ele>
        <time>2016-08-28T09:42:46Z</time>
      </trkpt>
      <trkpt lat="45.00144" lon="5.47135">
        <ele>1286</ele>
        <time>2016-08-28T09:42:52Z</time>
      </trkpt>
      <trkpt lat="45.00135" lon="5.47132">
        <ele>1286</ele>
        <time>2016-08-28T09:42:58Z</time>
      </trkpt>
      <trkpt lat="45.00125" lon="5.47132">
        <ele>1287</ele>
        <time>2016-08-28T09:43:02Z</time>
      </trkpt>
      <trkpt lat="45.00115" lon="5.47132">
        <ele>1287</ele>
        <time>2016-08-28T09:43:07Z</time>
      </trkpt>
      <trkpt lat="45.00103" lon="5.47134">
        <ele>1288</ele>
        <time>2016-08-28T09:43:12Z</time>
      </trkpt>
      <trkpt lat="45.00093" lon="5.4714">
        <ele>1289</ele>
        <time>2016-08-28T09:43:20Z</time>
      </trkpt>
      <trkpt lat="45.00082" lon="5.47139">
        <ele>1291</ele>
        <time>2016-08-28T09:43:25Z</time>
      </trkpt>
      <trkpt lat="45.00071" lon="5.47143">
        <ele>1292</ele>
        <time>2016-08-28T09:43:29Z</time>
      </trkpt>
      <trkpt lat="45.00062" lon="5.4714">
        <ele>1291</ele>
        <time>2016-08-28T09:43:32Z</time>
      </trkpt>
      <trkpt lat="45.00049" lon="5.47138">
        <ele>1291</ele>
        <time>2016-08-28T09:43:36Z</time>
      </trkpt>
      <trkpt lat="45.0004" lon="5.47129">
        <ele>1291</ele>
        <time>2016-08-28T09:43:41Z</time>
      </trkpt>
      <trkpt lat="45.00031" lon="5.47126">
        <ele>1290</ele>
        <time>2016-08-28T09:43:47Z</time>
      </trkpt>
      <trkpt lat="45.0002" lon="5.47125">
        <ele>1290</ele>
        <time>2016-08-28T09:43:54Z</time>
      </trkpt>
      <trkpt lat="45.00009" lon="5.47123">
        <ele>1290</ele>
        <time>2016-08-28T09:43:59Z</time>
      </trkpt>
      <trkpt lat="44.99999" lon="5.47117">
        <ele>1290</ele>
        <time>2016-08-28T09:44:03Z</time>
      </trkpt>
      <trkpt lat="44.9999" lon="5.4711">
        <ele>1290</ele>
        <time>2016-08-28T09:44:10Z</time>
      </trkpt>
      <trkpt lat="44.99981" lon="5.47101">
        <ele>1290</ele>
        <time>2016-08-28T09:44:14Z</time>
      </trkpt>
      <trkpt lat="44.9997" lon="5.47098">
        <ele>1290</ele>
        <time>2016-08-28T09:44:18Z</time>
      </trkpt>
      <trkpt lat="44.99961" lon="5.4709">
        <ele>1290</ele>
        <time>2016-08-28T09:44:25Z</time>
      </trkpt>
      <trkpt lat="44.9995" lon="5.47085">
        <ele>1290</ele>
        <time>2016-08-28T09:44:30Z</time>
      </trkpt>
      <trkpt lat="44.99943" lon="5.47074">
        <ele>1286</ele>
        <time>2016-08-28T09:44:35Z</time>
      </trkpt>
      <trkpt lat="44.9994" lon="5.47061">
        <ele>1286</ele>
        <time>2016-08-28T09:44:41Z</time>
      </trkpt>
      <trkpt lat="44.99937" lon="5.47046">
        <ele>1285</ele>
        <time>2016-08-28T09:44:45Z</time>
      </trkpt>
      <trkpt lat="44.99943" lon="5.47031">
        <ele>1284</ele>
        <time>2016-08-28T09:44:48Z</time>
      </trkpt>
      <trkpt lat="44.99945" lon="5.47017">
        <ele>1283</ele>
        <time>2016-08-28T09:44:52Z</time>
      </trkpt>
      <trkpt lat="44.99944" lon="5.47002">
        <ele>1282</ele>
        <time>2016-08-28T09:44:57Z</time>
      </trkpt>
      <trkpt lat="44.99941" lon="5.46988">
        <ele>1276</ele>
        <time>2016-08-28T09:45:03Z</time>
      </trkpt>
      <trkpt lat="44.99933" lon="5.4698">
        <ele>1276</ele>
        <time>2016-08-28T09:45:06Z</time>
      </trkpt>
      <trkpt lat="44.99926" lon="5.4697">
        <ele>1275</ele>
        <time>2016-08-28T09:45:08Z</time>
      </trkpt>
      <trkpt lat="44.99917" lon="5.46964">
        <ele>1274</ele>
        <time>2016-08-28T09:45:10Z</time>
      </trkpt>
      <trkpt lat="44.99906" lon="5.46953">
        <ele>1273</ele>
        <time>2016-08-28T09:45:12Z</time>
      </trkpt>
      <trkpt lat="44.9989" lon="5.46944">
        <ele>1273</ele>
        <time>2016-08-28T09:45:14Z</time>
      </trkpt>
      <trkpt lat="44.99876" lon="5.46932">
        <ele>1273</ele>
        <time>2016-08-28T09:45:16Z</time>
      </trkpt>
      <trkpt lat="44.99862" lon="5.46927">
        <ele>1273</ele>
        <time>2016-08-28T09:45:18Z</time>
      </trkpt>
      <trkpt lat="44.99856" lon="5.46917">
        <ele>1273</ele>
        <time>2016-08-28T09:45:20Z</time>
      </trkpt>
      <trkpt lat="44.99852" lon="5.469">
        <ele>1266</ele>
        <time>2016-08-28T09:45:23Z</time>
      </trkpt>
      <trkpt lat="44.99846" lon="5.46876">
        <ele>1264</ele>
        <time>2016-08-28T09:45:27Z</time>
      </trkpt>
      <trkpt lat="44.99848" lon="5.46858">
        <ele>1262</ele>
        <time>2016-08-28T09:45:31Z</time>
      </trkpt>
      <trkpt lat="44.99846" lon="5.46845">
        <ele>1261</ele>
        <time>2016-08-28T09:45:35Z</time>
      </trkpt>
      <trkpt lat="44.99843" lon="5.4683">
        <ele>1255</ele>
        <time>2016-08-28T09:45:37Z</time>
      </trkpt>
      <trkpt lat="44.9984" lon="5.4681">
        <ele>1250</ele>
        <time>2016-08-28T09:45:39Z</time>
      </trkpt>
      <trkpt lat="44.99838" lon="5.46795">
        <ele>1248</ele>
        <time>2016-08-28T09:45:42Z</time>
      </trkpt>
      <trkpt lat="44.99829" lon="5.46783">
        <ele>1252</ele>
        <time>2016-08-28T09:45:46Z</time>
      </trkpt>
      <trkpt lat="44.99821" lon="5.46775">
        <ele>1251</ele>
        <time>2016-08-28T09:45:50Z</time>
      </trkpt>
      <trkpt lat="44.99817" lon="5.46787">
        <ele>1253</ele>
        <time>2016-08-28T09:46:00Z</time>
      </trkpt>
      <trkpt lat="44.99808" lon="5.46793">
        <ele>1255</ele>
        <time>2016-08-28T09:46:08Z</time>
      </trkpt>
      <trkpt lat="44.99816" lon="5.46785">
        <ele>1253</ele>
        <time>2016-08-28T09:46:42Z</time>
      </trkpt>
      <trkpt lat="44.99822" lon="5.46775">
        <ele>1251</ele>
        <time>2016-08-28T09:46:46Z</time>
      </trkpt>
      <trkpt lat="44.99829" lon="5.46764">
        <ele>1248</ele>
        <time>2016-08-28T09:46:50Z</time>
      </trkpt>
      <trkpt lat="44.99829" lon="5.4675">
        <ele>1242</ele>
        <time>2016-08-28T09:46:54Z</time>
      </trkpt>
      <trkpt lat="44.99833" lon="5.46734">
        <ele>1240</ele>
        <time>2016-08-28T09:46:59Z</time>
      </trkpt>
      <trkpt lat="44.99824" lon="5.46727">
        <ele>1239</ele>
        <time>2016-08-28T09:47:04Z</time>
      </trkpt>
      <trkpt lat="44.99823" lon="5.46714">
        <ele>1238</ele>
        <time>2016-08-28T09:47:07Z</time>
      </trkpt>
      <trkpt lat="44.99823" lon="5.467">
        <ele>1235</ele>
        <time>2016-08-28T09:47:12Z</time>
      </trkpt>
      <trkpt lat="44.99818" lon="5.46689">
        <ele>1234</ele>
        <time>2016-08-28T09:47:16Z</time>
      </trkpt>
      <trkpt lat="44.9981" lon="5.46682">
        <ele>1234</ele>
        <time>2016-08-28T09:47:20Z</time>
      </trkpt>
      <trkpt lat="44.99803" lon="5.46673">
        <ele>1234</ele>
        <time>2016-08-28T09:47:24Z</time>
      </trkpt>
      <trkpt lat="44.99803" lon="5.46655">
        <ele>1221</ele>
        <time>2016-08-28T09:47:28Z</time>
      </trkpt>
      <trkpt lat="44.99797" lon="5.46637">
        <ele>1220</ele>
        <time>2016-08-28T09:47:32Z</time>
      </trkpt>
      <trkpt lat="44.99793" lon="5.46623">
        <ele>1218</ele>
        <time>2016-08-28T09:47:34Z</time>
      </trkpt>
      <trkpt lat="44.99788" lon="5.46611">
        <ele>1217</ele>
        <time>2016-08-28T09:47:36Z</time>
      </trkpt>
      <trkpt lat="44.99785" lon="5.46596">
        <ele>1216</ele>
        <time>2016-08-28T09:47:38Z</time>
      </trkpt>
      <trkpt lat="44.99776" lon="5.46581">
        <ele>1200</ele>
        <time>2016-08-28T09:47:40Z</time>
      </trkpt>
      <trkpt lat="44.99769" lon="5.46568">
        <ele>1200</ele>
        <time>2016-08-28T09:47:42Z</time>
      </trkpt>
      <trkpt lat="44.99762" lon="5.46558">
        <ele>1198</ele>
        <time>2016-08-28T09:47:45Z</time>
      </trkpt>
      <trkpt lat="44.99755" lon="5.46547">
        <ele>1195</ele>
        <time>2016-08-28T09:47:49Z</time>
      </trkpt>
      <trkpt lat="44.99753" lon="5.46533">
        <ele>1192</ele>
        <time>2016-08-28T09:47:58Z</time>
      </trkpt>
      <trkpt lat="44.99742" lon="5.46529">
        <ele>1201</ele>
        <time>2016-08-28T09:48:02Z</time>
      </trkpt>
      <trkpt lat="44.99732" lon="5.46522">
        <ele>1200</ele>
        <time>2016-08-28T09:48:08Z</time>
      </trkpt>
      <trkpt lat="44.99725" lon="5.46513">
        <ele>1199</ele>
        <time>2016-08-28T09:48:19Z</time>
      </trkpt>
      <trkpt lat="44.99718" lon="5.46503">
        <ele>1200</ele>
        <time>2016-08-28T09:48:26Z</time>
      </trkpt>
      <trkpt lat="44.99713" lon="5.46489">
        <ele>1182</ele>
        <time>2016-08-28T09:48:33Z</time>
      </trkpt>
      <trkpt lat="44.9971" lon="5.46476">
        <ele>1180</ele>
        <time>2016-08-28T09:48:55Z</time>
      </trkpt>
      <trkpt lat="44.99701" lon="5.46471">
        <ele>1181</ele>
        <time>2016-08-28T09:49:06Z</time>
      </trkpt>
      <trkpt lat="44.99694" lon="5.46461">
        <ele>1180</ele>
        <time>2016-08-28T09:49:12Z</time>
      </trkpt>
      <trkpt lat="44.99685" lon="5.46464">
        <ele>1181</ele>
        <time>2016-08-28T09:49:18Z</time>
      </trkpt>
      <trkpt lat="44.9968" lon="5.46452">
        <ele>1179</ele>
        <time>2016-08-28T09:49:25Z</time>
      </trkpt>
      <trkpt lat="44.99678" lon="5.46438">
        <ele>1177</ele>
        <time>2016-08-28T09:49:44Z</time>
      </trkpt>
      <trkpt lat="44.99683" lon="5.46416">
        <ele>1165</ele>
        <time>2016-08-28T09:49:50Z</time>
      </trkpt>
      <trkpt lat="44.99679" lon="5.46402">
        <ele>1163</ele>
        <time>2016-08-28T09:49:54Z</time>
      </trkpt>
      <trkpt lat="44.99676" lon="5.46388">
        <ele>1160</ele>
        <time>2016-08-28T09:49:57Z</time>
      </trkpt>
      <trkpt lat="44.99664" lon="5.46365">
        <ele>1170</ele>
        <time>2016-08-28T09:50:03Z</time>
      </trkpt>
      <trkpt lat="44.99651" lon="5.46356">
        <ele>1169</ele>
        <time>2016-08-28T09:50:07Z</time>
      </trkpt>
      <trkpt lat="44.99643" lon="5.46347">
        <ele>1169</ele>
        <time>2016-08-28T09:50:10Z</time>
      </trkpt>
      <trkpt lat="44.99642" lon="5.46334">
        <ele>1168</ele>
        <time>2016-08-28T09:50:15Z</time>
      </trkpt>
      <trkpt lat="44.99639" lon="5.46318">
        <ele>1158</ele>
        <time>2016-08-28T09:50:20Z</time>
      </trkpt>
      <trkpt lat="44.99634" lon="5.46303">
        <ele>1158</ele>
        <time>2016-08-28T09:50:24Z</time>
      </trkpt>
      <trkpt lat="44.99629" lon="5.46292">
        <ele>1157</ele>
        <time>2016-08-28T09:50:27Z</time>
      </trkpt>
      <trkpt lat="44.9963" lon="5.46277">
        <ele>1156</ele>
        <time>2016-08-28T09:50:30Z</time>
      </trkpt>
      <trkpt lat="44.99629" lon="5.46263">
        <ele>1155</ele>
        <time>2016-08-28T09:50:33Z</time>
      </trkpt>
      <trkpt lat="44.99628" lon="5.46249">
        <ele>1146</ele>
        <time>2016-08-28T09:50:36Z</time>
      </trkpt>
      <trkpt lat="44.99634" lon="5.46224">
        <ele>1144</ele>
        <time>2016-08-28T09:50:41Z</time>
      </trkpt>
      <trkpt lat="44.99634" lon="5.46208">
        <ele>1143</ele>
        <time>2016-08-28T09:50:43Z</time>
      </trkpt>
      <trkpt lat="44.99639" lon="5.46196">
        <ele>1141</ele>
        <time>2016-08-28T09:50:45Z</time>
      </trkpt>
      <trkpt lat="44.99637" lon="5.4618">
        <ele>1140</ele>
        <time>2016-08-28T09:50:50Z</time>
      </trkpt>
      <trkpt lat="44.99644" lon="5.46169">
        <ele>1138</ele>
        <time>2016-08-28T09:50:54Z</time>
      </trkpt>
      <trkpt lat="44.99649" lon="5.46158">
        <ele>1130</ele>
        <time>2016-08-28T09:50:57Z</time>
      </trkpt>
      <trkpt lat="44.99646" lon="5.46145">
        <ele>1130</ele>
        <time>2016-08-28T09:51:04Z</time>
      </trkpt>
      <trkpt lat="44.99646" lon="5.46131">
        <ele>1129</ele>
        <time>2016-08-28T09:51:09Z</time>
      </trkpt>
      <trkpt lat="44.99651" lon="5.46116">
        <ele>1126</ele>
        <time>2016-08-28T09:51:14Z</time>
      </trkpt>
      <trkpt lat="44.99654" lon="5.46099">
        <ele>1123</ele>
        <time>2016-08-28T09:51:18Z</time>
      </trkpt>
      <trkpt lat="44.99653" lon="5.46085">
        <ele>1120</ele>
        <time>2016-08-28T09:51:22Z</time>
      </trkpt>
      <trkpt lat="44.99653" lon="5.46072">
        <ele>1113</ele>
        <time>2016-08-28T09:51:27Z</time>
      </trkpt>
      <trkpt lat="44.99647" lon="5.46062">
        <ele>1112</ele>
        <time>2016-08-28T09:51:32Z</time>
      </trkpt>
      <trkpt lat="44.99648" lon="5.46047">
        <ele>1111</ele>
        <time>2016-08-28T09:51:37Z</time>
      </trkpt>
      <trkpt lat="44.99649" lon="5.46034">
        <ele>1108</ele>
        <time>2016-08-28T09:51:45Z</time>
      </trkpt>
      <trkpt lat="44.99647" lon="5.46018">
        <ele>1105</ele>
        <time>2016-08-28T09:51:51Z</time>
      </trkpt>
      <trkpt lat="44.99642" lon="5.46004">
        <ele>1104</ele>
        <time>2016-08-28T09:51:54Z</time>
      </trkpt>
      <trkpt lat="44.99632" lon="5.45994">
        <ele>1095</ele>
        <time>2016-08-28T09:51:58Z</time>
      </trkpt>
      <trkpt lat="44.99626" lon="5.45984">
        <ele>1095</ele>
        <time>2016-08-28T09:52:02Z</time>
      </trkpt>
      <trkpt lat="44.99632" lon="5.45971">
        <ele>1093</ele>
        <time>2016-08-28T09:52:06Z</time>
      </trkpt>
      <trkpt lat="44.99629" lon="5.45955">
        <ele>1092</ele>
        <time>2016-08-28T09:52:11Z</time>
      </trkpt>
      <trkpt lat="44.99629" lon="5.45941">
        <ele>1090</ele>
        <time>2016-08-28T09:52:15Z</time>
      </trkpt>
      <trkpt lat="44.99632" lon="5.45929">
        <ele>1088</ele>
        <time>2016-08-28T09:52:19Z</time>
      </trkpt>
      <trkpt lat="44.99643" lon="5.45925">
        <ele>1085</ele>
        <time>2016-08-28T09:52:24Z</time>
      </trkpt>
      <trkpt lat="44.9965" lon="5.45913">
        <ele>1078</ele>
        <time>2016-08-28T09:52:30Z</time>
      </trkpt>
      <trkpt lat="44.99657" lon="5.45904">
        <ele>1077</ele>
        <time>2016-08-28T09:52:35Z</time>
      </trkpt>
      <trkpt lat="44.99662" lon="5.45891">
        <ele>1078</ele>
        <time>2016-08-28T09:52:40Z</time>
      </trkpt>
      <trkpt lat="44.99672" lon="5.45889">
        <ele>1059</ele>
        <time>2016-08-28T09:52:49Z</time>
      </trkpt>
      <trkpt lat="44.99681" lon="5.45884">
        <ele>1057</ele>
        <time>2016-08-28T09:52:57Z</time>
      </trkpt>
      <trkpt lat="44.99689" lon="5.45873">
        <ele>1056</ele>
        <time>2016-08-28T09:53:01Z</time>
      </trkpt>
      <trkpt lat="44.99696" lon="5.45886">
        <ele>1055</ele>
        <time>2016-08-28T09:53:11Z</time>
      </trkpt>
      <trkpt lat="44.99706" lon="5.45889">
        <ele>1053</ele>
        <time>2016-08-28T09:53:15Z</time>
      </trkpt>
      <trkpt lat="44.99713" lon="5.45902">
        <ele>1052</ele>
        <time>2016-08-28T09:53:19Z</time>
      </trkpt>
      <trkpt lat="44.99723" lon="5.45903">
        <ele>1049</ele>
        <time>2016-08-28T09:53:29Z</time>
      </trkpt>
      <trkpt lat="44.99732" lon="5.45895">
        <ele>1048</ele>
        <time>2016-08-28T09:53:39Z</time>
      </trkpt>
      <trkpt lat="44.99739" lon="5.45904">
        <ele>1045</ele>
        <time>2016-08-28T09:53:46Z</time>
      </trkpt>
      <trkpt lat="44.9975" lon="5.45904">
        <ele>1044</ele>
        <time>2016-08-28T09:53:53Z</time>
      </trkpt>
      <trkpt lat="44.99752" lon="5.45919">
        <ele>1039</ele>
        <time>2016-08-28T09:54:01Z</time>
      </trkpt>
      <trkpt lat="44.99762" lon="5.45918">
        <ele>1037</ele>
        <time>2016-08-28T09:54:07Z</time>
      </trkpt>
      <trkpt lat="44.99772" lon="5.45916">
        <ele>1028</ele>
        <time>2016-08-28T09:54:12Z</time>
      </trkpt>
      <trkpt lat="44.99781" lon="5.45904">
        <ele>1024</ele>
        <time>2016-08-28T09:54:17Z</time>
      </trkpt>
      <trkpt lat="44.99785" lon="5.45893">
        <ele>1022</ele>
        <time>2016-08-28T09:54:30Z</time>
      </trkpt>
      <trkpt lat="44.99795" lon="5.45892">
        <ele>1019</ele>
        <time>2016-08-28T09:54:40Z</time>
      </trkpt>
      <trkpt lat="44.99787" lon="5.45883">
        <ele>1021</ele>
        <time>2016-08-28T09:54:48Z</time>
      </trkpt>
      <trkpt lat="44.99783" lon="5.4587">
        <ele>1021</ele>
        <time>2016-08-28T09:54:55Z</time>
      </trkpt>
      <trkpt lat="44.99783" lon="5.45857">
        <ele>1020</ele>
        <time>2016-08-28T09:55:03Z</time>
      </trkpt>
      <trkpt lat="44.99785" lon="5.45841">
        <ele>1019</ele>
        <time>2016-08-28T09:55:08Z</time>
      </trkpt>
      <trkpt lat="44.99791" lon="5.45831">
        <ele>1013</ele>
        <time>2016-08-28T09:55:11Z</time>
      </trkpt>
      <trkpt lat="44.99796" lon="5.45819">
        <ele>1012</ele>
        <time>2016-08-28T09:55:14Z</time>
      </trkpt>
      <trkpt lat="44.99803" lon="5.4581">
        <ele>1010</ele>
        <time>2016-08-28T09:55:20Z</time>
      </trkpt>
      <trkpt lat="44.99811" lon="5.45803">
        <ele>1009</ele>
        <time>2016-08-28T09:55:24Z</time>
      </trkpt>
      <trkpt lat="44.99818" lon="5.45793">
        <ele>1007</ele>
        <time>2016-08-28T09:55:28Z</time>
      </trkpt>
      <trkpt lat="44.99827" lon="5.458">
        <ele>1006</ele>
        <time>2016-08-28T09:55:37Z</time>
      </trkpt>
      <trkpt lat="44.99839" lon="5.45805">
        <ele>980</ele>
        <time>2016-08-28T09:55:41Z</time>
      </trkpt>
      <trkpt lat="44.99849" lon="5.45807">
        <ele>978</ele>
        <time>2016-08-28T09:55:43Z</time>
      </trkpt>
      <trkpt lat="44.99859" lon="5.458">
        <ele>974</ele>
        <time>2016-08-28T09:55:46Z</time>
      </trkpt>
      <trkpt lat="44.99877" lon="5.45791">
        <ele>968</ele>
        <time>2016-08-28T09:55:51Z</time>
      </trkpt>
      <trkpt lat="44.99889" lon="5.4578">
        <ele>963</ele>
        <time>2016-08-28T09:55:54Z</time>
      </trkpt>
      <trkpt lat="44.99888" lon="5.45766">
        <ele>961</ele>
        <time>2016-08-28T09:55:59Z</time>
      </trkpt>
      <trkpt lat="44.99888" lon="5.45752">
        <ele>959</ele>
        <time>2016-08-28T09:56:29Z</time>
      </trkpt>
      <trkpt lat="44.99882" lon="5.45738">
        <ele>952</ele>
        <time>2016-08-28T09:56:45Z</time>
      </trkpt>
      <trkpt lat="44.99884" lon="5.45723">
        <ele>951</ele>
        <time>2016-08-28T09:56:50Z</time>
      </trkpt>
      <trkpt lat="44.99884" lon="5.45707">
        <ele>950</ele>
        <time>2016-08-28T09:56:55Z</time>
      </trkpt>
      <trkpt lat="44.99875" lon="5.45699">
        <ele>952</ele>
        <time>2016-08-28T09:56:59Z</time>
      </trkpt>
      <trkpt lat="44.99868" lon="5.45691">
        <ele>953</ele>
        <time>2016-08-28T09:57:04Z</time>
      </trkpt>
      <trkpt lat="44.99857" lon="5.4568">
        <ele>956</ele>
        <time>2016-08-28T09:57:08Z</time>
      </trkpt>
      <trkpt lat="44.99849" lon="5.45674">
        <ele>959</ele>
        <time>2016-08-28T09:57:11Z</time>
      </trkpt>
      <trkpt lat="44.99848" lon="5.45659">
        <ele>951</ele>
        <time>2016-08-28T09:57:25Z</time>
      </trkpt>
      <trkpt lat="44.99849" lon="5.45646">
        <ele>946</ele>
        <time>2016-08-28T09:57:33Z</time>
      </trkpt>
      <trkpt lat="44.99855" lon="5.45629">
        <ele>941</ele>
        <time>2016-08-28T09:58:03Z</time>
      </trkpt>
      <trkpt lat="44.99862" lon="5.45618">
        <ele>938</ele>
        <time>2016-08-28T09:58:09Z</time>
      </trkpt>
      <trkpt lat="44.99868" lon="5.45607">
        <ele>936</ele>
        <time>2016-08-28T09:58:26Z</time>
      </trkpt>
      <trkpt lat="44.99874" lon="5.45597">
        <ele>935</ele>
        <time>2016-08-28T09:58:52Z</time>
      </trkpt>
      <trkpt lat="44.99883" lon="5.45586">
        <ele>932</ele>
        <time>2016-08-28T09:58:58Z</time>
      </trkpt>
      <trkpt lat="44.99893" lon="5.45592">
        <ele>929</ele>
        <time>2016-08-28T09:59:34Z</time>
      </trkpt>
      <trkpt lat="44.99903" lon="5.45583">
        <ele>918</ele>
        <time>2016-08-28T09:59:40Z</time>
      </trkpt>
      <trkpt lat="44.99912" lon="5.45577">
        <ele>917</ele>
        <time>2016-08-28T09:59:46Z</time>
      </trkpt>
      <trkpt lat="44.99924" lon="5.45571">
        <ele>909</ele>
        <time>2016-08-28T09:59:50Z</time>
      </trkpt>
      <trkpt lat="44.99933" lon="5.45567">
        <ele>906</ele>
        <time>2016-08-28T09:59:53Z</time>
      </trkpt>
      <trkpt lat="44.99942" lon="5.45561">
        <ele>904</ele>
        <time>2016-08-28T09:59:59Z</time>
      </trkpt>
      <trkpt lat="44.99951" lon="5.45554">
        <ele>902</ele>
        <time>2016-08-28T10:00:03Z</time>
      </trkpt>
      <trkpt lat="44.99957" lon="5.45544">
        <ele>901</ele>
        <time>2016-08-28T10:00:05Z</time>
      </trkpt>
      <trkpt lat="44.99966" lon="5.45533">
        <ele>900</ele>
        <time>2016-08-28T10:00:08Z</time>
      </trkpt>
      <trkpt lat="44.99973" lon="5.45522">
        <ele>899</ele>
        <time>2016-08-28T10:00:11Z</time>
      </trkpt>
      <trkpt lat="44.99973" lon="5.45506">
        <ele>898</ele>
        <time>2016-08-28T10:00:27Z</time>
      </trkpt>
      <trkpt lat="44.99979" lon="5.45493">
        <ele>888</ele>
        <time>2016-08-28T10:00:31Z</time>
      </trkpt>
      <trkpt lat="44.99992" lon="5.45485">
        <ele>888</ele>
        <time>2016-08-28T10:00:37Z</time>
      </trkpt>
      <trkpt lat="44.99999" lon="5.45475">
        <ele>886</ele>
        <time>2016-08-28T10:00:41Z</time>
      </trkpt>
      <trkpt lat="45.00005" lon="5.45463">
        <ele>881</ele>
        <time>2016-08-28T10:00:48Z</time>
      </trkpt>
      <trkpt lat="45.00014" lon="5.45459">
        <ele>879</ele>
        <time>2016-08-28T10:00:53Z</time>
      </trkpt>
      <trkpt lat="45.00026" lon="5.45454">
        <ele>878</ele>
        <time>2016-08-28T10:00:59Z</time>
      </trkpt>
      <trkpt lat="45.00037" lon="5.45453">
        <ele>878</ele>
        <time>2016-08-28T10:01:16Z</time>
      </trkpt>
      <trkpt lat="45.00048" lon="5.45453">
        <ele>878</ele>
        <time>2016-08-28T10:01:19Z</time>
      </trkpt>
      <trkpt lat="45.00057" lon="5.45443">
        <ele>876</ele>
        <time>2016-08-28T10:01:23Z</time>
      </trkpt>
      <trkpt lat="45.00064" lon="5.45431">
        <ele>874</ele>
        <time>2016-08-28T10:01:26Z</time>
      </trkpt>
      <trkpt lat="45.00072" lon="5.45422">
        <ele>872</ele>
        <time>2016-08-28T10:01:28Z</time>
      </trkpt>
      <trkpt lat="45.00078" lon="5.45409">
        <ele>865</ele>
        <time>2016-08-28T10:01:31Z</time>
      </trkpt>
      <trkpt lat="45.00087" lon="5.45417">
        <ele>866</ele>
        <time>2016-08-28T10:01:43Z</time>
      </trkpt>
      <trkpt lat="45.00096" lon="5.45407">
        <ele>858</ele>
        <time>2016-08-28T10:01:48Z</time>
      </trkpt>
      <trkpt lat="45.00098" lon="5.45392">
        <ele>853</ele>
        <time>2016-08-28T10:01:53Z</time>
      </trkpt>
      <trkpt lat="45.00105" lon="5.45382">
        <ele>849</ele>
        <time>2016-08-28T10:02:01Z</time>
      </trkpt>
      <trkpt lat="45.00117" lon="5.45374">
        <ele>846</ele>
        <time>2016-08-28T10:02:17Z</time>
      </trkpt>
      <trkpt lat="45.00119" lon="5.4536">
        <ele>844</ele>
        <time>2016-08-28T10:02:32Z</time>
      </trkpt>
      <trkpt lat="45.00122" lon="5.45374">
        <ele>845</ele>
        <time>2016-08-28T10:02:40Z</time>
      </trkpt>
      <trkpt lat="45.00131" lon="5.45384">
        <ele>846</ele>
        <time>2016-08-28T10:02:44Z</time>
      </trkpt>
      <trkpt lat="45.00141" lon="5.45378">
        <ele>844</ele>
        <time>2016-08-28T10:02:46Z</time>
      </trkpt>
      <trkpt lat="45.00149" lon="5.45371">
        <ele>842</ele>
        <time>2016-08-28T10:02:54Z</time>
      </trkpt>
      <trkpt lat="45.00154" lon="5.45359">
        <ele>838</ele>
        <time>2016-08-28T10:03:08Z</time>
      </trkpt>
      <trkpt lat="45.00144" lon="5.4536">
        <ele>840</ele>
        <time>2016-08-28T10:03:15Z</time>
      </trkpt>
      <trkpt lat="45.00152" lon="5.4535">
        <ele>837</ele>
        <time>2016-08-28T10:03:18Z</time>
      </trkpt>
      <trkpt lat="45.00159" lon="5.4534">
        <ele>831</ele>
        <time>2016-08-28T10:03:21Z</time>
      </trkpt>
      <trkpt lat="45.00156" lon="5.45327">
        <ele>823</ele>
        <time>2016-08-28T10:03:34Z</time>
      </trkpt>
      <trkpt lat="45.00166" lon="5.45323">
        <ele>823</ele>
        <time>2016-08-28T10:03:39Z</time>
      </trkpt>
      <trkpt lat="45.00171" lon="5.45336">
        <ele>822</ele>
        <time>2016-08-28T10:03:49Z</time>
      </trkpt>
      <trkpt lat="45.00182" lon="5.45335">
        <ele>819</ele>
        <time>2016-08-28T10:04:11Z</time>
      </trkpt>
      <trkpt lat="45.00194" lon="5.45336">
        <ele>816</ele>
        <time>2016-08-28T10:04:20Z</time>
      </trkpt>
      <trkpt lat="45.00207" lon="5.45336">
        <ele>812</ele>
        <time>2016-08-28T10:04:29Z</time>
      </trkpt>
      <trkpt lat="45.00218" lon="5.45331">
        <ele>798</ele>
        <time>2016-08-28T10:04:34Z</time>
      </trkpt>
      <trkpt lat="45.00229" lon="5.45324">
        <ele>795</ele>
        <time>2016-08-28T10:04:48Z</time>
      </trkpt>
      <trkpt lat="45.0023" lon="5.45342">
        <ele>805</ele>
        <time>2016-08-28T10:04:56Z</time>
      </trkpt>
      <trkpt lat="45.00241" lon="5.45338">
        <ele>798</ele>
        <time>2016-08-28T10:05:12Z</time>
      </trkpt>
      <trkpt lat="45.00247" lon="5.45326">
        <ele>792</ele>
        <time>2016-08-28T10:05:20Z</time>
      </trkpt>
      <trkpt lat="45.00252" lon="5.45313">
        <ele>780</ele>
        <time>2016-08-28T10:05:28Z</time>
      </trkpt>
      <trkpt lat="45.00259" lon="5.45301">
        <ele>776</ele>
        <time>2016-08-28T10:05:32Z</time>
      </trkpt>
      <trkpt lat="45.00268" lon="5.45291">
        <ele>774</ele>
        <time>2016-08-28T10:05:36Z</time>
      </trkpt>
      <trkpt lat="45.0026" lon="5.453">
        <ele>776</ele>
        <time>2016-08-28T10:06:09Z</time>
      </trkpt>
      <trkpt lat="45.00268" lon="5.45294">
        <ele>774</ele>
        <time>2016-08-28T10:06:42Z</time>
      </trkpt>
      <trkpt lat="45.00273" lon="5.45282">
        <ele>773</ele>
        <time>2016-08-28T10:06:54Z</time>
      </trkpt>
      <trkpt lat="45.00277" lon="5.4527">
        <ele>772</ele>
        <time>2016-08-28T10:07:10Z</time>
      </trkpt>
      <trkpt lat="45.00283" lon="5.45257">
        <ele>771</ele>
        <time>2016-08-28T10:07:29Z</time>
      </trkpt>
      <trkpt lat="45.00291" lon="5.4525">
        <ele>769</ele>
        <time>2016-08-28T10:07:34Z</time>
      </trkpt>
      <trkpt lat="45.003" lon="5.45241">
        <ele>761</ele>
        <time>2016-08-28T10:07:41Z</time>
      </trkpt>
      <trkpt lat="45.00307" lon="5.45226">
        <ele>760</ele>
        <time>2016-08-28T10:07:57Z</time>
      </trkpt>
      <trkpt lat="45.00318" lon="5.45217">
        <ele>758</ele>
        <time>2016-08-28T10:08:02Z</time>
      </trkpt>
      <trkpt lat="45.00329" lon="5.45214">
        <ele>757</ele>
        <time>2016-08-28T10:08:06Z</time>
      </trkpt>
      <trkpt lat="45.00337" lon="5.45201">
        <ele>746</ele>
        <time>2016-08-28T10:08:10Z</time>
      </trkpt>
      <trkpt lat="45.00341" lon="5.45188">
        <ele>746</ele>
        <time>2016-08-28T10:08:14Z</time>
      </trkpt>
      <trkpt lat="45.00349" lon="5.45177">
        <ele>745</ele>
        <time>2016-08-28T10:08:21Z</time>
      </trkpt>
      <trkpt lat="45.00363" lon="5.45171">
        <ele>744</ele>
        <time>2016-08-28T10:08:24Z</time>
      </trkpt>
      <trkpt lat="45.00373" lon="5.45164">
        <ele>739</ele>
        <time>2016-08-28T10:08:28Z</time>
      </trkpt>
      <trkpt lat="45.00382" lon="5.4517">
        <ele>742</ele>
        <time>2016-08-28T10:08:31Z</time>
      </trkpt>
      <trkpt lat="45.00392" lon="5.45177">
        <ele>741</ele>
        <time>2016-08-28T10:08:34Z</time>
      </trkpt>
      <trkpt lat="45.00404" lon="5.45171">
        <ele>739</ele>
        <time>2016-08-28T10:08:37Z</time>
      </trkpt>
      <trkpt lat="45.00416" lon="5.45163">
        <ele>735</ele>
        <time>2016-08-28T10:08:39Z</time>
      </trkpt>
      <trkpt lat="45.00423" lon="5.4515">
        <ele>730</ele>
        <time>2016-08-28T10:08:41Z</time>
      </trkpt>
      <trkpt lat="45.00425" lon="5.45133">
        <ele>728</ele>
        <time>2016-08-28T10:08:43Z</time>
      </trkpt>
      <trkpt lat="45.00425" lon="5.45119">
        <ele>727</ele>
        <time>2016-08-28T10:08:45Z</time>
      </trkpt>
      <trkpt lat="45.00421" lon="5.45107">
        <ele>727</ele>
        <time>2016-08-28T10:08:47Z</time>
      </trkpt>
      <trkpt lat="45.00418" lon="5.45094">
        <ele>727</ele>
        <time>2016-08-28T10:08:50Z</time>
      </trkpt>
      <trkpt lat="45.00416" lon="5.45081">
        <ele>727</ele>
        <time>2016-08-28T10:08:54Z</time>
      </trkpt>
      <trkpt lat="45.00427" lon="5.45072">
        <ele>724</ele>
        <time>2016-08-28T10:08:57Z</time>
      </trkpt>
      <trkpt lat="45.00433" lon="5.4506">
        <ele>722</ele>
        <time>2016-08-28T10:08:59Z</time>
      </trkpt>
      <trkpt lat="45.00446" lon="5.45061">
        <ele>722</ele>
        <time>2016-08-28T10:09:08Z</time>
      </trkpt>
      <trkpt lat="45.00455" lon="5.45064">
        <ele>721</ele>
        <time>2016-08-28T10:09:12Z</time>
      </trkpt>
      <trkpt lat="45.0047" lon="5.45049">
        <ele>720</ele>
        <time>2016-08-28T10:09:17Z</time>
      </trkpt>
      <trkpt lat="45.0047" lon="5.45035">
        <ele>720</ele>
        <time>2016-08-28T10:09:21Z</time>
      </trkpt>
      <trkpt lat="45.00472" lon="5.45021">
        <ele>719</ele>
        <time>2016-08-28T10:09:25Z</time>
      </trkpt>
      <trkpt lat="45.00474" lon="5.45006">
        <ele>719</ele>
        <time>2016-08-28T10:09:34Z</time>
      </trkpt>
      <trkpt lat="45.00482" lon="5.44993">
        <ele>715</ele>
        <time>2016-08-28T10:09:49Z</time>
      </trkpt>
      <trkpt lat="45.00488" lon="5.45004">
        <ele>717</ele>
        <time>2016-08-28T10:10:19Z</time>
      </trkpt>
      <trkpt lat="45.00477" lon="5.45007">
        <ele>718</ele>
        <time>2016-08-28T10:10:40Z</time>
      </trkpt>
      <trkpt lat="45.00487" lon="5.45004">
        <ele>717</ele>
        <time>2016-08-28T10:11:50Z</time>
      </trkpt>
      <trkpt lat="45.00479" lon="5.45013">
        <ele>718</ele>
        <time>2016-08-28T10:11:57Z</time>
      </trkpt>
      <trkpt lat="45.0047" lon="5.45007">
        <ele>719</ele>
        <time>2016-08-28T10:12:33Z</time>
      </trkpt>
      <trkpt lat="45.00479" lon="5.45003">
        <ele>718</ele>
        <time>2016-08-28T10:12:49Z</time>
      </trkpt>
      <trkpt lat="45.0047" lon="5.45009">
        <ele>719</ele>
        <time>2016-08-28T10:13:13Z</time>
      </trkpt>
      <trkpt lat="45.00498" lon="5.45002">
        <ele>716</ele>
        <time>2016-08-28T10:13:30Z</time>
      </trkpt>
      <trkpt lat="45.00486" lon="5.45002">
        <ele>717</ele>
        <time>2016-08-28T10:13:35Z</time>
      </trkpt>
      <trkpt lat="45.00477" lon="5.45003">
        <ele>718</ele>
        <time>2016-08-28T10:13:36Z</time>
      </trkpt>
      <trkpt lat="45.00486" lon="5.45007">
        <ele>718</ele>
        <time>2016-08-28T10:15:39Z</time>
      </trkpt>
      <trkpt lat="45.00477" lon="5.45011">
        <ele>719</ele>
        <time>2016-08-28T10:16:52Z</time>
      </trkpt>
      <trkpt lat="45.0048" lon="5.44998">
        <ele>716</ele>
        <time>2016-08-28T10:17:09Z</time>
      </trkpt>
      <trkpt lat="45.00479" lon="5.45012">
        <ele>718</ele>
        <time>2016-08-28T10:18:26Z</time>
      </trkpt>
      <trkpt lat="45.0047" lon="5.45019">
        <ele>719</ele>
        <time>2016-08-28T10:18:37Z</time>
      </trkpt>
      <trkpt lat="45.00481" lon="5.45023">
        <ele>719</ele>
        <time>2016-08-28T10:19:05Z</time>
      </trkpt>
      <trkpt lat="45.00493" lon="5.45022">
        <ele>718</ele>
        <time>2016-08-28T10:19:14Z</time>
      </trkpt>
      <trkpt lat="45.00505" lon="5.45026">
        <ele>717</ele>
        <time>2016-08-28T10:19:24Z</time>
      </trkpt>
      <trkpt lat="45.00495" lon="5.45029">
        <ele>719</ele>
        <time>2016-08-28T10:19:32Z</time>
      </trkpt>
      <trkpt lat="45.00478" lon="5.45016">
        <ele>719</ele>
        <time>2016-08-28T10:19:42Z</time>
      </trkpt>
      <trkpt lat="45.00479" lon="5.45002">
        <ele>718</ele>
        <time>2016-08-28T10:20:02Z</time>
      </trkpt>
      <trkpt lat="45.00475" lon="5.45013">
        <ele>719</ele>
        <time>2016-08-28T10:20:41Z</time>
      </trkpt>
      <trkpt lat="45.00464" lon="5.4502">
        <ele>720</ele>
        <time>2016-08-28T10:21:07Z</time>
      </trkpt>
      <trkpt lat="45.00472" lon="5.4501">
        <ele>719</ele>
        <time>2016-08-28T10:21:26Z</time>
      </trkpt>
      <trkpt lat="45.00478" lon="5.45">
        <ele>716</ele>
        <time>2016-08-28T10:21:31Z</time>
      </trkpt>
      <trkpt lat="45.0047" lon="5.44994">
        <ele>716</ele>
        <time>2016-08-28T10:22:40Z</time>
      </trkpt>
      <trkpt lat="45.00479" lon="5.44995">
        <ele>716</ele>
        <time>2016-08-28T10:24:20Z</time>
      </trkpt>
      <trkpt lat="45.00488" lon="5.44999">
        <ele>715</ele>
        <time>2016-08-28T10:25:17Z</time>
      </trkpt>
      <trkpt lat="45.00478" lon="5.44995">
        <ele>716</ele>
        <time>2016-08-28T10:25:35Z</time>
      </trkpt>
      <trkpt lat="45.00475" lon="5.44981">
        <ele>715</ele>
        <time>2016-08-28T10:26:16Z</time>
      </trkpt>
      <trkpt lat="45.0047" lon="5.44969">
        <ele>715</ele>
        <time>2016-08-28T10:26:19Z</time>
      </trkpt>
      <trkpt lat="45.00469" lon="5.44954">
        <ele>715</ele>
        <time>2016-08-28T10:26:23Z</time>
      </trkpt>
      <trkpt lat="45.00464" lon="5.44938">
        <ele>715</ele>
        <time>2016-08-28T10:26:27Z</time>
      </trkpt>
      <trkpt lat="45.00462" lon="5.44923">
        <ele>714</ele>
        <time>2016-08-28T10:26:30Z</time>
      </trkpt>
      <trkpt lat="45.00453" lon="5.44912">
        <ele>713</ele>
        <time>2016-08-28T10:26:33Z</time>
      </trkpt>
      <trkpt lat="45.00451" lon="5.44896">
        <ele>713</ele>
        <time>2016-08-28T10:26:36Z</time>
      </trkpt>
      <trkpt lat="45.00447" lon="5.44879">
        <ele>713</ele>
        <time>2016-08-28T10:26:39Z</time>
      </trkpt>
      <trkpt lat="45.00441" lon="5.44866">
        <ele>713</ele>
        <time>2016-08-28T10:26:42Z</time>
      </trkpt>
      <trkpt lat="45.00437" lon="5.44853">
        <ele>714</ele>
        <time>2016-08-28T10:26:45Z</time>
      </trkpt>
      <trkpt lat="45.00437" lon="5.44838">
        <ele>714</ele>
        <time>2016-08-28T10:26:48Z</time>
      </trkpt>
      <trkpt lat="45.00435" lon="5.44823">
        <ele>713</ele>
        <time>2016-08-28T10:26:52Z</time>
      </trkpt>
      <trkpt lat="45.00434" lon="5.44808">
        <ele>713</ele>
        <time>2016-08-28T10:26:56Z</time>
      </trkpt>
      <trkpt lat="45.0043" lon="5.44794">
        <ele>712</ele>
        <time>2016-08-28T10:27:00Z</time>
      </trkpt>
      <trkpt lat="45.00422" lon="5.44786">
        <ele>712</ele>
        <time>2016-08-28T10:27:02Z</time>
      </trkpt>
      <trkpt lat="45.00415" lon="5.44776">
        <ele>717</ele>
        <time>2016-08-28T10:27:04Z</time>
      </trkpt>
      <trkpt lat="45.00409" lon="5.44766">
        <ele>716</ele>
        <time>2016-08-28T10:27:06Z</time>
      </trkpt>
      <trkpt lat="45.00401" lon="5.44755">
        <ele>716</ele>
        <time>2016-08-28T10:27:09Z</time>
      </trkpt>
      <trkpt lat="45.00389" lon="5.4475">
        <ele>717</ele>
        <time>2016-08-28T10:27:15Z</time>
      </trkpt>
      <trkpt lat="45.00379" lon="5.44747">
        <ele>714</ele>
        <time>2016-08-28T10:27:17Z</time>
      </trkpt>
      <trkpt lat="45.00368" lon="5.44738">
        <ele>715</ele>
        <time>2016-08-28T10:27:19Z</time>
      </trkpt>
      <trkpt lat="45.00363" lon="5.44726">
        <ele>715</ele>
        <time>2016-08-28T10:27:25Z</time>
      </trkpt>
      <trkpt lat="45.00354" lon="5.44727">
        <ele>715</ele>
        <time>2016-08-28T10:27:33Z</time>
      </trkpt>
      <trkpt lat="45.00349" lon="5.44738">
        <ele>716</ele>
        <time>2016-08-28T10:27:38Z</time>
      </trkpt>
      <trkpt lat="45.00344" lon="5.44749">
        <ele>718</ele>
        <time>2016-08-28T10:27:43Z</time>
      </trkpt>
      <trkpt lat="45.00335" lon="5.44757">
        <ele>720</ele>
        <time>2016-08-28T10:27:52Z</time>
      </trkpt>
      <trkpt lat="45.00326" lon="5.44759">
        <ele>722</ele>
        <time>2016-08-28T10:28:00Z</time>
      </trkpt>
      <trkpt lat="45.00316" lon="5.44755">
        <ele>723</ele>
        <time>2016-08-28T10:28:09Z</time>
      </trkpt>
      <trkpt lat="45.00305" lon="5.44755">
        <ele>724</ele>
        <time>2016-08-28T10:28:16Z</time>
      </trkpt>
      <trkpt lat="45.00293" lon="5.44754">
        <ele>724</ele>
        <time>2016-08-28T10:28:20Z</time>
      </trkpt>
      <trkpt lat="45.00282" lon="5.44752">
        <ele>725</ele>
        <time>2016-08-28T10:28:24Z</time>
      </trkpt>
      <trkpt lat="45.00272" lon="5.44751">
        <ele>725</ele>
        <time>2016-08-28T10:28:28Z</time>
      </trkpt>
      <trkpt lat="45.00261" lon="5.44752">
        <ele>725</ele>
        <time>2016-08-28T10:28:32Z</time>
      </trkpt>
      <trkpt lat="45.00251" lon="5.4475">
        <ele>725</ele>
        <time>2016-08-28T10:28:36Z</time>
      </trkpt>
      <trkpt lat="45.0024" lon="5.44749">
        <ele>726</ele>
        <time>2016-08-28T10:28:40Z</time>
      </trkpt>
      <trkpt lat="45.0023" lon="5.44746">
        <ele>726</ele>
        <time>2016-08-28T10:28:45Z</time>
      </trkpt>
      <trkpt lat="45.00219" lon="5.44739">
        <ele>727</ele>
        <time>2016-08-28T10:28:51Z</time>
      </trkpt>
      <trkpt lat="45.00208" lon="5.44732">
        <ele>728</ele>
        <time>2016-08-28T10:28:55Z</time>
      </trkpt>
      <trkpt lat="45.002" lon="5.44725">
        <ele>728</ele>
        <time>2016-08-28T10:28:59Z</time>
      </trkpt>
      <trkpt lat="45.00189" lon="5.44715">
        <ele>728</ele>
        <time>2016-08-28T10:29:06Z</time>
      </trkpt>
      <trkpt lat="45.00179" lon="5.44717">
        <ele>729</ele>
        <time>2016-08-28T10:29:15Z</time>
      </trkpt>
      <trkpt lat="45.00179" lon="5.44703">
        <ele>728</ele>
        <time>2016-08-28T10:29:32Z</time>
      </trkpt>
      <trkpt lat="45.0017" lon="5.44698">
        <ele>728</ele>
        <time>2016-08-28T10:29:37Z</time>
      </trkpt>
      <trkpt lat="45.00159" lon="5.44695">
        <ele>733</ele>
        <time>2016-08-28T10:29:44Z</time>
      </trkpt>
      <trkpt lat="45.00147" lon="5.44694">
        <ele>734</ele>
        <time>2016-08-28T10:29:48Z</time>
      </trkpt>
      <trkpt lat="45.00137" lon="5.44696">
        <ele>734</ele>
        <time>2016-08-28T10:29:53Z</time>
      </trkpt>
      <trkpt lat="45.00127" lon="5.44697">
        <ele>735</ele>
        <time>2016-08-28T10:29:57Z</time>
      </trkpt>
      <trkpt lat="45.00117" lon="5.447">
        <ele>736</ele>
        <time>2016-08-28T10:30:01Z</time>
      </trkpt>
      <trkpt lat="45.00107" lon="5.44701">
        <ele>736</ele>
        <time>2016-08-28T10:30:07Z</time>
      </trkpt>
      <trkpt lat="45.00098" lon="5.44703">
        <ele>737</ele>
        <time>2016-08-28T10:30:11Z</time>
      </trkpt>
      <trkpt lat="45.00088" lon="5.44705">
        <ele>737</ele>
        <time>2016-08-28T10:30:15Z</time>
      </trkpt>
      <trkpt lat="45.00078" lon="5.44707">
        <ele>743</ele>
        <time>2016-08-28T10:30:19Z</time>
      </trkpt>
      <trkpt lat="45.00069" lon="5.44711">
        <ele>744</ele>
        <time>2016-08-28T10:30:25Z</time>
      </trkpt>
      <trkpt lat="45.00057" lon="5.44709">
        <ele>744</ele>
        <time>2016-08-28T10:30:29Z</time>
      </trkpt>
      <trkpt lat="45.00047" lon="5.44701">
        <ele>744</ele>
        <time>2016-08-28T10:30:33Z</time>
      </trkpt>
      <trkpt lat="45.00042" lon="5.44686">
        <ele>745</ele>
        <time>2016-08-28T10:30:38Z</time>
      </trkpt>
      <trkpt lat="45.00039" lon="5.44673">
        <ele>745</ele>
        <time>2016-08-28T10:30:42Z</time>
      </trkpt>
      <trkpt lat="45.00036" lon="5.44654">
        <ele>744</ele>
        <time>2016-08-28T10:30:48Z</time>
      </trkpt>
      <trkpt lat="45.00035" lon="5.4464">
        <ele>744</ele>
        <time>2016-08-28T10:30:53Z</time>
      </trkpt>
      <trkpt lat="45.00037" lon="5.44624">
        <ele>744</ele>
        <time>2016-08-28T10:30:57Z</time>
      </trkpt>
      <trkpt lat="45.00033" lon="5.44612">
        <ele>744</ele>
        <time>2016-08-28T10:31:02Z</time>
      </trkpt>
      <trkpt lat="45.00031" lon="5.44598">
        <ele>744</ele>
        <time>2016-08-28T10:31:06Z</time>
      </trkpt>
      <trkpt lat="45.00025" lon="5.44583">
        <ele>746</ele>
        <time>2016-08-28T10:31:10Z</time>
      </trkpt>
      <trkpt lat="45.00019" lon="5.44569">
        <ele>746</ele>
        <time>2016-08-28T10:31:13Z</time>
      </trkpt>
      <trkpt lat="45.00014" lon="5.44557">
        <ele>746</ele>
        <time>2016-08-28T10:31:15Z</time>
      </trkpt>
      <trkpt lat="45.00007" lon="5.4454">
        <ele>746</ele>
        <time>2016-08-28T10:31:18Z</time>
      </trkpt>
      <trkpt lat="45.00001" lon="5.44525">
        <ele>746</ele>
        <time>2016-08-28T10:31:21Z</time>
      </trkpt>
      <trkpt lat="44.99996" lon="5.44513">
        <ele>747</ele>
        <time>2016-08-28T10:31:23Z</time>
      </trkpt>
      <trkpt lat="44.99991" lon="5.44499">
        <ele>745</ele>
        <time>2016-08-28T10:31:25Z</time>
      </trkpt>
      <trkpt lat="44.99985" lon="5.44485">
        <ele>744</ele>
        <time>2016-08-28T10:31:27Z</time>
      </trkpt>
      <trkpt lat="44.99981" lon="5.44469">
        <ele>743</ele>
        <time>2016-08-28T10:31:29Z</time>
      </trkpt>
      <trkpt lat="44.99981" lon="5.44447">
        <ele>742</ele>
        <time>2016-08-28T10:31:32Z</time>
      </trkpt>
      <trkpt lat="44.99986" lon="5.44434">
        <ele>742</ele>
        <time>2016-08-28T10:31:35Z</time>
      </trkpt>
      <trkpt lat="44.99992" lon="5.44424">
        <ele>743</ele>
        <time>2016-08-28T10:31:39Z</time>
      </trkpt>
      <trkpt lat="44.99999" lon="5.44415">
        <ele>743</ele>
        <time>2016-08-28T10:31:44Z</time>
      </trkpt>
      <trkpt lat="45.00007" lon="5.44404">
        <ele>742</ele>
        <time>2016-08-28T10:31:48Z</time>
      </trkpt>
      <trkpt lat="45.00019" lon="5.44393">
        <ele>740</ele>
        <time>2016-08-28T10:31:51Z</time>
      </trkpt>
      <trkpt lat="45.00028" lon="5.44385">
        <ele>740</ele>
        <time>2016-08-28T10:31:53Z</time>
      </trkpt>
      <trkpt lat="45.00039" lon="5.44378">
        <ele>739</ele>
        <time>2016-08-28T10:31:55Z</time>
      </trkpt>
      <trkpt lat="45.0005" lon="5.4437">
        <ele>739</ele>
        <time>2016-08-28T10:31:57Z</time>
      </trkpt>
      <trkpt lat="45.00063" lon="5.44362">
        <ele>739</ele>
        <time>2016-08-28T10:31:59Z</time>
      </trkpt>
      <trkpt lat="45.00075" lon="5.44353">
        <ele>738</ele>
        <time>2016-08-28T10:32:01Z</time>
      </trkpt>
      <trkpt lat="45.00093" lon="5.4433">
        <ele>734</ele>
        <time>2016-08-28T10:32:05Z</time>
      </trkpt>
      <trkpt lat="45.00103" lon="5.44311">
        <ele>731</ele>
        <time>2016-08-28T10:32:07Z</time>
      </trkpt>
      <trkpt lat="45.00108" lon="5.44299">
        <ele>730</ele>
        <time>2016-08-28T10:32:08Z</time>
      </trkpt>
      <trkpt lat="45.00115" lon="5.44273">
        <ele>729</ele>
        <time>2016-08-28T10:32:10Z</time>
      </trkpt>
      <trkpt lat="45.00117" lon="5.44259">
        <ele>728</ele>
        <time>2016-08-28T10:32:11Z</time>
      </trkpt>
      <trkpt lat="45.00117" lon="5.44244">
        <ele>728</ele>
        <time>2016-08-28T10:32:12Z</time>
      </trkpt>
      <trkpt lat="45.00117" lon="5.4423">
        <ele>728</ele>
        <time>2016-08-28T10:32:13Z</time>
      </trkpt>
      <trkpt lat="45.00116" lon="5.44217">
        <ele>728</ele>
        <time>2016-08-28T10:32:14Z</time>
      </trkpt>
      <trkpt lat="45.00115" lon="5.44192">
        <ele>729</ele>
        <time>2016-08-28T10:32:16Z</time>
      </trkpt>
      <trkpt lat="45.00114" lon="5.44172">
        <ele>729</ele>
        <time>2016-08-28T10:32:18Z</time>
      </trkpt>
      <trkpt lat="45.00105" lon="5.44163">
        <ele>732</ele>
        <time>2016-08-28T10:32:21Z</time>
      </trkpt>
      <trkpt lat="45.00096" lon="5.44164">
        <ele>732</ele>
        <time>2016-08-28T10:32:23Z</time>
      </trkpt>
      <trkpt lat="45.00083" lon="5.44163">
        <ele>731</ele>
        <time>2016-08-28T10:32:26Z</time>
      </trkpt>
      <trkpt lat="45.00071" lon="5.44164">
        <ele>730</ele>
        <time>2016-08-28T10:32:28Z</time>
      </trkpt>
      <trkpt lat="45.00057" lon="5.44165">
        <ele>730</ele>
        <time>2016-08-28T10:32:30Z</time>
      </trkpt>
      <trkpt lat="45.0004" lon="5.44165">
        <ele>728</ele>
        <time>2016-08-28T10:32:32Z</time>
      </trkpt>
      <trkpt lat="45.00026" lon="5.44169">
        <ele>723</ele>
        <time>2016-08-28T10:32:34Z</time>
      </trkpt>
      <trkpt lat="45.00012" lon="5.44173">
        <ele>722</ele>
        <time>2016-08-28T10:32:36Z</time>
      </trkpt>
      <trkpt lat="44.99997" lon="5.44181">
        <ele>717</ele>
        <time>2016-08-28T10:32:38Z</time>
      </trkpt>
      <trkpt lat="44.99984" lon="5.4419">
        <ele>715</ele>
        <time>2016-08-28T10:32:40Z</time>
      </trkpt>
      <trkpt lat="44.9997" lon="5.44195">
        <ele>714</ele>
        <time>2016-08-28T10:32:42Z</time>
      </trkpt>
      <trkpt lat="44.99955" lon="5.44193">
        <ele>712</ele>
        <time>2016-08-28T10:32:44Z</time>
      </trkpt>
      <trkpt lat="44.99943" lon="5.44191">
        <ele>711</ele>
        <time>2016-08-28T10:32:46Z</time>
      </trkpt>
      <trkpt lat="44.99929" lon="5.44189">
        <ele>710</ele>
        <time>2016-08-28T10:32:48Z</time>
      </trkpt>
      <trkpt lat="44.99916" lon="5.4419">
        <ele>705</ele>
        <time>2016-08-28T10:32:50Z</time>
      </trkpt>
      <trkpt lat="44.99895" lon="5.44194">
        <ele>705</ele>
        <time>2016-08-28T10:32:53Z</time>
      </trkpt>
      <trkpt lat="44.99889" lon="5.44211">
        <ele>705</ele>
        <time>2016-08-28T10:32:55Z</time>
      </trkpt>
      <trkpt lat="44.9988" lon="5.44217">
        <ele>705</ele>
        <time>2016-08-28T10:32:58Z</time>
      </trkpt>
      <trkpt lat="44.9988" lon="5.44195">
        <ele>704</ele>
        <time>2016-08-28T10:33:01Z</time>
      </trkpt>
      <trkpt lat="44.99882" lon="5.44176">
        <ele>704</ele>
        <time>2016-08-28T10:33:03Z</time>
      </trkpt>
      <trkpt lat="44.99887" lon="5.44155">
        <ele>702</ele>
        <time>2016-08-28T10:33:05Z</time>
      </trkpt>
      <trkpt lat="44.99895" lon="5.44137">
        <ele>702</ele>
        <time>2016-08-28T10:33:07Z</time>
      </trkpt>
      <trkpt lat="44.99904" lon="5.44118">
        <ele>702</ele>
        <time>2016-08-28T10:33:09Z</time>
      </trkpt>
      <trkpt lat="44.99913" lon="5.44098">
        <ele>702</ele>
        <time>2016-08-28T10:33:11Z</time>
      </trkpt>
      <trkpt lat="44.99919" lon="5.44081">
        <ele>704</ele>
        <time>2016-08-28T10:33:13Z</time>
      </trkpt>
      <trkpt lat="44.99918" lon="5.44066">
        <ele>709</ele>
        <time>2016-08-28T10:33:15Z</time>
      </trkpt>
      <trkpt lat="44.99915" lon="5.44054">
        <ele>708</ele>
        <time>2016-08-28T10:33:17Z</time>
      </trkpt>
      <trkpt lat="44.99908" lon="5.44042">
        <ele>709</ele>
        <time>2016-08-28T10:33:20Z</time>
      </trkpt>
      <trkpt lat="44.99899" lon="5.44042">
        <ele>710</ele>
        <time>2016-08-28T10:33:23Z</time>
      </trkpt>
      <trkpt lat="44.99889" lon="5.44043">
        <ele>710</ele>
        <time>2016-08-28T10:33:26Z</time>
      </trkpt>
      <trkpt lat="44.99892" lon="5.44028">
        <ele>711</ele>
        <time>2016-08-28T10:33:32Z</time>
      </trkpt>
      <trkpt lat="44.99895" lon="5.44012">
        <ele>712</ele>
        <time>2016-08-28T10:33:37Z</time>
      </trkpt>
      <trkpt lat="44.9989" lon="5.43998">
        <ele>720</ele>
        <time>2016-08-28T10:33:41Z</time>
      </trkpt>
      <trkpt lat="44.99885" lon="5.43985">
        <ele>722</ele>
        <time>2016-08-28T10:33:44Z</time>
      </trkpt>
      <trkpt lat="44.99881" lon="5.4397">
        <ele>724</ele>
        <time>2016-08-28T10:33:47Z</time>
      </trkpt>
      <trkpt lat="44.99879" lon="5.43954">
        <ele>725</ele>
        <time>2016-08-28T10:33:53Z</time>
      </trkpt>
      <trkpt lat="44.9988" lon="5.4394">
        <ele>726</ele>
        <time>2016-08-28T10:33:58Z</time>
      </trkpt>
      <trkpt lat="44.9987" lon="5.43928">
        <ele>730</ele>
        <time>2016-08-28T10:34:02Z</time>
      </trkpt>
      <trkpt lat="44.99873" lon="5.43915">
        <ele>736</ele>
        <time>2016-08-28T10:34:09Z</time>
      </trkpt>
      <trkpt lat="44.99886" lon="5.43906">
        <ele>730</ele>
        <time>2016-08-28T10:34:14Z</time>
      </trkpt>
      <trkpt lat="44.99886" lon="5.4389">
        <ele>732</ele>
        <time>2016-08-28T10:34:21Z</time>
      </trkpt>
      <trkpt lat="44.99882" lon="5.43878">
        <ele>734</ele>
        <time>2016-08-28T10:34:25Z</time>
      </trkpt>
      <trkpt lat="44.9989" lon="5.4387">
        <ele>732</ele>
        <time>2016-08-28T10:34:33Z</time>
      </trkpt>
      <trkpt lat="44.99896" lon="5.43856">
        <ele>729</ele>
        <time>2016-08-28T10:34:41Z</time>
      </trkpt>
      <trkpt lat="44.99906" lon="5.43854">
        <ele>725</ele>
        <time>2016-08-28T10:34:43Z</time>
      </trkpt>
      <trkpt lat="44.99918" lon="5.4385">
        <ele>708</ele>
        <time>2016-08-28T10:34:46Z</time>
      </trkpt>
      <trkpt lat="44.99922" lon="5.43838">
        <ele>709</ele>
        <time>2016-08-28T10:34:51Z</time>
      </trkpt>
      <trkpt lat="44.9992" lon="5.43825">
        <ele>710</ele>
        <time>2016-08-28T10:35:02Z</time>
      </trkpt>
      <trkpt lat="44.99927" lon="5.43816">
        <ele>710</ele>
        <time>2016-08-28T10:35:11Z</time>
      </trkpt>
      <trkpt lat="44.99937" lon="5.43815">
        <ele>710</ele>
        <time>2016-08-28T10:35:13Z</time>
      </trkpt>
      <trkpt lat="44.99927" lon="5.43812">
        <ele>710</ele>
        <time>2016-08-28T10:35:21Z</time>
      </trkpt>
      <trkpt lat="44.99933" lon="5.43801">
        <ele>711</ele>
        <time>2016-08-28T10:35:35Z</time>
      </trkpt>
      <trkpt lat="44.99936" lon="5.43787">
        <ele>712</ele>
        <time>2016-08-28T10:35:38Z</time>
      </trkpt>
      <trkpt lat="44.99938" lon="5.43775">
        <ele>714</ele>
        <time>2016-08-28T10:35:42Z</time>
      </trkpt>
      <trkpt lat="44.99942" lon="5.43757">
        <ele>715</ele>
        <time>2016-08-28T10:35:45Z</time>
      </trkpt>
      <trkpt lat="44.99945" lon="5.43744">
        <ele>722</ele>
        <time>2016-08-28T10:35:50Z</time>
      </trkpt>
      <trkpt lat="44.99955" lon="5.43747">
        <ele>720</ele>
        <time>2016-08-28T10:36:05Z</time>
      </trkpt>
      <trkpt lat="44.99964" lon="5.43742">
        <ele>719</ele>
        <time>2016-08-28T10:36:11Z</time>
      </trkpt>
      <trkpt lat="44.99974" lon="5.43736">
        <ele>717</ele>
        <time>2016-08-28T10:36:18Z</time>
      </trkpt>
      <trkpt lat="44.99982" lon="5.4373">
        <ele>716</ele>
        <time>2016-08-28T10:36:27Z</time>
      </trkpt>
      <trkpt lat="44.99991" lon="5.43726">
        <ele>715</ele>
        <time>2016-08-28T10:36:35Z</time>
      </trkpt>
      <trkpt lat="44.99999" lon="5.43718">
        <ele>716</ele>
        <time>2016-08-28T10:36:42Z</time>
      </trkpt>
      <trkpt lat="45.00007" lon="5.4371">
        <ele>706</ele>
        <time>2016-08-28T10:36:50Z</time>
      </trkpt>
      <trkpt lat="45.00004" lon="5.43697">
        <ele>708</ele>
        <time>2016-08-28T10:36:58Z</time>
      </trkpt>
      <trkpt lat="44.99996" lon="5.43689">
        <ele>719</ele>
        <time>2016-08-28T10:37:05Z</time>
      </trkpt>
      <trkpt lat="44.99999" lon="5.43677">
        <ele>718</ele>
        <time>2016-08-28T10:37:14Z</time>
      </trkpt>
      <trkpt lat="44.99994" lon="5.43662">
        <ele>720</ele>
        <time>2016-08-28T10:37:22Z</time>
      </trkpt>
      <trkpt lat="44.99993" lon="5.43648">
        <ele>723</ele>
        <time>2016-08-28T10:37:27Z</time>
      </trkpt>
      <trkpt lat="44.99998" lon="5.43636">
        <ele>724</ele>
        <time>2016-08-28T10:37:36Z</time>
      </trkpt>
      <trkpt lat="44.99991" lon="5.43626">
        <ele>725</ele>
        <time>2016-08-28T10:37:43Z</time>
      </trkpt>
      <trkpt lat="44.99985" lon="5.43616">
        <ele>725</ele>
        <time>2016-08-28T10:37:52Z</time>
      </trkpt>
      <trkpt lat="44.99978" lon="5.43603">
        <ele>725</ele>
        <time>2016-08-28T10:38:07Z</time>
      </trkpt>
      <trkpt lat="44.99966" lon="5.43602">
        <ele>727</ele>
        <time>2016-08-28T10:38:11Z</time>
      </trkpt>
      <trkpt lat="44.99955" lon="5.43599">
        <ele>728</ele>
        <time>2016-08-28T10:38:14Z</time>
      </trkpt>
      <trkpt lat="44.99945" lon="5.43598">
        <ele>730</ele>
        <time>2016-08-28T10:38:17Z</time>
      </trkpt>
      <trkpt lat="44.99936" lon="5.43591">
        <ele>731</ele>
        <time>2016-08-28T10:38:25Z</time>
      </trkpt>
      <trkpt lat="44.99924" lon="5.43584">
        <ele>733</ele>
        <time>2016-08-28T10:38:33Z</time>
      </trkpt>
      <trkpt lat="44.99917" lon="5.43573">
        <ele>735</ele>
        <time>2016-08-28T10:38:41Z</time>
      </trkpt>
      <trkpt lat="44.99906" lon="5.43563">
        <ele>735</ele>
        <time>2016-08-28T10:38:51Z</time>
      </trkpt>
      <trkpt lat="44.99896" lon="5.43568">
        <ele>736</ele>
        <time>2016-08-28T10:39:12Z</time>
      </trkpt>
      <trkpt lat="44.99887" lon="5.4357">
        <ele>736</ele>
        <time>2016-08-28T10:39:17Z</time>
      </trkpt>
      <trkpt lat="44.99877" lon="5.43563">
        <ele>736</ele>
        <time>2016-08-28T10:39:27Z</time>
      </trkpt>
      <trkpt lat="44.99868" lon="5.4356">
        <ele>737</ele>
        <time>2016-08-28T10:39:32Z</time>
      </trkpt>
      <trkpt lat="44.99858" lon="5.43555">
        <ele>737</ele>
        <time>2016-08-28T10:39:36Z</time>
      </trkpt>
      <trkpt lat="44.9985" lon="5.43547">
        <ele>737</ele>
        <time>2016-08-28T10:39:40Z</time>
      </trkpt>
      <trkpt lat="44.99841" lon="5.43544">
        <ele>737</ele>
        <time>2016-08-28T10:39:43Z</time>
      </trkpt>
      <trkpt lat="44.99832" lon="5.43546">
        <ele>742</ele>
        <time>2016-08-28T10:39:46Z</time>
      </trkpt>
      <trkpt lat="44.9982" lon="5.43549">
        <ele>742</ele>
        <time>2016-08-28T10:39:49Z</time>
      </trkpt>
      <trkpt lat="44.99808" lon="5.43553">
        <ele>743</ele>
        <time>2016-08-28T10:39:52Z</time>
      </trkpt>
      <trkpt lat="44.99797" lon="5.43551">
        <ele>743</ele>
        <time>2016-08-28T10:39:55Z</time>
      </trkpt>
      <trkpt lat="44.99787" lon="5.43554">
        <ele>743</ele>
        <time>2016-08-28T10:39:58Z</time>
      </trkpt>
      <trkpt lat="44.99774" lon="5.43557">
        <ele>744</ele>
        <time>2016-08-28T10:40:02Z</time>
      </trkpt>
      <trkpt lat="44.99764" lon="5.43559">
        <ele>744</ele>
        <time>2016-08-28T10:40:04Z</time>
      </trkpt>
      <trkpt lat="44.99748" lon="5.43561">
        <ele>748</ele>
        <time>2016-08-28T10:40:07Z</time>
      </trkpt>
      <trkpt lat="44.99736" lon="5.4356">
        <ele>749</ele>
        <time>2016-08-28T10:40:11Z</time>
      </trkpt>
      <trkpt lat="44.99725" lon="5.43558">
        <ele>749</ele>
        <time>2016-08-28T10:40:14Z</time>
      </trkpt>
      <trkpt lat="44.99713" lon="5.43554">
        <ele>750</ele>
        <time>2016-08-28T10:40:18Z</time>
      </trkpt>
      <trkpt lat="44.99702" lon="5.43553">
        <ele>750</ele>
        <time>2016-08-28T10:40:24Z</time>
      </trkpt>
      <trkpt lat="44.99692" lon="5.43557">
        <ele>750</ele>
        <time>2016-08-28T10:40:30Z</time>
      </trkpt>
      <trkpt lat="44.99685" lon="5.43568">
        <ele>750</ele>
        <time>2016-08-28T10:40:38Z</time>
      </trkpt>
      <trkpt lat="44.99678" lon="5.43579">
        <ele>749</ele>
        <time>2016-08-28T10:40:48Z</time>
      </trkpt>
      <trkpt lat="44.99666" lon="5.43582">
        <ele>748</ele>
        <time>2016-08-28T10:40:53Z</time>
      </trkpt>
      <trkpt lat="44.9966" lon="5.43592">
        <ele>750</ele>
        <time>2016-08-28T10:41:00Z</time>
      </trkpt>
      <trkpt lat="44.9965" lon="5.43593">
        <ele>751</ele>
        <time>2016-08-28T10:41:05Z</time>
      </trkpt>
      <trkpt lat="44.99639" lon="5.43596">
        <ele>752</ele>
        <time>2016-08-28T10:41:11Z</time>
      </trkpt>
      <trkpt lat="44.99629" lon="5.43594">
        <ele>752</ele>
        <time>2016-08-28T10:41:19Z</time>
      </trkpt>
      <trkpt lat="44.9962" lon="5.43591">
        <ele>752</ele>
        <time>2016-08-28T10:41:23Z</time>
      </trkpt>
      <trkpt lat="44.99611" lon="5.43596">
        <ele>752</ele>
        <time>2016-08-28T10:41:29Z</time>
      </trkpt>
      <trkpt lat="44.99599" lon="5.436">
        <ele>752</ele>
        <time>2016-08-28T10:41:36Z</time>
      </trkpt>
      <trkpt lat="44.99589" lon="5.43602">
        <ele>752</ele>
        <time>2016-08-28T10:41:40Z</time>
      </trkpt>
      <trkpt lat="44.99579" lon="5.43602">
        <ele>753</ele>
        <time>2016-08-28T10:41:46Z</time>
      </trkpt>
      <trkpt lat="44.9957" lon="5.43594">
        <ele>752</ele>
        <time>2016-08-28T10:41:58Z</time>
      </trkpt>
      <trkpt lat="44.9956" lon="5.4359">
        <ele>753</ele>
        <time>2016-08-28T10:42:02Z</time>
      </trkpt>
      <trkpt lat="44.99549" lon="5.43589">
        <ele>753</ele>
        <time>2016-08-28T10:42:05Z</time>
      </trkpt>
      <trkpt lat="44.99537" lon="5.43591">
        <ele>754</ele>
        <time>2016-08-28T10:42:10Z</time>
      </trkpt>
      <trkpt lat="44.99528" lon="5.43589">
        <ele>753</ele>
        <time>2016-08-28T10:42:15Z</time>
      </trkpt>
      <trkpt lat="44.99518" lon="5.43587">
        <ele>753</ele>
        <time>2016-08-28T10:42:26Z</time>
      </trkpt>
      <trkpt lat="44.99508" lon="5.43587">
        <ele>753</ele>
        <time>2016-08-28T10:42:32Z</time>
      </trkpt>
      <trkpt lat="44.99498" lon="5.43587">
        <ele>753</ele>
        <time>2016-08-28T10:42:39Z</time>
      </trkpt>
      <trkpt lat="44.99487" lon="5.43584">
        <ele>755</ele>
        <time>2016-08-28T10:42:46Z</time>
      </trkpt>
      <trkpt lat="44.99477" lon="5.43581">
        <ele>761</ele>
        <time>2016-08-28T10:42:51Z</time>
      </trkpt>
      <trkpt lat="44.99467" lon="5.4358">
        <ele>763</ele>
        <time>2016-08-28T10:42:58Z</time>
      </trkpt>
      <trkpt lat="44.99462" lon="5.43569">
        <ele>764</ele>
        <time>2016-08-28T10:43:04Z</time>
      </trkpt>
      <trkpt lat="44.99453" lon="5.43559">
        <ele>766</ele>
        <time>2016-08-28T10:43:16Z</time>
      </trkpt>
      <trkpt lat="44.99444" lon="5.43561">
        <ele>766</ele>
        <time>2016-08-28T10:43:26Z</time>
      </trkpt>
      <trkpt lat="44.99433" lon="5.43555">
        <ele>767</ele>
        <time>2016-08-28T10:43:32Z</time>
      </trkpt>
      <trkpt lat="44.99425" lon="5.4355">
        <ele>768</ele>
        <time>2016-08-28T10:43:43Z</time>
      </trkpt>
      <trkpt lat="44.99416" lon="5.43544">
        <ele>774</ele>
        <time>2016-08-28T10:43:49Z</time>
      </trkpt>
      <trkpt lat="44.99407" lon="5.43536">
        <ele>775</ele>
        <time>2016-08-28T10:43:55Z</time>
      </trkpt>
      <trkpt lat="44.99398" lon="5.43528">
        <ele>776</ele>
        <time>2016-08-28T10:44:05Z</time>
      </trkpt>
      <trkpt lat="44.99389" lon="5.43531">
        <ele>776</ele>
        <time>2016-08-28T10:44:17Z</time>
      </trkpt>
      <trkpt lat="44.99378" lon="5.43536">
        <ele>776</ele>
        <time>2016-08-28T10:44:23Z</time>
      </trkpt>
      <trkpt lat="44.99368" lon="5.43526">
        <ele>777</ele>
        <time>2016-08-28T10:44:29Z</time>
      </trkpt>
      <trkpt lat="44.99361" lon="5.43517">
        <ele>778</ele>
        <time>2016-08-28T10:44:38Z</time>
      </trkpt>
      <trkpt lat="44.9935" lon="5.43515">
        <ele>779</ele>
        <time>2016-08-28T10:44:43Z</time>
      </trkpt>
      <trkpt lat="44.99346" lon="5.43501">
        <ele>780</ele>
        <time>2016-08-28T10:44:51Z</time>
      </trkpt>
      <trkpt lat="44.99335" lon="5.43502">
        <ele>781</ele>
        <time>2016-08-28T10:45:11Z</time>
      </trkpt>
      <trkpt lat="44.99326" lon="5.43499">
        <ele>786</ele>
        <time>2016-08-28T10:45:24Z</time>
      </trkpt>
      <trkpt lat="44.99316" lon="5.43497">
        <ele>790</ele>
        <time>2016-08-28T10:45:31Z</time>
      </trkpt>
      <trkpt lat="44.99306" lon="5.43501">
        <ele>787</ele>
        <time>2016-08-28T10:45:46Z</time>
      </trkpt>
      <trkpt lat="44.99295" lon="5.43499">
        <ele>794</ele>
        <time>2016-08-28T10:45:51Z</time>
      </trkpt>
      <trkpt lat="44.99284" lon="5.43495">
        <ele>796</ele>
        <time>2016-08-28T10:46:19Z</time>
      </trkpt>
      <trkpt lat="44.99275" lon="5.43492">
        <ele>796</ele>
        <time>2016-08-28T10:46:26Z</time>
      </trkpt>
      <trkpt lat="44.99264" lon="5.43493">
        <ele>797</ele>
        <time>2016-08-28T10:46:45Z</time>
      </trkpt>
      <trkpt lat="44.9927" lon="5.43482">
        <ele>797</ele>
        <time>2016-08-28T10:46:52Z</time>
      </trkpt>
      <trkpt lat="44.99261" lon="5.43477">
        <ele>798</ele>
        <time>2016-08-28T10:47:04Z</time>
      </trkpt>
      <trkpt lat="44.99255" lon="5.43465">
        <ele>799</ele>
        <time>2016-08-28T10:47:24Z</time>
      </trkpt>
      <trkpt lat="44.99246" lon="5.43459">
        <ele>807</ele>
        <time>2016-08-28T10:47:27Z</time>
      </trkpt>
      <trkpt lat="44.99235" lon="5.43456">
        <ele>808</ele>
        <time>2016-08-28T10:47:39Z</time>
      </trkpt>
      <trkpt lat="44.99225" lon="5.43453">
        <ele>808</ele>
        <time>2016-08-28T10:47:43Z</time>
      </trkpt>
      <trkpt lat="44.99214" lon="5.43451">
        <ele>809</ele>
        <time>2016-08-28T10:47:46Z</time>
      </trkpt>
      <trkpt lat="44.99203" lon="5.43448">
        <ele>810</ele>
        <time>2016-08-28T10:47:58Z</time>
      </trkpt>
      <trkpt lat="44.99193" lon="5.43448">
        <ele>811</ele>
        <time>2016-08-28T10:48:03Z</time>
      </trkpt>
      <trkpt lat="44.99184" lon="5.43448">
        <ele>811</ele>
        <time>2016-08-28T10:48:14Z</time>
      </trkpt>
      <trkpt lat="44.99172" lon="5.43448">
        <ele>812</ele>
        <time>2016-08-28T10:48:20Z</time>
      </trkpt>
      <trkpt lat="44.99162" lon="5.43444">
        <ele>820</ele>
        <time>2016-08-28T10:48:48Z</time>
      </trkpt>
      <trkpt lat="44.99152" lon="5.43444">
        <ele>821</ele>
        <time>2016-08-28T10:48:55Z</time>
      </trkpt>
      <trkpt lat="44.99142" lon="5.43448">
        <ele>821</ele>
        <time>2016-08-28T10:49:00Z</time>
      </trkpt>
      <trkpt lat="44.99131" lon="5.43448">
        <ele>822</ele>
        <time>2016-08-28T10:49:07Z</time>
      </trkpt>
      <trkpt lat="44.9912" lon="5.43448">
        <ele>823</ele>
        <time>2016-08-28T10:49:13Z</time>
      </trkpt>
      <trkpt lat="44.9911" lon="5.43448">
        <ele>824</ele>
        <time>2016-08-28T10:49:26Z</time>
      </trkpt>
      <trkpt lat="44.991" lon="5.43446">
        <ele>825</ele>
        <time>2016-08-28T10:49:37Z</time>
      </trkpt>
      <trkpt lat="44.99091" lon="5.43443">
        <ele>825</ele>
        <time>2016-08-28T10:49:47Z</time>
      </trkpt>
      <trkpt lat="44.99082" lon="5.43439">
        <ele>832</ele>
        <time>2016-08-28T10:49:52Z</time>
      </trkpt>
      <trkpt lat="44.99077" lon="5.43451">
        <ele>832</ele>
        <time>2016-08-28T10:50:05Z</time>
      </trkpt>
      <trkpt lat="44.99066" lon="5.43442">
        <ele>832</ele>
        <time>2016-08-28T10:50:11Z</time>
      </trkpt>
      <trkpt lat="44.99056" lon="5.43435">
        <ele>833</ele>
        <time>2016-08-28T10:50:16Z</time>
      </trkpt>
      <trkpt lat="44.99045" lon="5.43435">
        <ele>833</ele>
        <time>2016-08-28T10:50:19Z</time>
      </trkpt>
      <trkpt lat="44.99034" lon="5.43434">
        <ele>834</ele>
        <time>2016-08-28T10:50:25Z</time>
      </trkpt>
      <trkpt lat="44.99028" lon="5.43444">
        <ele>834</ele>
        <time>2016-08-28T10:50:31Z</time>
      </trkpt>
      <trkpt lat="44.9902" lon="5.43451">
        <ele>834</ele>
        <time>2016-08-28T10:50:40Z</time>
      </trkpt>
      <trkpt lat="44.99012" lon="5.43459">
        <ele>835</ele>
        <time>2016-08-28T10:50:50Z</time>
      </trkpt>
      <trkpt lat="44.99003" lon="5.43459">
        <ele>835</ele>
        <time>2016-08-28T10:50:58Z</time>
      </trkpt>
      <trkpt lat="44.98999" lon="5.43473">
        <ele>837</ele>
        <time>2016-08-28T10:51:10Z</time>
      </trkpt>
      <trkpt lat="44.98987" lon="5.43473">
        <ele>837</ele>
        <time>2016-08-28T10:51:14Z</time>
      </trkpt>
      <trkpt lat="44.98978" lon="5.43468">
        <ele>837</ele>
        <time>2016-08-28T10:51:18Z</time>
      </trkpt>
      <trkpt lat="44.98968" lon="5.43466">
        <ele>838</ele>
        <time>2016-08-28T10:51:31Z</time>
      </trkpt>
      <trkpt lat="44.98959" lon="5.43462">
        <ele>838</ele>
        <time>2016-08-28T10:51:39Z</time>
      </trkpt>
      <trkpt lat="44.98949" lon="5.43462">
        <ele>838</ele>
        <time>2016-08-28T10:51:44Z</time>
      </trkpt>
      <trkpt lat="44.98941" lon="5.43456">
        <ele>838</ele>
        <time>2016-08-28T10:51:52Z</time>
      </trkpt>
      <trkpt lat="44.98932" lon="5.43449">
        <ele>838</ele>
        <time>2016-08-28T10:51:56Z</time>
      </trkpt>
      <trkpt lat="44.98923" lon="5.43456">
        <ele>838</ele>
        <time>2016-08-28T10:52:01Z</time>
      </trkpt>
      <trkpt lat="44.98913" lon="5.43452">
        <ele>840</ele>
        <time>2016-08-28T10:52:07Z</time>
      </trkpt>
      <trkpt lat="44.98903" lon="5.43449">
        <ele>841</ele>
        <time>2016-08-28T10:52:11Z</time>
      </trkpt>
      <trkpt lat="44.98893" lon="5.43448">
        <ele>841</ele>
        <time>2016-08-28T10:52:14Z</time>
      </trkpt>
      <trkpt lat="44.98885" lon="5.4344">
        <ele>841</ele>
        <time>2016-08-28T10:52:21Z</time>
      </trkpt>
      <trkpt lat="44.98874" lon="5.43437">
        <ele>841</ele>
        <time>2016-08-28T10:52:32Z</time>
      </trkpt>
      <trkpt lat="44.98864" lon="5.43435">
        <ele>841</ele>
        <time>2016-08-28T10:52:36Z</time>
      </trkpt>
      <trkpt lat="44.98854" lon="5.43432">
        <ele>842</ele>
        <time>2016-08-28T10:52:40Z</time>
      </trkpt>
      <trkpt lat="44.98845" lon="5.43427">
        <ele>842</ele>
        <time>2016-08-28T10:52:50Z</time>
      </trkpt>
      <trkpt lat="44.98835" lon="5.43428">
        <ele>842</ele>
        <time>2016-08-28T10:52:54Z</time>
      </trkpt>
      <trkpt lat="44.98825" lon="5.43424">
        <ele>843</ele>
        <time>2016-08-28T10:53:00Z</time>
      </trkpt>
      <trkpt lat="44.98815" lon="5.43424">
        <ele>844</ele>
        <time>2016-08-28T10:53:06Z</time>
      </trkpt>
      <trkpt lat="44.98804" lon="5.43422">
        <ele>845</ele>
        <time>2016-08-28T10:53:16Z</time>
      </trkpt>
      <trkpt lat="44.98794" lon="5.43417">
        <ele>845</ele>
        <time>2016-08-28T10:53:29Z</time>
      </trkpt>
      <trkpt lat="44.98784" lon="5.43412">
        <ele>849</ele>
        <time>2016-08-28T10:53:38Z</time>
      </trkpt>
      <trkpt lat="44.98773" lon="5.43407">
        <ele>849</ele>
        <time>2016-08-28T10:53:43Z</time>
      </trkpt>
      <trkpt lat="44.98764" lon="5.43408">
        <ele>848</ele>
        <time>2016-08-28T10:53:51Z</time>
      </trkpt>
      <trkpt lat="44.98754" lon="5.43411">
        <ele>846</ele>
        <time>2016-08-28T10:53:56Z</time>
      </trkpt>
      <trkpt lat="44.98744" lon="5.43404">
        <ele>850</ele>
        <time>2016-08-28T10:54:02Z</time>
      </trkpt>
      <trkpt lat="44.98733" lon="5.43402">
        <ele>852</ele>
        <time>2016-08-28T10:54:13Z</time>
      </trkpt>
      <trkpt lat="44.98723" lon="5.43404">
        <ele>853</ele>
        <time>2016-08-28T10:54:20Z</time>
      </trkpt>
      <trkpt lat="44.98714" lon="5.43409">
        <ele>854</ele>
        <time>2016-08-28T10:54:25Z</time>
      </trkpt>
      <trkpt lat="44.98706" lon="5.43413">
        <ele>854</ele>
        <time>2016-08-28T10:54:31Z</time>
      </trkpt>
      <trkpt lat="44.98696" lon="5.43405">
        <ele>855</ele>
        <time>2016-08-28T10:54:44Z</time>
      </trkpt>
      <trkpt lat="44.98686" lon="5.43403">
        <ele>855</ele>
        <time>2016-08-28T10:54:47Z</time>
      </trkpt>
      <trkpt lat="44.98677" lon="5.43398">
        <ele>856</ele>
        <time>2016-08-28T10:54:52Z</time>
      </trkpt>
      <trkpt lat="44.98667" lon="5.43401">
        <ele>855</ele>
        <time>2016-08-28T10:55:02Z</time>
      </trkpt>
      <trkpt lat="44.98656" lon="5.43402">
        <ele>859</ele>
        <time>2016-08-28T10:55:22Z</time>
      </trkpt>
      <trkpt lat="44.98645" lon="5.43395">
        <ele>862</ele>
        <time>2016-08-28T10:55:28Z</time>
      </trkpt>
      <trkpt lat="44.98635" lon="5.43392">
        <ele>863</ele>
        <time>2016-08-28T10:55:40Z</time>
      </trkpt>
      <trkpt lat="44.98625" lon="5.4339">
        <ele>864</ele>
        <time>2016-08-28T10:55:45Z</time>
      </trkpt>
      <trkpt lat="44.98616" lon="5.43386">
        <ele>865</ele>
        <time>2016-08-28T10:56:21Z</time>
      </trkpt>
      <trkpt lat="44.98607" lon="5.43385">
        <ele>865</ele>
        <time>2016-08-28T10:56:27Z</time>
      </trkpt>
      <trkpt lat="44.98597" lon="5.43382">
        <ele>866</ele>
        <time>2016-08-28T10:56:46Z</time>
      </trkpt>
      <trkpt lat="44.98584" lon="5.43382">
        <ele>866</ele>
        <time>2016-08-28T10:56:51Z</time>
      </trkpt>
      <trkpt lat="44.98575" lon="5.43374">
        <ele>868</ele>
        <time>2016-08-28T10:56:58Z</time>
      </trkpt>
      <trkpt lat="44.98567" lon="5.4338">
        <ele>868</ele>
        <time>2016-08-28T10:57:15Z</time>
      </trkpt>
      <trkpt lat="44.98556" lon="5.43382">
        <ele>867</ele>
        <time>2016-08-28T10:57:21Z</time>
      </trkpt>
      <trkpt lat="44.98547" lon="5.4338">
        <ele>867</ele>
        <time>2016-08-28T10:57:30Z</time>
      </trkpt>
      <trkpt lat="44.98537" lon="5.4338">
        <ele>867</ele>
        <time>2016-08-28T10:57:34Z</time>
      </trkpt>
      <trkpt lat="44.98528" lon="5.43383">
        <ele>867</ele>
        <time>2016-08-28T10:57:39Z</time>
      </trkpt>
      <trkpt lat="44.98518" lon="5.43377">
        <ele>867</ele>
        <time>2016-08-28T10:57:43Z</time>
      </trkpt>
      <trkpt lat="44.98508" lon="5.43373">
        <ele>867</ele>
        <time>2016-08-28T10:57:47Z</time>
      </trkpt>
      <trkpt lat="44.98496" lon="5.43372">
        <ele>865</ele>
        <time>2016-08-28T10:57:58Z</time>
      </trkpt>
      <trkpt lat="44.98486" lon="5.43367">
        <ele>865</ele>
        <time>2016-08-28T10:58:02Z</time>
      </trkpt>
      <trkpt lat="44.98477" lon="5.43363">
        <ele>866</ele>
        <time>2016-08-28T10:58:07Z</time>
      </trkpt>
      <trkpt lat="44.98463" lon="5.43364">
        <ele>865</ele>
        <time>2016-08-28T10:58:11Z</time>
      </trkpt>
      <trkpt lat="44.98453" lon="5.43366">
        <ele>865</ele>
        <time>2016-08-28T10:58:12Z</time>
      </trkpt>
      <trkpt lat="44.98443" lon="5.43363">
        <ele>865</ele>
        <time>2016-08-28T10:58:14Z</time>
      </trkpt>
      <trkpt lat="44.98434" lon="5.43362">
        <ele>865</ele>
        <time>2016-08-28T10:58:19Z</time>
      </trkpt>
      <trkpt lat="44.98422" lon="5.43364">
        <ele>865</ele>
        <time>2016-08-28T10:58:22Z</time>
      </trkpt>
      <trkpt lat="44.98409" lon="5.43363">
        <ele>864</ele>
        <time>2016-08-28T10:58:25Z</time>
      </trkpt>
      <trkpt lat="44.984" lon="5.43365">
        <ele>863</ele>
        <time>2016-08-28T10:58:27Z</time>
      </trkpt>
      <trkpt lat="44.98388" lon="5.43368">
        <ele>862</ele>
        <time>2016-08-28T10:58:29Z</time>
      </trkpt>
      <trkpt lat="44.98378" lon="5.43369">
        <ele>862</ele>
        <time>2016-08-28T10:58:32Z</time>
      </trkpt>
      <trkpt lat="44.98369" lon="5.43369">
        <ele>862</ele>
        <time>2016-08-28T10:58:35Z</time>
      </trkpt>
      <trkpt lat="44.98359" lon="5.4337">
        <ele>862</ele>
        <time>2016-08-28T10:58:38Z</time>
      </trkpt>
      <trkpt lat="44.98349" lon="5.43367">
        <ele>862</ele>
        <time>2016-08-28T10:58:42Z</time>
      </trkpt>
      <trkpt lat="44.98336" lon="5.43366">
        <ele>863</ele>
        <time>2016-08-28T10:58:45Z</time>
      </trkpt>
      <trkpt lat="44.98326" lon="5.43358">
        <ele>864</ele>
        <time>2016-08-28T10:58:50Z</time>
      </trkpt>
      <trkpt lat="44.98315" lon="5.43359">
        <ele>863</ele>
        <time>2016-08-28T10:58:54Z</time>
      </trkpt>
      <trkpt lat="44.98306" lon="5.4336">
        <ele>862</ele>
        <time>2016-08-28T10:58:56Z</time>
      </trkpt>
      <trkpt lat="44.98294" lon="5.43359">
        <ele>862</ele>
        <time>2016-08-28T10:58:58Z</time>
      </trkpt>
      <trkpt lat="44.98283" lon="5.4336">
        <ele>862</ele>
        <time>2016-08-28T10:59:00Z</time>
      </trkpt>
      <trkpt lat="44.98271" lon="5.43357">
        <ele>862</ele>
        <time>2016-08-28T10:59:02Z</time>
      </trkpt>
      <trkpt lat="44.98261" lon="5.43355">
        <ele>863</ele>
        <time>2016-08-28T10:59:05Z</time>
      </trkpt>
      <trkpt lat="44.98247" lon="5.43356">
        <ele>862</ele>
        <time>2016-08-28T10:59:08Z</time>
      </trkpt>
      <trkpt lat="44.98234" lon="5.43354">
        <ele>862</ele>
        <time>2016-08-28T10:59:10Z</time>
      </trkpt>
      <trkpt lat="44.98222" lon="5.43351">
        <ele>862</ele>
        <time>2016-08-28T10:59:12Z</time>
      </trkpt>
      <trkpt lat="44.98205" lon="5.43351">
        <ele>861</ele>
        <time>2016-08-28T10:59:14Z</time>
      </trkpt>
      <trkpt lat="44.98194" lon="5.43353">
        <ele>861</ele>
        <time>2016-08-28T10:59:15Z</time>
      </trkpt>
      <trkpt lat="44.98177" lon="5.43351">
        <ele>862</ele>
        <time>2016-08-28T10:59:17Z</time>
      </trkpt>
      <trkpt lat="44.98164" lon="5.43348">
        <ele>862</ele>
        <time>2016-08-28T10:59:19Z</time>
      </trkpt>
      <trkpt lat="44.98155" lon="5.43344">
        <ele>862</ele>
        <time>2016-08-28T10:59:21Z</time>
      </trkpt>
      <trkpt lat="44.98146" lon="5.43339">
        <ele>862</ele>
        <time>2016-08-28T10:59:24Z</time>
      </trkpt>
      <trkpt lat="44.98136" lon="5.43338">
        <ele>862</ele>
        <time>2016-08-28T10:59:27Z</time>
      </trkpt>
      <trkpt lat="44.98122" lon="5.43337">
        <ele>861</ele>
        <time>2016-08-28T10:59:33Z</time>
      </trkpt>
      <trkpt lat="44.98112" lon="5.43327">
        <ele>872</ele>
        <time>2016-08-28T10:59:38Z</time>
      </trkpt>
      <trkpt lat="44.98099" lon="5.43324">
        <ele>871</ele>
        <time>2016-08-28T10:59:44Z</time>
      </trkpt>
      <trkpt lat="44.98089" lon="5.43319">
        <ele>870</ele>
        <time>2016-08-28T10:59:49Z</time>
      </trkpt>
      <trkpt lat="44.98079" lon="5.4332">
        <ele>869</ele>
        <time>2016-08-28T10:59:54Z</time>
      </trkpt>
      <trkpt lat="44.98071" lon="5.43314">
        <ele>871</ele>
        <time>2016-08-28T11:00:00Z</time>
      </trkpt>
      <trkpt lat="44.98062" lon="5.43306">
        <ele>873</ele>
        <time>2016-08-28T11:00:12Z</time>
      </trkpt>
      <trkpt lat="44.98052" lon="5.43298">
        <ele>875</ele>
        <time>2016-08-28T11:00:17Z</time>
      </trkpt>
      <trkpt lat="44.98042" lon="5.43289">
        <ele>876</ele>
        <time>2016-08-28T11:00:23Z</time>
      </trkpt>
      <trkpt lat="44.98033" lon="5.43287">
        <ele>876</ele>
        <time>2016-08-28T11:00:27Z</time>
      </trkpt>
      <trkpt lat="44.98021" lon="5.43285">
        <ele>876</ele>
        <time>2016-08-28T11:00:35Z</time>
      </trkpt>
      <trkpt lat="44.98012" lon="5.43286">
        <ele>876</ele>
        <time>2016-08-28T11:00:39Z</time>
      </trkpt>
      <trkpt lat="44.98001" lon="5.43285">
        <ele>876</ele>
        <time>2016-08-28T11:00:45Z</time>
      </trkpt>
      <trkpt lat="44.97991" lon="5.43285">
        <ele>875</ele>
        <time>2016-08-28T11:00:54Z</time>
      </trkpt>
      <trkpt lat="44.97981" lon="5.43284">
        <ele>875</ele>
        <time>2016-08-28T11:00:57Z</time>
      </trkpt>
      <trkpt lat="44.97972" lon="5.43278">
        <ele>875</ele>
        <time>2016-08-28T11:01:03Z</time>
      </trkpt>
      <trkpt lat="44.97961" lon="5.43276">
        <ele>875</ele>
        <time>2016-08-28T11:01:09Z</time>
      </trkpt>
      <trkpt lat="44.97952" lon="5.43272">
        <ele>875</ele>
        <time>2016-08-28T11:01:13Z</time>
      </trkpt>
      <trkpt lat="44.97941" lon="5.43276">
        <ele>875</ele>
        <time>2016-08-28T11:01:18Z</time>
      </trkpt>
      <trkpt lat="44.97933" lon="5.43267">
        <ele>876</ele>
        <time>2016-08-28T11:01:26Z</time>
      </trkpt>
      <trkpt lat="44.97923" lon="5.43264">
        <ele>877</ele>
        <time>2016-08-28T11:01:31Z</time>
      </trkpt>
      <trkpt lat="44.97913" lon="5.43262">
        <ele>876</ele>
        <time>2016-08-28T11:01:35Z</time>
      </trkpt>
      <trkpt lat="44.97902" lon="5.43263">
        <ele>875</ele>
        <time>2016-08-28T11:01:40Z</time>
      </trkpt>
      <trkpt lat="44.97892" lon="5.43259">
        <ele>874</ele>
        <time>2016-08-28T11:01:45Z</time>
      </trkpt>
      <trkpt lat="44.97881" lon="5.43255">
        <ele>873</ele>
        <time>2016-08-28T11:01:50Z</time>
      </trkpt>
      <trkpt lat="44.9787" lon="5.43251">
        <ele>873</ele>
        <time>2016-08-28T11:01:53Z</time>
      </trkpt>
      <trkpt lat="44.97861" lon="5.43245">
        <ele>888</ele>
        <time>2016-08-28T11:02:01Z</time>
      </trkpt>
      <trkpt lat="44.97851" lon="5.43245">
        <ele>887</ele>
        <time>2016-08-28T11:02:07Z</time>
      </trkpt>
      <trkpt lat="44.97842" lon="5.43242">
        <ele>885</ele>
        <time>2016-08-28T11:02:14Z</time>
      </trkpt>
      <trkpt lat="44.97833" lon="5.43239">
        <ele>883</ele>
        <time>2016-08-28T11:02:18Z</time>
      </trkpt>
      <trkpt lat="44.97822" lon="5.43241">
        <ele>883</ele>
        <time>2016-08-28T11:02:21Z</time>
      </trkpt>
      <trkpt lat="44.9781" lon="5.43237">
        <ele>884</ele>
        <time>2016-08-28T11:02:24Z</time>
      </trkpt>
      <trkpt lat="44.97801" lon="5.43236">
        <ele>884</ele>
        <time>2016-08-28T11:02:27Z</time>
      </trkpt>
      <trkpt lat="44.97791" lon="5.43236">
        <ele>884</ele>
        <time>2016-08-28T11:02:30Z</time>
      </trkpt>
      <trkpt lat="44.97777" lon="5.43234">
        <ele>882</ele>
        <time>2016-08-28T11:02:34Z</time>
      </trkpt>
      <trkpt lat="44.97766" lon="5.43227">
        <ele>882</ele>
        <time>2016-08-28T11:02:40Z</time>
      </trkpt>
      <trkpt lat="44.97757" lon="5.43219">
        <ele>883</ele>
        <time>2016-08-28T11:02:46Z</time>
      </trkpt>
      <trkpt lat="44.97747" lon="5.43218">
        <ele>878</ele>
        <time>2016-08-28T11:02:51Z</time>
      </trkpt>
      <trkpt lat="44.97738" lon="5.43209">
        <ele>881</ele>
        <time>2016-08-28T11:02:59Z</time>
      </trkpt>
      <trkpt lat="44.97728" lon="5.43204">
        <ele>881</ele>
        <time>2016-08-28T11:03:05Z</time>
      </trkpt>
      <trkpt lat="44.9772" lon="5.43195">
        <ele>883</ele>
        <time>2016-08-28T11:03:15Z</time>
      </trkpt>
      <trkpt lat="44.97712" lon="5.4319">
        <ele>883</ele>
        <time>2016-08-28T11:03:21Z</time>
      </trkpt>
      <trkpt lat="44.97703" lon="5.43182">
        <ele>883</ele>
        <time>2016-08-28T11:03:27Z</time>
      </trkpt>
      <trkpt lat="44.97694" lon="5.43179">
        <ele>883</ele>
        <time>2016-08-28T11:03:34Z</time>
      </trkpt>
      <trkpt lat="44.97682" lon="5.43176">
        <ele>884</ele>
        <time>2016-08-28T11:03:42Z</time>
      </trkpt>
      <trkpt lat="44.97672" lon="5.43173">
        <ele>886</ele>
        <time>2016-08-28T11:03:49Z</time>
      </trkpt>
      <trkpt lat="44.97662" lon="5.43169">
        <ele>886</ele>
        <time>2016-08-28T11:03:56Z</time>
      </trkpt>
      <trkpt lat="44.97652" lon="5.43164">
        <ele>892</ele>
        <time>2016-08-28T11:04:05Z</time>
      </trkpt>
      <trkpt lat="44.97642" lon="5.43165">
        <ele>892</ele>
        <time>2016-08-28T11:04:12Z</time>
      </trkpt>
      <trkpt lat="44.97633" lon="5.43163">
        <ele>892</ele>
        <time>2016-08-28T11:04:16Z</time>
      </trkpt>
      <trkpt lat="44.97622" lon="5.43157">
        <ele>892</ele>
        <time>2016-08-28T11:04:24Z</time>
      </trkpt>
      <trkpt lat="44.97609" lon="5.43153">
        <ele>892</ele>
        <time>2016-08-28T11:04:32Z</time>
      </trkpt>
      <trkpt lat="44.976" lon="5.43148">
        <ele>892</ele>
        <time>2016-08-28T11:04:37Z</time>
      </trkpt>
      <trkpt lat="44.97592" lon="5.4314">
        <ele>892</ele>
        <time>2016-08-28T11:04:44Z</time>
      </trkpt>
      <trkpt lat="44.97583" lon="5.4313">
        <ele>893</ele>
        <time>2016-08-28T11:04:55Z</time>
      </trkpt>
      <trkpt lat="44.97574" lon="5.43129">
        <ele>890</ele>
        <time>2016-08-28T11:05:00Z</time>
      </trkpt>
      <trkpt lat="44.97563" lon="5.43127">
        <ele>889</ele>
        <time>2016-08-28T11:05:03Z</time>
      </trkpt>
      <trkpt lat="44.97552" lon="5.43124">
        <ele>889</ele>
        <time>2016-08-28T11:05:05Z</time>
      </trkpt>
      <trkpt lat="44.9754" lon="5.43118">
        <ele>889</ele>
        <time>2016-08-28T11:05:08Z</time>
      </trkpt>
      <trkpt lat="44.97529" lon="5.4311">
        <ele>890</ele>
        <time>2016-08-28T11:05:11Z</time>
      </trkpt>
      <trkpt lat="44.97517" lon="5.43099">
        <ele>891</ele>
        <time>2016-08-28T11:05:15Z</time>
      </trkpt>
      <trkpt lat="44.97507" lon="5.43095">
        <ele>892</ele>
        <time>2016-08-28T11:05:17Z</time>
      </trkpt>
      <trkpt lat="44.97499" lon="5.43088">
        <ele>891</ele>
        <time>2016-08-28T11:05:19Z</time>
      </trkpt>
      <trkpt lat="44.97487" lon="5.43084">
        <ele>888</ele>
        <time>2016-08-28T11:05:22Z</time>
      </trkpt>
      <trkpt lat="44.97477" lon="5.43079">
        <ele>895</ele>
        <time>2016-08-28T11:05:25Z</time>
      </trkpt>
      <trkpt lat="44.97467" lon="5.43075">
        <ele>894</ele>
        <time>2016-08-28T11:05:28Z</time>
      </trkpt>
      <trkpt lat="44.97458" lon="5.43069">
        <ele>894</ele>
        <time>2016-08-28T11:05:31Z</time>
      </trkpt>
      <trkpt lat="44.97449" lon="5.43064">
        <ele>893</ele>
        <time>2016-08-28T11:05:34Z</time>
      </trkpt>
      <trkpt lat="44.9744" lon="5.43057">
        <ele>893</ele>
        <time>2016-08-28T11:05:38Z</time>
      </trkpt>
      <trkpt lat="44.97431" lon="5.43052">
        <ele>893</ele>
        <time>2016-08-28T11:05:42Z</time>
      </trkpt>
      <trkpt lat="44.97422" lon="5.43043">
        <ele>894</ele>
        <time>2016-08-28T11:05:47Z</time>
      </trkpt>
      <trkpt lat="44.97414" lon="5.43034">
        <ele>889</ele>
        <time>2016-08-28T11:05:51Z</time>
      </trkpt>
      <trkpt lat="44.97402" lon="5.43028">
        <ele>889</ele>
        <time>2016-08-28T11:05:55Z</time>
      </trkpt>
      <trkpt lat="44.97393" lon="5.43024">
        <ele>889</ele>
        <time>2016-08-28T11:05:58Z</time>
      </trkpt>
      <trkpt lat="44.97384" lon="5.43019">
        <ele>889</ele>
        <time>2016-08-28T11:06:03Z</time>
      </trkpt>
      <trkpt lat="44.97374" lon="5.43015">
        <ele>888</ele>
        <time>2016-08-28T11:06:08Z</time>
      </trkpt>
      <trkpt lat="44.97363" lon="5.43018">
        <ele>887</ele>
        <time>2016-08-28T11:06:12Z</time>
      </trkpt>
      <trkpt lat="44.97351" lon="5.4302">
        <ele>887</ele>
        <time>2016-08-28T11:06:17Z</time>
      </trkpt>
      <trkpt lat="44.9734" lon="5.43015">
        <ele>887</ele>
        <time>2016-08-28T11:06:20Z</time>
      </trkpt>
      <trkpt lat="44.97331" lon="5.43015">
        <ele>883</ele>
        <time>2016-08-28T11:06:23Z</time>
      </trkpt>
      <trkpt lat="44.97321" lon="5.43014">
        <ele>883</ele>
        <time>2016-08-28T11:06:29Z</time>
      </trkpt>
      <trkpt lat="44.97312" lon="5.43009">
        <ele>882</ele>
        <time>2016-08-28T11:06:33Z</time>
      </trkpt>
      <trkpt lat="44.97303" lon="5.43006">
        <ele>881</ele>
        <time>2016-08-28T11:06:37Z</time>
      </trkpt>
      <trkpt lat="44.97294" lon="5.43001">
        <ele>881</ele>
        <time>2016-08-28T11:06:42Z</time>
      </trkpt>
      <trkpt lat="44.97286" lon="5.42994">
        <ele>885</ele>
        <time>2016-08-28T11:06:47Z</time>
      </trkpt>
      <trkpt lat="44.97275" lon="5.42987">
        <ele>884</ele>
        <time>2016-08-28T11:06:52Z</time>
      </trkpt>
      <trkpt lat="44.97265" lon="5.42982">
        <ele>884</ele>
        <time>2016-08-28T11:06:55Z</time>
      </trkpt>
      <trkpt lat="44.97254" lon="5.42977">
        <ele>884</ele>
        <time>2016-08-28T11:06:59Z</time>
      </trkpt>
      <trkpt lat="44.97241" lon="5.42975">
        <ele>882</ele>
        <time>2016-08-28T11:07:02Z</time>
      </trkpt>
      <trkpt lat="44.97229" lon="5.42972">
        <ele>881</ele>
        <time>2016-08-28T11:07:05Z</time>
      </trkpt>
      <trkpt lat="44.97215" lon="5.42968">
        <ele>881</ele>
        <time>2016-08-28T11:07:08Z</time>
      </trkpt>
      <trkpt lat="44.97203" lon="5.42964">
        <ele>881</ele>
        <time>2016-08-28T11:07:11Z</time>
      </trkpt>
      <trkpt lat="44.97189" lon="5.42959">
        <ele>881</ele>
        <time>2016-08-28T11:07:14Z</time>
      </trkpt>
      <trkpt lat="44.97172" lon="5.42952">
        <ele>881</ele>
        <time>2016-08-28T11:07:18Z</time>
      </trkpt>
      <trkpt lat="44.97159" lon="5.42945">
        <ele>879</ele>
        <time>2016-08-28T11:07:21Z</time>
      </trkpt>
      <trkpt lat="44.97149" lon="5.42941">
        <ele>879</ele>
        <time>2016-08-28T11:07:23Z</time>
      </trkpt>
      <trkpt lat="44.9714" lon="5.42935">
        <ele>879</ele>
        <time>2016-08-28T11:07:25Z</time>
      </trkpt>
      <trkpt lat="44.97132" lon="5.42927">
        <ele>879</ele>
        <time>2016-08-28T11:07:27Z</time>
      </trkpt>
      <trkpt lat="44.97122" lon="5.4292">
        <ele>879</ele>
        <time>2016-08-28T11:07:29Z</time>
      </trkpt>
      <trkpt lat="44.97113" lon="5.42915">
        <ele>879</ele>
        <time>2016-08-28T11:07:31Z</time>
      </trkpt>
      <trkpt lat="44.97103" lon="5.42911">
        <ele>879</ele>
        <time>2016-08-28T11:07:33Z</time>
      </trkpt>
      <trkpt lat="44.97094" lon="5.42908">
        <ele>879</ele>
        <time>2016-08-28T11:07:35Z</time>
      </trkpt>
      <trkpt lat="44.97085" lon="5.42905">
        <ele>879</ele>
        <time>2016-08-28T11:07:37Z</time>
      </trkpt>
      <trkpt lat="44.97071" lon="5.42902">
        <ele>878</ele>
        <time>2016-08-28T11:07:40Z</time>
      </trkpt>
      <trkpt lat="44.97061" lon="5.429">
        <ele>877</ele>
        <time>2016-08-28T11:07:42Z</time>
      </trkpt>
      <trkpt lat="44.97045" lon="5.42896">
        <ele>877</ele>
        <time>2016-08-28T11:07:45Z</time>
      </trkpt>
      <trkpt lat="44.97033" lon="5.42894">
        <ele>877</ele>
        <time>2016-08-28T11:07:47Z</time>
      </trkpt>
      <trkpt lat="44.97021" lon="5.42894">
        <ele>876</ele>
        <time>2016-08-28T11:07:49Z</time>
      </trkpt>
      <trkpt lat="44.97009" lon="5.42896">
        <ele>876</ele>
        <time>2016-08-28T11:07:51Z</time>
      </trkpt>
      <trkpt lat="44.96996" lon="5.42896">
        <ele>876</ele>
        <time>2016-08-28T11:07:54Z</time>
      </trkpt>
      <trkpt lat="44.96985" lon="5.42897">
        <ele>876</ele>
        <time>2016-08-28T11:07:56Z</time>
      </trkpt>
      <trkpt lat="44.96975" lon="5.42897">
        <ele>876</ele>
        <time>2016-08-28T11:07:58Z</time>
      </trkpt>
      <trkpt lat="44.96964" lon="5.42898">
        <ele>876</ele>
        <time>2016-08-28T11:08:00Z</time>
      </trkpt>
      <trkpt lat="44.96953" lon="5.42898">
        <ele>876</ele>
        <time>2016-08-28T11:08:02Z</time>
      </trkpt>
      <trkpt lat="44.96941" lon="5.42898">
        <ele>876</ele>
        <time>2016-08-28T11:08:04Z</time>
      </trkpt>
      <trkpt lat="44.96922" lon="5.429">
        <ele>876</ele>
        <time>2016-08-28T11:08:08Z</time>
      </trkpt>
      <trkpt lat="44.96911" lon="5.42902">
        <ele>876</ele>
        <time>2016-08-28T11:08:10Z</time>
      </trkpt>
      <trkpt lat="44.96897" lon="5.429">
        <ele>876</ele>
        <time>2016-08-28T11:08:13Z</time>
      </trkpt>
      <trkpt lat="44.96886" lon="5.42894">
        <ele>875</ele>
        <time>2016-08-28T11:08:15Z</time>
      </trkpt>
      <trkpt lat="44.96876" lon="5.42889">
        <ele>875</ele>
        <time>2016-08-28T11:08:17Z</time>
      </trkpt>
      <trkpt lat="44.96866" lon="5.42884">
        <ele>875</ele>
        <time>2016-08-28T11:08:19Z</time>
      </trkpt>
      <trkpt lat="44.96857" lon="5.42876">
        <ele>875</ele>
        <time>2016-08-28T11:08:21Z</time>
      </trkpt>
      <trkpt lat="44.96841" lon="5.42853">
        <ele>874</ele>
        <time>2016-08-28T11:08:25Z</time>
      </trkpt>
      <trkpt lat="44.96835" lon="5.42835">
        <ele>873</ele>
        <time>2016-08-28T11:08:27Z</time>
      </trkpt>
      <trkpt lat="44.96828" lon="5.42815">
        <ele>872</ele>
        <time>2016-08-28T11:08:29Z</time>
      </trkpt>
      <trkpt lat="44.96821" lon="5.42796">
        <ele>871</ele>
        <time>2016-08-28T11:08:31Z</time>
      </trkpt>
      <trkpt lat="44.96812" lon="5.42776">
        <ele>870</ele>
        <time>2016-08-28T11:08:33Z</time>
      </trkpt>
      <trkpt lat="44.96802" lon="5.42758">
        <ele>870</ele>
        <time>2016-08-28T11:08:35Z</time>
      </trkpt>
      <trkpt lat="44.9679" lon="5.42741">
        <ele>869</ele>
        <time>2016-08-28T11:08:37Z</time>
      </trkpt>
      <trkpt lat="44.96774" lon="5.42729">
        <ele>869</ele>
        <time>2016-08-28T11:08:39Z</time>
      </trkpt>
      <trkpt lat="44.96758" lon="5.42719">
        <ele>869</ele>
        <time>2016-08-28T11:08:41Z</time>
      </trkpt>
      <trkpt lat="44.96742" lon="5.4271">
        <ele>870</ele>
        <time>2016-08-28T11:08:43Z</time>
      </trkpt>
      <trkpt lat="44.96726" lon="5.42702">
        <ele>870</ele>
        <time>2016-08-28T11:08:45Z</time>
      </trkpt>
      <trkpt lat="44.96711" lon="5.42691">
        <ele>870</ele>
        <time>2016-08-28T11:08:47Z</time>
      </trkpt>
      <trkpt lat="44.96698" lon="5.42679">
        <ele>870</ele>
        <time>2016-08-28T11:08:49Z</time>
      </trkpt>
      <trkpt lat="44.96688" lon="5.42665">
        <ele>870</ele>
        <time>2016-08-28T11:08:51Z</time>
      </trkpt>
      <trkpt lat="44.9668" lon="5.42649">
        <ele>870</ele>
        <time>2016-08-28T11:08:53Z</time>
      </trkpt>
      <trkpt lat="44.96675" lon="5.42633">
        <ele>870</ele>
        <time>2016-08-28T11:08:55Z</time>
      </trkpt>
      <trkpt lat="44.96669" lon="5.42619">
        <ele>870</ele>
        <time>2016-08-28T11:08:57Z</time>
      </trkpt>
      <trkpt lat="44.96658" lon="5.42606">
        <ele>870</ele>
        <time>2016-08-28T11:09:00Z</time>
      </trkpt>
      <trkpt lat="44.9665" lon="5.42594">
        <ele>870</ele>
        <time>2016-08-28T11:09:02Z</time>
      </trkpt>
      <trkpt lat="44.9664" lon="5.42583">
        <ele>870</ele>
        <time>2016-08-28T11:09:04Z</time>
      </trkpt>
      <trkpt lat="44.96631" lon="5.42573">
        <ele>870</ele>
        <time>2016-08-28T11:09:06Z</time>
      </trkpt>
      <trkpt lat="44.96622" lon="5.42564">
        <ele>871</ele>
        <time>2016-08-28T11:09:08Z</time>
      </trkpt>
      <trkpt lat="44.96615" lon="5.42554">
        <ele>871</ele>
        <time>2016-08-28T11:09:10Z</time>
      </trkpt>
      <trkpt lat="44.96608" lon="5.42544">
        <ele>871</ele>
        <time>2016-08-28T11:09:12Z</time>
      </trkpt>
      <trkpt lat="44.96599" lon="5.4253">
        <ele>871</ele>
        <time>2016-08-28T11:09:15Z</time>
      </trkpt>
      <trkpt lat="44.96592" lon="5.42516">
        <ele>871</ele>
        <time>2016-08-28T11:09:18Z</time>
      </trkpt>
      <trkpt lat="44.96586" lon="5.42503">
        <ele>872</ele>
        <time>2016-08-28T11:09:21Z</time>
      </trkpt>
      <trkpt lat="44.96579" lon="5.42492">
        <ele>873</ele>
        <time>2016-08-28T11:09:24Z</time>
      </trkpt>
      <trkpt lat="44.9657" lon="5.42478">
        <ele>874</ele>
        <time>2016-08-28T11:09:28Z</time>
      </trkpt>
      <trkpt lat="44.96565" lon="5.42465">
        <ele>875</ele>
        <time>2016-08-28T11:09:32Z</time>
      </trkpt>
      <trkpt lat="44.96562" lon="5.42452">
        <ele>875</ele>
        <time>2016-08-28T11:09:36Z</time>
      </trkpt>
      <trkpt lat="44.96558" lon="5.4244">
        <ele>876</ele>
        <time>2016-08-28T11:09:41Z</time>
      </trkpt>
      <trkpt lat="44.96553" lon="5.42428">
        <ele>876</ele>
        <time>2016-08-28T11:09:48Z</time>
      </trkpt>
      <trkpt lat="44.9655" lon="5.42414">
        <ele>882</ele>
        <time>2016-08-28T11:09:54Z</time>
      </trkpt>
      <trkpt lat="44.96548" lon="5.42399">
        <ele>882</ele>
        <time>2016-08-28T11:10:01Z</time>
      </trkpt>
      <trkpt lat="44.96545" lon="5.42387">
        <ele>883</ele>
        <time>2016-08-28T11:10:07Z</time>
      </trkpt>
      <trkpt lat="44.9654" lon="5.42375">
        <ele>883</ele>
        <time>2016-08-28T11:10:15Z</time>
      </trkpt>
      <trkpt lat="44.9654" lon="5.42361">
        <ele>884</ele>
        <time>2016-08-28T11:10:27Z</time>
      </trkpt>
      <trkpt lat="44.96537" lon="5.42349">
        <ele>885</ele>
        <time>2016-08-28T11:10:35Z</time>
      </trkpt>
      <trkpt lat="44.96533" lon="5.42336">
        <ele>885</ele>
        <time>2016-08-28T11:10:48Z</time>
      </trkpt>
      <trkpt lat="44.96532" lon="5.4232">
        <ele>893</ele>
        <time>2016-08-28T11:10:56Z</time>
      </trkpt>
      <trkpt lat="44.9653" lon="5.42307">
        <ele>893</ele>
        <time>2016-08-28T11:11:04Z</time>
      </trkpt>
      <trkpt lat="44.96523" lon="5.42297">
        <ele>894</ele>
        <time>2016-08-28T11:11:13Z</time>
      </trkpt>
      <trkpt lat="44.96518" lon="5.42285">
        <ele>895</ele>
        <time>2016-08-28T11:11:25Z</time>
      </trkpt>
      <trkpt lat="44.9652" lon="5.42272">
        <ele>896</ele>
        <time>2016-08-28T11:11:47Z</time>
      </trkpt>
      <trkpt lat="44.96521" lon="5.42257">
        <ele>897</ele>
        <time>2016-08-28T11:12:00Z</time>
      </trkpt>
      <trkpt lat="44.96522" lon="5.42244">
        <ele>903</ele>
        <time>2016-08-28T11:12:14Z</time>
      </trkpt>
      <trkpt lat="44.96516" lon="5.42233">
        <ele>903</ele>
        <time>2016-08-28T11:12:34Z</time>
      </trkpt>
      <trkpt lat="44.96516" lon="5.4222">
        <ele>904</ele>
        <time>2016-08-28T11:12:48Z</time>
      </trkpt>
      <trkpt lat="44.96526" lon="5.42211">
        <ele>904</ele>
        <time>2016-08-28T11:12:59Z</time>
      </trkpt>
      <trkpt lat="44.96531" lon="5.42199">
        <ele>905</ele>
        <time>2016-08-28T11:13:05Z</time>
      </trkpt>
      <trkpt lat="44.96537" lon="5.42185">
        <ele>906</ele>
        <time>2016-08-28T11:13:11Z</time>
      </trkpt>
      <trkpt lat="44.96539" lon="5.42172">
        <ele>906</ele>
        <time>2016-08-28T11:13:16Z</time>
      </trkpt>
      <trkpt lat="44.96541" lon="5.42156">
        <ele>911</ele>
        <time>2016-08-28T11:13:21Z</time>
      </trkpt>
      <trkpt lat="44.96545" lon="5.42141">
        <ele>911</ele>
        <time>2016-08-28T11:13:24Z</time>
      </trkpt>
      <trkpt lat="44.96547" lon="5.42126">
        <ele>911</ele>
        <time>2016-08-28T11:13:27Z</time>
      </trkpt>
      <trkpt lat="44.9655" lon="5.42114">
        <ele>911</ele>
        <time>2016-08-28T11:13:29Z</time>
      </trkpt>
      <trkpt lat="44.96556" lon="5.42097">
        <ele>911</ele>
        <time>2016-08-28T11:13:32Z</time>
      </trkpt>
      <trkpt lat="44.96562" lon="5.42082">
        <ele>910</ele>
        <time>2016-08-28T11:13:35Z</time>
      </trkpt>
      <trkpt lat="44.96567" lon="5.4207">
        <ele>910</ele>
        <time>2016-08-28T11:13:37Z</time>
      </trkpt>
      <trkpt lat="44.96573" lon="5.42053">
        <ele>910</ele>
        <time>2016-08-28T11:13:40Z</time>
      </trkpt>
      <trkpt lat="44.96578" lon="5.42038">
        <ele>909</ele>
        <time>2016-08-28T11:13:42Z</time>
      </trkpt>
      <trkpt lat="44.96586" lon="5.42017">
        <ele>904</ele>
        <time>2016-08-28T11:13:44Z</time>
      </trkpt>
      <trkpt lat="44.96595" lon="5.41998">
        <ele>900</ele>
        <time>2016-08-28T11:13:46Z</time>
      </trkpt>
      <trkpt lat="44.96603" lon="5.41974">
        <ele>899</ele>
        <time>2016-08-28T11:13:48Z</time>
      </trkpt>
      <trkpt lat="44.96612" lon="5.41952">
        <ele>897</ele>
        <time>2016-08-28T11:13:50Z</time>
      </trkpt>
      <trkpt lat="44.96619" lon="5.4194">
        <ele>897</ele>
        <time>2016-08-28T11:13:51Z</time>
      </trkpt>
      <trkpt lat="44.96624" lon="5.41929">
        <ele>897</ele>
        <time>2016-08-28T11:13:52Z</time>
      </trkpt>
      <trkpt lat="44.96631" lon="5.41918">
        <ele>896</ele>
        <time>2016-08-28T11:13:53Z</time>
      </trkpt>
      <trkpt lat="44.96638" lon="5.41907">
        <ele>893</ele>
        <time>2016-08-28T11:13:54Z</time>
      </trkpt>
      <trkpt lat="44.96644" lon="5.41894">
        <ele>893</ele>
        <time>2016-08-28T11:13:55Z</time>
      </trkpt>
      <trkpt lat="44.96651" lon="5.41883">
        <ele>893</ele>
        <time>2016-08-28T11:13:56Z</time>
      </trkpt>
      <trkpt lat="44.96656" lon="5.4187">
        <ele>892</ele>
        <time>2016-08-28T11:13:57Z</time>
      </trkpt>
      <trkpt lat="44.96663" lon="5.41858">
        <ele>892</ele>
        <time>2016-08-28T11:13:58Z</time>
      </trkpt>
      <trkpt lat="44.96669" lon="5.41845">
        <ele>894</ele>
        <time>2016-08-28T11:13:59Z</time>
      </trkpt>
      <trkpt lat="44.96673" lon="5.41832">
        <ele>893</ele>
        <time>2016-08-28T11:14:00Z</time>
      </trkpt>
      <trkpt lat="44.96677" lon="5.4182">
        <ele>894</ele>
        <time>2016-08-28T11:14:01Z</time>
      </trkpt>
      <trkpt lat="44.96681" lon="5.41808">
        <ele>894</ele>
        <time>2016-08-28T11:14:02Z</time>
      </trkpt>
      <trkpt lat="44.96688" lon="5.41787">
        <ele>895</ele>
        <time>2016-08-28T11:14:04Z</time>
      </trkpt>
      <trkpt lat="44.96695" lon="5.4177">
        <ele>895</ele>
        <time>2016-08-28T11:14:06Z</time>
      </trkpt>
      <trkpt lat="44.96701" lon="5.41749">
        <ele>893</ele>
        <time>2016-08-28T11:14:08Z</time>
      </trkpt>
      <trkpt lat="44.96705" lon="5.41729">
        <ele>893</ele>
        <time>2016-08-28T11:14:10Z</time>
      </trkpt>
      <trkpt lat="44.96712" lon="5.41709">
        <ele>892</ele>
        <time>2016-08-28T11:14:12Z</time>
      </trkpt>
      <trkpt lat="44.96719" lon="5.41689">
        <ele>892</ele>
        <time>2016-08-28T11:14:14Z</time>
      </trkpt>
      <trkpt lat="44.96724" lon="5.41669">
        <ele>892</ele>
        <time>2016-08-28T11:14:16Z</time>
      </trkpt>
      <trkpt lat="44.9673" lon="5.41649">
        <ele>889</ele>
        <time>2016-08-28T11:14:18Z</time>
      </trkpt>
      <trkpt lat="44.96735" lon="5.41631">
        <ele>889</ele>
        <time>2016-08-28T11:14:20Z</time>
      </trkpt>
      <trkpt lat="44.9674" lon="5.41617">
        <ele>888</ele>
        <time>2016-08-28T11:14:22Z</time>
      </trkpt>
      <trkpt lat="44.96744" lon="5.41602">
        <ele>888</ele>
        <time>2016-08-28T11:14:25Z</time>
      </trkpt>
      <trkpt lat="44.96747" lon="5.41589">
        <ele>888</ele>
        <time>2016-08-28T11:14:28Z</time>
      </trkpt>
      <trkpt lat="44.96751" lon="5.41575">
        <ele>888</ele>
        <time>2016-08-28T11:14:34Z</time>
      </trkpt>
      <trkpt lat="44.96753" lon="5.41561">
        <ele>889</ele>
        <time>2016-08-28T11:16:33Z</time>
      </trkpt>
      <trkpt lat="44.96756" lon="5.41544">
        <ele>889</ele>
        <time>2016-08-28T11:16:38Z</time>
      </trkpt>
      <trkpt lat="44.96761" lon="5.4153">
        <ele>888</ele>
        <time>2016-08-28T11:16:42Z</time>
      </trkpt>
      <trkpt lat="44.96765" lon="5.41516">
        <ele>888</ele>
        <time>2016-08-28T11:16:46Z</time>
      </trkpt>
      <trkpt lat="44.96771" lon="5.41502">
        <ele>888</ele>
        <time>2016-08-28T11:16:50Z</time>
      </trkpt>
      <trkpt lat="44.96775" lon="5.41487">
        <ele>886</ele>
        <time>2016-08-28T11:16:53Z</time>
      </trkpt>
      <trkpt lat="44.96779" lon="5.41469">
        <ele>887</ele>
        <time>2016-08-28T11:16:56Z</time>
      </trkpt>
      <trkpt lat="44.96784" lon="5.41453">
        <ele>887</ele>
        <time>2016-08-28T11:16:59Z</time>
      </trkpt>
      <trkpt lat="44.96787" lon="5.41434">
        <ele>886</ele>
        <time>2016-08-28T11:17:02Z</time>
      </trkpt>
      <trkpt lat="44.9679" lon="5.41421">
        <ele>886</ele>
        <time>2016-08-28T11:17:04Z</time>
      </trkpt>
      <trkpt lat="44.96795" lon="5.41403">
        <ele>885</ele>
        <time>2016-08-28T11:17:07Z</time>
      </trkpt>
      <trkpt lat="44.96798" lon="5.41389">
        <ele>885</ele>
        <time>2016-08-28T11:17:09Z</time>
      </trkpt>
      <trkpt lat="44.96802" lon="5.41372">
        <ele>885</ele>
        <time>2016-08-28T11:17:11Z</time>
      </trkpt>
      <trkpt lat="44.96805" lon="5.41354">
        <ele>885</ele>
        <time>2016-08-28T11:17:13Z</time>
      </trkpt>
      <trkpt lat="44.9681" lon="5.41336">
        <ele>885</ele>
        <time>2016-08-28T11:17:15Z</time>
      </trkpt>
      <trkpt lat="44.96813" lon="5.41318">
        <ele>883</ele>
        <time>2016-08-28T11:17:17Z</time>
      </trkpt>
      <trkpt lat="44.96817" lon="5.41299">
        <ele>882</ele>
        <time>2016-08-28T11:17:19Z</time>
      </trkpt>
      <trkpt lat="44.96821" lon="5.4128">
        <ele>881</ele>
        <time>2016-08-28T11:17:21Z</time>
      </trkpt>
      <trkpt lat="44.96823" lon="5.41266">
        <ele>881</ele>
        <time>2016-08-28T11:17:23Z</time>
      </trkpt>
      <trkpt lat="44.96826" lon="5.41254">
        <ele>881</ele>
        <time>2016-08-28T11:17:25Z</time>
      </trkpt>
      <trkpt lat="44.96829" lon="5.41241">
        <ele>880</ele>
        <time>2016-08-28T11:17:27Z</time>
      </trkpt>
      <trkpt lat="44.96832" lon="5.41228">
        <ele>879</ele>
        <time>2016-08-28T11:17:29Z</time>
      </trkpt>
      <trkpt lat="44.96835" lon="5.41215">
        <ele>880</ele>
        <time>2016-08-28T11:17:31Z</time>
      </trkpt>
      <trkpt lat="44.96841" lon="5.41199">
        <ele>879</ele>
        <time>2016-08-28T11:17:34Z</time>
      </trkpt>
      <trkpt lat="44.96845" lon="5.41187">
        <ele>878</ele>
        <time>2016-08-28T11:17:36Z</time>
      </trkpt>
      <trkpt lat="44.96849" lon="5.41175">
        <ele>877</ele>
        <time>2016-08-28T11:17:38Z</time>
      </trkpt>
      <trkpt lat="44.96854" lon="5.4116">
        <ele>873</ele>
        <time>2016-08-28T11:17:40Z</time>
      </trkpt>
      <trkpt lat="44.9686" lon="5.41143">
        <ele>873</ele>
        <time>2016-08-28T11:17:42Z</time>
      </trkpt>
      <trkpt lat="44.96867" lon="5.41126">
        <ele>872</ele>
        <time>2016-08-28T11:17:44Z</time>
      </trkpt>
      <trkpt lat="44.96877" lon="5.41111">
        <ele>871</ele>
        <time>2016-08-28T11:17:46Z</time>
      </trkpt>
      <trkpt lat="44.96888" lon="5.41098">
        <ele>870</ele>
        <time>2016-08-28T11:17:48Z</time>
      </trkpt>
      <trkpt lat="44.96899" lon="5.41084">
        <ele>869</ele>
        <time>2016-08-28T11:17:50Z</time>
      </trkpt>
      <trkpt lat="44.96908" lon="5.41066">
        <ele>867</ele>
        <time>2016-08-28T11:17:52Z</time>
      </trkpt>
      <trkpt lat="44.96916" lon="5.4105">
        <ele>866</ele>
        <time>2016-08-28T11:17:54Z</time>
      </trkpt>
      <trkpt lat="44.96923" lon="5.41034">
        <ele>867</ele>
        <time>2016-08-28T11:17:56Z</time>
      </trkpt>
      <trkpt lat="44.96924" lon="5.41016">
        <ele>866</ele>
        <time>2016-08-28T11:17:58Z</time>
      </trkpt>
      <trkpt lat="44.96923" lon="5.40996">
        <ele>864</ele>
        <time>2016-08-28T11:18:00Z</time>
      </trkpt>
      <trkpt lat="44.96923" lon="5.40978">
        <ele>865</ele>
        <time>2016-08-28T11:18:02Z</time>
      </trkpt>
      <trkpt lat="44.96924" lon="5.40963">
        <ele>865</ele>
        <time>2016-08-28T11:18:04Z</time>
      </trkpt>
      <trkpt lat="44.96927" lon="5.40946">
        <ele>865</ele>
        <time>2016-08-28T11:18:06Z</time>
      </trkpt>
      <trkpt lat="44.96927" lon="5.4093">
        <ele>864</ele>
        <time>2016-08-28T11:18:08Z</time>
      </trkpt>
      <trkpt lat="44.96928" lon="5.40908">
        <ele>862</ele>
        <time>2016-08-28T11:18:10Z</time>
      </trkpt>
      <trkpt lat="44.96928" lon="5.40887">
        <ele>861</ele>
        <time>2016-08-28T11:18:12Z</time>
      </trkpt>
      <trkpt lat="44.9693" lon="5.40866">
        <ele>860</ele>
        <time>2016-08-28T11:18:14Z</time>
      </trkpt>
      <trkpt lat="44.96928" lon="5.40847">
        <ele>859</ele>
        <time>2016-08-28T11:18:16Z</time>
      </trkpt>
      <trkpt lat="44.96927" lon="5.40829">
        <ele>855</ele>
        <time>2016-08-28T11:18:18Z</time>
      </trkpt>
      <trkpt lat="44.96923" lon="5.40814">
        <ele>855</ele>
        <time>2016-08-28T11:18:20Z</time>
      </trkpt>
      <trkpt lat="44.96923" lon="5.40799">
        <ele>854</ele>
        <time>2016-08-28T11:18:22Z</time>
      </trkpt>
      <trkpt lat="44.96923" lon="5.40785">
        <ele>853</ele>
        <time>2016-08-28T11:18:24Z</time>
      </trkpt>
      <trkpt lat="44.96923" lon="5.40771">
        <ele>852</ele>
        <time>2016-08-28T11:18:26Z</time>
      </trkpt>
      <trkpt lat="44.96927" lon="5.40755">
        <ele>851</ele>
        <time>2016-08-28T11:18:29Z</time>
      </trkpt>
      <trkpt lat="44.9693" lon="5.4074">
        <ele>848</ele>
        <time>2016-08-28T11:18:32Z</time>
      </trkpt>
      <trkpt lat="44.9693" lon="5.40727">
        <ele>847</ele>
        <time>2016-08-28T11:18:35Z</time>
      </trkpt>
      <trkpt lat="44.96931" lon="5.40709">
        <ele>846</ele>
        <time>2016-08-28T11:18:38Z</time>
      </trkpt>
      <trkpt lat="44.96932" lon="5.40696">
        <ele>845</ele>
        <time>2016-08-28T11:18:40Z</time>
      </trkpt>
      <trkpt lat="44.9693" lon="5.40679">
        <ele>844</ele>
        <time>2016-08-28T11:18:42Z</time>
      </trkpt>
      <trkpt lat="44.9693" lon="5.40663">
        <ele>840</ele>
        <time>2016-08-28T11:18:44Z</time>
      </trkpt>
      <trkpt lat="44.96929" lon="5.40646">
        <ele>840</ele>
        <time>2016-08-28T11:18:46Z</time>
      </trkpt>
      <trkpt lat="44.96927" lon="5.4063">
        <ele>839</ele>
        <time>2016-08-28T11:18:48Z</time>
      </trkpt>
      <trkpt lat="44.96925" lon="5.40613">
        <ele>838</ele>
        <time>2016-08-28T11:18:50Z</time>
      </trkpt>
      <trkpt lat="44.96924" lon="5.40585">
        <ele>837</ele>
        <time>2016-08-28T11:18:54Z</time>
      </trkpt>
      <trkpt lat="44.96927" lon="5.40566">
        <ele>835</ele>
        <time>2016-08-28T11:18:57Z</time>
      </trkpt>
      <trkpt lat="44.96927" lon="5.40547">
        <ele>835</ele>
        <time>2016-08-28T11:19:00Z</time>
      </trkpt>
      <trkpt lat="44.96927" lon="5.40531">
        <ele>835</ele>
        <time>2016-08-28T11:19:02Z</time>
      </trkpt>
      <trkpt lat="44.96928" lon="5.40517">
        <ele>834</ele>
        <time>2016-08-28T11:19:05Z</time>
      </trkpt>
      <trkpt lat="44.9693" lon="5.40501">
        <ele>835</ele>
        <time>2016-08-28T11:19:08Z</time>
      </trkpt>
      <trkpt lat="44.96933" lon="5.40483">
        <ele>833</ele>
        <time>2016-08-28T11:19:11Z</time>
      </trkpt>
      <trkpt lat="44.96935" lon="5.40465">
        <ele>833</ele>
        <time>2016-08-28T11:19:14Z</time>
      </trkpt>
      <trkpt lat="44.96939" lon="5.4045">
        <ele>832</ele>
        <time>2016-08-28T11:19:17Z</time>
      </trkpt>
      <trkpt lat="44.96947" lon="5.40441">
        <ele>832</ele>
        <time>2016-08-28T11:19:20Z</time>
      </trkpt>
      <trkpt lat="44.96957" lon="5.40436">
        <ele>832</ele>
        <time>2016-08-28T11:19:23Z</time>
      </trkpt>
      <trkpt lat="44.96967" lon="5.40426">
        <ele>832</ele>
        <time>2016-08-28T11:19:26Z</time>
      </trkpt>
      <trkpt lat="44.96978" lon="5.40418">
        <ele>832</ele>
        <time>2016-08-28T11:19:29Z</time>
      </trkpt>
      <trkpt lat="44.96987" lon="5.40414">
        <ele>831</ele>
        <time>2016-08-28T11:19:32Z</time>
      </trkpt>
      <trkpt lat="44.96996" lon="5.40407">
        <ele>831</ele>
        <time>2016-08-28T11:19:35Z</time>
      </trkpt>
      <trkpt lat="44.97007" lon="5.40399">
        <ele>829</ele>
        <time>2016-08-28T11:19:38Z</time>
      </trkpt>
      <trkpt lat="44.97015" lon="5.40386">
        <ele>828</ele>
        <time>2016-08-28T11:19:41Z</time>
      </trkpt>
      <trkpt lat="44.97018" lon="5.40371">
        <ele>828</ele>
        <time>2016-08-28T11:19:44Z</time>
      </trkpt>
      <trkpt lat="44.97022" lon="5.40356">
        <ele>827</ele>
        <time>2016-08-28T11:19:47Z</time>
      </trkpt>
      <trkpt lat="44.97026" lon="5.40338">
        <ele>827</ele>
        <time>2016-08-28T11:19:51Z</time>
      </trkpt>
      <trkpt lat="44.9703" lon="5.40322">
        <ele>826</ele>
        <time>2016-08-28T11:19:55Z</time>
      </trkpt>
      <trkpt lat="44.97032" lon="5.40305">
        <ele>826</ele>
        <time>2016-08-28T11:19:58Z</time>
      </trkpt>
      <trkpt lat="44.97035" lon="5.4029">
        <ele>826</ele>
        <time>2016-08-28T11:20:01Z</time>
      </trkpt>
      <trkpt lat="44.97039" lon="5.40277">
        <ele>826</ele>
        <time>2016-08-28T11:20:05Z</time>
      </trkpt>
      <trkpt lat="44.97043" lon="5.40261">
        <ele>825</ele>
        <time>2016-08-28T11:20:08Z</time>
      </trkpt>
      <trkpt lat="44.97047" lon="5.40249">
        <ele>826</ele>
        <time>2016-08-28T11:20:11Z</time>
      </trkpt>
      <trkpt lat="44.97052" lon="5.40236">
        <ele>826</ele>
        <time>2016-08-28T11:20:14Z</time>
      </trkpt>
      <trkpt lat="44.97057" lon="5.40222">
        <ele>826</ele>
        <time>2016-08-28T11:20:18Z</time>
      </trkpt>
      <trkpt lat="44.97061" lon="5.40207">
        <ele>827</ele>
        <time>2016-08-28T11:20:23Z</time>
      </trkpt>
      <trkpt lat="44.97063" lon="5.40194">
        <ele>827</ele>
        <time>2016-08-28T11:20:27Z</time>
      </trkpt>
      <trkpt lat="44.97066" lon="5.40181">
        <ele>827</ele>
        <time>2016-08-28T11:20:32Z</time>
      </trkpt>
      <trkpt lat="44.97071" lon="5.40169">
        <ele>827</ele>
        <time>2016-08-28T11:20:39Z</time>
      </trkpt>
      <trkpt lat="44.97076" lon="5.40157">
        <ele>827</ele>
        <time>2016-08-28T11:20:45Z</time>
      </trkpt>
      <trkpt lat="44.97083" lon="5.40146">
        <ele>827</ele>
        <time>2016-08-28T11:20:50Z</time>
      </trkpt>
      <trkpt lat="44.97091" lon="5.40138">
        <ele>826</ele>
        <time>2016-08-28T11:20:54Z</time>
      </trkpt>
      <trkpt lat="44.971" lon="5.40137">
        <ele>826</ele>
        <time>2016-08-28T11:21:00Z</time>
      </trkpt>
      <trkpt lat="44.9711" lon="5.40143">
        <ele>826</ele>
        <time>2016-08-28T11:21:05Z</time>
      </trkpt>
      <trkpt lat="44.97119" lon="5.40152">
        <ele>826</ele>
        <time>2016-08-28T11:21:09Z</time>
      </trkpt>
      <trkpt lat="44.97127" lon="5.40157">
        <ele>826</ele>
        <time>2016-08-28T11:21:12Z</time>
      </trkpt>
      <trkpt lat="44.97136" lon="5.40164">
        <ele>826</ele>
        <time>2016-08-28T11:21:15Z</time>
      </trkpt>
      <trkpt lat="44.97148" lon="5.40173">
        <ele>825</ele>
        <time>2016-08-28T11:21:18Z</time>
      </trkpt>
      <trkpt lat="44.97169" lon="5.40185">
        <ele>824</ele>
        <time>2016-08-28T11:21:22Z</time>
      </trkpt>
      <trkpt lat="44.9718" lon="5.40183">
        <ele>824</ele>
        <time>2016-08-28T11:21:25Z</time>
      </trkpt>
      <trkpt lat="44.97188" lon="5.40173">
        <ele>824</ele>
        <time>2016-08-28T11:21:29Z</time>
      </trkpt>
      <trkpt lat="44.97193" lon="5.40157">
        <ele>825</ele>
        <time>2016-08-28T11:21:32Z</time>
      </trkpt>
      <trkpt lat="44.97197" lon="5.40143">
        <ele>825</ele>
        <time>2016-08-28T11:21:35Z</time>
      </trkpt>
      <trkpt lat="44.97202" lon="5.4013">
        <ele>825</ele>
        <time>2016-08-28T11:21:38Z</time>
      </trkpt>
      <trkpt lat="44.97209" lon="5.40121">
        <ele>825</ele>
        <time>2016-08-28T11:21:43Z</time>
      </trkpt>
      <trkpt lat="44.97219" lon="5.40119">
        <ele>825</ele>
        <time>2016-08-28T11:21:51Z</time>
      </trkpt>
      <trkpt lat="44.97229" lon="5.40118">
        <ele>825</ele>
        <time>2016-08-28T11:22:00Z</time>
      </trkpt>
      <trkpt lat="44.97239" lon="5.40119">
        <ele>825</ele>
        <time>2016-08-28T11:22:07Z</time>
      </trkpt>
      <trkpt lat="44.97252" lon="5.40124">
        <ele>825</ele>
        <time>2016-08-28T11:22:14Z</time>
      </trkpt>
      <trkpt lat="44.97267" lon="5.40124">
        <ele>825</ele>
        <time>2016-08-28T11:22:25Z</time>
      </trkpt>
      <trkpt lat="44.97277" lon="5.40121">
        <ele>825</ele>
        <time>2016-08-28T11:22:31Z</time>
      </trkpt>
      <trkpt lat="44.97284" lon="5.40109">
        <ele>826</ele>
        <time>2016-08-28T11:22:37Z</time>
      </trkpt>
      <trkpt lat="44.97295" lon="5.40099">
        <ele>826</ele>
        <time>2016-08-28T11:22:42Z</time>
      </trkpt>
      <trkpt lat="44.97303" lon="5.40094">
        <ele>826</ele>
        <time>2016-08-28T11:22:46Z</time>
      </trkpt>
      <trkpt lat="44.97313" lon="5.40091">
        <ele>827</ele>
        <time>2016-08-28T11:22:50Z</time>
      </trkpt>
      <trkpt lat="44.97323" lon="5.40087">
        <ele>828</ele>
        <time>2016-08-28T11:22:54Z</time>
      </trkpt>
      <trkpt lat="44.97333" lon="5.4008">
        <ele>830</ele>
        <time>2016-08-28T11:22:58Z</time>
      </trkpt>
      <trkpt lat="44.97343" lon="5.40071">
        <ele>831</ele>
        <time>2016-08-28T11:23:01Z</time>
      </trkpt>
      <trkpt lat="44.97352" lon="5.40064">
        <ele>832</ele>
        <time>2016-08-28T11:23:04Z</time>
      </trkpt>
      <trkpt lat="44.97362" lon="5.40064">
        <ele>832</ele>
        <time>2016-08-28T11:23:09Z</time>
      </trkpt>
      <trkpt lat="44.97367" lon="5.40052">
        <ele>833</ele>
        <time>2016-08-28T11:23:14Z</time>
      </trkpt>
      <trkpt lat="44.97362" lon="5.4004">
        <ele>834</ele>
        <time>2016-08-28T11:23:19Z</time>
      </trkpt>
      <trkpt lat="44.9736" lon="5.40027">
        <ele>835</ele>
        <time>2016-08-28T11:23:27Z</time>
      </trkpt>
      <trkpt lat="44.9737" lon="5.40019">
        <ele>835</ele>
        <time>2016-08-28T11:23:35Z</time>
      </trkpt>
      <trkpt lat="44.9738" lon="5.40017">
        <ele>835</ele>
        <time>2016-08-28T11:23:41Z</time>
      </trkpt>
      <trkpt lat="44.97391" lon="5.40016">
        <ele>836</ele>
        <time>2016-08-28T11:23:47Z</time>
      </trkpt>
      <trkpt lat="44.974" lon="5.40011">
        <ele>837</ele>
        <time>2016-08-28T11:23:52Z</time>
      </trkpt>
      <trkpt lat="44.97409" lon="5.40007">
        <ele>838</ele>
        <time>2016-08-28T11:23:57Z</time>
      </trkpt>
      <trkpt lat="44.97419" lon="5.40002">
        <ele>839</ele>
        <time>2016-08-28T11:24:03Z</time>
      </trkpt>
      <trkpt lat="44.97428" lon="5.39994">
        <ele>842</ele>
        <time>2016-08-28T11:24:08Z</time>
      </trkpt>
      <trkpt lat="44.97438" lon="5.39991">
        <ele>843</ele>
        <time>2016-08-28T11:24:12Z</time>
      </trkpt>
      <trkpt lat="44.97449" lon="5.39989">
        <ele>843</ele>
        <time>2016-08-28T11:24:19Z</time>
      </trkpt>
      <trkpt lat="44.97458" lon="5.39985">
        <ele>842</ele>
        <time>2016-08-28T11:24:25Z</time>
      </trkpt>
      <trkpt lat="44.97468" lon="5.39985">
        <ele>842</ele>
        <time>2016-08-28T11:24:33Z</time>
      </trkpt>
      <trkpt lat="44.97477" lon="5.39976">
        <ele>842</ele>
        <time>2016-08-28T11:24:38Z</time>
      </trkpt>
      <trkpt lat="44.97485" lon="5.39967">
        <ele>842</ele>
        <time>2016-08-28T11:24:44Z</time>
      </trkpt>
      <trkpt lat="44.97492" lon="5.39957">
        <ele>844</ele>
        <time>2016-08-28T11:24:50Z</time>
      </trkpt>
      <trkpt lat="44.97499" lon="5.39946">
        <ele>845</ele>
        <time>2016-08-28T11:24:57Z</time>
      </trkpt>
      <trkpt lat="44.97506" lon="5.39934">
        <ele>843</ele>
        <time>2016-08-28T11:25:02Z</time>
      </trkpt>
      <trkpt lat="44.97513" lon="5.39926">
        <ele>844</ele>
        <time>2016-08-28T11:25:08Z</time>
      </trkpt>
      <trkpt lat="44.97521" lon="5.39914">
        <ele>855</ele>
        <time>2016-08-28T11:25:13Z</time>
      </trkpt>
      <trkpt lat="44.97527" lon="5.39904">
        <ele>856</ele>
        <time>2016-08-28T11:25:17Z</time>
      </trkpt>
      <trkpt lat="44.97534" lon="5.39894">
        <ele>858</ele>
        <time>2016-08-28T11:25:21Z</time>
      </trkpt>
      <trkpt lat="44.97544" lon="5.39889">
        <ele>858</ele>
        <time>2016-08-28T11:25:28Z</time>
      </trkpt>
      <trkpt lat="44.97552" lon="5.39881">
        <ele>859</ele>
        <time>2016-08-28T11:25:33Z</time>
      </trkpt>
      <trkpt lat="44.97561" lon="5.39879">
        <ele>859</ele>
        <time>2016-08-28T11:25:40Z</time>
      </trkpt>
      <trkpt lat="44.97571" lon="5.39876">
        <ele>859</ele>
        <time>2016-08-28T11:25:48Z</time>
      </trkpt>
      <trkpt lat="44.9758" lon="5.3987">
        <ele>860</ele>
        <time>2016-08-28T11:25:58Z</time>
      </trkpt>
      <trkpt lat="44.97592" lon="5.39868">
        <ele>854</ele>
        <time>2016-08-28T11:26:06Z</time>
      </trkpt>
      <trkpt lat="44.97601" lon="5.39861">
        <ele>855</ele>
        <time>2016-08-28T11:26:10Z</time>
      </trkpt>
      <trkpt lat="44.97607" lon="5.39851">
        <ele>856</ele>
        <time>2016-08-28T11:26:13Z</time>
      </trkpt>
      <trkpt lat="44.97616" lon="5.39841">
        <ele>856</ele>
        <time>2016-08-28T11:26:17Z</time>
      </trkpt>
      <trkpt lat="44.97623" lon="5.39831">
        <ele>874</ele>
        <time>2016-08-28T11:26:20Z</time>
      </trkpt>
      <trkpt lat="44.97633" lon="5.39826">
        <ele>873</ele>
        <time>2016-08-28T11:26:26Z</time>
      </trkpt>
      <trkpt lat="44.97642" lon="5.39821">
        <ele>871</ele>
        <time>2016-08-28T11:26:32Z</time>
      </trkpt>
      <trkpt lat="44.97651" lon="5.39817">
        <ele>870</ele>
        <time>2016-08-28T11:26:38Z</time>
      </trkpt>
      <trkpt lat="44.97661" lon="5.39815">
        <ele>869</ele>
        <time>2016-08-28T11:26:45Z</time>
      </trkpt>
      <trkpt lat="44.9767" lon="5.39808">
        <ele>866</ele>
        <time>2016-08-28T11:26:51Z</time>
      </trkpt>
      <trkpt lat="44.97678" lon="5.39798">
        <ele>870</ele>
        <time>2016-08-28T11:26:54Z</time>
      </trkpt>
      <trkpt lat="44.97689" lon="5.39792">
        <ele>871</ele>
        <time>2016-08-28T11:27:00Z</time>
      </trkpt>
      <trkpt lat="44.97698" lon="5.39789">
        <ele>872</ele>
        <time>2016-08-28T11:27:05Z</time>
      </trkpt>
      <trkpt lat="44.97708" lon="5.39786">
        <ele>872</ele>
        <time>2016-08-28T11:27:11Z</time>
      </trkpt>
      <trkpt lat="44.97717" lon="5.39782">
        <ele>872</ele>
        <time>2016-08-28T11:27:16Z</time>
      </trkpt>
      <trkpt lat="44.97726" lon="5.39779">
        <ele>873</ele>
        <time>2016-08-28T11:27:21Z</time>
      </trkpt>
      <trkpt lat="44.97735" lon="5.39776">
        <ele>874</ele>
        <time>2016-08-28T11:27:27Z</time>
      </trkpt>
      <trkpt lat="44.97745" lon="5.39774">
        <ele>874</ele>
        <time>2016-08-28T11:27:33Z</time>
      </trkpt>
      <trkpt lat="44.97756" lon="5.39771">
        <ele>872</ele>
        <time>2016-08-28T11:27:38Z</time>
      </trkpt>
      <trkpt lat="44.97766" lon="5.39769">
        <ele>872</ele>
        <time>2016-08-28T11:27:43Z</time>
      </trkpt>
      <trkpt lat="44.97775" lon="5.39765">
        <ele>871</ele>
        <time>2016-08-28T11:27:49Z</time>
      </trkpt>
      <trkpt lat="44.97786" lon="5.39766">
        <ele>870</ele>
        <time>2016-08-28T11:27:57Z</time>
      </trkpt>
      <trkpt lat="44.97796" lon="5.39762">
        <ele>870</ele>
        <time>2016-08-28T11:28:03Z</time>
      </trkpt>
      <trkpt lat="44.97805" lon="5.39761">
        <ele>870</ele>
        <time>2016-08-28T11:28:08Z</time>
      </trkpt>
      <trkpt lat="44.97815" lon="5.39759">
        <ele>871</ele>
        <time>2016-08-28T11:28:13Z</time>
      </trkpt>
      <trkpt lat="44.97826" lon="5.39758">
        <ele>872</ele>
        <time>2016-08-28T11:28:19Z</time>
      </trkpt>
      <trkpt lat="44.97835" lon="5.39754">
        <ele>874</ele>
        <time>2016-08-28T11:28:24Z</time>
      </trkpt>
      <trkpt lat="44.97844" lon="5.3975">
        <ele>881</ele>
        <time>2016-08-28T11:28:29Z</time>
      </trkpt>
      <trkpt lat="44.97855" lon="5.39749">
        <ele>883</ele>
        <time>2016-08-28T11:28:35Z</time>
      </trkpt>
      <trkpt lat="44.97865" lon="5.39747">
        <ele>884</ele>
        <time>2016-08-28T11:28:40Z</time>
      </trkpt>
      <trkpt lat="44.97875" lon="5.39747">
        <ele>884</ele>
        <time>2016-08-28T11:28:45Z</time>
      </trkpt>
      <trkpt lat="44.97885" lon="5.3974">
        <ele>884</ele>
        <time>2016-08-28T11:28:50Z</time>
      </trkpt>
      <trkpt lat="44.97892" lon="5.39729">
        <ele>884</ele>
        <time>2016-08-28T11:28:56Z</time>
      </trkpt>
      <trkpt lat="44.97898" lon="5.3972">
        <ele>886</ele>
        <time>2016-08-28T11:29:02Z</time>
      </trkpt>
      <trkpt lat="44.97904" lon="5.39709">
        <ele>888</ele>
        <time>2016-08-28T11:29:08Z</time>
      </trkpt>
      <trkpt lat="44.97911" lon="5.397">
        <ele>889</ele>
        <time>2016-08-28T11:29:12Z</time>
      </trkpt>
      <trkpt lat="44.97919" lon="5.39693">
        <ele>886</ele>
        <time>2016-08-28T11:29:20Z</time>
      </trkpt>
      <trkpt lat="44.97926" lon="5.39682">
        <ele>889</ele>
        <time>2016-08-28T11:29:26Z</time>
      </trkpt>
      <trkpt lat="44.97936" lon="5.39675">
        <ele>888</ele>
        <time>2016-08-28T11:29:33Z</time>
      </trkpt>
      <trkpt lat="44.97943" lon="5.39663">
        <ele>898</ele>
        <time>2016-08-28T11:29:38Z</time>
      </trkpt>
      <trkpt lat="44.9795" lon="5.39654">
        <ele>899</ele>
        <time>2016-08-28T11:29:44Z</time>
      </trkpt>
      <trkpt lat="44.97956" lon="5.39643">
        <ele>899</ele>
        <time>2016-08-28T11:29:49Z</time>
      </trkpt>
      <trkpt lat="44.97965" lon="5.39635">
        <ele>900</ele>
        <time>2016-08-28T11:29:57Z</time>
      </trkpt>
      <trkpt lat="44.97973" lon="5.39629">
        <ele>900</ele>
        <time>2016-08-28T11:30:03Z</time>
      </trkpt>
      <trkpt lat="44.97982" lon="5.39623">
        <ele>900</ele>
        <time>2016-08-28T11:30:12Z</time>
      </trkpt>
      <trkpt lat="44.9799" lon="5.39616">
        <ele>900</ele>
        <time>2016-08-28T11:30:20Z</time>
      </trkpt>
      <trkpt lat="44.97999" lon="5.3961">
        <ele>901</ele>
        <time>2016-08-28T11:30:26Z</time>
      </trkpt>
      <trkpt lat="44.98007" lon="5.39603">
        <ele>898</ele>
        <time>2016-08-28T11:30:31Z</time>
      </trkpt>
      <trkpt lat="44.98016" lon="5.39597">
        <ele>899</ele>
        <time>2016-08-28T11:30:37Z</time>
      </trkpt>
      <trkpt lat="44.98025" lon="5.39591">
        <ele>898</ele>
        <time>2016-08-28T11:30:42Z</time>
      </trkpt>
      <trkpt lat="44.98034" lon="5.39585">
        <ele>898</ele>
        <time>2016-08-28T11:30:48Z</time>
      </trkpt>
      <trkpt lat="44.98042" lon="5.39578">
        <ele>914</ele>
        <time>2016-08-28T11:30:53Z</time>
      </trkpt>
      <trkpt lat="44.98036" lon="5.39566">
        <ele>915</ele>
        <time>2016-08-28T11:31:03Z</time>
      </trkpt>
      <trkpt lat="44.98027" lon="5.39569">
        <ele>914</ele>
        <time>2016-08-28T11:31:11Z</time>
      </trkpt>
      <trkpt lat="44.98018" lon="5.39574">
        <ele>912</ele>
        <time>2016-08-28T11:31:22Z</time>
      </trkpt>
      <trkpt lat="44.98008" lon="5.39576">
        <ele>910</ele>
        <time>2016-08-28T11:31:33Z</time>
      </trkpt>
      <trkpt lat="44.97998" lon="5.39579">
        <ele>909</ele>
        <time>2016-08-28T11:31:41Z</time>
      </trkpt>
      <trkpt lat="44.97988" lon="5.3958">
        <ele>914</ele>
        <time>2016-08-28T11:31:50Z</time>
      </trkpt>
      <trkpt lat="44.97981" lon="5.39591">
        <ele>903</ele>
        <time>2016-08-28T11:32:02Z</time>
      </trkpt>
      <trkpt lat="44.97971" lon="5.39595">
        <ele>904</ele>
        <time>2016-08-28T11:32:10Z</time>
      </trkpt>
      <trkpt lat="44.97961" lon="5.396">
        <ele>904</ele>
        <time>2016-08-28T11:32:20Z</time>
      </trkpt>
      <trkpt lat="44.97952" lon="5.39596">
        <ele>906</ele>
        <time>2016-08-28T11:32:26Z</time>
      </trkpt>
      <trkpt lat="44.97945" lon="5.39608">
        <ele>906</ele>
        <time>2016-08-28T11:32:39Z</time>
      </trkpt>
      <trkpt lat="44.97935" lon="5.39606">
        <ele>907</ele>
        <time>2016-08-28T11:32:45Z</time>
      </trkpt>
      <trkpt lat="44.97926" lon="5.39609">
        <ele>908</ele>
        <time>2016-08-28T11:32:51Z</time>
      </trkpt>
      <trkpt lat="44.97917" lon="5.39614">
        <ele>907</ele>
        <time>2016-08-28T11:32:59Z</time>
      </trkpt>
      <trkpt lat="44.97909" lon="5.39622">
        <ele>917</ele>
        <time>2016-08-28T11:33:11Z</time>
      </trkpt>
      <trkpt lat="44.97903" lon="5.39634">
        <ele>915</ele>
        <time>2016-08-28T11:33:22Z</time>
      </trkpt>
      <trkpt lat="44.97895" lon="5.39642">
        <ele>914</ele>
        <time>2016-08-28T11:33:28Z</time>
      </trkpt>
      <trkpt lat="44.97888" lon="5.39652">
        <ele>913</ele>
        <time>2016-08-28T11:33:35Z</time>
      </trkpt>
      <trkpt lat="44.9788" lon="5.3966">
        <ele>914</ele>
        <time>2016-08-28T11:33:42Z</time>
      </trkpt>
      <trkpt lat="44.97871" lon="5.39666">
        <ele>915</ele>
        <time>2016-08-28T11:33:49Z</time>
      </trkpt>
      <trkpt lat="44.97861" lon="5.39667">
        <ele>898</ele>
        <time>2016-08-28T11:33:57Z</time>
      </trkpt>
      <trkpt lat="44.97852" lon="5.39666">
        <ele>916</ele>
        <time>2016-08-28T11:34:05Z</time>
      </trkpt>
      <trkpt lat="44.97842" lon="5.39666">
        <ele>916</ele>
        <time>2016-08-28T11:34:15Z</time>
      </trkpt>
      <trkpt lat="44.97831" lon="5.39666">
        <ele>916</ele>
        <time>2016-08-28T11:34:24Z</time>
      </trkpt>
      <trkpt lat="44.97823" lon="5.39662">
        <ele>923</ele>
        <time>2016-08-28T11:34:34Z</time>
      </trkpt>
      <trkpt lat="44.97812" lon="5.3966">
        <ele>928</ele>
        <time>2016-08-28T11:34:43Z</time>
      </trkpt>
      <trkpt lat="44.97802" lon="5.3966">
        <ele>930</ele>
        <time>2016-08-28T11:34:53Z</time>
      </trkpt>
      <trkpt lat="44.97792" lon="5.39658">
        <ele>932</ele>
        <time>2016-08-28T11:35:00Z</time>
      </trkpt>
      <trkpt lat="44.97782" lon="5.39658">
        <ele>932</ele>
        <time>2016-08-28T11:35:27Z</time>
      </trkpt>
      <trkpt lat="44.97772" lon="5.39657">
        <ele>932</ele>
        <time>2016-08-28T11:35:38Z</time>
      </trkpt>
      <trkpt lat="44.97763" lon="5.39654">
        <ele>931</ele>
        <time>2016-08-28T11:35:49Z</time>
      </trkpt>
      <trkpt lat="44.97753" lon="5.39658">
        <ele>928</ele>
        <time>2016-08-28T11:36:01Z</time>
      </trkpt>
      <trkpt lat="44.97742" lon="5.39658">
        <ele>933</ele>
        <time>2016-08-28T11:36:12Z</time>
      </trkpt>
      <trkpt lat="44.97733" lon="5.39654">
        <ele>937</ele>
        <time>2016-08-28T11:36:21Z</time>
      </trkpt>
      <trkpt lat="44.97742" lon="5.39646">
        <ele>939</ele>
        <time>2016-08-28T11:36:46Z</time>
      </trkpt>
      <trkpt lat="44.97752" lon="5.39644">
        <ele>934</ele>
        <time>2016-08-28T11:36:56Z</time>
      </trkpt>
      <trkpt lat="44.97761" lon="5.39643">
        <ele>935</ele>
        <time>2016-08-28T11:37:09Z</time>
      </trkpt>
      <trkpt lat="44.97771" lon="5.39645">
        <ele>935</ele>
        <time>2016-08-28T11:37:25Z</time>
      </trkpt>
      <trkpt lat="44.97781" lon="5.39645">
        <ele>935</ele>
        <time>2016-08-28T11:37:38Z</time>
      </trkpt>
      <trkpt lat="44.9779" lon="5.39641">
        <ele>935</ele>
        <time>2016-08-28T11:37:47Z</time>
      </trkpt>
      <trkpt lat="44.97799" lon="5.39638">
        <ele>935</ele>
        <time>2016-08-28T11:37:55Z</time>
      </trkpt>
      <trkpt lat="44.97807" lon="5.39631">
        <ele>936</ele>
        <time>2016-08-28T11:38:05Z</time>
      </trkpt>
      <trkpt lat="44.97816" lon="5.39624">
        <ele>937</ele>
        <time>2016-08-28T11:38:17Z</time>
      </trkpt>
      <trkpt lat="44.97824" lon="5.39621">
        <ele>937</ele>
        <time>2016-08-28T11:38:27Z</time>
      </trkpt>
      <trkpt lat="44.97833" lon="5.39612">
        <ele>940</ele>
        <time>2016-08-28T11:38:35Z</time>
      </trkpt>
      <trkpt lat="44.97842" lon="5.39605">
        <ele>931</ele>
        <time>2016-08-28T11:38:51Z</time>
      </trkpt>
      <trkpt lat="44.97849" lon="5.39596">
        <ele>932</ele>
        <time>2016-08-28T11:39:01Z</time>
      </trkpt>
      <trkpt lat="44.97856" lon="5.39587">
        <ele>931</ele>
        <time>2016-08-28T11:39:11Z</time>
      </trkpt>
      <trkpt lat="44.97862" lon="5.39577">
        <ele>950</ele>
        <time>2016-08-28T11:39:21Z</time>
      </trkpt>
      <trkpt lat="44.97868" lon="5.39565">
        <ele>950</ele>
        <time>2016-08-28T11:39:32Z</time>
      </trkpt>
      <trkpt lat="44.97876" lon="5.39557">
        <ele>950</ele>
        <time>2016-08-28T11:39:44Z</time>
      </trkpt>
      <trkpt lat="44.97884" lon="5.39551">
        <ele>950</ele>
        <time>2016-08-28T11:39:53Z</time>
      </trkpt>
      <trkpt lat="44.97893" lon="5.39545">
        <ele>950</ele>
        <time>2016-08-28T11:40:09Z</time>
      </trkpt>
      <trkpt lat="44.97902" lon="5.39537">
        <ele>952</ele>
        <time>2016-08-28T11:40:21Z</time>
      </trkpt>
      <trkpt lat="44.9791" lon="5.39526">
        <ele>954</ele>
        <time>2016-08-28T11:40:30Z</time>
      </trkpt>
      <trkpt lat="44.97919" lon="5.39519">
        <ele>944</ele>
        <time>2016-08-28T11:40:40Z</time>
      </trkpt>
      <trkpt lat="44.97927" lon="5.39513">
        <ele>946</ele>
        <time>2016-08-28T11:40:54Z</time>
      </trkpt>
      <trkpt lat="44.97934" lon="5.39502">
        <ele>946</ele>
        <time>2016-08-28T11:41:04Z</time>
      </trkpt>
      <trkpt lat="44.9794" lon="5.39492">
        <ele>963</ele>
        <time>2016-08-28T11:41:16Z</time>
      </trkpt>
      <trkpt lat="44.9795" lon="5.39485">
        <ele>964</ele>
        <time>2016-08-28T11:41:28Z</time>
      </trkpt>
      <trkpt lat="44.97958" lon="5.39476">
        <ele>964</ele>
        <time>2016-08-28T11:41:38Z</time>
      </trkpt>
      <trkpt lat="44.97966" lon="5.3947">
        <ele>964</ele>
        <time>2016-08-28T11:41:49Z</time>
      </trkpt>
      <trkpt lat="44.97976" lon="5.39465">
        <ele>964</ele>
        <time>2016-08-28T11:42:03Z</time>
      </trkpt>
      <trkpt lat="44.97984" lon="5.39458">
        <ele>965</ele>
        <time>2016-08-28T11:42:19Z</time>
      </trkpt>
      <trkpt lat="44.97992" lon="5.39452">
        <ele>967</ele>
        <time>2016-08-28T11:42:34Z</time>
      </trkpt>
      <trkpt lat="44.97999" lon="5.39443">
        <ele>970</ele>
        <time>2016-08-28T11:42:43Z</time>
      </trkpt>
      <trkpt lat="44.98009" lon="5.39438">
        <ele>964</ele>
        <time>2016-08-28T11:42:57Z</time>
      </trkpt>
      <trkpt lat="44.98017" lon="5.39432">
        <ele>965</ele>
        <time>2016-08-28T11:43:14Z</time>
      </trkpt>
      <trkpt lat="44.98027" lon="5.3943">
        <ele>963</ele>
        <time>2016-08-28T11:43:29Z</time>
      </trkpt>
      <trkpt lat="44.98035" lon="5.39424">
        <ele>963</ele>
        <time>2016-08-28T11:43:39Z</time>
      </trkpt>
      <trkpt lat="44.98045" lon="5.39423">
        <ele>962</ele>
        <time>2016-08-28T11:43:51Z</time>
      </trkpt>
      <trkpt lat="44.98055" lon="5.3942">
        <ele>963</ele>
        <time>2016-08-28T11:44:03Z</time>
      </trkpt>
      <trkpt lat="44.98064" lon="5.39413">
        <ele>983</ele>
        <time>2016-08-28T11:44:18Z</time>
      </trkpt>
      <trkpt lat="44.98074" lon="5.39411">
        <ele>979</ele>
        <time>2016-08-28T11:44:31Z</time>
      </trkpt>
      <trkpt lat="44.98081" lon="5.39421">
        <ele>968</ele>
        <time>2016-08-28T11:44:48Z</time>
      </trkpt>
      <trkpt lat="44.98088" lon="5.39411">
        <ele>977</ele>
        <time>2016-08-28T11:44:59Z</time>
      </trkpt>
      <trkpt lat="44.98097" lon="5.39407">
        <ele>983</ele>
        <time>2016-08-28T11:45:11Z</time>
      </trkpt>
      <trkpt lat="44.98106" lon="5.39411">
        <ele>985</ele>
        <time>2016-08-28T11:45:29Z</time>
      </trkpt>
      <trkpt lat="44.98116" lon="5.39411">
        <ele>987</ele>
        <time>2016-08-28T11:45:40Z</time>
      </trkpt>
      <trkpt lat="44.98125" lon="5.39406">
        <ele>989</ele>
        <time>2016-08-28T11:45:51Z</time>
      </trkpt>
      <trkpt lat="44.98135" lon="5.39406">
        <ele>989</ele>
        <time>2016-08-28T11:46:06Z</time>
      </trkpt>
      <trkpt lat="44.98144" lon="5.3941">
        <ele>988</ele>
        <time>2016-08-28T11:46:19Z</time>
      </trkpt>
      <trkpt lat="44.98153" lon="5.39407">
        <ele>987</ele>
        <time>2016-08-28T11:46:29Z</time>
      </trkpt>
      <trkpt lat="44.98162" lon="5.39411">
        <ele>985</ele>
        <time>2016-08-28T11:46:47Z</time>
      </trkpt>
      <trkpt lat="44.98173" lon="5.39411">
        <ele>987</ele>
        <time>2016-08-28T11:47:00Z</time>
      </trkpt>
      <trkpt lat="44.98182" lon="5.39414">
        <ele>991</ele>
        <time>2016-08-28T11:47:14Z</time>
      </trkpt>
      <trkpt lat="44.98192" lon="5.39417">
        <ele>979</ele>
        <time>2016-08-28T11:47:29Z</time>
      </trkpt>
      <trkpt lat="44.98201" lon="5.3942">
        <ele>980</ele>
        <time>2016-08-28T11:47:42Z</time>
      </trkpt>
      <trkpt lat="44.9821" lon="5.39426">
        <ele>980</ele>
        <time>2016-08-28T11:47:54Z</time>
      </trkpt>
      <trkpt lat="44.98218" lon="5.39434">
        <ele>981</ele>
        <time>2016-08-28T11:48:09Z</time>
      </trkpt>
      <trkpt lat="44.98227" lon="5.39442">
        <ele>981</ele>
        <time>2016-08-28T11:48:20Z</time>
      </trkpt>
      <trkpt lat="44.98237" lon="5.39448">
        <ele>981</ele>
        <time>2016-08-28T11:48:34Z</time>
      </trkpt>
      <trkpt lat="44.98245" lon="5.39455">
        <ele>980</ele>
        <time>2016-08-28T11:48:44Z</time>
      </trkpt>
      <trkpt lat="44.98255" lon="5.39456">
        <ele>991</ele>
        <time>2016-08-28T11:48:55Z</time>
      </trkpt>
      <trkpt lat="44.98261" lon="5.39467">
        <ele>989</ele>
        <time>2016-08-28T11:50:07Z</time>
      </trkpt>
      <trkpt lat="44.98271" lon="5.39465">
        <ele>990</ele>
        <time>2016-08-28T11:50:11Z</time>
      </trkpt>
      <trkpt lat="44.9828" lon="5.39471">
        <ele>991</ele>
        <time>2016-08-28T11:50:17Z</time>
      </trkpt>
      <trkpt lat="44.98286" lon="5.39481">
        <ele>990</ele>
        <time>2016-08-28T11:50:23Z</time>
      </trkpt>
      <trkpt lat="44.98293" lon="5.39491">
        <ele>991</ele>
        <time>2016-08-28T11:50:30Z</time>
      </trkpt>
      <trkpt lat="44.98302" lon="5.39497">
        <ele>992</ele>
        <time>2016-08-28T11:50:38Z</time>
      </trkpt>
      <trkpt lat="44.98308" lon="5.39486">
        <ele>993</ele>
        <time>2016-08-28T11:51:03Z</time>
      </trkpt>
      <trkpt lat="44.98306" lon="5.39473">
        <ele>993</ele>
        <time>2016-08-28T11:51:27Z</time>
      </trkpt>
      <trkpt lat="44.98307" lon="5.39459">
        <ele>994</ele>
        <time>2016-08-28T11:51:43Z</time>
      </trkpt>
      <trkpt lat="44.98311" lon="5.39446">
        <ele>996</ele>
        <time>2016-08-28T11:51:56Z</time>
      </trkpt>
      <trkpt lat="44.98312" lon="5.39431">
        <ele>997</ele>
        <time>2016-08-28T11:52:12Z</time>
      </trkpt>
      <trkpt lat="44.98317" lon="5.39419">
        <ele>999</ele>
        <time>2016-08-28T11:52:27Z</time>
      </trkpt>
      <trkpt lat="44.98322" lon="5.39408">
        <ele>1005</ele>
        <time>2016-08-28T11:52:46Z</time>
      </trkpt>
      <trkpt lat="44.98326" lon="5.39395">
        <ele>1005</ele>
        <time>2016-08-28T11:52:58Z</time>
      </trkpt>
      <trkpt lat="44.9833" lon="5.39382">
        <ele>1006</ele>
        <time>2016-08-28T11:53:07Z</time>
      </trkpt>
      <trkpt lat="44.98334" lon="5.39369">
        <ele>1013</ele>
        <time>2016-08-28T11:53:18Z</time>
      </trkpt>
      <trkpt lat="44.98338" lon="5.39357">
        <ele>1013</ele>
        <time>2016-08-28T11:53:34Z</time>
      </trkpt>
      <trkpt lat="44.98341" lon="5.39344">
        <ele>1013</ele>
        <time>2016-08-28T11:53:44Z</time>
      </trkpt>
      <trkpt lat="44.98343" lon="5.39331">
        <ele>1014</ele>
        <time>2016-08-28T11:53:57Z</time>
      </trkpt>
      <trkpt lat="44.9835" lon="5.39321">
        <ele>1017</ele>
        <time>2016-08-28T11:54:17Z</time>
      </trkpt>
      <trkpt lat="44.98353" lon="5.39307">
        <ele>1019</ele>
        <time>2016-08-28T11:54:25Z</time>
      </trkpt>
      <trkpt lat="44.98361" lon="5.39299">
        <ele>1021</ele>
        <time>2016-08-28T11:54:43Z</time>
      </trkpt>
      <trkpt lat="44.98366" lon="5.39287">
        <ele>1022</ele>
        <time>2016-08-28T11:54:49Z</time>
      </trkpt>
      <trkpt lat="44.98371" lon="5.39276">
        <ele>1022</ele>
        <time>2016-08-28T11:55:02Z</time>
      </trkpt>
      <trkpt lat="44.98375" lon="5.39263">
        <ele>1023</ele>
        <time>2016-08-28T11:55:12Z</time>
      </trkpt>
      <trkpt lat="44.98378" lon="5.39251">
        <ele>1023</ele>
        <time>2016-08-28T11:55:20Z</time>
      </trkpt>
      <trkpt lat="44.98383" lon="5.39239">
        <ele>1029</ele>
        <time>2016-08-28T11:55:35Z</time>
      </trkpt>
      <trkpt lat="44.98388" lon="5.39227">
        <ele>1029</ele>
        <time>2016-08-28T11:55:42Z</time>
      </trkpt>
      <trkpt lat="44.98395" lon="5.39218">
        <ele>1029</ele>
        <time>2016-08-28T11:56:01Z</time>
      </trkpt>
      <trkpt lat="44.98401" lon="5.39208">
        <ele>1030</ele>
        <time>2016-08-28T11:56:10Z</time>
      </trkpt>
      <trkpt lat="44.98408" lon="5.39199">
        <ele>1030</ele>
        <time>2016-08-28T11:56:29Z</time>
      </trkpt>
      <trkpt lat="44.98413" lon="5.39186">
        <ele>1030</ele>
        <time>2016-08-28T11:56:39Z</time>
      </trkpt>
      <trkpt lat="44.98419" lon="5.39174">
        <ele>1031</ele>
        <time>2016-08-28T11:56:46Z</time>
      </trkpt>
      <trkpt lat="44.98425" lon="5.39162">
        <ele>1030</ele>
        <time>2016-08-28T11:56:51Z</time>
      </trkpt>
      <trkpt lat="44.98429" lon="5.39148">
        <ele>1031</ele>
        <time>2016-08-28T11:56:57Z</time>
      </trkpt>
      <trkpt lat="44.98434" lon="5.39137">
        <ele>1032</ele>
        <time>2016-08-28T11:57:04Z</time>
      </trkpt>
      <trkpt lat="44.98438" lon="5.39123">
        <ele>1032</ele>
        <time>2016-08-28T11:57:11Z</time>
      </trkpt>
      <trkpt lat="44.98441" lon="5.3911">
        <ele>1032</ele>
        <time>2016-08-28T11:57:18Z</time>
      </trkpt>
      <trkpt lat="44.98431" lon="5.39104">
        <ele>1031</ele>
        <time>2016-08-28T11:58:28Z</time>
      </trkpt>
      <trkpt lat="44.98422" lon="5.39098">
        <ele>1031</ele>
        <time>2016-08-28T11:58:44Z</time>
      </trkpt>
      <trkpt lat="44.98414" lon="5.39104">
        <ele>1035</ele>
        <time>2016-08-28T11:59:19Z</time>
      </trkpt>
      <trkpt lat="44.98405" lon="5.3911">
        <ele>1037</ele>
        <time>2016-08-28T11:59:50Z</time>
      </trkpt>
      <trkpt lat="44.98395" lon="5.39115">
        <ele>1038</ele>
        <time>2016-08-28T12:00:06Z</time>
      </trkpt>
      <trkpt lat="44.98386" lon="5.39109">
        <ele>1039</ele>
        <time>2016-08-28T12:00:19Z</time>
      </trkpt>
      <trkpt lat="44.98378" lon="5.39117">
        <ele>1040</ele>
        <time>2016-08-28T12:00:36Z</time>
      </trkpt>
      <trkpt lat="44.98368" lon="5.39117">
        <ele>1041</ele>
        <time>2016-08-28T12:00:56Z</time>
      </trkpt>
      <trkpt lat="44.98362" lon="5.39127">
        <ele>1041</ele>
        <time>2016-08-28T12:01:13Z</time>
      </trkpt>
      <trkpt lat="44.98352" lon="5.39128">
        <ele>1042</ele>
        <time>2016-08-28T12:01:31Z</time>
      </trkpt>
      <trkpt lat="44.98343" lon="5.39128">
        <ele>1042</ele>
        <time>2016-08-28T12:01:49Z</time>
      </trkpt>
      <trkpt lat="44.98333" lon="5.39136">
        <ele>1050</ele>
        <time>2016-08-28T12:01:59Z</time>
      </trkpt>
      <trkpt lat="44.98336" lon="5.3912">
        <ele>1044</ele>
        <time>2016-08-28T12:02:17Z</time>
      </trkpt>
      <trkpt lat="44.98343" lon="5.39111">
        <ele>1045</ele>
        <time>2016-08-28T12:02:29Z</time>
      </trkpt>
      <trkpt lat="44.98353" lon="5.39105">
        <ele>1044</ele>
        <time>2016-08-28T12:02:39Z</time>
      </trkpt>
      <trkpt lat="44.98364" lon="5.39097">
        <ele>1043</ele>
        <time>2016-08-28T12:02:47Z</time>
      </trkpt>
      <trkpt lat="44.98372" lon="5.3909">
        <ele>1042</ele>
        <time>2016-08-28T12:02:58Z</time>
      </trkpt>
      <trkpt lat="44.98375" lon="5.39076">
        <ele>1039</ele>
        <time>2016-08-28T12:03:07Z</time>
      </trkpt>
      <trkpt lat="44.98375" lon="5.39063">
        <ele>1039</ele>
        <time>2016-08-28T12:03:15Z</time>
      </trkpt>
      <trkpt lat="44.9837" lon="5.39051">
        <ele>1038</ele>
        <time>2016-08-28T12:03:20Z</time>
      </trkpt>
      <trkpt lat="44.98361" lon="5.39045">
        <ele>1039</ele>
        <time>2016-08-28T12:03:31Z</time>
      </trkpt>
      <trkpt lat="44.98352" lon="5.3904">
        <ele>1040</ele>
        <time>2016-08-28T12:03:36Z</time>
      </trkpt>
      <trkpt lat="44.98342" lon="5.39034">
        <ele>1040</ele>
        <time>2016-08-28T12:03:41Z</time>
      </trkpt>
      <trkpt lat="44.98333" lon="5.39028">
        <ele>1047</ele>
        <time>2016-08-28T12:03:47Z</time>
      </trkpt>
      <trkpt lat="44.98324" lon="5.39027">
        <ele>1047</ele>
        <time>2016-08-28T12:03:55Z</time>
      </trkpt>
      <trkpt lat="44.98314" lon="5.39022">
        <ele>1046</ele>
        <time>2016-08-28T12:04:01Z</time>
      </trkpt>
      <trkpt lat="44.98305" lon="5.39023">
        <ele>1047</ele>
        <time>2016-08-28T12:04:14Z</time>
      </trkpt>
      <trkpt lat="44.98294" lon="5.39027">
        <ele>1048</ele>
        <time>2016-08-28T12:04:29Z</time>
      </trkpt>
      <trkpt lat="44.98285" lon="5.39032">
        <ele>1048</ele>
        <time>2016-08-28T12:04:35Z</time>
      </trkpt>
      <trkpt lat="44.98276" lon="5.39036">
        <ele>1048</ele>
        <time>2016-08-28T12:04:42Z</time>
      </trkpt>
      <trkpt lat="44.98266" lon="5.39037">
        <ele>1048</ele>
        <time>2016-08-28T12:04:46Z</time>
      </trkpt>
      <trkpt lat="44.98257" lon="5.39041">
        <ele>1049</ele>
        <time>2016-08-28T12:04:50Z</time>
      </trkpt>
      <trkpt lat="44.98246" lon="5.39043">
        <ele>1049</ele>
        <time>2016-08-28T12:04:56Z</time>
      </trkpt>
      <trkpt lat="44.98237" lon="5.39053">
        <ele>1050</ele>
        <time>2016-08-28T12:05:02Z</time>
      </trkpt>
      <trkpt lat="44.98229" lon="5.3906">
        <ele>1051</ele>
        <time>2016-08-28T12:05:05Z</time>
      </trkpt>
      <trkpt lat="44.98219" lon="5.39069">
        <ele>1051</ele>
        <time>2016-08-28T12:05:13Z</time>
      </trkpt>
      <trkpt lat="44.98211" lon="5.39075">
        <ele>1050</ele>
        <time>2016-08-28T12:05:19Z</time>
      </trkpt>
      <trkpt lat="44.98201" lon="5.3908">
        <ele>1050</ele>
        <time>2016-08-28T12:05:23Z</time>
      </trkpt>
      <trkpt lat="44.98194" lon="5.39091">
        <ele>1053</ele>
        <time>2016-08-28T12:05:29Z</time>
      </trkpt>
      <trkpt lat="44.98183" lon="5.39094">
        <ele>1052</ele>
        <time>2016-08-28T12:05:34Z</time>
      </trkpt>
      <trkpt lat="44.98173" lon="5.391">
        <ele>1051</ele>
        <time>2016-08-28T12:05:40Z</time>
      </trkpt>
      <trkpt lat="44.98162" lon="5.39095">
        <ele>1047</ele>
        <time>2016-08-28T12:05:44Z</time>
      </trkpt>
      <trkpt lat="44.98152" lon="5.3909">
        <ele>1047</ele>
        <time>2016-08-28T12:05:47Z</time>
      </trkpt>
      <trkpt lat="44.98131" lon="5.39084">
        <ele>1045</ele>
        <time>2016-08-28T12:05:54Z</time>
      </trkpt>
      <trkpt lat="44.9812" lon="5.39084">
        <ele>1044</ele>
        <time>2016-08-28T12:05:56Z</time>
      </trkpt>
      <trkpt lat="44.98104" lon="5.39082">
        <ele>1044</ele>
        <time>2016-08-28T12:05:59Z</time>
      </trkpt>
      <trkpt lat="44.98095" lon="5.39078">
        <ele>1043</ele>
        <time>2016-08-28T12:06:01Z</time>
      </trkpt>
      <trkpt lat="44.98084" lon="5.39076">
        <ele>1042</ele>
        <time>2016-08-28T12:06:04Z</time>
      </trkpt>
      <trkpt lat="44.98075" lon="5.39073">
        <ele>1041</ele>
        <time>2016-08-28T12:06:06Z</time>
      </trkpt>
      <trkpt lat="44.98065" lon="5.39067">
        <ele>1041</ele>
        <time>2016-08-28T12:06:08Z</time>
      </trkpt>
      <trkpt lat="44.98057" lon="5.39058">
        <ele>1042</ele>
        <time>2016-08-28T12:06:10Z</time>
      </trkpt>
      <trkpt lat="44.98048" lon="5.39046">
        <ele>1042</ele>
        <time>2016-08-28T12:06:13Z</time>
      </trkpt>
      <trkpt lat="44.9804" lon="5.39034">
        <ele>1042</ele>
        <time>2016-08-28T12:06:17Z</time>
      </trkpt>
      <trkpt lat="44.98032" lon="5.39025">
        <ele>1042</ele>
        <time>2016-08-28T12:06:20Z</time>
      </trkpt>
      <trkpt lat="44.98025" lon="5.39014">
        <ele>1043</ele>
        <time>2016-08-28T12:06:25Z</time>
      </trkpt>
      <trkpt lat="44.98018" lon="5.39006">
        <ele>1043</ele>
        <time>2016-08-28T12:06:30Z</time>
      </trkpt>
      <trkpt lat="44.98009" lon="5.38996">
        <ele>1043</ele>
        <time>2016-08-28T12:06:36Z</time>
      </trkpt>
      <trkpt lat="44.98002" lon="5.38988">
        <ele>1043</ele>
        <time>2016-08-28T12:06:41Z</time>
      </trkpt>
      <trkpt lat="44.97992" lon="5.38983">
        <ele>1045</ele>
        <time>2016-08-28T12:06:45Z</time>
      </trkpt>
      <trkpt lat="44.97983" lon="5.38987">
        <ele>1046</ele>
        <time>2016-08-28T12:07:14Z</time>
      </trkpt>
      <trkpt lat="44.97973" lon="5.38989">
        <ele>1046</ele>
        <time>2016-08-28T12:07:33Z</time>
      </trkpt>
      <trkpt lat="44.97963" lon="5.38993">
        <ele>1047</ele>
        <time>2016-08-28T12:08:05Z</time>
      </trkpt>
      <trkpt lat="44.97956" lon="5.39002">
        <ele>1046</ele>
        <time>2016-08-28T12:08:45Z</time>
      </trkpt>
      <trkpt lat="44.97951" lon="5.39013">
        <ele>1047</ele>
        <time>2016-08-28T12:09:02Z</time>
      </trkpt>
      <trkpt lat="44.97942" lon="5.39017">
        <ele>1047</ele>
        <time>2016-08-28T12:09:11Z</time>
      </trkpt>
      <trkpt lat="44.9793" lon="5.39014">
        <ele>1048</ele>
        <time>2016-08-28T12:09:22Z</time>
      </trkpt>
      <trkpt lat="44.97919" lon="5.39013">
        <ele>1049</ele>
        <time>2016-08-28T12:09:40Z</time>
      </trkpt>
      <trkpt lat="44.97909" lon="5.39015">
        <ele>1051</ele>
        <time>2016-08-28T12:09:46Z</time>
      </trkpt>
      <trkpt lat="44.979" lon="5.39022">
        <ele>1051</ele>
        <time>2016-08-28T12:09:55Z</time>
      </trkpt>
      <trkpt lat="44.97902" lon="5.39038">
        <ele>1051</ele>
        <time>2016-08-28T12:10:02Z</time>
      </trkpt>
      <trkpt lat="44.97902" lon="5.39051">
        <ele>1051</ele>
        <time>2016-08-28T12:10:05Z</time>
      </trkpt>
      <trkpt lat="44.97898" lon="5.39066">
        <ele>1050</ele>
        <time>2016-08-28T12:10:08Z</time>
      </trkpt>
      <trkpt lat="44.97892" lon="5.39079">
        <ele>1050</ele>
        <time>2016-08-28T12:10:11Z</time>
      </trkpt>
      <trkpt lat="44.97884" lon="5.39093">
        <ele>1048</ele>
        <time>2016-08-28T12:10:14Z</time>
      </trkpt>
      <trkpt lat="44.97875" lon="5.39099">
        <ele>1048</ele>
        <time>2016-08-28T12:10:17Z</time>
      </trkpt>
      <trkpt lat="44.97866" lon="5.39108">
        <ele>1047</ele>
        <time>2016-08-28T12:10:21Z</time>
      </trkpt>
      <trkpt lat="44.97856" lon="5.39115">
        <ele>1047</ele>
        <time>2016-08-28T12:10:25Z</time>
      </trkpt>
      <trkpt lat="44.97847" lon="5.39121">
        <ele>1047</ele>
        <time>2016-08-28T12:10:31Z</time>
      </trkpt>
      <trkpt lat="44.97833" lon="5.39122">
        <ele>1046</ele>
        <time>2016-08-28T12:10:35Z</time>
      </trkpt>
      <trkpt lat="44.97826" lon="5.39132">
        <ele>1045</ele>
        <time>2016-08-28T12:10:38Z</time>
      </trkpt>
      <trkpt lat="44.97824" lon="5.3915">
        <ele>1044</ele>
        <time>2016-08-28T12:10:41Z</time>
      </trkpt>
      <trkpt lat="44.97817" lon="5.39166">
        <ele>1044</ele>
        <time>2016-08-28T12:10:44Z</time>
      </trkpt>
      <trkpt lat="44.97807" lon="5.39171">
        <ele>1041</ele>
        <time>2016-08-28T12:10:46Z</time>
      </trkpt>
      <trkpt lat="44.97796" lon="5.39181">
        <ele>1041</ele>
        <time>2016-08-28T12:10:49Z</time>
      </trkpt>
      <trkpt lat="44.97786" lon="5.39193">
        <ele>1040</ele>
        <time>2016-08-28T12:10:52Z</time>
      </trkpt>
      <trkpt lat="44.9778" lon="5.39204">
        <ele>1040</ele>
        <time>2016-08-28T12:10:55Z</time>
      </trkpt>
      <trkpt lat="44.97773" lon="5.39214">
        <ele>1040</ele>
        <time>2016-08-28T12:11:00Z</time>
      </trkpt>
      <trkpt lat="44.97766" lon="5.39226">
        <ele>1040</ele>
        <time>2016-08-28T12:11:04Z</time>
      </trkpt>
      <trkpt lat="44.97764" lon="5.39243">
        <ele>1040</ele>
        <time>2016-08-28T12:11:08Z</time>
      </trkpt>
      <trkpt lat="44.9776" lon="5.39257">
        <ele>1037</ele>
        <time>2016-08-28T12:11:11Z</time>
      </trkpt>
      <trkpt lat="44.97756" lon="5.39271">
        <ele>1035</ele>
        <time>2016-08-28T12:11:13Z</time>
      </trkpt>
      <trkpt lat="44.97751" lon="5.39284">
        <ele>1034</ele>
        <time>2016-08-28T12:11:15Z</time>
      </trkpt>
      <trkpt lat="44.97747" lon="5.39297">
        <ele>1036</ele>
        <time>2016-08-28T12:11:17Z</time>
      </trkpt>
      <trkpt lat="44.97741" lon="5.39315">
        <ele>1034</ele>
        <time>2016-08-28T12:11:21Z</time>
      </trkpt>
      <trkpt lat="44.97737" lon="5.39328">
        <ele>1033</ele>
        <time>2016-08-28T12:11:23Z</time>
      </trkpt>
      <trkpt lat="44.97728" lon="5.3934">
        <ele>1029</ele>
        <time>2016-08-28T12:11:26Z</time>
      </trkpt>
      <trkpt lat="44.97719" lon="5.3935">
        <ele>1029</ele>
        <time>2016-08-28T12:11:32Z</time>
      </trkpt>
      <trkpt lat="44.97708" lon="5.39364">
        <ele>1029</ele>
        <time>2016-08-28T12:11:37Z</time>
      </trkpt>
      <trkpt lat="44.97702" lon="5.39375">
        <ele>1029</ele>
        <time>2016-08-28T12:11:40Z</time>
      </trkpt>
      <trkpt lat="44.97694" lon="5.39384">
        <ele>1029</ele>
        <time>2016-08-28T12:11:44Z</time>
      </trkpt>
      <trkpt lat="44.97684" lon="5.39385">
        <ele>1029</ele>
        <time>2016-08-28T12:11:48Z</time>
      </trkpt>
      <trkpt lat="44.97675" lon="5.39392">
        <ele>1029</ele>
        <time>2016-08-28T12:11:54Z</time>
      </trkpt>
      <trkpt lat="44.97664" lon="5.39395">
        <ele>1031</ele>
        <time>2016-08-28T12:11:59Z</time>
      </trkpt>
      <trkpt lat="44.97653" lon="5.39398">
        <ele>1031</ele>
        <time>2016-08-28T12:12:04Z</time>
      </trkpt>
      <trkpt lat="44.97644" lon="5.39405">
        <ele>1030</ele>
        <time>2016-08-28T12:12:10Z</time>
      </trkpt>
      <trkpt lat="44.97634" lon="5.39411">
        <ele>1030</ele>
        <time>2016-08-28T12:12:14Z</time>
      </trkpt>
      <trkpt lat="44.97622" lon="5.39417">
        <ele>1023</ele>
        <time>2016-08-28T12:12:19Z</time>
      </trkpt>
      <trkpt lat="44.97611" lon="5.39421">
        <ele>1023</ele>
        <time>2016-08-28T12:12:22Z</time>
      </trkpt>
      <trkpt lat="44.97599" lon="5.39424">
        <ele>1024</ele>
        <time>2016-08-28T12:12:25Z</time>
      </trkpt>
      <trkpt lat="44.97592" lon="5.39433">
        <ele>1023</ele>
        <time>2016-08-28T12:12:29Z</time>
      </trkpt>
      <trkpt lat="44.97585" lon="5.39441">
        <ele>1022</ele>
        <time>2016-08-28T12:12:32Z</time>
      </trkpt>
      <trkpt lat="44.97575" lon="5.39447">
        <ele>1016</ele>
        <time>2016-08-28T12:12:36Z</time>
      </trkpt>
      <trkpt lat="44.97566" lon="5.39441">
        <ele>1016</ele>
        <time>2016-08-28T12:12:41Z</time>
      </trkpt>
      <trkpt lat="44.97557" lon="5.39428">
        <ele>1016</ele>
        <time>2016-08-28T12:12:45Z</time>
      </trkpt>
      <trkpt lat="44.97549" lon="5.3942">
        <ele>1015</ele>
        <time>2016-08-28T12:12:48Z</time>
      </trkpt>
      <trkpt lat="44.97541" lon="5.39411">
        <ele>1019</ele>
        <time>2016-08-28T12:12:51Z</time>
      </trkpt>
      <trkpt lat="44.97531" lon="5.39411">
        <ele>1017</ele>
        <time>2016-08-28T12:12:57Z</time>
      </trkpt>
      <trkpt lat="44.97525" lon="5.39424">
        <ele>1011</ele>
        <time>2016-08-28T12:13:01Z</time>
      </trkpt>
      <trkpt lat="44.97517" lon="5.39432">
        <ele>1010</ele>
        <time>2016-08-28T12:13:09Z</time>
      </trkpt>
      <trkpt lat="44.97507" lon="5.39421">
        <ele>1008</ele>
        <time>2016-08-28T12:13:13Z</time>
      </trkpt>
      <trkpt lat="44.97501" lon="5.39411">
        <ele>1010</ele>
        <time>2016-08-28T12:13:16Z</time>
      </trkpt>
      <trkpt lat="44.97488" lon="5.39405">
        <ele>1009</ele>
        <time>2016-08-28T12:13:20Z</time>
      </trkpt>
      <trkpt lat="44.97476" lon="5.394">
        <ele>1010</ele>
        <time>2016-08-28T12:13:23Z</time>
      </trkpt>
      <trkpt lat="44.97465" lon="5.39396">
        <ele>1010</ele>
        <time>2016-08-28T12:13:25Z</time>
      </trkpt>
      <trkpt lat="44.97456" lon="5.39398">
        <ele>1010</ele>
        <time>2016-08-28T12:13:28Z</time>
      </trkpt>
      <trkpt lat="44.97447" lon="5.39402">
        <ele>1010</ele>
        <time>2016-08-28T12:13:40Z</time>
      </trkpt>
      <trkpt lat="44.97438" lon="5.3941">
        <ele>1010</ele>
        <time>2016-08-28T12:13:48Z</time>
      </trkpt>
      <trkpt lat="44.97429" lon="5.39414">
        <ele>1010</ele>
        <time>2016-08-28T12:13:57Z</time>
      </trkpt>
      <trkpt lat="44.97421" lon="5.39422">
        <ele>1007</ele>
        <time>2016-08-28T12:14:09Z</time>
      </trkpt>
      <trkpt lat="44.97413" lon="5.3943">
        <ele>1007</ele>
        <time>2016-08-28T12:14:18Z</time>
      </trkpt>
      <trkpt lat="44.97406" lon="5.39441">
        <ele>1006</ele>
        <time>2016-08-28T12:14:27Z</time>
      </trkpt>
      <trkpt lat="44.97397" lon="5.39445">
        <ele>1006</ele>
        <time>2016-08-28T12:14:37Z</time>
      </trkpt>
      <trkpt lat="44.97387" lon="5.3944">
        <ele>1007</ele>
        <time>2016-08-28T12:14:45Z</time>
      </trkpt>
      <trkpt lat="44.97379" lon="5.39434">
        <ele>1007</ele>
        <time>2016-08-28T12:14:52Z</time>
      </trkpt>
      <trkpt lat="44.9737" lon="5.39428">
        <ele>1008</ele>
        <time>2016-08-28T12:14:58Z</time>
      </trkpt>
      <trkpt lat="44.97362" lon="5.39422">
        <ele>1008</ele>
        <time>2016-08-28T12:15:03Z</time>
      </trkpt>
      <trkpt lat="44.97353" lon="5.39414">
        <ele>1014</ele>
        <time>2016-08-28T12:15:11Z</time>
      </trkpt>
      <trkpt lat="44.97344" lon="5.39409">
        <ele>1014</ele>
        <time>2016-08-28T12:15:18Z</time>
      </trkpt>
      <trkpt lat="44.97334" lon="5.39407">
        <ele>1014</ele>
        <time>2016-08-28T12:15:27Z</time>
      </trkpt>
      <trkpt lat="44.97324" lon="5.39404">
        <ele>1015</ele>
        <time>2016-08-28T12:15:33Z</time>
      </trkpt>
      <trkpt lat="44.97314" lon="5.39402">
        <ele>1015</ele>
        <time>2016-08-28T12:15:38Z</time>
      </trkpt>
      <trkpt lat="44.97302" lon="5.39402">
        <ele>1015</ele>
        <time>2016-08-28T12:15:43Z</time>
      </trkpt>
      <trkpt lat="44.97295" lon="5.39394">
        <ele>1016</ele>
        <time>2016-08-28T12:15:48Z</time>
      </trkpt>
      <trkpt lat="44.97284" lon="5.39393">
        <ele>1016</ele>
        <time>2016-08-28T12:15:54Z</time>
      </trkpt>
      <trkpt lat="44.97274" lon="5.39393">
        <ele>1016</ele>
        <time>2016-08-28T12:15:59Z</time>
      </trkpt>
      <trkpt lat="44.97265" lon="5.39391">
        <ele>1016</ele>
        <time>2016-08-28T12:16:06Z</time>
      </trkpt>
      <trkpt lat="44.97255" lon="5.39387">
        <ele>1016</ele>
        <time>2016-08-28T12:16:10Z</time>
      </trkpt>
      <trkpt lat="44.97247" lon="5.39379">
        <ele>1016</ele>
        <time>2016-08-28T12:16:16Z</time>
      </trkpt>
      <trkpt lat="44.97242" lon="5.39367">
        <ele>1017</ele>
        <time>2016-08-28T12:16:25Z</time>
      </trkpt>
      <trkpt lat="44.97237" lon="5.39355">
        <ele>1018</ele>
        <time>2016-08-28T12:16:34Z</time>
      </trkpt>
      <trkpt lat="44.97229" lon="5.39345">
        <ele>1018</ele>
        <time>2016-08-28T12:16:43Z</time>
      </trkpt>
      <trkpt lat="44.97226" lon="5.39331">
        <ele>1022</ele>
        <time>2016-08-28T12:16:55Z</time>
      </trkpt>
      <trkpt lat="44.97221" lon="5.39319">
        <ele>1022</ele>
        <time>2016-08-28T12:17:04Z</time>
      </trkpt>
      <trkpt lat="44.97215" lon="5.39307">
        <ele>1023</ele>
        <time>2016-08-28T12:17:11Z</time>
      </trkpt>
      <trkpt lat="44.97207" lon="5.393">
        <ele>1023</ele>
        <time>2016-08-28T12:17:18Z</time>
      </trkpt>
      <trkpt lat="44.97198" lon="5.39292">
        <ele>1024</ele>
        <time>2016-08-28T12:17:27Z</time>
      </trkpt>
      <trkpt lat="44.97194" lon="5.39279">
        <ele>1024</ele>
        <time>2016-08-28T12:17:38Z</time>
      </trkpt>
      <trkpt lat="44.97186" lon="5.39272">
        <ele>1025</ele>
        <time>2016-08-28T12:17:47Z</time>
      </trkpt>
      <trkpt lat="44.9718" lon="5.39261">
        <ele>1026</ele>
        <time>2016-08-28T12:18:00Z</time>
      </trkpt>
      <trkpt lat="44.97175" lon="5.39249">
        <ele>1029</ele>
        <time>2016-08-28T12:18:09Z</time>
      </trkpt>
      <trkpt lat="44.97168" lon="5.3924">
        <ele>1029</ele>
        <time>2016-08-28T12:18:17Z</time>
      </trkpt>
      <trkpt lat="44.97159" lon="5.39232">
        <ele>1030</ele>
        <time>2016-08-28T12:18:25Z</time>
      </trkpt>
      <trkpt lat="44.97156" lon="5.39218">
        <ele>1031</ele>
        <time>2016-08-28T12:18:38Z</time>
      </trkpt>
      <trkpt lat="44.97153" lon="5.39205">
        <ele>1032</ele>
        <time>2016-08-28T12:18:50Z</time>
      </trkpt>
      <trkpt lat="44.97143" lon="5.39195">
        <ele>1032</ele>
        <time>2016-08-28T12:19:00Z</time>
      </trkpt>
      <trkpt lat="44.97136" lon="5.39185">
        <ele>1033</ele>
        <time>2016-08-28T12:19:13Z</time>
      </trkpt>
      <trkpt lat="44.97128" lon="5.39177">
        <ele>1033</ele>
        <time>2016-08-28T12:19:27Z</time>
      </trkpt>
      <trkpt lat="44.97124" lon="5.39164">
        <ele>1037</ele>
        <time>2016-08-28T12:19:41Z</time>
      </trkpt>
      <trkpt lat="44.9712" lon="5.39151">
        <ele>1037</ele>
        <time>2016-08-28T12:20:07Z</time>
      </trkpt>
      <trkpt lat="44.97119" lon="5.39137">
        <ele>1038</ele>
        <time>2016-08-28T12:20:16Z</time>
      </trkpt>
      <trkpt lat="44.97114" lon="5.39125">
        <ele>1038</ele>
        <time>2016-08-28T12:20:22Z</time>
      </trkpt>
      <trkpt lat="44.9711" lon="5.39111">
        <ele>1039</ele>
        <time>2016-08-28T12:20:29Z</time>
      </trkpt>
      <trkpt lat="44.971" lon="5.3911">
        <ele>1039</ele>
        <time>2016-08-28T12:20:42Z</time>
      </trkpt>
      <trkpt lat="44.97093" lon="5.39102">
        <ele>1040</ele>
        <time>2016-08-28T12:20:59Z</time>
      </trkpt>
      <trkpt lat="44.97091" lon="5.39088">
        <ele>1041</ele>
        <time>2016-08-28T12:21:09Z</time>
      </trkpt>
      <trkpt lat="44.97084" lon="5.39075">
        <ele>1043</ele>
        <time>2016-08-28T12:21:22Z</time>
      </trkpt>
      <trkpt lat="44.9708" lon="5.39062">
        <ele>1049</ele>
        <time>2016-08-28T12:21:36Z</time>
      </trkpt>
      <trkpt lat="44.97082" lon="5.39049">
        <ele>1050</ele>
        <time>2016-08-28T12:21:50Z</time>
      </trkpt>
      <trkpt lat="44.9708" lon="5.39032">
        <ele>1051</ele>
        <time>2016-08-28T12:22:12Z</time>
      </trkpt>
      <trkpt lat="44.97075" lon="5.3902">
        <ele>1052</ele>
        <time>2016-08-28T12:22:25Z</time>
      </trkpt>
      <trkpt lat="44.97066" lon="5.39013">
        <ele>1052</ele>
        <time>2016-08-28T12:22:32Z</time>
      </trkpt>
      <trkpt lat="44.97062" lon="5.38999">
        <ele>1055</ele>
        <time>2016-08-28T12:22:58Z</time>
      </trkpt>
      <trkpt lat="44.97065" lon="5.38987">
        <ele>1055</ele>
        <time>2016-08-28T12:23:18Z</time>
      </trkpt>
      <trkpt lat="44.97068" lon="5.38974">
        <ele>1056</ele>
        <time>2016-08-28T12:23:33Z</time>
      </trkpt>
      <trkpt lat="44.97069" lon="5.3896">
        <ele>1057</ele>
        <time>2016-08-28T12:24:25Z</time>
      </trkpt>
      <trkpt lat="44.97064" lon="5.38947">
        <ele>1057</ele>
        <time>2016-08-28T12:24:31Z</time>
      </trkpt>
      <trkpt lat="44.9707" lon="5.38934">
        <ele>1057</ele>
        <time>2016-08-28T12:24:39Z</time>
      </trkpt>
      <trkpt lat="44.97069" lon="5.38921">
        <ele>1057</ele>
        <time>2016-08-28T12:24:46Z</time>
      </trkpt>
      <trkpt lat="44.9707" lon="5.38907">
        <ele>1059</ele>
        <time>2016-08-28T12:24:56Z</time>
      </trkpt>
      <trkpt lat="44.97073" lon="5.3889">
        <ele>1059</ele>
        <time>2016-08-28T12:25:05Z</time>
      </trkpt>
      <trkpt lat="44.97073" lon="5.38877">
        <ele>1059</ele>
        <time>2016-08-28T12:25:12Z</time>
      </trkpt>
      <trkpt lat="44.97073" lon="5.38863">
        <ele>1059</ele>
        <time>2016-08-28T12:25:21Z</time>
      </trkpt>
      <trkpt lat="44.97066" lon="5.38853">
        <ele>1060</ele>
        <time>2016-08-28T12:25:27Z</time>
      </trkpt>
      <trkpt lat="44.97061" lon="5.38841">
        <ele>1060</ele>
        <time>2016-08-28T12:25:33Z</time>
      </trkpt>
      <trkpt lat="44.97055" lon="5.38831">
        <ele>1061</ele>
        <time>2016-08-28T12:25:39Z</time>
      </trkpt>
      <trkpt lat="44.9705" lon="5.38819">
        <ele>1062</ele>
        <time>2016-08-28T12:25:44Z</time>
      </trkpt>
      <trkpt lat="44.97048" lon="5.38804">
        <ele>1062</ele>
        <time>2016-08-28T12:25:48Z</time>
      </trkpt>
      <trkpt lat="44.97044" lon="5.38792">
        <ele>1062</ele>
        <time>2016-08-28T12:25:52Z</time>
      </trkpt>
      <trkpt lat="44.97036" lon="5.38782">
        <ele>1063</ele>
        <time>2016-08-28T12:25:56Z</time>
      </trkpt>
      <trkpt lat="44.9703" lon="5.38766">
        <ele>1063</ele>
        <time>2016-08-28T12:26:02Z</time>
      </trkpt>
      <trkpt lat="44.97027" lon="5.38751">
        <ele>1063</ele>
        <time>2016-08-28T12:26:05Z</time>
      </trkpt>
      <trkpt lat="44.97022" lon="5.38739">
        <ele>1061</ele>
        <time>2016-08-28T12:26:09Z</time>
      </trkpt>
      <trkpt lat="44.97017" lon="5.38725">
        <ele>1061</ele>
        <time>2016-08-28T12:26:13Z</time>
      </trkpt>
      <trkpt lat="44.97016" lon="5.38707">
        <ele>1059</ele>
        <time>2016-08-28T12:26:16Z</time>
      </trkpt>
      <trkpt lat="44.9702" lon="5.38694">
        <ele>1058</ele>
        <time>2016-08-28T12:26:19Z</time>
      </trkpt>
      <trkpt lat="44.97025" lon="5.38678">
        <ele>1058</ele>
        <time>2016-08-28T12:26:22Z</time>
      </trkpt>
      <trkpt lat="44.97032" lon="5.38663">
        <ele>1051</ele>
        <time>2016-08-28T12:26:25Z</time>
      </trkpt>
      <trkpt lat="44.97039" lon="5.38652">
        <ele>1051</ele>
        <time>2016-08-28T12:26:27Z</time>
      </trkpt>
      <trkpt lat="44.97045" lon="5.38641">
        <ele>1050</ele>
        <time>2016-08-28T12:26:31Z</time>
      </trkpt>
      <trkpt lat="44.97056" lon="5.38622">
        <ele>1049</ele>
        <time>2016-08-28T12:26:38Z</time>
      </trkpt>
      <trkpt lat="44.97061" lon="5.38608">
        <ele>1048</ele>
        <time>2016-08-28T12:26:45Z</time>
      </trkpt>
      <trkpt lat="44.97055" lon="5.38597">
        <ele>1047</ele>
        <time>2016-08-28T12:26:50Z</time>
      </trkpt>
      <trkpt lat="44.97045" lon="5.38592">
        <ele>1046</ele>
        <time>2016-08-28T12:26:55Z</time>
      </trkpt>
      <trkpt lat="44.97038" lon="5.38602">
        <ele>1046</ele>
        <time>2016-08-28T12:27:00Z</time>
      </trkpt>
      <trkpt lat="44.97029" lon="5.38597">
        <ele>1044</ele>
        <time>2016-08-28T12:27:05Z</time>
      </trkpt>
      <trkpt lat="44.97017" lon="5.3859">
        <ele>1041</ele>
        <time>2016-08-28T12:27:09Z</time>
      </trkpt>
      <trkpt lat="44.97006" lon="5.38588">
        <ele>1038</ele>
        <time>2016-08-28T12:27:12Z</time>
      </trkpt>
      <trkpt lat="44.96996" lon="5.3858">
        <ele>1032</ele>
        <time>2016-08-28T12:27:16Z</time>
      </trkpt>
      <trkpt lat="44.9698" lon="5.3855">
        <ele>1027</ele>
        <time>2016-08-28T12:27:23Z</time>
      </trkpt>
      <trkpt lat="44.9696" lon="5.38519">
        <ele>1024</ele>
        <time>2016-08-28T12:27:27Z</time>
      </trkpt>
      <trkpt lat="44.96956" lon="5.38507">
        <ele>1023</ele>
        <time>2016-08-28T12:27:29Z</time>
      </trkpt>
      <trkpt lat="44.96952" lon="5.38493">
        <ele>1015</ele>
        <time>2016-08-28T12:27:31Z</time>
      </trkpt>
      <trkpt lat="44.96949" lon="5.38479">
        <ele>1015</ele>
        <time>2016-08-28T12:27:33Z</time>
      </trkpt>
      <trkpt lat="44.96942" lon="5.38462">
        <ele>1014</ele>
        <time>2016-08-28T12:27:35Z</time>
      </trkpt>
      <trkpt lat="44.96935" lon="5.38444">
        <ele>1013</ele>
        <time>2016-08-28T12:27:37Z</time>
      </trkpt>
      <trkpt lat="44.96931" lon="5.38424">
        <ele>1012</ele>
        <time>2016-08-28T12:27:39Z</time>
      </trkpt>
      <trkpt lat="44.96928" lon="5.38406">
        <ele>1011</ele>
        <time>2016-08-28T12:27:41Z</time>
      </trkpt>
      <trkpt lat="44.96926" lon="5.38391">
        <ele>1011</ele>
        <time>2016-08-28T12:27:43Z</time>
      </trkpt>
      <trkpt lat="44.9692" lon="5.38376">
        <ele>1011</ele>
        <time>2016-08-28T12:27:46Z</time>
      </trkpt>
      <trkpt lat="44.96913" lon="5.38363">
        <ele>1011</ele>
        <time>2016-08-28T12:27:49Z</time>
      </trkpt>
      <trkpt lat="44.96905" lon="5.3835">
        <ele>1011</ele>
        <time>2016-08-28T12:27:52Z</time>
      </trkpt>
      <trkpt lat="44.96899" lon="5.38334">
        <ele>1011</ele>
        <time>2016-08-28T12:27:55Z</time>
      </trkpt>
      <trkpt lat="44.96892" lon="5.3832">
        <ele>1010</ele>
        <time>2016-08-28T12:27:58Z</time>
      </trkpt>
      <trkpt lat="44.96886" lon="5.38308">
        <ele>1010</ele>
        <time>2016-08-28T12:28:00Z</time>
      </trkpt>
      <trkpt lat="44.96881" lon="5.38297">
        <ele>1010</ele>
        <time>2016-08-28T12:28:02Z</time>
      </trkpt>
      <trkpt lat="44.96877" lon="5.38285">
        <ele>1009</ele>
        <time>2016-08-28T12:28:04Z</time>
      </trkpt>
      <trkpt lat="44.96872" lon="5.38273">
        <ele>1009</ele>
        <time>2016-08-28T12:28:06Z</time>
      </trkpt>
      <trkpt lat="44.96865" lon="5.38257">
        <ele>1009</ele>
        <time>2016-08-28T12:28:09Z</time>
      </trkpt>
      <trkpt lat="44.9686" lon="5.38242">
        <ele>1009</ele>
        <time>2016-08-28T12:28:12Z</time>
      </trkpt>
      <trkpt lat="44.96853" lon="5.38226">
        <ele>1009</ele>
        <time>2016-08-28T12:28:15Z</time>
      </trkpt>
      <trkpt lat="44.96848" lon="5.3821">
        <ele>1009</ele>
        <time>2016-08-28T12:28:18Z</time>
      </trkpt>
      <trkpt lat="44.96843" lon="5.38196">
        <ele>1009</ele>
        <time>2016-08-28T12:28:21Z</time>
      </trkpt>
      <trkpt lat="44.96838" lon="5.38183">
        <ele>1009</ele>
        <time>2016-08-28T12:28:24Z</time>
      </trkpt>
      <trkpt lat="44.96833" lon="5.3817">
        <ele>1009</ele>
        <time>2016-08-28T12:28:27Z</time>
      </trkpt>
      <trkpt lat="44.96825" lon="5.38156">
        <ele>1009</ele>
        <time>2016-08-28T12:28:31Z</time>
      </trkpt>
      <trkpt lat="44.96819" lon="5.38146">
        <ele>1009</ele>
        <time>2016-08-28T12:28:34Z</time>
      </trkpt>
      <trkpt lat="44.96812" lon="5.38135">
        <ele>1009</ele>
        <time>2016-08-28T12:28:37Z</time>
      </trkpt>
      <trkpt lat="44.96804" lon="5.38126">
        <ele>1009</ele>
        <time>2016-08-28T12:28:40Z</time>
      </trkpt>
      <trkpt lat="44.96797" lon="5.38116">
        <ele>1009</ele>
        <time>2016-08-28T12:28:43Z</time>
      </trkpt>
      <trkpt lat="44.9679" lon="5.38107">
        <ele>1009</ele>
        <time>2016-08-28T12:28:46Z</time>
      </trkpt>
      <trkpt lat="44.96783" lon="5.38097">
        <ele>1009</ele>
        <time>2016-08-28T12:28:49Z</time>
      </trkpt>
      <trkpt lat="44.96775" lon="5.38086">
        <ele>1009</ele>
        <time>2016-08-28T12:28:53Z</time>
      </trkpt>
      <trkpt lat="44.96767" lon="5.38072">
        <ele>1010</ele>
        <time>2016-08-28T12:28:57Z</time>
      </trkpt>
      <trkpt lat="44.96761" lon="5.38059">
        <ele>1010</ele>
        <time>2016-08-28T12:29:01Z</time>
      </trkpt>
      <trkpt lat="44.96754" lon="5.38047">
        <ele>1011</ele>
        <time>2016-08-28T12:29:05Z</time>
      </trkpt>
      <trkpt lat="44.96747" lon="5.38034">
        <ele>1011</ele>
        <time>2016-08-28T12:29:09Z</time>
      </trkpt>
      <trkpt lat="44.9674" lon="5.38024">
        <ele>1011</ele>
        <time>2016-08-28T12:29:12Z</time>
      </trkpt>
      <trkpt lat="44.96733" lon="5.38013">
        <ele>1011</ele>
        <time>2016-08-28T12:29:15Z</time>
      </trkpt>
      <trkpt lat="44.96726" lon="5.38001">
        <ele>1011</ele>
        <time>2016-08-28T12:29:18Z</time>
      </trkpt>
      <trkpt lat="44.96719" lon="5.37989">
        <ele>1013</ele>
        <time>2016-08-28T12:29:21Z</time>
      </trkpt>
      <trkpt lat="44.96711" lon="5.37977">
        <ele>1012</ele>
        <time>2016-08-28T12:29:24Z</time>
      </trkpt>
      <trkpt lat="44.96703" lon="5.37963">
        <ele>1012</ele>
        <time>2016-08-28T12:29:27Z</time>
      </trkpt>
      <trkpt lat="44.96697" lon="5.3795">
        <ele>1013</ele>
        <time>2016-08-28T12:29:30Z</time>
      </trkpt>
      <trkpt lat="44.96691" lon="5.37935">
        <ele>1012</ele>
        <time>2016-08-28T12:29:33Z</time>
      </trkpt>
      <trkpt lat="44.96684" lon="5.37923">
        <ele>1012</ele>
        <time>2016-08-28T12:29:36Z</time>
      </trkpt>
      <trkpt lat="44.96678" lon="5.3791">
        <ele>1014</ele>
        <time>2016-08-28T12:29:39Z</time>
      </trkpt>
      <trkpt lat="44.96672" lon="5.37899">
        <ele>1014</ele>
        <time>2016-08-28T12:29:42Z</time>
      </trkpt>
      <trkpt lat="44.96665" lon="5.37889">
        <ele>1011</ele>
        <time>2016-08-28T12:29:46Z</time>
      </trkpt>
      <trkpt lat="44.96659" lon="5.37876">
        <ele>1012</ele>
        <time>2016-08-28T12:29:51Z</time>
      </trkpt>
      <trkpt lat="44.96654" lon="5.37864">
        <ele>1012</ele>
        <time>2016-08-28T12:29:55Z</time>
      </trkpt>
      <trkpt lat="44.96649" lon="5.37851">
        <ele>1013</ele>
        <time>2016-08-28T12:29:59Z</time>
      </trkpt>
      <trkpt lat="44.96644" lon="5.37837">
        <ele>1013</ele>
        <time>2016-08-28T12:30:03Z</time>
      </trkpt>
      <trkpt lat="44.96639" lon="5.37824">
        <ele>1018</ele>
        <time>2016-08-28T12:30:07Z</time>
      </trkpt>
      <trkpt lat="44.96633" lon="5.37811">
        <ele>1018</ele>
        <time>2016-08-28T12:30:11Z</time>
      </trkpt>
      <trkpt lat="44.96628" lon="5.37797">
        <ele>1019</ele>
        <time>2016-08-28T12:30:15Z</time>
      </trkpt>
      <trkpt lat="44.96622" lon="5.37785">
        <ele>1019</ele>
        <time>2016-08-28T12:30:19Z</time>
      </trkpt>
      <trkpt lat="44.96615" lon="5.37777">
        <ele>1019</ele>
        <time>2016-08-28T12:30:26Z</time>
      </trkpt>
      <trkpt lat="44.9661" lon="5.37766">
        <ele>1020</ele>
        <time>2016-08-28T12:30:34Z</time>
      </trkpt>
      <trkpt lat="44.96607" lon="5.37752">
        <ele>1020</ele>
        <time>2016-08-28T12:30:43Z</time>
      </trkpt>
      <trkpt lat="44.96599" lon="5.37744">
        <ele>1028</ele>
        <time>2016-08-28T12:30:50Z</time>
      </trkpt>
      <trkpt lat="44.96587" lon="5.37741">
        <ele>1025</ele>
        <time>2016-08-28T12:30:58Z</time>
      </trkpt>
      <trkpt lat="44.96575" lon="5.37738">
        <ele>1022</ele>
        <time>2016-08-28T12:31:08Z</time>
      </trkpt>
      <trkpt lat="44.96567" lon="5.37731">
        <ele>1023</ele>
        <time>2016-08-28T12:31:14Z</time>
      </trkpt>
      <trkpt lat="44.96559" lon="5.37724">
        <ele>1024</ele>
        <time>2016-08-28T12:31:22Z</time>
      </trkpt>
      <trkpt lat="44.96552" lon="5.37715">
        <ele>1025</ele>
        <time>2016-08-28T12:31:29Z</time>
      </trkpt>
      <trkpt lat="44.96543" lon="5.37707">
        <ele>1025</ele>
        <time>2016-08-28T12:31:37Z</time>
      </trkpt>
      <trkpt lat="44.96534" lon="5.37701">
        <ele>1025</ele>
        <time>2016-08-28T12:31:43Z</time>
      </trkpt>
      <trkpt lat="44.96526" lon="5.37695">
        <ele>1025</ele>
        <time>2016-08-28T12:31:48Z</time>
      </trkpt>
      <trkpt lat="44.96516" lon="5.37689">
        <ele>1025</ele>
        <time>2016-08-28T12:31:54Z</time>
      </trkpt>
      <trkpt lat="44.96508" lon="5.37683">
        <ele>1025</ele>
        <time>2016-08-28T12:32:00Z</time>
      </trkpt>
      <trkpt lat="44.96498" lon="5.37674">
        <ele>1023</ele>
        <time>2016-08-28T12:32:06Z</time>
      </trkpt>
      <trkpt lat="44.9649" lon="5.37664">
        <ele>1027</ele>
        <time>2016-08-28T12:32:12Z</time>
      </trkpt>
      <trkpt lat="44.96482" lon="5.37656">
        <ele>1028</ele>
        <time>2016-08-28T12:32:19Z</time>
      </trkpt>
      <trkpt lat="44.96474" lon="5.37648">
        <ele>1028</ele>
        <time>2016-08-28T12:32:26Z</time>
      </trkpt>
      <trkpt lat="44.96466" lon="5.3764">
        <ele>1029</ele>
        <time>2016-08-28T12:32:33Z</time>
      </trkpt>
      <trkpt lat="44.96459" lon="5.37628">
        <ele>1029</ele>
        <time>2016-08-28T12:32:39Z</time>
      </trkpt>
      <trkpt lat="44.96452" lon="5.37617">
        <ele>1030</ele>
        <time>2016-08-28T12:32:46Z</time>
      </trkpt>
      <trkpt lat="44.96443" lon="5.37609">
        <ele>1029</ele>
        <time>2016-08-28T12:32:53Z</time>
      </trkpt>
      <trkpt lat="44.9644" lon="5.37596">
        <ele>1030</ele>
        <time>2016-08-28T12:33:00Z</time>
      </trkpt>
      <trkpt lat="44.96432" lon="5.37587">
        <ele>1029</ele>
        <time>2016-08-28T12:33:06Z</time>
      </trkpt>
      <trkpt lat="44.96426" lon="5.37576">
        <ele>1037</ele>
        <time>2016-08-28T12:33:12Z</time>
      </trkpt>
      <trkpt lat="44.96422" lon="5.37564">
        <ele>1042</ele>
        <time>2016-08-28T12:33:21Z</time>
      </trkpt>
      <trkpt lat="44.96415" lon="5.37555">
        <ele>1032</ele>
        <time>2016-08-28T12:33:28Z</time>
      </trkpt>
      <trkpt lat="44.96408" lon="5.37546">
        <ele>1033</ele>
        <time>2016-08-28T12:33:35Z</time>
      </trkpt>
      <trkpt lat="44.96402" lon="5.37536">
        <ele>1035</ele>
        <time>2016-08-28T12:33:42Z</time>
      </trkpt>
      <trkpt lat="44.96394" lon="5.37523">
        <ele>1037</ele>
        <time>2016-08-28T12:33:52Z</time>
      </trkpt>
      <trkpt lat="44.96384" lon="5.37518">
        <ele>1035</ele>
        <time>2016-08-28T12:33:56Z</time>
      </trkpt>
      <trkpt lat="44.96378" lon="5.37507">
        <ele>1035</ele>
        <time>2016-08-28T12:33:59Z</time>
      </trkpt>
      <trkpt lat="44.96371" lon="5.37498">
        <ele>1050</ele>
        <time>2016-08-28T12:34:05Z</time>
      </trkpt>
      <trkpt lat="44.9636" lon="5.37489">
        <ele>1048</ele>
        <time>2016-08-28T12:34:15Z</time>
      </trkpt>
      <trkpt lat="44.96354" lon="5.37478">
        <ele>1049</ele>
        <time>2016-08-28T12:34:23Z</time>
      </trkpt>
      <trkpt lat="44.96344" lon="5.37473">
        <ele>1049</ele>
        <time>2016-08-28T12:34:30Z</time>
      </trkpt>
      <trkpt lat="44.96335" lon="5.37466">
        <ele>1051</ele>
        <time>2016-08-28T12:34:37Z</time>
      </trkpt>
      <trkpt lat="44.96327" lon="5.37459">
        <ele>1044</ele>
        <time>2016-08-28T12:34:46Z</time>
      </trkpt>
      <trkpt lat="44.96318" lon="5.37454">
        <ele>1045</ele>
        <time>2016-08-28T12:34:54Z</time>
      </trkpt>
      <trkpt lat="44.9631" lon="5.37447">
        <ele>1046</ele>
        <time>2016-08-28T12:35:03Z</time>
      </trkpt>
      <trkpt lat="44.963" lon="5.37444">
        <ele>1046</ele>
        <time>2016-08-28T12:35:14Z</time>
      </trkpt>
      <trkpt lat="44.96291" lon="5.37441">
        <ele>1046</ele>
        <time>2016-08-28T12:35:24Z</time>
      </trkpt>
      <trkpt lat="44.96282" lon="5.37437">
        <ele>1046</ele>
        <time>2016-08-28T12:35:35Z</time>
      </trkpt>
      <trkpt lat="44.96272" lon="5.37436">
        <ele>1046</ele>
        <time>2016-08-28T12:35:44Z</time>
      </trkpt>
      <trkpt lat="44.96262" lon="5.37436">
        <ele>1046</ele>
        <time>2016-08-28T12:35:49Z</time>
      </trkpt>
      <trkpt lat="44.96252" lon="5.37429">
        <ele>1049</ele>
        <time>2016-08-28T12:35:58Z</time>
      </trkpt>
      <trkpt lat="44.96242" lon="5.37428">
        <ele>1046</ele>
        <time>2016-08-28T12:36:08Z</time>
      </trkpt>
      <trkpt lat="44.96232" lon="5.37423">
        <ele>1045</ele>
        <time>2016-08-28T12:36:20Z</time>
      </trkpt>
      <trkpt lat="44.96221" lon="5.37423">
        <ele>1042</ele>
        <time>2016-08-28T12:36:38Z</time>
      </trkpt>
      <trkpt lat="44.96212" lon="5.37418">
        <ele>1042</ele>
        <time>2016-08-28T12:36:47Z</time>
      </trkpt>
      <trkpt lat="44.96202" lon="5.37412">
        <ele>1060</ele>
        <time>2016-08-28T12:36:53Z</time>
      </trkpt>
      <trkpt lat="44.96193" lon="5.37405">
        <ele>1060</ele>
        <time>2016-08-28T12:37:02Z</time>
      </trkpt>
      <trkpt lat="44.96183" lon="5.37404">
        <ele>1058</ele>
        <time>2016-08-28T12:37:11Z</time>
      </trkpt>
      <trkpt lat="44.96175" lon="5.37397">
        <ele>1059</ele>
        <time>2016-08-28T12:37:24Z</time>
      </trkpt>
      <trkpt lat="44.96165" lon="5.37398">
        <ele>1055</ele>
        <time>2016-08-28T12:37:33Z</time>
      </trkpt>
      <trkpt lat="44.96156" lon="5.37392">
        <ele>1057</ele>
        <time>2016-08-28T12:37:41Z</time>
      </trkpt>
      <trkpt lat="44.96148" lon="5.37385">
        <ele>1059</ele>
        <time>2016-08-28T12:37:51Z</time>
      </trkpt>
      <trkpt lat="44.96139" lon="5.37378">
        <ele>1061</ele>
        <time>2016-08-28T12:38:01Z</time>
      </trkpt>
      <trkpt lat="44.96129" lon="5.37374">
        <ele>1061</ele>
        <time>2016-08-28T12:38:06Z</time>
      </trkpt>
      <trkpt lat="44.96119" lon="5.37375">
        <ele>1061</ele>
        <time>2016-08-28T12:38:21Z</time>
      </trkpt>
      <trkpt lat="44.9611" lon="5.37365">
        <ele>1062</ele>
        <time>2016-08-28T12:38:28Z</time>
      </trkpt>
      <trkpt lat="44.9612" lon="5.3736">
        <ele>1063</ele>
        <time>2016-08-28T12:38:45Z</time>
      </trkpt>
      <trkpt lat="44.9613" lon="5.3736">
        <ele>1064</ele>
        <time>2016-08-28T12:38:56Z</time>
      </trkpt>
      <trkpt lat="44.9614" lon="5.37362">
        <ele>1064</ele>
        <time>2016-08-28T12:39:17Z</time>
      </trkpt>
      <trkpt lat="44.96149" lon="5.37367">
        <ele>1063</ele>
        <time>2016-08-28T12:39:35Z</time>
      </trkpt>
      <trkpt lat="44.96158" lon="5.37366">
        <ele>1064</ele>
        <time>2016-08-28T12:39:47Z</time>
      </trkpt>
      <trkpt lat="44.96167" lon="5.37361">
        <ele>1070</ele>
        <time>2016-08-28T12:40:02Z</time>
      </trkpt>
      <trkpt lat="44.96176" lon="5.37357">
        <ele>1070</ele>
        <time>2016-08-28T12:40:16Z</time>
      </trkpt>
      <trkpt lat="44.96186" lon="5.3736">
        <ele>1069</ele>
        <time>2016-08-28T12:40:31Z</time>
      </trkpt>
      <trkpt lat="44.96196" lon="5.37357">
        <ele>1070</ele>
        <time>2016-08-28T12:40:44Z</time>
      </trkpt>
      <trkpt lat="44.96205" lon="5.37359">
        <ele>1070</ele>
        <time>2016-08-28T12:40:53Z</time>
      </trkpt>
      <trkpt lat="44.96216" lon="5.37354">
        <ele>1071</ele>
        <time>2016-08-28T12:41:02Z</time>
      </trkpt>
      <trkpt lat="44.96225" lon="5.37352">
        <ele>1073</ele>
        <time>2016-08-28T12:41:15Z</time>
      </trkpt>
      <trkpt lat="44.96235" lon="5.37352">
        <ele>1074</ele>
        <time>2016-08-28T12:41:23Z</time>
      </trkpt>
      <trkpt lat="44.96244" lon="5.37352">
        <ele>1076</ele>
        <time>2016-08-28T12:41:32Z</time>
      </trkpt>
      <trkpt lat="44.96254" lon="5.37351">
        <ele>1080</ele>
        <time>2016-08-28T12:41:47Z</time>
      </trkpt>
      <trkpt lat="44.96264" lon="5.37351">
        <ele>1079</ele>
        <time>2016-08-28T12:41:59Z</time>
      </trkpt>
      <trkpt lat="44.96274" lon="5.37349">
        <ele>1079</ele>
        <time>2016-08-28T12:42:13Z</time>
      </trkpt>
      <trkpt lat="44.96283" lon="5.37349">
        <ele>1078</ele>
        <time>2016-08-28T12:42:24Z</time>
      </trkpt>
      <trkpt lat="44.96293" lon="5.37354">
        <ele>1078</ele>
        <time>2016-08-28T12:42:37Z</time>
      </trkpt>
      <trkpt lat="44.96302" lon="5.37355">
        <ele>1079</ele>
        <time>2016-08-28T12:42:57Z</time>
      </trkpt>
      <trkpt lat="44.96313" lon="5.37352">
        <ele>1081</ele>
        <time>2016-08-28T12:43:05Z</time>
      </trkpt>
      <trkpt lat="44.96323" lon="5.37354">
        <ele>1081</ele>
        <time>2016-08-28T12:43:20Z</time>
      </trkpt>
      <trkpt lat="44.96333" lon="5.37357">
        <ele>1081</ele>
        <time>2016-08-28T12:43:28Z</time>
      </trkpt>
      <trkpt lat="44.96344" lon="5.37358">
        <ele>1086</ele>
        <time>2016-08-28T12:43:39Z</time>
      </trkpt>
      <trkpt lat="44.96353" lon="5.37362">
        <ele>1085</ele>
        <time>2016-08-28T12:43:48Z</time>
      </trkpt>
      <trkpt lat="44.96362" lon="5.37361">
        <ele>1086</ele>
        <time>2016-08-28T12:44:01Z</time>
      </trkpt>
      <trkpt lat="44.96371" lon="5.37358">
        <ele>1087</ele>
        <time>2016-08-28T12:44:13Z</time>
      </trkpt>
      <trkpt lat="44.96381" lon="5.37357">
        <ele>1087</ele>
        <time>2016-08-28T12:44:23Z</time>
      </trkpt>
      <trkpt lat="44.9639" lon="5.37353">
        <ele>1089</ele>
        <time>2016-08-28T12:44:33Z</time>
      </trkpt>
      <trkpt lat="44.96399" lon="5.37357">
        <ele>1089</ele>
        <time>2016-08-28T12:44:45Z</time>
      </trkpt>
      <trkpt lat="44.96409" lon="5.37358">
        <ele>1090</ele>
        <time>2016-08-28T12:44:58Z</time>
      </trkpt>
      <trkpt lat="44.96419" lon="5.37358">
        <ele>1097</ele>
        <time>2016-08-28T12:45:10Z</time>
      </trkpt>
      <trkpt lat="44.96428" lon="5.37352">
        <ele>1098</ele>
        <time>2016-08-28T12:45:24Z</time>
      </trkpt>
      <trkpt lat="44.96435" lon="5.37342">
        <ele>1098</ele>
        <time>2016-08-28T12:45:38Z</time>
      </trkpt>
      <trkpt lat="44.96443" lon="5.37333">
        <ele>1105</ele>
        <time>2016-08-28T12:45:49Z</time>
      </trkpt>
      <trkpt lat="44.9645" lon="5.37324">
        <ele>1106</ele>
        <time>2016-08-28T12:45:55Z</time>
      </trkpt>
      <trkpt lat="44.96459" lon="5.37328">
        <ele>1107</ele>
        <time>2016-08-28T12:46:04Z</time>
      </trkpt>
      <trkpt lat="44.96464" lon="5.37341">
        <ele>1099</ele>
        <time>2016-08-28T12:46:13Z</time>
      </trkpt>
      <trkpt lat="44.96472" lon="5.3735">
        <ele>1099</ele>
        <time>2016-08-28T12:46:24Z</time>
      </trkpt>
      <trkpt lat="44.96478" lon="5.37361">
        <ele>1099</ele>
        <time>2016-08-28T12:46:31Z</time>
      </trkpt>
      <trkpt lat="44.96485" lon="5.3737">
        <ele>1098</ele>
        <time>2016-08-28T12:46:37Z</time>
      </trkpt>
      <trkpt lat="44.96492" lon="5.37361">
        <ele>1100</ele>
        <time>2016-08-28T12:47:03Z</time>
      </trkpt>
      <trkpt lat="44.96492" lon="5.37348">
        <ele>1102</ele>
        <time>2016-08-28T12:47:19Z</time>
      </trkpt>
      <trkpt lat="44.96495" lon="5.37335">
        <ele>1105</ele>
        <time>2016-08-28T12:47:28Z</time>
      </trkpt>
      <trkpt lat="44.96496" lon="5.37321">
        <ele>1107</ele>
        <time>2016-08-28T12:47:38Z</time>
      </trkpt>
      <trkpt lat="44.96496" lon="5.37307">
        <ele>1108</ele>
        <time>2016-08-28T12:47:48Z</time>
      </trkpt>
      <trkpt lat="44.96503" lon="5.37293">
        <ele>1114</ele>
        <time>2016-08-28T12:48:04Z</time>
      </trkpt>
      <trkpt lat="44.96509" lon="5.37282">
        <ele>1115</ele>
        <time>2016-08-28T12:48:16Z</time>
      </trkpt>
      <trkpt lat="44.96515" lon="5.37271">
        <ele>1115</ele>
        <time>2016-08-28T12:48:28Z</time>
      </trkpt>
      <trkpt lat="44.96524" lon="5.37262">
        <ele>1116</ele>
        <time>2016-08-28T12:48:38Z</time>
      </trkpt>
      <trkpt lat="44.96529" lon="5.3725">
        <ele>1117</ele>
        <time>2016-08-28T12:48:53Z</time>
      </trkpt>
      <trkpt lat="44.96538" lon="5.37243">
        <ele>1118</ele>
        <time>2016-08-28T12:49:03Z</time>
      </trkpt>
      <trkpt lat="44.96547" lon="5.37238">
        <ele>1119</ele>
        <time>2016-08-28T12:49:11Z</time>
      </trkpt>
      <trkpt lat="44.96556" lon="5.37229">
        <ele>1120</ele>
        <time>2016-08-28T12:49:21Z</time>
      </trkpt>
      <trkpt lat="44.96565" lon="5.37223">
        <ele>1120</ele>
        <time>2016-08-28T12:49:28Z</time>
      </trkpt>
      <trkpt lat="44.96573" lon="5.37215">
        <ele>1121</ele>
        <time>2016-08-28T12:49:33Z</time>
      </trkpt>
      <trkpt lat="44.96581" lon="5.37207">
        <ele>1121</ele>
        <time>2016-08-28T12:49:42Z</time>
      </trkpt>
      <trkpt lat="44.96589" lon="5.37198">
        <ele>1127</ele>
        <time>2016-08-28T12:49:50Z</time>
      </trkpt>
      <trkpt lat="44.96596" lon="5.3719">
        <ele>1127</ele>
        <time>2016-08-28T12:50:01Z</time>
      </trkpt>
      <trkpt lat="44.96605" lon="5.3718">
        <ele>1127</ele>
        <time>2016-08-28T12:50:12Z</time>
      </trkpt>
      <trkpt lat="44.96613" lon="5.37173">
        <ele>1128</ele>
        <time>2016-08-28T12:50:30Z</time>
      </trkpt>
      <trkpt lat="44.96617" lon="5.37159">
        <ele>1127</ele>
        <time>2016-08-28T12:50:41Z</time>
      </trkpt>
      <trkpt lat="44.96624" lon="5.37151">
        <ele>1128</ele>
        <time>2016-08-28T12:51:04Z</time>
      </trkpt>
      <trkpt lat="44.96633" lon="5.37142">
        <ele>1128</ele>
        <time>2016-08-28T12:51:11Z</time>
      </trkpt>
      <trkpt lat="44.96643" lon="5.37133">
        <ele>1129</ele>
        <time>2016-08-28T12:51:18Z</time>
      </trkpt>
      <trkpt lat="44.96651" lon="5.37126">
        <ele>1129</ele>
        <time>2016-08-28T12:51:23Z</time>
      </trkpt>
      <trkpt lat="44.96659" lon="5.3712">
        <ele>1129</ele>
        <time>2016-08-28T12:51:28Z</time>
      </trkpt>
      <trkpt lat="44.96667" lon="5.37111">
        <ele>1132</ele>
        <time>2016-08-28T12:51:33Z</time>
      </trkpt>
      <trkpt lat="44.96675" lon="5.371">
        <ele>1131</ele>
        <time>2016-08-28T12:51:42Z</time>
      </trkpt>
      <trkpt lat="44.9668" lon="5.37087">
        <ele>1131</ele>
        <time>2016-08-28T12:51:50Z</time>
      </trkpt>
      <trkpt lat="44.96684" lon="5.37073">
        <ele>1131</ele>
        <time>2016-08-28T12:51:54Z</time>
      </trkpt>
      <trkpt lat="44.96686" lon="5.37059">
        <ele>1132</ele>
        <time>2016-08-28T12:51:59Z</time>
      </trkpt>
      <trkpt lat="44.96684" lon="5.37045">
        <ele>1133</ele>
        <time>2016-08-28T12:52:06Z</time>
      </trkpt>
      <trkpt lat="44.96678" lon="5.37034">
        <ele>1134</ele>
        <time>2016-08-28T12:52:13Z</time>
      </trkpt>
      <trkpt lat="44.96674" lon="5.37022">
        <ele>1135</ele>
        <time>2016-08-28T12:52:48Z</time>
      </trkpt>
      <trkpt lat="44.96672" lon="5.37008">
        <ele>1138</ele>
        <time>2016-08-28T12:53:03Z</time>
      </trkpt>
      <trkpt lat="44.96674" lon="5.36991">
        <ele>1141</ele>
        <time>2016-08-28T12:53:13Z</time>
      </trkpt>
      <trkpt lat="44.96679" lon="5.36979">
        <ele>1141</ele>
        <time>2016-08-28T12:53:25Z</time>
      </trkpt>
      <trkpt lat="44.9667" lon="5.36981">
        <ele>1141</ele>
        <time>2016-08-28T12:53:44Z</time>
      </trkpt>
      <trkpt lat="44.96659" lon="5.36985">
        <ele>1145</ele>
        <time>2016-08-28T12:53:57Z</time>
      </trkpt>
      <trkpt lat="44.96649" lon="5.36986">
        <ele>1146</ele>
        <time>2016-08-28T12:54:11Z</time>
      </trkpt>
      <trkpt lat="44.96638" lon="5.36984">
        <ele>1147</ele>
        <time>2016-08-28T12:54:19Z</time>
      </trkpt>
      <trkpt lat="44.9663" lon="5.36976">
        <ele>1148</ele>
        <time>2016-08-28T12:54:39Z</time>
      </trkpt>
      <trkpt lat="44.96621" lon="5.36973">
        <ele>1149</ele>
        <time>2016-08-28T12:54:48Z</time>
      </trkpt>
      <trkpt lat="44.96611" lon="5.36973">
        <ele>1149</ele>
        <time>2016-08-28T12:54:58Z</time>
      </trkpt>
      <trkpt lat="44.96601" lon="5.36972">
        <ele>1149</ele>
        <time>2016-08-28T12:55:12Z</time>
      </trkpt>
      <trkpt lat="44.96592" lon="5.36968">
        <ele>1150</ele>
        <time>2016-08-28T12:55:29Z</time>
      </trkpt>
      <trkpt lat="44.96584" lon="5.36963">
        <ele>1151</ele>
        <time>2016-08-28T12:55:34Z</time>
      </trkpt>
      <trkpt lat="44.96577" lon="5.36952">
        <ele>1155</ele>
        <time>2016-08-28T12:55:45Z</time>
      </trkpt>
      <trkpt lat="44.96573" lon="5.36939">
        <ele>1157</ele>
        <time>2016-08-28T12:56:11Z</time>
      </trkpt>
      <trkpt lat="44.96579" lon="5.36929">
        <ele>1158</ele>
        <time>2016-08-28T12:56:21Z</time>
      </trkpt>
      <trkpt lat="44.96585" lon="5.36918">
        <ele>1160</ele>
        <time>2016-08-28T12:56:35Z</time>
      </trkpt>
      <trkpt lat="44.96576" lon="5.3692">
        <ele>1159</ele>
        <time>2016-08-28T12:56:58Z</time>
      </trkpt>
      <trkpt lat="44.96581" lon="5.36906">
        <ele>1164</ele>
        <time>2016-08-28T12:57:21Z</time>
      </trkpt>
      <trkpt lat="44.96588" lon="5.36894">
        <ele>1164</ele>
        <time>2016-08-28T12:57:25Z</time>
      </trkpt>
      <trkpt lat="44.96592" lon="5.36881">
        <ele>1165</ele>
        <time>2016-08-28T12:57:32Z</time>
      </trkpt>
      <trkpt lat="44.96594" lon="5.36868">
        <ele>1167</ele>
        <time>2016-08-28T12:57:41Z</time>
      </trkpt>
      <trkpt lat="44.96601" lon="5.36858">
        <ele>1168</ele>
        <time>2016-08-28T12:58:03Z</time>
      </trkpt>
      <trkpt lat="44.96603" lon="5.36844">
        <ele>1169</ele>
        <time>2016-08-28T12:58:19Z</time>
      </trkpt>
      <trkpt lat="44.96611" lon="5.36831">
        <ele>1178</ele>
        <time>2016-08-28T12:58:29Z</time>
      </trkpt>
      <trkpt lat="44.96617" lon="5.3682">
        <ele>1178</ele>
        <time>2016-08-28T12:58:42Z</time>
      </trkpt>
      <trkpt lat="44.96619" lon="5.36805">
        <ele>1179</ele>
        <time>2016-08-28T12:58:50Z</time>
      </trkpt>
      <trkpt lat="44.96619" lon="5.36792">
        <ele>1180</ele>
        <time>2016-08-28T12:59:00Z</time>
      </trkpt>
      <trkpt lat="44.96622" lon="5.36775">
        <ele>1182</ele>
        <time>2016-08-28T12:59:10Z</time>
      </trkpt>
      <trkpt lat="44.96629" lon="5.36764">
        <ele>1182</ele>
        <time>2016-08-28T12:59:15Z</time>
      </trkpt>
      <trkpt lat="44.96633" lon="5.36751">
        <ele>1183</ele>
        <time>2016-08-28T12:59:25Z</time>
      </trkpt>
      <trkpt lat="44.96628" lon="5.36738">
        <ele>1191</ele>
        <time>2016-08-28T12:59:56Z</time>
      </trkpt>
      <trkpt lat="44.96636" lon="5.3673">
        <ele>1192</ele>
        <time>2016-08-28T13:00:03Z</time>
      </trkpt>
      <trkpt lat="44.96643" lon="5.36718">
        <ele>1192</ele>
        <time>2016-08-28T13:00:10Z</time>
      </trkpt>
      <trkpt lat="44.96652" lon="5.36716">
        <ele>1192</ele>
        <time>2016-08-28T13:00:32Z</time>
      </trkpt>
      <trkpt lat="44.96658" lon="5.36703">
        <ele>1193</ele>
        <time>2016-08-28T13:00:44Z</time>
      </trkpt>
      <trkpt lat="44.96661" lon="5.36689">
        <ele>1194</ele>
        <time>2016-08-28T13:00:53Z</time>
      </trkpt>
      <trkpt lat="44.96663" lon="5.36675">
        <ele>1195</ele>
        <time>2016-08-28T13:01:02Z</time>
      </trkpt>
      <trkpt lat="44.96665" lon="5.36661">
        <ele>1196</ele>
        <time>2016-08-28T13:01:06Z</time>
      </trkpt>
      <trkpt lat="44.96664" lon="5.36646">
        <ele>1196</ele>
        <time>2016-08-28T13:01:10Z</time>
      </trkpt>
      <trkpt lat="44.96661" lon="5.36633">
        <ele>1196</ele>
        <time>2016-08-28T13:01:14Z</time>
      </trkpt>
      <trkpt lat="44.96658" lon="5.36619">
        <ele>1195</ele>
        <time>2016-08-28T13:01:18Z</time>
      </trkpt>
      <trkpt lat="44.96656" lon="5.36603">
        <ele>1195</ele>
        <time>2016-08-28T13:01:21Z</time>
      </trkpt>
      <trkpt lat="44.96652" lon="5.36585">
        <ele>1194</ele>
        <time>2016-08-28T13:01:25Z</time>
      </trkpt>
      <trkpt lat="44.96647" lon="5.3657">
        <ele>1193</ele>
        <time>2016-08-28T13:01:27Z</time>
      </trkpt>
      <trkpt lat="44.96645" lon="5.3655">
        <ele>1192</ele>
        <time>2016-08-28T13:01:31Z</time>
      </trkpt>
      <trkpt lat="44.96643" lon="5.3653">
        <ele>1192</ele>
        <time>2016-08-28T13:01:34Z</time>
      </trkpt>
      <trkpt lat="44.96641" lon="5.36515">
        <ele>1191</ele>
        <time>2016-08-28T13:01:36Z</time>
      </trkpt>
      <trkpt lat="44.96633" lon="5.36483">
        <ele>1190</ele>
        <time>2016-08-28T13:01:40Z</time>
      </trkpt>
      <trkpt lat="44.96628" lon="5.36468">
        <ele>1190</ele>
        <time>2016-08-28T13:01:42Z</time>
      </trkpt>
      <trkpt lat="44.96623" lon="5.36451">
        <ele>1189</ele>
        <time>2016-08-28T13:01:44Z</time>
      </trkpt>
      <trkpt lat="44.96619" lon="5.36439">
        <ele>1190</ele>
        <time>2016-08-28T13:01:47Z</time>
      </trkpt>
      <trkpt lat="44.96612" lon="5.3643">
        <ele>1190</ele>
        <time>2016-08-28T13:01:50Z</time>
      </trkpt>
      <trkpt lat="44.96607" lon="5.36416">
        <ele>1190</ele>
        <time>2016-08-28T13:01:55Z</time>
      </trkpt>
      <trkpt lat="44.96608" lon="5.36399">
        <ele>1189</ele>
        <time>2016-08-28T13:02:00Z</time>
      </trkpt>
      <trkpt lat="44.96606" lon="5.36385">
        <ele>1189</ele>
        <time>2016-08-28T13:02:07Z</time>
      </trkpt>
      <trkpt lat="44.96607" lon="5.3637">
        <ele>1189</ele>
        <time>2016-08-28T13:02:13Z</time>
      </trkpt>
      <trkpt lat="44.96607" lon="5.36354">
        <ele>1189</ele>
        <time>2016-08-28T13:02:17Z</time>
      </trkpt>
      <trkpt lat="44.96608" lon="5.36338">
        <ele>1189</ele>
        <time>2016-08-28T13:02:22Z</time>
      </trkpt>
      <trkpt lat="44.9661" lon="5.36325">
        <ele>1190</ele>
        <time>2016-08-28T13:02:27Z</time>
      </trkpt>
      <trkpt lat="44.96611" lon="5.36308">
        <ele>1190</ele>
        <time>2016-08-28T13:02:35Z</time>
      </trkpt>
      <trkpt lat="44.96613" lon="5.36294">
        <ele>1191</ele>
        <time>2016-08-28T13:02:41Z</time>
      </trkpt>
      <trkpt lat="44.96615" lon="5.36281">
        <ele>1191</ele>
        <time>2016-08-28T13:02:47Z</time>
      </trkpt>
      <trkpt lat="44.96616" lon="5.36266">
        <ele>1191</ele>
        <time>2016-08-28T13:02:51Z</time>
      </trkpt>
      <trkpt lat="44.96615" lon="5.3625">
        <ele>1191</ele>
        <time>2016-08-28T13:02:55Z</time>
      </trkpt>
      <trkpt lat="44.96615" lon="5.36235">
        <ele>1192</ele>
        <time>2016-08-28T13:02:59Z</time>
      </trkpt>
      <trkpt lat="44.9661" lon="5.36221">
        <ele>1192</ele>
        <time>2016-08-28T13:03:03Z</time>
      </trkpt>
      <trkpt lat="44.96611" lon="5.36204">
        <ele>1192</ele>
        <time>2016-08-28T13:03:07Z</time>
      </trkpt>
      <trkpt lat="44.96598" lon="5.36182">
        <ele>1191</ele>
        <time>2016-08-28T13:03:12Z</time>
      </trkpt>
      <trkpt lat="44.96601" lon="5.36168">
        <ele>1190</ele>
        <time>2016-08-28T13:03:23Z</time>
      </trkpt>
      <trkpt lat="44.9661" lon="5.36157">
        <ele>1190</ele>
        <time>2016-08-28T13:03:27Z</time>
      </trkpt>
      <trkpt lat="44.96617" lon="5.36143">
        <ele>1190</ele>
        <time>2016-08-28T13:03:30Z</time>
      </trkpt>
      <trkpt lat="44.96624" lon="5.36131">
        <ele>1190</ele>
        <time>2016-08-28T13:03:33Z</time>
      </trkpt>
      <trkpt lat="44.9663" lon="5.3612">
        <ele>1190</ele>
        <time>2016-08-28T13:03:44Z</time>
      </trkpt>
      <trkpt lat="44.96636" lon="5.36108">
        <ele>1191</ele>
        <time>2016-08-28T13:03:48Z</time>
      </trkpt>
      <trkpt lat="44.96641" lon="5.36094">
        <ele>1192</ele>
        <time>2016-08-28T13:03:54Z</time>
      </trkpt>
      <trkpt lat="44.96643" lon="5.3608">
        <ele>1192</ele>
        <time>2016-08-28T13:04:03Z</time>
      </trkpt>
      <trkpt lat="44.96645" lon="5.36063">
        <ele>1191</ele>
        <time>2016-08-28T13:04:10Z</time>
      </trkpt>
      <trkpt lat="44.96647" lon="5.36051">
        <ele>1191</ele>
        <time>2016-08-28T13:04:14Z</time>
      </trkpt>
      <trkpt lat="44.9665" lon="5.36038">
        <ele>1191</ele>
        <time>2016-08-28T13:04:21Z</time>
      </trkpt>
      <trkpt lat="44.96652" lon="5.36021">
        <ele>1192</ele>
        <time>2016-08-28T13:04:28Z</time>
      </trkpt>
      <trkpt lat="44.96653" lon="5.36006">
        <ele>1194</ele>
        <time>2016-08-28T13:04:31Z</time>
      </trkpt>
      <trkpt lat="44.96656" lon="5.3599">
        <ele>1192</ele>
        <time>2016-08-28T13:04:35Z</time>
      </trkpt>
      <trkpt lat="44.96659" lon="5.35974">
        <ele>1189</ele>
        <time>2016-08-28T13:04:38Z</time>
      </trkpt>
      <trkpt lat="44.96662" lon="5.35955">
        <ele>1187</ele>
        <time>2016-08-28T13:04:41Z</time>
      </trkpt>
      <trkpt lat="44.96665" lon="5.35939">
        <ele>1187</ele>
        <time>2016-08-28T13:04:43Z</time>
      </trkpt>
      <trkpt lat="44.96667" lon="5.35923">
        <ele>1193</ele>
        <time>2016-08-28T13:04:46Z</time>
      </trkpt>
      <trkpt lat="44.96672" lon="5.35905">
        <ele>1192</ele>
        <time>2016-08-28T13:04:49Z</time>
      </trkpt>
      <trkpt lat="44.96675" lon="5.35891">
        <ele>1193</ele>
        <time>2016-08-28T13:04:51Z</time>
      </trkpt>
      <trkpt lat="44.96677" lon="5.35877">
        <ele>1193</ele>
        <time>2016-08-28T13:04:54Z</time>
      </trkpt>
      <trkpt lat="44.96678" lon="5.3586">
        <ele>1192</ele>
        <time>2016-08-28T13:04:58Z</time>
      </trkpt>
      <trkpt lat="44.96677" lon="5.35846">
        <ele>1190</ele>
        <time>2016-08-28T13:05:02Z</time>
      </trkpt>
      <trkpt lat="44.9668" lon="5.35833">
        <ele>1190</ele>
        <time>2016-08-28T13:05:07Z</time>
      </trkpt>
      <trkpt lat="44.96681" lon="5.35816">
        <ele>1189</ele>
        <time>2016-08-28T13:05:12Z</time>
      </trkpt>
      <trkpt lat="44.96682" lon="5.35803">
        <ele>1190</ele>
        <time>2016-08-28T13:05:14Z</time>
      </trkpt>
      <trkpt lat="44.96684" lon="5.35786">
        <ele>1190</ele>
        <time>2016-08-28T13:05:17Z</time>
      </trkpt>
      <trkpt lat="44.96687" lon="5.35768">
        <ele>1190</ele>
        <time>2016-08-28T13:05:20Z</time>
      </trkpt>
      <trkpt lat="44.96689" lon="5.35753">
        <ele>1190</ele>
        <time>2016-08-28T13:05:24Z</time>
      </trkpt>
      <trkpt lat="44.96696" lon="5.35745">
        <ele>1193</ele>
        <time>2016-08-28T13:05:50Z</time>
      </trkpt>
      <trkpt lat="44.96689" lon="5.35732">
        <ele>1193</ele>
        <time>2016-08-28T13:06:14Z</time>
      </trkpt>
      <trkpt lat="44.96693" lon="5.35745">
        <ele>1193</ele>
        <time>2016-08-28T13:06:29Z</time>
      </trkpt>
      <trkpt lat="44.96682" lon="5.35745">
        <ele>1191</ele>
        <time>2016-08-28T13:07:20Z</time>
      </trkpt>
      <trkpt lat="44.96688" lon="5.35734">
        <ele>1193</ele>
        <time>2016-08-28T13:07:25Z</time>
      </trkpt>
      <trkpt lat="44.96682" lon="5.35745">
        <ele>1191</ele>
        <time>2016-08-28T13:07:33Z</time>
      </trkpt>
      <trkpt lat="44.96684" lon="5.35761">
        <ele>1189</ele>
        <time>2016-08-28T13:07:59Z</time>
      </trkpt>
      <trkpt lat="44.96693" lon="5.35759">
        <ele>1190</ele>
        <time>2016-08-28T13:08:10Z</time>
      </trkpt>
      <trkpt lat="44.96689" lon="5.35747">
        <ele>1192</ele>
        <time>2016-08-28T13:08:33Z</time>
      </trkpt>
      <trkpt lat="44.96695" lon="5.35737">
        <ele>1193</ele>
        <time>2016-08-28T13:08:45Z</time>
      </trkpt>
      <trkpt lat="44.967" lon="5.3575">
        <ele>1193</ele>
        <time>2016-08-28T13:09:06Z</time>
      </trkpt>
      <trkpt lat="44.96709" lon="5.35742">
        <ele>1194</ele>
        <time>2016-08-28T13:09:15Z</time>
      </trkpt>
      <trkpt lat="44.967" lon="5.35748">
        <ele>1193</ele>
        <time>2016-08-28T13:09:43Z</time>
      </trkpt>
      <trkpt lat="44.96691" lon="5.35746">
        <ele>1192</ele>
        <time>2016-08-28T13:10:03Z</time>
      </trkpt>
      <trkpt lat="44.96683" lon="5.35755">
        <ele>1189</ele>
        <time>2016-08-28T13:11:06Z</time>
      </trkpt>
      <trkpt lat="44.96691" lon="5.35749">
        <ele>1192</ele>
        <time>2016-08-28T13:11:34Z</time>
      </trkpt>
      <trkpt lat="44.96689" lon="5.35762">
        <ele>1190</ele>
        <time>2016-08-28T13:13:02Z</time>
      </trkpt>
      <trkpt lat="44.96688" lon="5.35748">
        <ele>1192</ele>
        <time>2016-08-28T13:14:06Z</time>
      </trkpt>
      <trkpt lat="44.96691" lon="5.35735">
        <ele>1193</ele>
        <time>2016-08-28T13:14:52Z</time>
      </trkpt>
      <trkpt lat="44.96687" lon="5.35721">
        <ele>1194</ele>
        <time>2016-08-28T13:15:09Z</time>
      </trkpt>
      <trkpt lat="44.96686" lon="5.35708">
        <ele>1195</ele>
        <time>2016-08-28T13:15:22Z</time>
      </trkpt>
      <trkpt lat="44.96691" lon="5.35696">
        <ele>1196</ele>
        <time>2016-08-28T13:15:29Z</time>
      </trkpt>
      <trkpt lat="44.9669" lon="5.35683">
        <ele>1197</ele>
        <time>2016-08-28T13:15:44Z</time>
      </trkpt>
      <trkpt lat="44.96693" lon="5.35666">
        <ele>1201</ele>
        <time>2016-08-28T13:15:52Z</time>
      </trkpt>
      <trkpt lat="44.96696" lon="5.35652">
        <ele>1202</ele>
        <time>2016-08-28T13:15:59Z</time>
      </trkpt>
      <trkpt lat="44.96696" lon="5.35637">
        <ele>1202</ele>
        <time>2016-08-28T13:16:16Z</time>
      </trkpt>
      <trkpt lat="44.96696" lon="5.3562">
        <ele>1203</ele>
        <time>2016-08-28T13:16:29Z</time>
      </trkpt>
      <trkpt lat="44.967" lon="5.35602">
        <ele>1204</ele>
        <time>2016-08-28T13:16:32Z</time>
      </trkpt>
      <trkpt lat="44.96702" lon="5.35585">
        <ele>1204</ele>
        <time>2016-08-28T13:16:34Z</time>
      </trkpt>
      <trkpt lat="44.96701" lon="5.35557">
        <ele>1203</ele>
        <time>2016-08-28T13:16:38Z</time>
      </trkpt>
      <trkpt lat="44.96702" lon="5.35539">
        <ele>1202</ele>
        <time>2016-08-28T13:16:40Z</time>
      </trkpt>
      <trkpt lat="44.96703" lon="5.35522">
        <ele>1202</ele>
        <time>2016-08-28T13:16:43Z</time>
      </trkpt>
      <trkpt lat="44.96698" lon="5.35507">
        <ele>1201</ele>
        <time>2016-08-28T13:16:48Z</time>
      </trkpt>
      <trkpt lat="44.96689" lon="5.35494">
        <ele>1196</ele>
        <time>2016-08-28T13:16:51Z</time>
      </trkpt>
      <trkpt lat="44.96677" lon="5.35478">
        <ele>1196</ele>
        <time>2016-08-28T13:16:55Z</time>
      </trkpt>
      <trkpt lat="44.96667" lon="5.35463">
        <ele>1194</ele>
        <time>2016-08-28T13:16:59Z</time>
      </trkpt>
      <trkpt lat="44.96654" lon="5.35454">
        <ele>1190</ele>
        <time>2016-08-28T13:17:01Z</time>
      </trkpt>
      <trkpt lat="44.96645" lon="5.35444">
        <ele>1190</ele>
        <time>2016-08-28T13:17:03Z</time>
      </trkpt>
      <trkpt lat="44.96634" lon="5.35433">
        <ele>1189</ele>
        <time>2016-08-28T13:17:06Z</time>
      </trkpt>
      <trkpt lat="44.96624" lon="5.3542">
        <ele>1188</ele>
        <time>2016-08-28T13:17:08Z</time>
      </trkpt>
      <trkpt lat="44.96615" lon="5.35413">
        <ele>1183</ele>
        <time>2016-08-28T13:17:09Z</time>
      </trkpt>
      <trkpt lat="44.96603" lon="5.35412">
        <ele>1182</ele>
        <time>2016-08-28T13:17:11Z</time>
      </trkpt>
      <trkpt lat="44.96593" lon="5.35405">
        <ele>1182</ele>
        <time>2016-08-28T13:17:14Z</time>
      </trkpt>
      <trkpt lat="44.96585" lon="5.35385">
        <ele>1181</ele>
        <time>2016-08-28T13:17:21Z</time>
      </trkpt>
      <trkpt lat="44.96579" lon="5.3536">
        <ele>1180</ele>
        <time>2016-08-28T13:17:24Z</time>
      </trkpt>
      <trkpt lat="44.9657" lon="5.35346">
        <ele>1180</ele>
        <time>2016-08-28T13:17:26Z</time>
      </trkpt>
      <trkpt lat="44.9656" lon="5.35343">
        <ele>1180</ele>
        <time>2016-08-28T13:17:34Z</time>
      </trkpt>
      <trkpt lat="44.96558" lon="5.35329">
        <ele>1180</ele>
        <time>2016-08-28T13:17:40Z</time>
      </trkpt>
      <trkpt lat="44.96549" lon="5.35321">
        <ele>1180</ele>
        <time>2016-08-28T13:17:48Z</time>
      </trkpt>
      <trkpt lat="44.96548" lon="5.35303">
        <ele>1180</ele>
        <time>2016-08-28T13:17:55Z</time>
      </trkpt>
      <trkpt lat="44.96548" lon="5.3529">
        <ele>1180</ele>
        <time>2016-08-28T13:17:58Z</time>
      </trkpt>
      <trkpt lat="44.96541" lon="5.35277">
        <ele>1180</ele>
        <time>2016-08-28T13:18:04Z</time>
      </trkpt>
      <trkpt lat="44.96533" lon="5.35272">
        <ele>1180</ele>
        <time>2016-08-28T13:18:17Z</time>
      </trkpt>
      <trkpt lat="44.96521" lon="5.35269">
        <ele>1181</ele>
        <time>2016-08-28T13:18:23Z</time>
      </trkpt>
      <trkpt lat="44.96511" lon="5.35273">
        <ele>1181</ele>
        <time>2016-08-28T13:18:26Z</time>
      </trkpt>
      <trkpt lat="44.96502" lon="5.35277">
        <ele>1181</ele>
        <time>2016-08-28T13:18:32Z</time>
      </trkpt>
      <trkpt lat="44.96492" lon="5.3528">
        <ele>1184</ele>
        <time>2016-08-28T13:18:51Z</time>
      </trkpt>
      <trkpt lat="44.96483" lon="5.35286">
        <ele>1184</ele>
        <time>2016-08-28T13:19:03Z</time>
      </trkpt>
      <trkpt lat="44.96474" lon="5.35294">
        <ele>1184</ele>
        <time>2016-08-28T13:19:14Z</time>
      </trkpt>
      <trkpt lat="44.96468" lon="5.35303">
        <ele>1185</ele>
        <time>2016-08-28T13:19:20Z</time>
      </trkpt>
      <trkpt lat="44.96457" lon="5.35304">
        <ele>1185</ele>
        <time>2016-08-28T13:19:26Z</time>
      </trkpt>
      <trkpt lat="44.96447" lon="5.35312">
        <ele>1186</ele>
        <time>2016-08-28T13:19:37Z</time>
      </trkpt>
      <trkpt lat="44.96437" lon="5.35311">
        <ele>1186</ele>
        <time>2016-08-28T13:19:45Z</time>
      </trkpt>
      <trkpt lat="44.96431" lon="5.35321">
        <ele>1188</ele>
        <time>2016-08-28T13:19:50Z</time>
      </trkpt>
      <trkpt lat="44.96418" lon="5.35321">
        <ele>1189</ele>
        <time>2016-08-28T13:20:08Z</time>
      </trkpt>
      <trkpt lat="44.9641" lon="5.3533">
        <ele>1191</ele>
        <time>2016-08-28T13:20:12Z</time>
      </trkpt>
      <trkpt lat="44.964" lon="5.35327">
        <ele>1190</ele>
        <time>2016-08-28T13:20:23Z</time>
      </trkpt>
      <trkpt lat="44.96392" lon="5.35335">
        <ele>1194</ele>
        <time>2016-08-28T13:20:36Z</time>
      </trkpt>
      <trkpt lat="44.96383" lon="5.35339">
        <ele>1194</ele>
        <time>2016-08-28T13:20:45Z</time>
      </trkpt>
      <trkpt lat="44.96373" lon="5.35343">
        <ele>1195</ele>
        <time>2016-08-28T13:20:52Z</time>
      </trkpt>
      <trkpt lat="44.9636" lon="5.35345">
        <ele>1195</ele>
        <time>2016-08-28T13:21:01Z</time>
      </trkpt>
      <trkpt lat="44.96349" lon="5.35348">
        <ele>1195</ele>
        <time>2016-08-28T13:21:05Z</time>
      </trkpt>
      <trkpt lat="44.96339" lon="5.35343">
        <ele>1195</ele>
        <time>2016-08-28T13:21:09Z</time>
      </trkpt>
      <trkpt lat="44.96329" lon="5.35344">
        <ele>1195</ele>
        <time>2016-08-28T13:21:13Z</time>
      </trkpt>
      <trkpt lat="44.9632" lon="5.35345">
        <ele>1195</ele>
        <time>2016-08-28T13:21:20Z</time>
      </trkpt>
      <trkpt lat="44.9631" lon="5.35339">
        <ele>1195</ele>
        <time>2016-08-28T13:21:25Z</time>
      </trkpt>
      <trkpt lat="44.963" lon="5.35336">
        <ele>1195</ele>
        <time>2016-08-28T13:21:30Z</time>
      </trkpt>
      <trkpt lat="44.9629" lon="5.35329">
        <ele>1193</ele>
        <time>2016-08-28T13:21:34Z</time>
      </trkpt>
      <trkpt lat="44.96281" lon="5.35321">
        <ele>1193</ele>
        <time>2016-08-28T13:21:40Z</time>
      </trkpt>
      <trkpt lat="44.96272" lon="5.35313">
        <ele>1192</ele>
        <time>2016-08-28T13:21:45Z</time>
      </trkpt>
      <trkpt lat="44.96262" lon="5.35311">
        <ele>1192</ele>
        <time>2016-08-28T13:21:47Z</time>
      </trkpt>
      <trkpt lat="44.96249" lon="5.35308">
        <ele>1193</ele>
        <time>2016-08-28T13:21:51Z</time>
      </trkpt>
      <trkpt lat="44.96237" lon="5.35303">
        <ele>1193</ele>
        <time>2016-08-28T13:21:53Z</time>
      </trkpt>
      <trkpt lat="44.96226" lon="5.35303">
        <ele>1193</ele>
        <time>2016-08-28T13:21:56Z</time>
      </trkpt>
      <trkpt lat="44.96217" lon="5.35293">
        <ele>1193</ele>
        <time>2016-08-28T13:22:02Z</time>
      </trkpt>
      <trkpt lat="44.962" lon="5.35279">
        <ele>1193</ele>
        <time>2016-08-28T13:22:05Z</time>
      </trkpt>
      <trkpt lat="44.96192" lon="5.35273">
        <ele>1193</ele>
        <time>2016-08-28T13:22:09Z</time>
      </trkpt>
      <trkpt lat="44.96188" lon="5.35258">
        <ele>1194</ele>
        <time>2016-08-28T13:22:15Z</time>
      </trkpt>
      <trkpt lat="44.96182" lon="5.35247">
        <ele>1194</ele>
        <time>2016-08-28T13:22:19Z</time>
      </trkpt>
      <trkpt lat="44.96172" lon="5.3524">
        <ele>1194</ele>
        <time>2016-08-28T13:22:24Z</time>
      </trkpt>
      <trkpt lat="44.96163" lon="5.35232">
        <ele>1195</ele>
        <time>2016-08-28T13:22:29Z</time>
      </trkpt>
      <trkpt lat="44.96154" lon="5.35221">
        <ele>1194</ele>
        <time>2016-08-28T13:22:34Z</time>
      </trkpt>
      <trkpt lat="44.96146" lon="5.35209">
        <ele>1194</ele>
        <time>2016-08-28T13:22:38Z</time>
      </trkpt>
      <trkpt lat="44.96138" lon="5.35198">
        <ele>1194</ele>
        <time>2016-08-28T13:22:42Z</time>
      </trkpt>
      <trkpt lat="44.96131" lon="5.35186">
        <ele>1194</ele>
        <time>2016-08-28T13:22:47Z</time>
      </trkpt>
      <trkpt lat="44.96122" lon="5.35179">
        <ele>1195</ele>
        <time>2016-08-28T13:22:51Z</time>
      </trkpt>
      <trkpt lat="44.96112" lon="5.3517">
        <ele>1196</ele>
        <time>2016-08-28T13:22:56Z</time>
      </trkpt>
      <trkpt lat="44.96103" lon="5.35161">
        <ele>1199</ele>
        <time>2016-08-28T13:22:59Z</time>
      </trkpt>
      <trkpt lat="44.96096" lon="5.35151">
        <ele>1199</ele>
        <time>2016-08-28T13:23:02Z</time>
      </trkpt>
      <trkpt lat="44.96089" lon="5.3514">
        <ele>1199</ele>
        <time>2016-08-28T13:23:10Z</time>
      </trkpt>
      <trkpt lat="44.96081" lon="5.35131">
        <ele>1202</ele>
        <time>2016-08-28T13:23:15Z</time>
      </trkpt>
      <trkpt lat="44.96072" lon="5.35123">
        <ele>1202</ele>
        <time>2016-08-28T13:23:19Z</time>
      </trkpt>
      <trkpt lat="44.96062" lon="5.35115">
        <ele>1203</ele>
        <time>2016-08-28T13:23:24Z</time>
      </trkpt>
      <trkpt lat="44.96052" lon="5.35109">
        <ele>1203</ele>
        <time>2016-08-28T13:23:31Z</time>
      </trkpt>
      <trkpt lat="44.96041" lon="5.351">
        <ele>1203</ele>
        <time>2016-08-28T13:23:37Z</time>
      </trkpt>
      <trkpt lat="44.9603" lon="5.35093">
        <ele>1204</ele>
        <time>2016-08-28T13:23:40Z</time>
      </trkpt>
      <trkpt lat="44.96019" lon="5.35091">
        <ele>1205</ele>
        <time>2016-08-28T13:23:46Z</time>
      </trkpt>
      <trkpt lat="44.96007" lon="5.3509">
        <ele>1206</ele>
        <time>2016-08-28T13:23:53Z</time>
      </trkpt>
      <trkpt lat="44.95999" lon="5.35081">
        <ele>1208</ele>
        <time>2016-08-28T13:23:58Z</time>
      </trkpt>
      <trkpt lat="44.9599" lon="5.35077">
        <ele>1209</ele>
        <time>2016-08-28T13:24:04Z</time>
      </trkpt>
      <trkpt lat="44.95977" lon="5.35079">
        <ele>1209</ele>
        <time>2016-08-28T13:24:11Z</time>
      </trkpt>
      <trkpt lat="44.95966" lon="5.35081">
        <ele>1210</ele>
        <time>2016-08-28T13:24:14Z</time>
      </trkpt>
      <trkpt lat="44.9596" lon="5.3507">
        <ele>1210</ele>
        <time>2016-08-28T13:24:20Z</time>
      </trkpt>
      <trkpt lat="44.9595" lon="5.35069">
        <ele>1211</ele>
        <time>2016-08-28T13:24:29Z</time>
      </trkpt>
      <trkpt lat="44.95941" lon="5.35062">
        <ele>1211</ele>
        <time>2016-08-28T13:24:35Z</time>
      </trkpt>
      <trkpt lat="44.9593" lon="5.3505">
        <ele>1211</ele>
        <time>2016-08-28T13:24:48Z</time>
      </trkpt>
      <trkpt lat="44.9592" lon="5.35047">
        <ele>1211</ele>
        <time>2016-08-28T13:24:55Z</time>
      </trkpt>
      <trkpt lat="44.95912" lon="5.35036">
        <ele>1215</ele>
        <time>2016-08-28T13:25:03Z</time>
      </trkpt>
      <trkpt lat="44.95903" lon="5.35032">
        <ele>1215</ele>
        <time>2016-08-28T13:25:08Z</time>
      </trkpt>
      <trkpt lat="44.95895" lon="5.35026">
        <ele>1215</ele>
        <time>2016-08-28T13:25:19Z</time>
      </trkpt>
      <trkpt lat="44.95885" lon="5.35025">
        <ele>1216</ele>
        <time>2016-08-28T13:25:28Z</time>
      </trkpt>
      <trkpt lat="44.95876" lon="5.35023">
        <ele>1216</ele>
        <time>2016-08-28T13:25:31Z</time>
      </trkpt>
      <trkpt lat="44.95862" lon="5.35017">
        <ele>1217</ele>
        <time>2016-08-28T13:25:45Z</time>
      </trkpt>
      <trkpt lat="44.95851" lon="5.35016">
        <ele>1218</ele>
        <time>2016-08-28T13:25:50Z</time>
      </trkpt>
      <trkpt lat="44.95842" lon="5.35008">
        <ele>1219</ele>
        <time>2016-08-28T13:25:58Z</time>
      </trkpt>
      <trkpt lat="44.95831" lon="5.35005">
        <ele>1221</ele>
        <time>2016-08-28T13:26:05Z</time>
      </trkpt>
      <trkpt lat="44.95821" lon="5.35003">
        <ele>1220</ele>
        <time>2016-08-28T13:26:17Z</time>
      </trkpt>
      <trkpt lat="44.95811" lon="5.35002">
        <ele>1219</ele>
        <time>2016-08-28T13:26:24Z</time>
      </trkpt>
      <trkpt lat="44.95801" lon="5.34999">
        <ele>1221</ele>
        <time>2016-08-28T13:26:30Z</time>
      </trkpt>
      <trkpt lat="44.95791" lon="5.34994">
        <ele>1221</ele>
        <time>2016-08-28T13:26:38Z</time>
      </trkpt>
      <trkpt lat="44.95779" lon="5.34989">
        <ele>1221</ele>
        <time>2016-08-28T13:26:43Z</time>
      </trkpt>
      <trkpt lat="44.9577" lon="5.34979">
        <ele>1221</ele>
        <time>2016-08-28T13:26:47Z</time>
      </trkpt>
      <trkpt lat="44.9576" lon="5.34973">
        <ele>1221</ele>
        <time>2016-08-28T13:26:50Z</time>
      </trkpt>
      <trkpt lat="44.95753" lon="5.34965">
        <ele>1220</ele>
        <time>2016-08-28T13:26:52Z</time>
      </trkpt>
      <trkpt lat="44.95744" lon="5.34958">
        <ele>1219</ele>
        <time>2016-08-28T13:26:54Z</time>
      </trkpt>
      <trkpt lat="44.95734" lon="5.34949">
        <ele>1219</ele>
        <time>2016-08-28T13:26:56Z</time>
      </trkpt>
      <trkpt lat="44.95725" lon="5.34936">
        <ele>1219</ele>
        <time>2016-08-28T13:26:58Z</time>
      </trkpt>
      <trkpt lat="44.95714" lon="5.34924">
        <ele>1219</ele>
        <time>2016-08-28T13:27:00Z</time>
      </trkpt>
      <trkpt lat="44.95703" lon="5.34913">
        <ele>1217</ele>
        <time>2016-08-28T13:27:02Z</time>
      </trkpt>
      <trkpt lat="44.95694" lon="5.34903">
        <ele>1217</ele>
        <time>2016-08-28T13:27:04Z</time>
      </trkpt>
      <trkpt lat="44.95684" lon="5.34894">
        <ele>1217</ele>
        <time>2016-08-28T13:27:07Z</time>
      </trkpt>
      <trkpt lat="44.95674" lon="5.34891">
        <ele>1217</ele>
        <time>2016-08-28T13:27:11Z</time>
      </trkpt>
      <trkpt lat="44.95665" lon="5.34882">
        <ele>1220</ele>
        <time>2016-08-28T13:27:16Z</time>
      </trkpt>
      <trkpt lat="44.95655" lon="5.34876">
        <ele>1220</ele>
        <time>2016-08-28T13:27:22Z</time>
      </trkpt>
      <trkpt lat="44.95645" lon="5.3487">
        <ele>1220</ele>
        <time>2016-08-28T13:27:29Z</time>
      </trkpt>
      <trkpt lat="44.95638" lon="5.34861">
        <ele>1220</ele>
        <time>2016-08-28T13:27:36Z</time>
      </trkpt>
      <trkpt lat="44.95629" lon="5.34854">
        <ele>1221</ele>
        <time>2016-08-28T13:27:41Z</time>
      </trkpt>
      <trkpt lat="44.95619" lon="5.34852">
        <ele>1222</ele>
        <time>2016-08-28T13:27:46Z</time>
      </trkpt>
      <trkpt lat="44.95607" lon="5.34852">
        <ele>1222</ele>
        <time>2016-08-28T13:27:53Z</time>
      </trkpt>
      <trkpt lat="44.95594" lon="5.34852">
        <ele>1223</ele>
        <time>2016-08-28T13:28:00Z</time>
      </trkpt>
      <trkpt lat="44.95584" lon="5.34851">
        <ele>1224</ele>
        <time>2016-08-28T13:28:03Z</time>
      </trkpt>
      <trkpt lat="44.95569" lon="5.34852">
        <ele>1226</ele>
        <time>2016-08-28T13:28:09Z</time>
      </trkpt>
      <trkpt lat="44.95559" lon="5.34851">
        <ele>1226</ele>
        <time>2016-08-28T13:28:12Z</time>
      </trkpt>
      <trkpt lat="44.9555" lon="5.34847">
        <ele>1226</ele>
        <time>2016-08-28T13:28:15Z</time>
      </trkpt>
      <trkpt lat="44.95539" lon="5.34843">
        <ele>1227</ele>
        <time>2016-08-28T13:28:17Z</time>
      </trkpt>
      <trkpt lat="44.9553" lon="5.34838">
        <ele>1227</ele>
        <time>2016-08-28T13:28:19Z</time>
      </trkpt>
      <trkpt lat="44.95511" lon="5.34819">
        <ele>1224</ele>
        <time>2016-08-28T13:28:24Z</time>
      </trkpt>
      <trkpt lat="44.95502" lon="5.3481">
        <ele>1224</ele>
        <time>2016-08-28T13:28:27Z</time>
      </trkpt>
      <trkpt lat="44.95493" lon="5.34799">
        <ele>1229</ele>
        <time>2016-08-28T13:28:30Z</time>
      </trkpt>
      <trkpt lat="44.9549" lon="5.34787">
        <ele>1229</ele>
        <time>2016-08-28T13:28:32Z</time>
      </trkpt>
      <trkpt lat="44.95487" lon="5.34773">
        <ele>1228</ele>
        <time>2016-08-28T13:28:34Z</time>
      </trkpt>
      <trkpt lat="44.9548" lon="5.34759">
        <ele>1228</ele>
        <time>2016-08-28T13:28:37Z</time>
      </trkpt>
      <trkpt lat="44.95472" lon="5.34745">
        <ele>1225</ele>
        <time>2016-08-28T13:28:40Z</time>
      </trkpt>
      <trkpt lat="44.95465" lon="5.34729">
        <ele>1225</ele>
        <time>2016-08-28T13:28:43Z</time>
      </trkpt>
      <trkpt lat="44.95462" lon="5.34715">
        <ele>1225</ele>
        <time>2016-08-28T13:28:45Z</time>
      </trkpt>
      <trkpt lat="44.95454" lon="5.34702">
        <ele>1225</ele>
        <time>2016-08-28T13:28:48Z</time>
      </trkpt>
      <trkpt lat="44.95443" lon="5.34691">
        <ele>1225</ele>
        <time>2016-08-28T13:28:51Z</time>
      </trkpt>
      <trkpt lat="44.95435" lon="5.34679">
        <ele>1225</ele>
        <time>2016-08-28T13:28:53Z</time>
      </trkpt>
      <trkpt lat="44.95426" lon="5.34665">
        <ele>1223</ele>
        <time>2016-08-28T13:28:56Z</time>
      </trkpt>
      <trkpt lat="44.95418" lon="5.34651">
        <ele>1222</ele>
        <time>2016-08-28T13:28:59Z</time>
      </trkpt>
      <trkpt lat="44.95409" lon="5.34624">
        <ele>1229</ele>
        <time>2016-08-28T13:29:04Z</time>
      </trkpt>
      <trkpt lat="44.95406" lon="5.34601">
        <ele>1227</ele>
        <time>2016-08-28T13:29:08Z</time>
      </trkpt>
      <trkpt lat="44.95395" lon="5.34599">
        <ele>1228</ele>
        <time>2016-08-28T13:29:10Z</time>
      </trkpt>
      <trkpt lat="44.95393" lon="5.34582">
        <ele>1226</ele>
        <time>2016-08-28T13:29:14Z</time>
      </trkpt>
      <trkpt lat="44.95392" lon="5.34567">
        <ele>1227</ele>
        <time>2016-08-28T13:29:16Z</time>
      </trkpt>
      <trkpt lat="44.95392" lon="5.34552">
        <ele>1228</ele>
        <time>2016-08-28T13:29:18Z</time>
      </trkpt>
      <trkpt lat="44.95397" lon="5.34538">
        <ele>1228</ele>
        <time>2016-08-28T13:29:20Z</time>
      </trkpt>
      <trkpt lat="44.954" lon="5.34524">
        <ele>1228</ele>
        <time>2016-08-28T13:29:22Z</time>
      </trkpt>
      <trkpt lat="44.95398" lon="5.34506">
        <ele>1227</ele>
        <time>2016-08-28T13:29:24Z</time>
      </trkpt>
      <trkpt lat="44.95396" lon="5.34489">
        <ele>1228</ele>
        <time>2016-08-28T13:29:26Z</time>
      </trkpt>
      <trkpt lat="44.95395" lon="5.34472">
        <ele>1229</ele>
        <time>2016-08-28T13:29:28Z</time>
      </trkpt>
      <trkpt lat="44.95399" lon="5.34453">
        <ele>1229</ele>
        <time>2016-08-28T13:29:31Z</time>
      </trkpt>
      <trkpt lat="44.95401" lon="5.34439">
        <ele>1228</ele>
        <time>2016-08-28T13:29:33Z</time>
      </trkpt>
      <trkpt lat="44.954" lon="5.34419">
        <ele>1227</ele>
        <time>2016-08-28T13:29:36Z</time>
      </trkpt>
      <trkpt lat="44.95399" lon="5.34404">
        <ele>1225</ele>
        <time>2016-08-28T13:29:38Z</time>
      </trkpt>
      <trkpt lat="44.95397" lon="5.34388">
        <ele>1225</ele>
        <time>2016-08-28T13:29:40Z</time>
      </trkpt>
      <trkpt lat="44.95392" lon="5.34371">
        <ele>1225</ele>
        <time>2016-08-28T13:29:42Z</time>
      </trkpt>
      <trkpt lat="44.95388" lon="5.34356">
        <ele>1225</ele>
        <time>2016-08-28T13:29:44Z</time>
      </trkpt>
      <trkpt lat="44.95383" lon="5.34343">
        <ele>1224</ele>
        <time>2016-08-28T13:29:46Z</time>
      </trkpt>
      <trkpt lat="44.95376" lon="5.34334">
        <ele>1224</ele>
        <time>2016-08-28T13:29:48Z</time>
      </trkpt>
      <trkpt lat="44.95365" lon="5.34322">
        <ele>1219</ele>
        <time>2016-08-28T13:29:51Z</time>
      </trkpt>
      <trkpt lat="44.95356" lon="5.34315">
        <ele>1219</ele>
        <time>2016-08-28T13:29:53Z</time>
      </trkpt>
      <trkpt lat="44.95345" lon="5.34311">
        <ele>1219</ele>
        <time>2016-08-28T13:29:56Z</time>
      </trkpt>
      <trkpt lat="44.95335" lon="5.34317">
        <ele>1221</ele>
        <time>2016-08-28T13:30:05Z</time>
      </trkpt>
      <trkpt lat="44.95319" lon="5.34319">
        <ele>1222</ele>
        <time>2016-08-28T13:30:10Z</time>
      </trkpt>
      <trkpt lat="44.95307" lon="5.34328">
        <ele>1222</ele>
        <time>2016-08-28T13:30:12Z</time>
      </trkpt>
      <trkpt lat="44.95295" lon="5.34326">
        <ele>1222</ele>
        <time>2016-08-28T13:30:15Z</time>
      </trkpt>
      <trkpt lat="44.95288" lon="5.34315">
        <ele>1221</ele>
        <time>2016-08-28T13:30:18Z</time>
      </trkpt>
      <trkpt lat="44.95278" lon="5.34311">
        <ele>1221</ele>
        <time>2016-08-28T13:30:21Z</time>
      </trkpt>
      <trkpt lat="44.95272" lon="5.34301">
        <ele>1221</ele>
        <time>2016-08-28T13:30:24Z</time>
      </trkpt>
      <trkpt lat="44.95262" lon="5.34286">
        <ele>1220</ele>
        <time>2016-08-28T13:30:29Z</time>
      </trkpt>
      <trkpt lat="44.95253" lon="5.34278">
        <ele>1219</ele>
        <time>2016-08-28T13:30:31Z</time>
      </trkpt>
      <trkpt lat="44.95242" lon="5.34271">
        <ele>1220</ele>
        <time>2016-08-28T13:30:33Z</time>
      </trkpt>
      <trkpt lat="44.95233" lon="5.34267">
        <ele>1220</ele>
        <time>2016-08-28T13:30:35Z</time>
      </trkpt>
      <trkpt lat="44.95221" lon="5.34262">
        <ele>1220</ele>
        <time>2016-08-28T13:30:38Z</time>
      </trkpt>
      <trkpt lat="44.95203" lon="5.34263">
        <ele>1221</ele>
        <time>2016-08-28T13:30:44Z</time>
      </trkpt>
      <trkpt lat="44.95195" lon="5.34269">
        <ele>1221</ele>
        <time>2016-08-28T13:30:47Z</time>
      </trkpt>
      <trkpt lat="44.95185" lon="5.34278">
        <ele>1222</ele>
        <time>2016-08-28T13:30:50Z</time>
      </trkpt>
      <trkpt lat="44.95176" lon="5.34291">
        <ele>1223</ele>
        <time>2016-08-28T13:30:54Z</time>
      </trkpt>
      <trkpt lat="44.95167" lon="5.34298">
        <ele>1224</ele>
        <time>2016-08-28T13:30:57Z</time>
      </trkpt>
      <trkpt lat="44.95159" lon="5.34305">
        <ele>1226</ele>
        <time>2016-08-28T13:31:00Z</time>
      </trkpt>
      <trkpt lat="44.95148" lon="5.34318">
        <ele>1227</ele>
        <time>2016-08-28T13:31:05Z</time>
      </trkpt>
      <trkpt lat="44.95142" lon="5.34328">
        <ele>1227</ele>
        <time>2016-08-28T13:31:06Z</time>
      </trkpt>
      <trkpt lat="44.95133" lon="5.34318">
        <ele>1226</ele>
        <time>2016-08-28T13:31:18Z</time>
      </trkpt>
      <trkpt lat="44.95125" lon="5.34305">
        <ele>1225</ele>
        <time>2016-08-28T13:31:20Z</time>
      </trkpt>
      <trkpt lat="44.95118" lon="5.34291">
        <ele>1224</ele>
        <time>2016-08-28T13:31:23Z</time>
      </trkpt>
      <trkpt lat="44.95117" lon="5.34276">
        <ele>1223</ele>
        <time>2016-08-28T13:31:26Z</time>
      </trkpt>
      <trkpt lat="44.9511" lon="5.3426">
        <ele>1222</ele>
        <time>2016-08-28T13:31:29Z</time>
      </trkpt>
      <trkpt lat="44.95106" lon="5.34249">
        <ele>1216</ele>
        <time>2016-08-28T13:31:31Z</time>
      </trkpt>
      <trkpt lat="44.95103" lon="5.34235">
        <ele>1216</ele>
        <time>2016-08-28T13:31:33Z</time>
      </trkpt>
      <trkpt lat="44.95097" lon="5.34218">
        <ele>1215</ele>
        <time>2016-08-28T13:31:36Z</time>
      </trkpt>
      <trkpt lat="44.95093" lon="5.34199">
        <ele>1213</ele>
        <time>2016-08-28T13:31:40Z</time>
      </trkpt>
      <trkpt lat="44.9509" lon="5.34181">
        <ele>1212</ele>
        <time>2016-08-28T13:31:43Z</time>
      </trkpt>
      <trkpt lat="44.95083" lon="5.3417">
        <ele>1211</ele>
        <time>2016-08-28T13:31:45Z</time>
      </trkpt>
      <trkpt lat="44.95076" lon="5.34157">
        <ele>1210</ele>
        <time>2016-08-28T13:31:47Z</time>
      </trkpt>
      <trkpt lat="44.95067" lon="5.34146">
        <ele>1210</ele>
        <time>2016-08-28T13:31:50Z</time>
      </trkpt>
      <trkpt lat="44.95055" lon="5.34136">
        <ele>1210</ele>
        <time>2016-08-28T13:31:53Z</time>
      </trkpt>
      <trkpt lat="44.95045" lon="5.34131">
        <ele>1211</ele>
        <time>2016-08-28T13:31:55Z</time>
      </trkpt>
      <trkpt lat="44.95031" lon="5.34128">
        <ele>1212</ele>
        <time>2016-08-28T13:31:58Z</time>
      </trkpt>
      <trkpt lat="44.95012" lon="5.34126">
        <ele>1213</ele>
        <time>2016-08-28T13:32:03Z</time>
      </trkpt>
      <trkpt lat="44.95003" lon="5.34129">
        <ele>1214</ele>
        <time>2016-08-28T13:32:06Z</time>
      </trkpt>
      <trkpt lat="44.94992" lon="5.34134">
        <ele>1220</ele>
        <time>2016-08-28T13:32:09Z</time>
      </trkpt>
      <trkpt lat="44.94982" lon="5.34139">
        <ele>1221</ele>
        <time>2016-08-28T13:32:12Z</time>
      </trkpt>
      <trkpt lat="44.94973" lon="5.34146">
        <ele>1221</ele>
        <time>2016-08-28T13:32:16Z</time>
      </trkpt>
      <trkpt lat="44.9496" lon="5.34149">
        <ele>1222</ele>
        <time>2016-08-28T13:32:20Z</time>
      </trkpt>
      <trkpt lat="44.94953" lon="5.34164">
        <ele>1223</ele>
        <time>2016-08-28T13:32:24Z</time>
      </trkpt>
      <trkpt lat="44.94947" lon="5.34174">
        <ele>1232</ele>
        <time>2016-08-28T13:32:29Z</time>
      </trkpt>
      <trkpt lat="44.94941" lon="5.34189">
        <ele>1233</ele>
        <time>2016-08-28T13:32:37Z</time>
      </trkpt>
      <trkpt lat="44.94928" lon="5.34189">
        <ele>1233</ele>
        <time>2016-08-28T13:32:41Z</time>
      </trkpt>
      <trkpt lat="44.94918" lon="5.34182">
        <ele>1232</ele>
        <time>2016-08-28T13:32:45Z</time>
      </trkpt>
      <trkpt lat="44.94916" lon="5.34166">
        <ele>1230</ele>
        <time>2016-08-28T13:32:48Z</time>
      </trkpt>
      <trkpt lat="44.94916" lon="5.34152">
        <ele>1225</ele>
        <time>2016-08-28T13:32:52Z</time>
      </trkpt>
      <trkpt lat="44.9491" lon="5.34136">
        <ele>1222</ele>
        <time>2016-08-28T13:32:58Z</time>
      </trkpt>
      <trkpt lat="44.94909" lon="5.34121">
        <ele>1220</ele>
        <time>2016-08-28T13:33:02Z</time>
      </trkpt>
      <trkpt lat="44.94911" lon="5.34103">
        <ele>1218</ele>
        <time>2016-08-28T13:33:06Z</time>
      </trkpt>
      <trkpt lat="44.94921" lon="5.34094">
        <ele>1216</ele>
        <time>2016-08-28T13:33:09Z</time>
      </trkpt>
      <trkpt lat="44.94932" lon="5.34066">
        <ele>1209</ele>
        <time>2016-08-28T13:33:15Z</time>
      </trkpt>
      <trkpt lat="44.94933" lon="5.34053">
        <ele>1208</ele>
        <time>2016-08-28T13:33:17Z</time>
      </trkpt>
      <trkpt lat="44.94939" lon="5.34041">
        <ele>1206</ele>
        <time>2016-08-28T13:33:20Z</time>
      </trkpt>
      <trkpt lat="44.94947" lon="5.34024">
        <ele>1205</ele>
        <time>2016-08-28T13:33:22Z</time>
      </trkpt>
      <trkpt lat="44.94953" lon="5.34013">
        <ele>1204</ele>
        <time>2016-08-28T13:33:24Z</time>
      </trkpt>
      <trkpt lat="44.94972" lon="5.33991">
        <ele>1196</ele>
        <time>2016-08-28T13:33:29Z</time>
      </trkpt>
      <trkpt lat="44.94976" lon="5.33978">
        <ele>1195</ele>
        <time>2016-08-28T13:33:32Z</time>
      </trkpt>
      <trkpt lat="44.94979" lon="5.33959">
        <ele>1193</ele>
        <time>2016-08-28T13:33:35Z</time>
      </trkpt>
      <trkpt lat="44.94978" lon="5.33942">
        <ele>1192</ele>
        <time>2016-08-28T13:33:41Z</time>
      </trkpt>
      <trkpt lat="44.94979" lon="5.33926">
        <ele>1191</ele>
        <time>2016-08-28T13:33:43Z</time>
      </trkpt>
      <trkpt lat="44.94974" lon="5.33901">
        <ele>1185</ele>
        <time>2016-08-28T13:33:47Z</time>
      </trkpt>
      <trkpt lat="44.94967" lon="5.33887">
        <ele>1184</ele>
        <time>2016-08-28T13:33:49Z</time>
      </trkpt>
      <trkpt lat="44.94959" lon="5.33881">
        <ele>1184</ele>
        <time>2016-08-28T13:33:51Z</time>
      </trkpt>
      <trkpt lat="44.94952" lon="5.3387">
        <ele>1183</ele>
        <time>2016-08-28T13:33:53Z</time>
      </trkpt>
      <trkpt lat="44.94938" lon="5.33849">
        <ele>1180</ele>
        <time>2016-08-28T13:33:57Z</time>
      </trkpt>
      <trkpt lat="44.9493" lon="5.33832">
        <ele>1176</ele>
        <time>2016-08-28T13:34:00Z</time>
      </trkpt>
      <trkpt lat="44.94916" lon="5.33821">
        <ele>1170</ele>
        <time>2016-08-28T13:34:05Z</time>
      </trkpt>
      <trkpt lat="44.94907" lon="5.33806">
        <ele>1169</ele>
        <time>2016-08-28T13:34:08Z</time>
      </trkpt>
      <trkpt lat="44.94898" lon="5.33789">
        <ele>1169</ele>
        <time>2016-08-28T13:34:10Z</time>
      </trkpt>
      <trkpt lat="44.94887" lon="5.33767">
        <ele>1169</ele>
        <time>2016-08-28T13:34:13Z</time>
      </trkpt>
      <trkpt lat="44.9488" lon="5.33757">
        <ele>1168</ele>
        <time>2016-08-28T13:34:14Z</time>
      </trkpt>
      <trkpt lat="44.94871" lon="5.33743">
        <ele>1169</ele>
        <time>2016-08-28T13:34:16Z</time>
      </trkpt>
      <trkpt lat="44.94865" lon="5.33728">
        <ele>1169</ele>
        <time>2016-08-28T13:34:19Z</time>
      </trkpt>
      <trkpt lat="44.94858" lon="5.33716">
        <ele>1169</ele>
        <time>2016-08-28T13:34:23Z</time>
      </trkpt>
      <trkpt lat="44.94849" lon="5.33711">
        <ele>1169</ele>
        <time>2016-08-28T13:34:26Z</time>
      </trkpt>
      <trkpt lat="44.94842" lon="5.33701">
        <ele>1169</ele>
        <time>2016-08-28T13:34:29Z</time>
      </trkpt>
      <trkpt lat="44.94835" lon="5.33691">
        <ele>1169</ele>
        <time>2016-08-28T13:34:33Z</time>
      </trkpt>
      <trkpt lat="44.9483" lon="5.3368">
        <ele>1165</ele>
        <time>2016-08-28T13:34:38Z</time>
      </trkpt>
      <trkpt lat="44.94823" lon="5.3367">
        <ele>1165</ele>
        <time>2016-08-28T13:34:44Z</time>
      </trkpt>
      <trkpt lat="44.94818" lon="5.33657">
        <ele>1166</ele>
        <time>2016-08-28T13:34:50Z</time>
      </trkpt>
      <trkpt lat="44.94812" lon="5.33645">
        <ele>1165</ele>
        <time>2016-08-28T13:34:55Z</time>
      </trkpt>
      <trkpt lat="44.94807" lon="5.33633">
        <ele>1165</ele>
        <time>2016-08-28T13:34:59Z</time>
      </trkpt>
      <trkpt lat="44.94803" lon="5.3362">
        <ele>1165</ele>
        <time>2016-08-28T13:35:04Z</time>
      </trkpt>
      <trkpt lat="44.948" lon="5.33606">
        <ele>1165</ele>
        <time>2016-08-28T13:35:10Z</time>
      </trkpt>
      <trkpt lat="44.94794" lon="5.33592">
        <ele>1165</ele>
        <time>2016-08-28T13:35:16Z</time>
      </trkpt>
      <trkpt lat="44.94783" lon="5.33598">
        <ele>1165</ele>
        <time>2016-08-28T13:35:25Z</time>
      </trkpt>
      <trkpt lat="44.94778" lon="5.3361">
        <ele>1165</ele>
        <time>2016-08-28T13:35:29Z</time>
      </trkpt>
      <trkpt lat="44.94771" lon="5.3362">
        <ele>1164</ele>
        <time>2016-08-28T13:35:32Z</time>
      </trkpt>
      <trkpt lat="44.94763" lon="5.33629">
        <ele>1164</ele>
        <time>2016-08-28T13:35:34Z</time>
      </trkpt>
      <trkpt lat="44.94755" lon="5.33637">
        <ele>1163</ele>
        <time>2016-08-28T13:35:36Z</time>
      </trkpt>
      <trkpt lat="44.94747" lon="5.33645">
        <ele>1164</ele>
        <time>2016-08-28T13:35:39Z</time>
      </trkpt>
      <trkpt lat="44.94736" lon="5.33651">
        <ele>1164</ele>
        <time>2016-08-28T13:35:44Z</time>
      </trkpt>
      <trkpt lat="44.94726" lon="5.33654">
        <ele>1165</ele>
        <time>2016-08-28T13:35:49Z</time>
      </trkpt>
      <trkpt lat="44.94717" lon="5.33659">
        <ele>1165</ele>
        <time>2016-08-28T13:35:54Z</time>
      </trkpt>
      <trkpt lat="44.94707" lon="5.33662">
        <ele>1166</ele>
        <time>2016-08-28T13:35:59Z</time>
      </trkpt>
      <trkpt lat="44.94697" lon="5.33668">
        <ele>1163</ele>
        <time>2016-08-28T13:36:05Z</time>
      </trkpt>
      <trkpt lat="44.94688" lon="5.33672">
        <ele>1164</ele>
        <time>2016-08-28T13:36:09Z</time>
      </trkpt>
      <trkpt lat="44.94678" lon="5.33681">
        <ele>1164</ele>
        <time>2016-08-28T13:36:15Z</time>
      </trkpt>
      <trkpt lat="44.94669" lon="5.33686">
        <ele>1164</ele>
        <time>2016-08-28T13:36:19Z</time>
      </trkpt>
      <trkpt lat="44.9466" lon="5.33691">
        <ele>1166</ele>
        <time>2016-08-28T13:36:23Z</time>
      </trkpt>
      <trkpt lat="44.94649" lon="5.33696">
        <ele>1166</ele>
        <time>2016-08-28T13:36:28Z</time>
      </trkpt>
      <trkpt lat="44.94641" lon="5.33704">
        <ele>1166</ele>
        <time>2016-08-28T13:36:32Z</time>
      </trkpt>
      <trkpt lat="44.94632" lon="5.33712">
        <ele>1167</ele>
        <time>2016-08-28T13:36:36Z</time>
      </trkpt>
      <trkpt lat="44.94623" lon="5.33721">
        <ele>1167</ele>
        <time>2016-08-28T13:36:47Z</time>
      </trkpt>
      <trkpt lat="44.94613" lon="5.33727">
        <ele>1167</ele>
        <time>2016-08-28T13:36:52Z</time>
      </trkpt>
      <trkpt lat="44.94603" lon="5.33728">
        <ele>1167</ele>
        <time>2016-08-28T13:37:04Z</time>
      </trkpt>
      <trkpt lat="44.94593" lon="5.3373">
        <ele>1167</ele>
        <time>2016-08-28T13:37:27Z</time>
      </trkpt>
      <trkpt lat="44.94603" lon="5.33727">
        <ele>1167</ele>
        <time>2016-08-28T13:38:15Z</time>
      </trkpt>
      <trkpt lat="44.94593" lon="5.33734">
        <ele>1167</ele>
        <time>2016-08-28T13:38:56Z</time>
      </trkpt>
      <trkpt lat="44.94585" lon="5.3374">
        <ele>1166</ele>
        <time>2016-08-28T13:39:02Z</time>
      </trkpt>
      <trkpt lat="44.94571" lon="5.33743">
        <ele>1168</ele>
        <time>2016-08-28T13:39:09Z</time>
      </trkpt>
      <trkpt lat="44.94562" lon="5.33738">
        <ele>1170</ele>
        <time>2016-08-28T13:39:10Z</time>
      </trkpt>
      <trkpt lat="44.94551" lon="5.33736">
        <ele>1171</ele>
        <time>2016-08-28T13:39:14Z</time>
      </trkpt>
      <trkpt lat="44.9454" lon="5.33731">
        <ele>1171</ele>
        <time>2016-08-28T13:39:20Z</time>
      </trkpt>
      <trkpt lat="44.94531" lon="5.33725">
        <ele>1172</ele>
        <time>2016-08-28T13:39:36Z</time>
      </trkpt>
      <trkpt lat="44.94518" lon="5.3373">
        <ele>1172</ele>
        <time>2016-08-28T13:39:47Z</time>
      </trkpt>
      <trkpt lat="44.94508" lon="5.33727">
        <ele>1173</ele>
        <time>2016-08-28T13:39:52Z</time>
      </trkpt>
      <trkpt lat="44.945" lon="5.33721">
        <ele>1178</ele>
        <time>2016-08-28T13:40:01Z</time>
      </trkpt>
      <trkpt lat="44.9449" lon="5.3372">
        <ele>1178</ele>
        <time>2016-08-28T13:40:05Z</time>
      </trkpt>
      <trkpt lat="44.94482" lon="5.33707">
        <ele>1179</ele>
        <time>2016-08-28T13:40:14Z</time>
      </trkpt>
      <trkpt lat="44.9448" lon="5.33694">
        <ele>1179</ele>
        <time>2016-08-28T13:40:22Z</time>
      </trkpt>
      <trkpt lat="44.94473" lon="5.33685">
        <ele>1179</ele>
        <time>2016-08-28T13:40:28Z</time>
      </trkpt>
      <trkpt lat="44.94461" lon="5.33686">
        <ele>1180</ele>
        <time>2016-08-28T13:40:31Z</time>
      </trkpt>
      <trkpt lat="44.9445" lon="5.33685">
        <ele>1180</ele>
        <time>2016-08-28T13:40:35Z</time>
      </trkpt>
      <trkpt lat="44.94441" lon="5.33677">
        <ele>1181</ele>
        <time>2016-08-28T13:40:41Z</time>
      </trkpt>
      <trkpt lat="44.94431" lon="5.3367">
        <ele>1181</ele>
        <time>2016-08-28T13:40:48Z</time>
      </trkpt>
      <trkpt lat="44.94421" lon="5.33662">
        <ele>1183</ele>
        <time>2016-08-28T13:40:56Z</time>
      </trkpt>
      <trkpt lat="44.94412" lon="5.33663">
        <ele>1185</ele>
        <time>2016-08-28T13:40:59Z</time>
      </trkpt>
      <trkpt lat="44.94405" lon="5.33652">
        <ele>1188</ele>
        <time>2016-08-28T13:41:07Z</time>
      </trkpt>
      <trkpt lat="44.944" lon="5.33641">
        <ele>1191</ele>
        <time>2016-08-28T13:41:21Z</time>
      </trkpt>
      <trkpt lat="44.94393" lon="5.33632">
        <ele>1192</ele>
        <time>2016-08-28T13:41:38Z</time>
      </trkpt>
      <trkpt lat="44.94383" lon="5.33625">
        <ele>1193</ele>
        <time>2016-08-28T13:41:47Z</time>
      </trkpt>
      <trkpt lat="44.94375" lon="5.33617">
        <ele>1194</ele>
        <time>2016-08-28T13:41:59Z</time>
      </trkpt>
      <trkpt lat="44.94364" lon="5.33614">
        <ele>1194</ele>
        <time>2016-08-28T13:42:07Z</time>
      </trkpt>
      <trkpt lat="44.94354" lon="5.33616">
        <ele>1194</ele>
        <time>2016-08-28T13:42:12Z</time>
      </trkpt>
      <trkpt lat="44.94343" lon="5.33615">
        <ele>1195</ele>
        <time>2016-08-28T13:42:18Z</time>
      </trkpt>
      <trkpt lat="44.94334" lon="5.33606">
        <ele>1195</ele>
        <time>2016-08-28T13:42:24Z</time>
      </trkpt>
      <trkpt lat="44.94329" lon="5.33594">
        <ele>1198</ele>
        <time>2016-08-28T13:42:28Z</time>
      </trkpt>
      <trkpt lat="44.94323" lon="5.33579">
        <ele>1197</ele>
        <time>2016-08-28T13:42:32Z</time>
      </trkpt>
      <trkpt lat="44.94316" lon="5.33565">
        <ele>1198</ele>
        <time>2016-08-28T13:42:36Z</time>
      </trkpt>
      <trkpt lat="44.94306" lon="5.33551">
        <ele>1198</ele>
        <time>2016-08-28T13:42:41Z</time>
      </trkpt>
      <trkpt lat="44.94295" lon="5.33545">
        <ele>1198</ele>
        <time>2016-08-28T13:42:43Z</time>
      </trkpt>
      <trkpt lat="44.94287" lon="5.33531">
        <ele>1198</ele>
        <time>2016-08-28T13:42:47Z</time>
      </trkpt>
      <trkpt lat="44.94287" lon="5.33516">
        <ele>1198</ele>
        <time>2016-08-28T13:42:50Z</time>
      </trkpt>
      <trkpt lat="44.94284" lon="5.33502">
        <ele>1198</ele>
        <time>2016-08-28T13:42:54Z</time>
      </trkpt>
      <trkpt lat="44.9428" lon="5.33488">
        <ele>1200</ele>
        <time>2016-08-28T13:42:57Z</time>
      </trkpt>
      <trkpt lat="44.94277" lon="5.33473">
        <ele>1200</ele>
        <time>2016-08-28T13:43:02Z</time>
      </trkpt>
      <trkpt lat="44.94273" lon="5.33459">
        <ele>1201</ele>
        <time>2016-08-28T13:43:32Z</time>
      </trkpt>
      <trkpt lat="44.94273" lon="5.33446">
        <ele>1201</ele>
        <time>2016-08-28T13:43:48Z</time>
      </trkpt>
      <trkpt lat="44.94273" lon="5.33432">
        <ele>1201</ele>
        <time>2016-08-28T13:43:55Z</time>
      </trkpt>
      <trkpt lat="44.94266" lon="5.33422">
        <ele>1201</ele>
        <time>2016-08-28T13:44:02Z</time>
      </trkpt>
      <trkpt lat="44.94257" lon="5.33412">
        <ele>1200</ele>
        <time>2016-08-28T13:44:09Z</time>
      </trkpt>
      <trkpt lat="44.94248" lon="5.33406">
        <ele>1198</ele>
        <time>2016-08-28T13:44:20Z</time>
      </trkpt>
      <trkpt lat="44.9424" lon="5.334">
        <ele>1196</ele>
        <time>2016-08-28T13:44:29Z</time>
      </trkpt>
      <trkpt lat="44.94243" lon="5.33387">
        <ele>1195</ele>
        <time>2016-08-28T13:44:34Z</time>
      </trkpt>
      <trkpt lat="44.94249" lon="5.33375">
        <ele>1194</ele>
        <time>2016-08-28T13:44:39Z</time>
      </trkpt>
      <trkpt lat="44.94255" lon="5.33363">
        <ele>1196</ele>
        <time>2016-08-28T13:44:43Z</time>
      </trkpt>
      <trkpt lat="44.94262" lon="5.33352">
        <ele>1196</ele>
        <time>2016-08-28T13:44:47Z</time>
      </trkpt>
      <trkpt lat="44.94267" lon="5.3334">
        <ele>1195</ele>
        <time>2016-08-28T13:44:50Z</time>
      </trkpt>
      <trkpt lat="44.94274" lon="5.33329">
        <ele>1189</ele>
        <time>2016-08-28T13:44:53Z</time>
      </trkpt>
      <trkpt lat="44.94282" lon="5.33316">
        <ele>1189</ele>
        <time>2016-08-28T13:44:57Z</time>
      </trkpt>
      <trkpt lat="44.94289" lon="5.33302">
        <ele>1188</ele>
        <time>2016-08-28T13:45:00Z</time>
      </trkpt>
      <trkpt lat="44.94296" lon="5.33292">
        <ele>1187</ele>
        <time>2016-08-28T13:45:03Z</time>
      </trkpt>
      <trkpt lat="44.94303" lon="5.33279">
        <ele>1186</ele>
        <time>2016-08-28T13:45:06Z</time>
      </trkpt>
      <trkpt lat="44.94308" lon="5.33264">
        <ele>1185</ele>
        <time>2016-08-28T13:45:08Z</time>
      </trkpt>
      <trkpt lat="44.94313" lon="5.33251">
        <ele>1185</ele>
        <time>2016-08-28T13:45:10Z</time>
      </trkpt>
      <trkpt lat="44.9432" lon="5.33237">
        <ele>1177</ele>
        <time>2016-08-28T13:45:13Z</time>
      </trkpt>
      <trkpt lat="44.94331" lon="5.33231">
        <ele>1177</ele>
        <time>2016-08-28T13:45:18Z</time>
      </trkpt>
      <trkpt lat="44.9434" lon="5.33221">
        <ele>1178</ele>
        <time>2016-08-28T13:45:28Z</time>
      </trkpt>
      <trkpt lat="44.94338" lon="5.33204">
        <ele>1176</ele>
        <time>2016-08-28T13:45:36Z</time>
      </trkpt>
      <trkpt lat="44.94341" lon="5.33191">
        <ele>1174</ele>
        <time>2016-08-28T13:45:39Z</time>
      </trkpt>
      <trkpt lat="44.94349" lon="5.33181">
        <ele>1173</ele>
        <time>2016-08-28T13:45:44Z</time>
      </trkpt>
      <trkpt lat="44.94356" lon="5.3317">
        <ele>1173</ele>
        <time>2016-08-28T13:45:48Z</time>
      </trkpt>
      <trkpt lat="44.94361" lon="5.33154">
        <ele>1164</ele>
        <time>2016-08-28T13:45:52Z</time>
      </trkpt>
      <trkpt lat="44.94368" lon="5.33143">
        <ele>1163</ele>
        <time>2016-08-28T13:45:57Z</time>
      </trkpt>
      <trkpt lat="44.94374" lon="5.33132">
        <ele>1162</ele>
        <time>2016-08-28T13:46:02Z</time>
      </trkpt>
      <trkpt lat="44.94387" lon="5.33118">
        <ele>1161</ele>
        <time>2016-08-28T13:46:09Z</time>
      </trkpt>
      <trkpt lat="44.94398" lon="5.33107">
        <ele>1160</ele>
        <time>2016-08-28T13:46:13Z</time>
      </trkpt>
      <trkpt lat="44.944" lon="5.33093">
        <ele>1159</ele>
        <time>2016-08-28T13:46:25Z</time>
      </trkpt>
      <trkpt lat="44.94395" lon="5.33081">
        <ele>1151</ele>
        <time>2016-08-28T13:46:32Z</time>
      </trkpt>
      <trkpt lat="44.94393" lon="5.33094">
        <ele>1160</ele>
        <time>2016-08-28T13:47:05Z</time>
      </trkpt>
      <trkpt lat="44.94393" lon="5.33109">
        <ele>1161</ele>
        <time>2016-08-28T13:47:12Z</time>
      </trkpt>
      <trkpt lat="44.94383" lon="5.33118">
        <ele>1161</ele>
        <time>2016-08-28T13:47:16Z</time>
      </trkpt>
      <trkpt lat="44.94393" lon="5.33117">
        <ele>1161</ele>
        <time>2016-08-28T13:47:26Z</time>
      </trkpt>
      <trkpt lat="44.94407" lon="5.33094">
        <ele>1159</ele>
        <time>2016-08-28T13:47:33Z</time>
      </trkpt>
      <trkpt lat="44.94416" lon="5.33085">
        <ele>1157</ele>
        <time>2016-08-28T13:47:37Z</time>
      </trkpt>
      <trkpt lat="44.94423" lon="5.33075">
        <ele>1155</ele>
        <time>2016-08-28T13:47:40Z</time>
      </trkpt>
      <trkpt lat="44.9443" lon="5.33062">
        <ele>1153</ele>
        <time>2016-08-28T13:47:46Z</time>
      </trkpt>
      <trkpt lat="44.94433" lon="5.33049">
        <ele>1151</ele>
        <time>2016-08-28T13:47:50Z</time>
      </trkpt>
      <trkpt lat="44.94432" lon="5.33032">
        <ele>1149</ele>
        <time>2016-08-28T13:47:58Z</time>
      </trkpt>
      <trkpt lat="44.94435" lon="5.33015">
        <ele>1147</ele>
        <time>2016-08-28T13:48:02Z</time>
      </trkpt>
      <trkpt lat="44.94438" lon="5.33">
        <ele>1146</ele>
        <time>2016-08-28T13:48:05Z</time>
      </trkpt>
      <trkpt lat="44.94446" lon="5.32985">
        <ele>1139</ele>
        <time>2016-08-28T13:48:08Z</time>
      </trkpt>
      <trkpt lat="44.94451" lon="5.32973">
        <ele>1138</ele>
        <time>2016-08-28T13:48:10Z</time>
      </trkpt>
      <trkpt lat="44.94456" lon="5.32956">
        <ele>1137</ele>
        <time>2016-08-28T13:48:14Z</time>
      </trkpt>
      <trkpt lat="44.9446" lon="5.32943">
        <ele>1136</ele>
        <time>2016-08-28T13:48:17Z</time>
      </trkpt>
      <trkpt lat="44.94465" lon="5.32931">
        <ele>1135</ele>
        <time>2016-08-28T13:48:21Z</time>
      </trkpt>
      <trkpt lat="44.94472" lon="5.32919">
        <ele>1135</ele>
        <time>2016-08-28T13:48:25Z</time>
      </trkpt>
      <trkpt lat="44.94472" lon="5.32905">
        <ele>1128</ele>
        <time>2016-08-28T13:48:30Z</time>
      </trkpt>
      <trkpt lat="44.94474" lon="5.32891">
        <ele>1127</ele>
        <time>2016-08-28T13:48:34Z</time>
      </trkpt>
      <trkpt lat="44.94477" lon="5.32877">
        <ele>1126</ele>
        <time>2016-08-28T13:48:37Z</time>
      </trkpt>
      <trkpt lat="44.94483" lon="5.32853">
        <ele>1125</ele>
        <time>2016-08-28T13:48:41Z</time>
      </trkpt>
      <trkpt lat="44.94481" lon="5.32834">
        <ele>1125</ele>
        <time>2016-08-28T13:48:45Z</time>
      </trkpt>
      <trkpt lat="44.94479" lon="5.32813">
        <ele>1120</ele>
        <time>2016-08-28T13:48:48Z</time>
      </trkpt>
      <trkpt lat="44.94478" lon="5.32789">
        <ele>1119</ele>
        <time>2016-08-28T13:48:52Z</time>
      </trkpt>
      <trkpt lat="44.94478" lon="5.32775">
        <ele>1118</ele>
        <time>2016-08-28T13:48:53Z</time>
      </trkpt>
      <trkpt lat="44.94479" lon="5.3276">
        <ele>1118</ele>
        <time>2016-08-28T13:48:55Z</time>
      </trkpt>
      <trkpt lat="44.94484" lon="5.32745">
        <ele>1115</ele>
        <time>2016-08-28T13:48:58Z</time>
      </trkpt>
      <trkpt lat="44.9449" lon="5.32731">
        <ele>1114</ele>
        <time>2016-08-28T13:49:01Z</time>
      </trkpt>
      <trkpt lat="44.945" lon="5.32731">
        <ele>1116</ele>
        <time>2016-08-28T13:49:11Z</time>
      </trkpt>
      <trkpt lat="44.94509" lon="5.32736">
        <ele>1117</ele>
        <time>2016-08-28T13:49:19Z</time>
      </trkpt>
      <trkpt lat="44.94519" lon="5.32729">
        <ele>1117</ele>
        <time>2016-08-28T13:49:30Z</time>
      </trkpt>
      <trkpt lat="44.94528" lon="5.32724">
        <ele>1117</ele>
        <time>2016-08-28T13:49:39Z</time>
      </trkpt>
      <trkpt lat="44.94537" lon="5.32721">
        <ele>1117</ele>
        <time>2016-08-28T13:49:50Z</time>
      </trkpt>
      <trkpt lat="44.94546" lon="5.32714">
        <ele>1117</ele>
        <time>2016-08-28T13:49:57Z</time>
      </trkpt>
      <trkpt lat="44.94556" lon="5.32711">
        <ele>1117</ele>
        <time>2016-08-28T13:50:04Z</time>
      </trkpt>
      <trkpt lat="44.94564" lon="5.32705">
        <ele>1117</ele>
        <time>2016-08-28T13:50:09Z</time>
      </trkpt>
      <trkpt lat="44.94572" lon="5.32697">
        <ele>1117</ele>
        <time>2016-08-28T13:50:15Z</time>
      </trkpt>
      <trkpt lat="44.94583" lon="5.32695">
        <ele>1117</ele>
        <time>2016-08-28T13:50:21Z</time>
      </trkpt>
      <trkpt lat="44.94593" lon="5.32694">
        <ele>1124</ele>
        <time>2016-08-28T13:50:28Z</time>
      </trkpt>
      <trkpt lat="44.94603" lon="5.32691">
        <ele>1124</ele>
        <time>2016-08-28T13:50:40Z</time>
      </trkpt>
      <trkpt lat="44.94613" lon="5.32685">
        <ele>1125</ele>
        <time>2016-08-28T13:51:10Z</time>
      </trkpt>
      <trkpt lat="44.94622" lon="5.32691">
        <ele>1127</ele>
        <time>2016-08-28T13:51:16Z</time>
      </trkpt>
      <trkpt lat="44.94619" lon="5.32678">
        <ele>1126</ele>
        <time>2016-08-28T13:51:25Z</time>
      </trkpt>
      <trkpt lat="44.94627" lon="5.32659">
        <ele>1117</ele>
        <time>2016-08-28T13:51:29Z</time>
      </trkpt>
      <trkpt lat="44.94636" lon="5.32645">
        <ele>1117</ele>
        <time>2016-08-28T13:51:31Z</time>
      </trkpt>
      <trkpt lat="44.94643" lon="5.32632">
        <ele>1116</ele>
        <time>2016-08-28T13:51:33Z</time>
      </trkpt>
      <trkpt lat="44.94653" lon="5.32623">
        <ele>1116</ele>
        <time>2016-08-28T13:51:35Z</time>
      </trkpt>
      <trkpt lat="44.94662" lon="5.32617">
        <ele>1116</ele>
        <time>2016-08-28T13:51:37Z</time>
      </trkpt>
      <trkpt lat="44.94673" lon="5.32615">
        <ele>1119</ele>
        <time>2016-08-28T13:51:40Z</time>
      </trkpt>
      <trkpt lat="44.94684" lon="5.32611">
        <ele>1119</ele>
        <time>2016-08-28T13:51:46Z</time>
      </trkpt>
      <trkpt lat="44.94696" lon="5.32607">
        <ele>1119</ele>
        <time>2016-08-28T13:51:50Z</time>
      </trkpt>
      <trkpt lat="44.94712" lon="5.32596">
        <ele>1119</ele>
        <time>2016-08-28T13:51:57Z</time>
      </trkpt>
      <trkpt lat="44.94719" lon="5.32586">
        <ele>1118</ele>
        <time>2016-08-28T13:52:00Z</time>
      </trkpt>
      <trkpt lat="44.94729" lon="5.32582">
        <ele>1109</ele>
        <time>2016-08-28T13:52:04Z</time>
      </trkpt>
      <trkpt lat="44.94739" lon="5.32581">
        <ele>1111</ele>
        <time>2016-08-28T13:52:08Z</time>
      </trkpt>
      <trkpt lat="44.9475" lon="5.32589">
        <ele>1115</ele>
        <time>2016-08-28T13:52:12Z</time>
      </trkpt>
      <trkpt lat="44.94761" lon="5.32586">
        <ele>1115</ele>
        <time>2016-08-28T13:52:16Z</time>
      </trkpt>
      <trkpt lat="44.94784" lon="5.32573">
        <ele>1107</ele>
        <time>2016-08-28T13:52:23Z</time>
      </trkpt>
      <trkpt lat="44.94792" lon="5.32564">
        <ele>1106</ele>
        <time>2016-08-28T13:52:24Z</time>
      </trkpt>
      <trkpt lat="44.94803" lon="5.32551">
        <ele>1105</ele>
        <time>2016-08-28T13:52:27Z</time>
      </trkpt>
      <trkpt lat="44.94814" lon="5.32544">
        <ele>1104</ele>
        <time>2016-08-28T13:52:30Z</time>
      </trkpt>
      <trkpt lat="44.94824" lon="5.32537">
        <ele>1103</ele>
        <time>2016-08-28T13:52:33Z</time>
      </trkpt>
      <trkpt lat="44.94833" lon="5.3253">
        <ele>1103</ele>
        <time>2016-08-28T13:52:36Z</time>
      </trkpt>
      <trkpt lat="44.94842" lon="5.32526">
        <ele>1098</ele>
        <time>2016-08-28T13:52:39Z</time>
      </trkpt>
      <trkpt lat="44.94851" lon="5.3252">
        <ele>1098</ele>
        <time>2016-08-28T13:52:42Z</time>
      </trkpt>
      <trkpt lat="44.94861" lon="5.32514">
        <ele>1097</ele>
        <time>2016-08-28T13:52:46Z</time>
      </trkpt>
      <trkpt lat="44.94872" lon="5.32505">
        <ele>1096</ele>
        <time>2016-08-28T13:52:53Z</time>
      </trkpt>
      <trkpt lat="44.94873" lon="5.32488">
        <ele>1089</ele>
        <time>2016-08-28T13:52:57Z</time>
      </trkpt>
      <trkpt lat="44.94872" lon="5.32473">
        <ele>1088</ele>
        <time>2016-08-28T13:52:59Z</time>
      </trkpt>
      <trkpt lat="44.9487" lon="5.32458">
        <ele>1087</ele>
        <time>2016-08-28T13:53:01Z</time>
      </trkpt>
      <trkpt lat="44.94868" lon="5.32442">
        <ele>1087</ele>
        <time>2016-08-28T13:53:03Z</time>
      </trkpt>
      <trkpt lat="44.94865" lon="5.32427">
        <ele>1086</ele>
        <time>2016-08-28T13:53:05Z</time>
      </trkpt>
      <trkpt lat="44.94861" lon="5.32412">
        <ele>1082</ele>
        <time>2016-08-28T13:53:07Z</time>
      </trkpt>
      <trkpt lat="44.94859" lon="5.32396">
        <ele>1082</ele>
        <time>2016-08-28T13:53:09Z</time>
      </trkpt>
      <trkpt lat="44.94856" lon="5.32381">
        <ele>1081</ele>
        <time>2016-08-28T13:53:11Z</time>
      </trkpt>
      <trkpt lat="44.94855" lon="5.32368">
        <ele>1081</ele>
        <time>2016-08-28T13:53:13Z</time>
      </trkpt>
      <trkpt lat="44.94853" lon="5.3235">
        <ele>1081</ele>
        <time>2016-08-28T13:53:16Z</time>
      </trkpt>
      <trkpt lat="44.94852" lon="5.32336">
        <ele>1080</ele>
        <time>2016-08-28T13:53:19Z</time>
      </trkpt>
      <trkpt lat="44.94848" lon="5.32322">
        <ele>1080</ele>
        <time>2016-08-28T13:53:25Z</time>
      </trkpt>
      <trkpt lat="44.94847" lon="5.32308">
        <ele>1080</ele>
        <time>2016-08-28T13:53:30Z</time>
      </trkpt>
      <trkpt lat="44.94854" lon="5.32296">
        <ele>1079</ele>
        <time>2016-08-28T13:53:36Z</time>
      </trkpt>
      <trkpt lat="44.94852" lon="5.32282">
        <ele>1079</ele>
        <time>2016-08-28T13:53:42Z</time>
      </trkpt>
      <trkpt lat="44.94848" lon="5.32271">
        <ele>1079</ele>
        <time>2016-08-28T13:53:48Z</time>
      </trkpt>
      <trkpt lat="44.94857" lon="5.32264">
        <ele>1079</ele>
        <time>2016-08-28T13:53:53Z</time>
      </trkpt>
      <trkpt lat="44.94867" lon="5.32258">
        <ele>1079</ele>
        <time>2016-08-28T13:53:58Z</time>
      </trkpt>
      <trkpt lat="44.94877" lon="5.32254">
        <ele>1080</ele>
        <time>2016-08-28T13:54:03Z</time>
      </trkpt>
      <trkpt lat="44.94888" lon="5.32249">
        <ele>1082</ele>
        <time>2016-08-28T13:54:08Z</time>
      </trkpt>
      <trkpt lat="44.94897" lon="5.32245">
        <ele>1082</ele>
        <time>2016-08-28T13:54:12Z</time>
      </trkpt>
      <trkpt lat="44.94905" lon="5.32241">
        <ele>1082</ele>
        <time>2016-08-28T13:54:16Z</time>
      </trkpt>
      <trkpt lat="44.94914" lon="5.32237">
        <ele>1082</ele>
        <time>2016-08-28T13:54:20Z</time>
      </trkpt>
      <trkpt lat="44.94925" lon="5.32235">
        <ele>1085</ele>
        <time>2016-08-28T13:54:25Z</time>
      </trkpt>
      <trkpt lat="44.94934" lon="5.32233">
        <ele>1086</ele>
        <time>2016-08-28T13:54:29Z</time>
      </trkpt>
      <trkpt lat="44.94946" lon="5.32237">
        <ele>1087</ele>
        <time>2016-08-28T13:54:34Z</time>
      </trkpt>
      <trkpt lat="44.94956" lon="5.32245">
        <ele>1087</ele>
        <time>2016-08-28T13:54:38Z</time>
      </trkpt>
      <trkpt lat="44.94964" lon="5.32253">
        <ele>1081</ele>
        <time>2016-08-28T13:54:41Z</time>
      </trkpt>
      <trkpt lat="44.94974" lon="5.32261">
        <ele>1082</ele>
        <time>2016-08-28T13:54:44Z</time>
      </trkpt>
      <trkpt lat="44.94985" lon="5.32271">
        <ele>1082</ele>
        <time>2016-08-28T13:54:47Z</time>
      </trkpt>
      <trkpt lat="44.94994" lon="5.32277">
        <ele>1081</ele>
        <time>2016-08-28T13:54:49Z</time>
      </trkpt>
      <trkpt lat="44.95003" lon="5.32284">
        <ele>1085</ele>
        <time>2016-08-28T13:54:51Z</time>
      </trkpt>
      <trkpt lat="44.95013" lon="5.32292">
        <ele>1084</ele>
        <time>2016-08-28T13:54:53Z</time>
      </trkpt>
      <trkpt lat="44.95022" lon="5.32299">
        <ele>1084</ele>
        <time>2016-08-28T13:54:55Z</time>
      </trkpt>
      <trkpt lat="44.95032" lon="5.32307">
        <ele>1084</ele>
        <time>2016-08-28T13:54:57Z</time>
      </trkpt>
      <trkpt lat="44.95042" lon="5.32314">
        <ele>1084</ele>
        <time>2016-08-28T13:54:59Z</time>
      </trkpt>
      <trkpt lat="44.95052" lon="5.3232">
        <ele>1084</ele>
        <time>2016-08-28T13:55:01Z</time>
      </trkpt>
      <trkpt lat="44.95061" lon="5.32327">
        <ele>1084</ele>
        <time>2016-08-28T13:55:03Z</time>
      </trkpt>
      <trkpt lat="44.95071" lon="5.32335">
        <ele>1080</ele>
        <time>2016-08-28T13:55:05Z</time>
      </trkpt>
      <trkpt lat="44.95081" lon="5.32344">
        <ele>1080</ele>
        <time>2016-08-28T13:55:07Z</time>
      </trkpt>
      <trkpt lat="44.95092" lon="5.32352">
        <ele>1081</ele>
        <time>2016-08-28T13:55:09Z</time>
      </trkpt>
      <trkpt lat="44.95102" lon="5.32361">
        <ele>1080</ele>
        <time>2016-08-28T13:55:11Z</time>
      </trkpt>
      <trkpt lat="44.95113" lon="5.3237">
        <ele>1080</ele>
        <time>2016-08-28T13:55:13Z</time>
      </trkpt>
      <trkpt lat="44.95124" lon="5.3238">
        <ele>1080</ele>
        <time>2016-08-28T13:55:15Z</time>
      </trkpt>
      <trkpt lat="44.95136" lon="5.32389">
        <ele>1079</ele>
        <time>2016-08-28T13:55:17Z</time>
      </trkpt>
      <trkpt lat="44.95147" lon="5.32398">
        <ele>1078</ele>
        <time>2016-08-28T13:55:19Z</time>
      </trkpt>
      <trkpt lat="44.95158" lon="5.32407">
        <ele>1077</ele>
        <time>2016-08-28T13:55:21Z</time>
      </trkpt>
      <trkpt lat="44.95168" lon="5.32416">
        <ele>1075</ele>
        <time>2016-08-28T13:55:23Z</time>
      </trkpt>
      <trkpt lat="44.95177" lon="5.32424">
        <ele>1075</ele>
        <time>2016-08-28T13:55:25Z</time>
      </trkpt>
      <trkpt lat="44.95185" lon="5.32432">
        <ele>1075</ele>
        <time>2016-08-28T13:55:27Z</time>
      </trkpt>
      <trkpt lat="44.95193" lon="5.32438">
        <ele>1075</ele>
        <time>2016-08-28T13:55:29Z</time>
      </trkpt>
      <trkpt lat="44.95203" lon="5.32447">
        <ele>1075</ele>
        <time>2016-08-28T13:55:32Z</time>
      </trkpt>
      <trkpt lat="44.95215" lon="5.32456">
        <ele>1075</ele>
        <time>2016-08-28T13:55:35Z</time>
      </trkpt>
      <trkpt lat="44.95226" lon="5.32463">
        <ele>1075</ele>
        <time>2016-08-28T13:55:38Z</time>
      </trkpt>
      <trkpt lat="44.9524" lon="5.3247">
        <ele>1074</ele>
        <time>2016-08-28T13:55:41Z</time>
      </trkpt>
      <trkpt lat="44.95253" lon="5.32477">
        <ele>1076</ele>
        <time>2016-08-28T13:55:44Z</time>
      </trkpt>
      <trkpt lat="44.95262" lon="5.32481">
        <ele>1075</ele>
        <time>2016-08-28T13:55:46Z</time>
      </trkpt>
      <trkpt lat="44.95275" lon="5.32487">
        <ele>1076</ele>
        <time>2016-08-28T13:55:49Z</time>
      </trkpt>
      <trkpt lat="44.95288" lon="5.32493">
        <ele>1076</ele>
        <time>2016-08-28T13:55:52Z</time>
      </trkpt>
      <trkpt lat="44.95296" lon="5.32497">
        <ele>1077</ele>
        <time>2016-08-28T13:55:54Z</time>
      </trkpt>
      <trkpt lat="44.95309" lon="5.32502">
        <ele>1073</ele>
        <time>2016-08-28T13:55:57Z</time>
      </trkpt>
      <trkpt lat="44.95322" lon="5.32508">
        <ele>1074</ele>
        <time>2016-08-28T13:56:00Z</time>
      </trkpt>
      <trkpt lat="44.95334" lon="5.32515">
        <ele>1075</ele>
        <time>2016-08-28T13:56:03Z</time>
      </trkpt>
      <trkpt lat="44.95344" lon="5.32522">
        <ele>1075</ele>
        <time>2016-08-28T13:56:06Z</time>
      </trkpt>
      <trkpt lat="44.95355" lon="5.32528">
        <ele>1075</ele>
        <time>2016-08-28T13:56:09Z</time>
      </trkpt>
      <trkpt lat="44.95367" lon="5.3253">
        <ele>1075</ele>
        <time>2016-08-28T13:56:12Z</time>
      </trkpt>
      <trkpt lat="44.95376" lon="5.32532">
        <ele>1075</ele>
        <time>2016-08-28T13:56:15Z</time>
      </trkpt>
      <trkpt lat="44.95388" lon="5.32534">
        <ele>1075</ele>
        <time>2016-08-28T13:56:19Z</time>
      </trkpt>
      <trkpt lat="44.95399" lon="5.32538">
        <ele>1075</ele>
        <time>2016-08-28T13:56:23Z</time>
      </trkpt>
      <trkpt lat="44.9541" lon="5.32541">
        <ele>1075</ele>
        <time>2016-08-28T13:56:26Z</time>
      </trkpt>
      <trkpt lat="44.9542" lon="5.32545">
        <ele>1076</ele>
        <time>2016-08-28T13:56:29Z</time>
      </trkpt>
      <trkpt lat="44.95431" lon="5.32549">
        <ele>1076</ele>
        <time>2016-08-28T13:56:32Z</time>
      </trkpt>
      <trkpt lat="44.95442" lon="5.32553">
        <ele>1076</ele>
        <time>2016-08-28T13:56:35Z</time>
      </trkpt>
      <trkpt lat="44.95453" lon="5.32556">
        <ele>1076</ele>
        <time>2016-08-28T13:56:38Z</time>
      </trkpt>
      <trkpt lat="44.95463" lon="5.3256">
        <ele>1077</ele>
        <time>2016-08-28T13:56:41Z</time>
      </trkpt>
      <trkpt lat="44.95472" lon="5.32564">
        <ele>1077</ele>
        <time>2016-08-28T13:56:44Z</time>
      </trkpt>
      <trkpt lat="44.95483" lon="5.32567">
        <ele>1076</ele>
        <time>2016-08-28T13:56:48Z</time>
      </trkpt>
      <trkpt lat="44.95493" lon="5.32572">
        <ele>1076</ele>
        <time>2016-08-28T13:56:52Z</time>
      </trkpt>
      <trkpt lat="44.95502" lon="5.32576">
        <ele>1077</ele>
        <time>2016-08-28T13:56:57Z</time>
      </trkpt>
      <trkpt lat="44.95513" lon="5.3258">
        <ele>1078</ele>
        <time>2016-08-28T13:57:02Z</time>
      </trkpt>
      <trkpt lat="44.95524" lon="5.32582">
        <ele>1080</ele>
        <time>2016-08-28T13:57:07Z</time>
      </trkpt>
      <trkpt lat="44.95533" lon="5.32587">
        <ele>1081</ele>
        <time>2016-08-28T13:57:12Z</time>
      </trkpt>
      <trkpt lat="44.95543" lon="5.32589">
        <ele>1082</ele>
        <time>2016-08-28T13:57:17Z</time>
      </trkpt>
      <trkpt lat="44.95552" lon="5.32586">
        <ele>1083</ele>
        <time>2016-08-28T13:57:23Z</time>
      </trkpt>
      <trkpt lat="44.95562" lon="5.32581">
        <ele>1084</ele>
        <time>2016-08-28T13:57:29Z</time>
      </trkpt>
      <trkpt lat="44.9557" lon="5.32572">
        <ele>1084</ele>
        <time>2016-08-28T13:57:35Z</time>
      </trkpt>
      <trkpt lat="44.9558" lon="5.32569">
        <ele>1084</ele>
        <time>2016-08-28T13:57:41Z</time>
      </trkpt>
      <trkpt lat="44.9559" lon="5.32564">
        <ele>1090</ele>
        <time>2016-08-28T13:57:47Z</time>
      </trkpt>
      <trkpt lat="44.95598" lon="5.32555">
        <ele>1091</ele>
        <time>2016-08-28T13:57:53Z</time>
      </trkpt>
      <trkpt lat="44.95602" lon="5.32542">
        <ele>1092</ele>
        <time>2016-08-28T13:57:57Z</time>
      </trkpt>
      <trkpt lat="44.95604" lon="5.32527">
        <ele>1093</ele>
        <time>2016-08-28T13:58:01Z</time>
      </trkpt>
      <trkpt lat="44.95608" lon="5.32513">
        <ele>1093</ele>
        <time>2016-08-28T13:58:05Z</time>
      </trkpt>
      <trkpt lat="44.95614" lon="5.32502">
        <ele>1093</ele>
        <time>2016-08-28T13:58:15Z</time>
      </trkpt>
      <trkpt lat="44.9562" lon="5.32491">
        <ele>1099</ele>
        <time>2016-08-28T13:58:20Z</time>
      </trkpt>
      <trkpt lat="44.95629" lon="5.32485">
        <ele>1100</ele>
        <time>2016-08-28T13:58:26Z</time>
      </trkpt>
      <trkpt lat="44.95638" lon="5.32474">
        <ele>1101</ele>
        <time>2016-08-28T13:58:37Z</time>
      </trkpt>
      <trkpt lat="44.95647" lon="5.32477">
        <ele>1101</ele>
        <time>2016-08-28T13:58:59Z</time>
      </trkpt>
      <trkpt lat="44.95657" lon="5.32479">
        <ele>1100</ele>
        <time>2016-08-28T13:59:11Z</time>
      </trkpt>
      <trkpt lat="44.95668" lon="5.32482">
        <ele>1105</ele>
        <time>2016-08-28T13:59:18Z</time>
      </trkpt>
      <trkpt lat="44.95678" lon="5.32486">
        <ele>1105</ele>
        <time>2016-08-28T13:59:25Z</time>
      </trkpt>
      <trkpt lat="44.95688" lon="5.32496">
        <ele>1107</ele>
        <time>2016-08-28T13:59:31Z</time>
      </trkpt>
      <trkpt lat="44.95696" lon="5.32503">
        <ele>1106</ele>
        <time>2016-08-28T13:59:42Z</time>
      </trkpt>
      <trkpt lat="44.95692" lon="5.32517">
        <ele>1105</ele>
        <time>2016-08-28T13:59:58Z</time>
      </trkpt>
      <trkpt lat="44.95693" lon="5.32532">
        <ele>1106</ele>
        <time>2016-08-28T14:00:08Z</time>
      </trkpt>
      <trkpt lat="44.95698" lon="5.32545">
        <ele>1107</ele>
        <time>2016-08-28T14:00:13Z</time>
      </trkpt>
      <trkpt lat="44.95703" lon="5.32557">
        <ele>1107</ele>
        <time>2016-08-28T14:00:22Z</time>
      </trkpt>
      <trkpt lat="44.95712" lon="5.32564">
        <ele>1108</ele>
        <time>2016-08-28T14:00:25Z</time>
      </trkpt>
      <trkpt lat="44.95723" lon="5.32564">
        <ele>1109</ele>
        <time>2016-08-28T14:00:34Z</time>
      </trkpt>
      <trkpt lat="44.95728" lon="5.32552">
        <ele>1109</ele>
        <time>2016-08-28T14:00:45Z</time>
      </trkpt>
      <trkpt lat="44.95731" lon="5.32538">
        <ele>1110</ele>
        <time>2016-08-28T14:00:54Z</time>
      </trkpt>
      <trkpt lat="44.9573" lon="5.32525">
        <ele>1110</ele>
        <time>2016-08-28T14:01:04Z</time>
      </trkpt>
      <trkpt lat="44.95731" lon="5.32511">
        <ele>1111</ele>
        <time>2016-08-28T14:01:12Z</time>
      </trkpt>
      <trkpt lat="44.95733" lon="5.32495">
        <ele>1114</ele>
        <time>2016-08-28T14:01:22Z</time>
      </trkpt>
      <trkpt lat="44.95731" lon="5.3248">
        <ele>1113</ele>
        <time>2016-08-28T14:01:28Z</time>
      </trkpt>
      <trkpt lat="44.95732" lon="5.32465">
        <ele>1114</ele>
        <time>2016-08-28T14:01:37Z</time>
      </trkpt>
      <trkpt lat="44.95735" lon="5.3245">
        <ele>1115</ele>
        <time>2016-08-28T14:01:47Z</time>
      </trkpt>
      <trkpt lat="44.95736" lon="5.32436">
        <ele>1116</ele>
        <time>2016-08-28T14:01:54Z</time>
      </trkpt>
      <trkpt lat="44.95735" lon="5.32421">
        <ele>1118</ele>
        <time>2016-08-28T14:02:02Z</time>
      </trkpt>
      <trkpt lat="44.95735" lon="5.32407">
        <ele>1121</ele>
        <time>2016-08-28T14:02:09Z</time>
      </trkpt>
      <trkpt lat="44.95738" lon="5.32395">
        <ele>1121</ele>
        <time>2016-08-28T14:02:16Z</time>
      </trkpt>
      <trkpt lat="44.95738" lon="5.3238">
        <ele>1121</ele>
        <time>2016-08-28T14:02:23Z</time>
      </trkpt>
      <trkpt lat="44.95739" lon="5.32364">
        <ele>1122</ele>
        <time>2016-08-28T14:02:33Z</time>
      </trkpt>
      <trkpt lat="44.95746" lon="5.32351">
        <ele>1123</ele>
        <time>2016-08-28T14:02:39Z</time>
      </trkpt>
      <trkpt lat="44.95751" lon="5.32338">
        <ele>1126</ele>
        <time>2016-08-28T14:02:44Z</time>
      </trkpt>
      <trkpt lat="44.95758" lon="5.32328">
        <ele>1127</ele>
        <time>2016-08-28T14:02:49Z</time>
      </trkpt>
      <trkpt lat="44.95761" lon="5.32315">
        <ele>1128</ele>
        <time>2016-08-28T14:02:55Z</time>
      </trkpt>
      <trkpt lat="44.95769" lon="5.32303">
        <ele>1129</ele>
        <time>2016-08-28T14:03:02Z</time>
      </trkpt>
      <trkpt lat="44.95776" lon="5.32291">
        <ele>1130</ele>
        <time>2016-08-28T14:03:09Z</time>
      </trkpt>
      <trkpt lat="44.95784" lon="5.32283">
        <ele>1130</ele>
        <time>2016-08-28T14:03:13Z</time>
      </trkpt>
      <trkpt lat="44.95792" lon="5.32271">
        <ele>1130</ele>
        <time>2016-08-28T14:03:19Z</time>
      </trkpt>
      <trkpt lat="44.958" lon="5.32255">
        <ele>1130</ele>
        <time>2016-08-28T14:03:24Z</time>
      </trkpt>
      <trkpt lat="44.95805" lon="5.32239">
        <ele>1131</ele>
        <time>2016-08-28T14:03:28Z</time>
      </trkpt>
      <trkpt lat="44.95815" lon="5.32228">
        <ele>1131</ele>
        <time>2016-08-28T14:03:32Z</time>
      </trkpt>
      <trkpt lat="44.95825" lon="5.32218">
        <ele>1131</ele>
        <time>2016-08-28T14:03:36Z</time>
      </trkpt>
      <trkpt lat="44.95827" lon="5.32233">
        <ele>1131</ele>
        <time>2016-08-28T14:03:53Z</time>
      </trkpt>
      <trkpt lat="44.95825" lon="5.32247">
        <ele>1132</ele>
        <time>2016-08-28T14:03:59Z</time>
      </trkpt>
      <trkpt lat="44.95826" lon="5.32263">
        <ele>1131</ele>
        <time>2016-08-28T14:04:07Z</time>
      </trkpt>
      <trkpt lat="44.95825" lon="5.32276">
        <ele>1131</ele>
        <time>2016-08-28T14:04:13Z</time>
      </trkpt>
      <trkpt lat="44.95827" lon="5.3229">
        <ele>1131</ele>
        <time>2016-08-28T14:04:20Z</time>
      </trkpt>
      <trkpt lat="44.95825" lon="5.32304">
        <ele>1131</ele>
        <time>2016-08-28T14:04:29Z</time>
      </trkpt>
      <trkpt lat="44.95824" lon="5.32317">
        <ele>1131</ele>
        <time>2016-08-28T14:04:36Z</time>
      </trkpt>
      <trkpt lat="44.95821" lon="5.32331">
        <ele>1132</ele>
        <time>2016-08-28T14:04:42Z</time>
      </trkpt>
      <trkpt lat="44.95823" lon="5.32345">
        <ele>1131</ele>
        <time>2016-08-28T14:04:48Z</time>
      </trkpt>
      <trkpt lat="44.95827" lon="5.32361">
        <ele>1131</ele>
        <time>2016-08-28T14:04:55Z</time>
      </trkpt>
      <trkpt lat="44.95836" lon="5.32367">
        <ele>1132</ele>
        <time>2016-08-28T14:04:59Z</time>
      </trkpt>
      <trkpt lat="44.95848" lon="5.32376">
        <ele>1132</ele>
        <time>2016-08-28T14:05:04Z</time>
      </trkpt>
      <trkpt lat="44.95856" lon="5.32386">
        <ele>1132</ele>
        <time>2016-08-28T14:05:08Z</time>
      </trkpt>
      <trkpt lat="44.95872" lon="5.32403">
        <ele>1132</ele>
        <time>2016-08-28T14:05:14Z</time>
      </trkpt>
      <trkpt lat="44.95888" lon="5.32414">
        <ele>1132</ele>
        <time>2016-08-28T14:05:16Z</time>
      </trkpt>
      <trkpt lat="44.95901" lon="5.32427">
        <ele>1132</ele>
        <time>2016-08-28T14:05:18Z</time>
      </trkpt>
      <trkpt lat="44.95911" lon="5.32435">
        <ele>1132</ele>
        <time>2016-08-28T14:05:20Z</time>
      </trkpt>
      <trkpt lat="44.9592" lon="5.32445">
        <ele>1130</ele>
        <time>2016-08-28T14:05:22Z</time>
      </trkpt>
      <trkpt lat="44.95927" lon="5.3246">
        <ele>1130</ele>
        <time>2016-08-28T14:05:25Z</time>
      </trkpt>
      <trkpt lat="44.95932" lon="5.32472">
        <ele>1130</ele>
        <time>2016-08-28T14:05:28Z</time>
      </trkpt>
      <trkpt lat="44.95932" lon="5.32486">
        <ele>1130</ele>
        <time>2016-08-28T14:05:32Z</time>
      </trkpt>
      <trkpt lat="44.9595" lon="5.32499">
        <ele>1130</ele>
        <time>2016-08-28T14:05:38Z</time>
      </trkpt>
      <trkpt lat="44.95959" lon="5.32504">
        <ele>1132</ele>
        <time>2016-08-28T14:05:40Z</time>
      </trkpt>
      <trkpt lat="44.95971" lon="5.32513">
        <ele>1132</ele>
        <time>2016-08-28T14:05:43Z</time>
      </trkpt>
      <trkpt lat="44.9598" lon="5.32518">
        <ele>1132</ele>
        <time>2016-08-28T14:05:45Z</time>
      </trkpt>
      <trkpt lat="44.95989" lon="5.32522">
        <ele>1132</ele>
        <time>2016-08-28T14:05:47Z</time>
      </trkpt>
      <trkpt lat="44.96002" lon="5.32529">
        <ele>1132</ele>
        <time>2016-08-28T14:05:49Z</time>
      </trkpt>
      <trkpt lat="44.96015" lon="5.32538">
        <ele>1132</ele>
        <time>2016-08-28T14:05:51Z</time>
      </trkpt>
      <trkpt lat="44.96031" lon="5.32551">
        <ele>1132</ele>
        <time>2016-08-28T14:05:53Z</time>
      </trkpt>
      <trkpt lat="44.96043" lon="5.32559">
        <ele>1132</ele>
        <time>2016-08-28T14:05:55Z</time>
      </trkpt>
      <trkpt lat="44.96055" lon="5.3257">
        <ele>1132</ele>
        <time>2016-08-28T14:05:57Z</time>
      </trkpt>
      <trkpt lat="44.96064" lon="5.32578">
        <ele>1132</ele>
        <time>2016-08-28T14:05:59Z</time>
      </trkpt>
      <trkpt lat="44.96077" lon="5.32589">
        <ele>1133</ele>
        <time>2016-08-28T14:06:01Z</time>
      </trkpt>
      <trkpt lat="44.96085" lon="5.32595">
        <ele>1132</ele>
        <time>2016-08-28T14:06:03Z</time>
      </trkpt>
      <trkpt lat="44.96094" lon="5.32604">
        <ele>1132</ele>
        <time>2016-08-28T14:06:05Z</time>
      </trkpt>
      <trkpt lat="44.96105" lon="5.32612">
        <ele>1131</ele>
        <time>2016-08-28T14:06:07Z</time>
      </trkpt>
      <trkpt lat="44.96115" lon="5.32625">
        <ele>1131</ele>
        <time>2016-08-28T14:06:10Z</time>
      </trkpt>
      <trkpt lat="44.96124" lon="5.32635">
        <ele>1131</ele>
        <time>2016-08-28T14:06:12Z</time>
      </trkpt>
      <trkpt lat="44.96136" lon="5.32645">
        <ele>1131</ele>
        <time>2016-08-28T14:06:15Z</time>
      </trkpt>
      <trkpt lat="44.96145" lon="5.32653">
        <ele>1131</ele>
        <time>2016-08-28T14:06:17Z</time>
      </trkpt>
      <trkpt lat="44.96154" lon="5.32666">
        <ele>1131</ele>
        <time>2016-08-28T14:06:19Z</time>
      </trkpt>
      <trkpt lat="44.96161" lon="5.32678">
        <ele>1130</ele>
        <time>2016-08-28T14:06:22Z</time>
      </trkpt>
      <trkpt lat="44.9617" lon="5.3269">
        <ele>1128</ele>
        <time>2016-08-28T14:06:25Z</time>
      </trkpt>
      <trkpt lat="44.96179" lon="5.327">
        <ele>1128</ele>
        <time>2016-08-28T14:06:28Z</time>
      </trkpt>
      <trkpt lat="44.96187" lon="5.32708">
        <ele>1127</ele>
        <time>2016-08-28T14:06:31Z</time>
      </trkpt>
      <trkpt lat="44.96196" lon="5.32719">
        <ele>1127</ele>
        <time>2016-08-28T14:06:34Z</time>
      </trkpt>
      <trkpt lat="44.96207" lon="5.3273">
        <ele>1127</ele>
        <time>2016-08-28T14:06:37Z</time>
      </trkpt>
      <trkpt lat="44.9622" lon="5.32741">
        <ele>1126</ele>
        <time>2016-08-28T14:06:40Z</time>
      </trkpt>
      <trkpt lat="44.96232" lon="5.3275">
        <ele>1126</ele>
        <time>2016-08-28T14:06:43Z</time>
      </trkpt>
      <trkpt lat="44.96245" lon="5.32767">
        <ele>1126</ele>
        <time>2016-08-28T14:06:48Z</time>
      </trkpt>
      <trkpt lat="44.96246" lon="5.32781">
        <ele>1125</ele>
        <time>2016-08-28T14:06:50Z</time>
      </trkpt>
      <trkpt lat="44.96242" lon="5.32797">
        <ele>1125</ele>
        <time>2016-08-28T14:06:53Z</time>
      </trkpt>
      <trkpt lat="44.96239" lon="5.3281">
        <ele>1125</ele>
        <time>2016-08-28T14:06:55Z</time>
      </trkpt>
      <trkpt lat="44.96233" lon="5.32823">
        <ele>1125</ele>
        <time>2016-08-28T14:06:57Z</time>
      </trkpt>
      <trkpt lat="44.96228" lon="5.32836">
        <ele>1121</ele>
        <time>2016-08-28T14:06:59Z</time>
      </trkpt>
      <trkpt lat="44.96226" lon="5.32849">
        <ele>1120</ele>
        <time>2016-08-28T14:07:01Z</time>
      </trkpt>
      <trkpt lat="44.96227" lon="5.32863">
        <ele>1120</ele>
        <time>2016-08-28T14:07:03Z</time>
      </trkpt>
      <trkpt lat="44.96237" lon="5.32881">
        <ele>1119</ele>
        <time>2016-08-28T14:07:07Z</time>
      </trkpt>
      <trkpt lat="44.96249" lon="5.32887">
        <ele>1118</ele>
        <time>2016-08-28T14:07:09Z</time>
      </trkpt>
      <trkpt lat="44.96264" lon="5.3289">
        <ele>1117</ele>
        <time>2016-08-28T14:07:11Z</time>
      </trkpt>
      <trkpt lat="44.96295" lon="5.32894">
        <ele>1115</ele>
        <time>2016-08-28T14:07:15Z</time>
      </trkpt>
      <trkpt lat="44.96309" lon="5.32896">
        <ele>1115</ele>
        <time>2016-08-28T14:07:16Z</time>
      </trkpt>
      <trkpt lat="44.9632" lon="5.32898">
        <ele>1114</ele>
        <time>2016-08-28T14:07:17Z</time>
      </trkpt>
      <trkpt lat="44.96332" lon="5.32903">
        <ele>1113</ele>
        <time>2016-08-28T14:07:18Z</time>
      </trkpt>
      <trkpt lat="44.96344" lon="5.32905">
        <ele>1108</ele>
        <time>2016-08-28T14:07:19Z</time>
      </trkpt>
      <trkpt lat="44.96354" lon="5.32907">
        <ele>1108</ele>
        <time>2016-08-28T14:07:20Z</time>
      </trkpt>
      <trkpt lat="44.96364" lon="5.32908">
        <ele>1107</ele>
        <time>2016-08-28T14:07:21Z</time>
      </trkpt>
      <trkpt lat="44.96373" lon="5.3291">
        <ele>1106</ele>
        <time>2016-08-28T14:07:22Z</time>
      </trkpt>
      <trkpt lat="44.96383" lon="5.32911">
        <ele>1106</ele>
        <time>2016-08-28T14:07:23Z</time>
      </trkpt>
      <trkpt lat="44.96394" lon="5.32913">
        <ele>1105</ele>
        <time>2016-08-28T14:07:24Z</time>
      </trkpt>
      <trkpt lat="44.96411" lon="5.3292">
        <ele>1108</ele>
        <time>2016-08-28T14:07:26Z</time>
      </trkpt>
      <trkpt lat="44.96426" lon="5.32928">
        <ele>1107</ele>
        <time>2016-08-28T14:07:28Z</time>
      </trkpt>
      <trkpt lat="44.96438" lon="5.32941">
        <ele>1107</ele>
        <time>2016-08-28T14:07:30Z</time>
      </trkpt>
      <trkpt lat="44.96446" lon="5.32955">
        <ele>1108</ele>
        <time>2016-08-28T14:07:32Z</time>
      </trkpt>
      <trkpt lat="44.9645" lon="5.32969">
        <ele>1108</ele>
        <time>2016-08-28T14:07:34Z</time>
      </trkpt>
      <trkpt lat="44.96453" lon="5.32983">
        <ele>1109</ele>
        <time>2016-08-28T14:07:36Z</time>
      </trkpt>
      <trkpt lat="44.96457" lon="5.32997">
        <ele>1109</ele>
        <time>2016-08-28T14:07:38Z</time>
      </trkpt>
      <trkpt lat="44.96462" lon="5.33011">
        <ele>1115</ele>
        <time>2016-08-28T14:07:40Z</time>
      </trkpt>
      <trkpt lat="44.96471" lon="5.33023">
        <ele>1114</ele>
        <time>2016-08-28T14:07:42Z</time>
      </trkpt>
      <trkpt lat="44.96482" lon="5.33027">
        <ele>1113</ele>
        <time>2016-08-28T14:07:44Z</time>
      </trkpt>
      <trkpt lat="44.96496" lon="5.33026">
        <ele>1112</ele>
        <time>2016-08-28T14:07:46Z</time>
      </trkpt>
      <trkpt lat="44.96529" lon="5.33016">
        <ele>1107</ele>
        <time>2016-08-28T14:07:50Z</time>
      </trkpt>
      <trkpt lat="44.96545" lon="5.33018">
        <ele>1107</ele>
        <time>2016-08-28T14:07:51Z</time>
      </trkpt>
      <trkpt lat="44.96559" lon="5.33006">
        <ele>1106</ele>
        <time>2016-08-28T14:07:53Z</time>
      </trkpt>
      <trkpt lat="44.9657" lon="5.32991">
        <ele>1101</ele>
        <time>2016-08-28T14:07:55Z</time>
      </trkpt>
      <trkpt lat="44.9658" lon="5.32956">
        <ele>1099</ele>
        <time>2016-08-28T14:07:59Z</time>
      </trkpt>
      <trkpt lat="44.96588" lon="5.32945">
        <ele>1101</ele>
        <time>2016-08-28T14:08:00Z</time>
      </trkpt>
      <trkpt lat="44.96594" lon="5.32918">
        <ele>1097</ele>
        <time>2016-08-28T14:08:02Z</time>
      </trkpt>
      <trkpt lat="44.96612" lon="5.32858">
        <ele>1092</ele>
        <time>2016-08-28T14:08:07Z</time>
      </trkpt>
      <trkpt lat="44.96615" lon="5.32844">
        <ele>1091</ele>
        <time>2016-08-28T14:08:08Z</time>
      </trkpt>
      <trkpt lat="44.96622" lon="5.32824">
        <ele>1083</ele>
        <time>2016-08-28T14:08:10Z</time>
      </trkpt>
      <trkpt lat="44.9663" lon="5.32811">
        <ele>1083</ele>
        <time>2016-08-28T14:08:12Z</time>
      </trkpt>
      <trkpt lat="44.96642" lon="5.328">
        <ele>1084</ele>
        <time>2016-08-28T14:08:14Z</time>
      </trkpt>
      <trkpt lat="44.96652" lon="5.3279">
        <ele>1083</ele>
        <time>2016-08-28T14:08:16Z</time>
      </trkpt>
      <trkpt lat="44.96665" lon="5.32781">
        <ele>1083</ele>
        <time>2016-08-28T14:08:18Z</time>
      </trkpt>
      <trkpt lat="44.96673" lon="5.32774">
        <ele>1089</ele>
        <time>2016-08-28T14:08:20Z</time>
      </trkpt>
      <trkpt lat="44.9668" lon="5.32766">
        <ele>1088</ele>
        <time>2016-08-28T14:08:24Z</time>
      </trkpt>
      <trkpt lat="44.96692" lon="5.32756">
        <ele>1089</ele>
        <time>2016-08-28T14:08:29Z</time>
      </trkpt>
      <trkpt lat="44.96706" lon="5.3275">
        <ele>1090</ele>
        <time>2016-08-28T14:08:34Z</time>
      </trkpt>
      <trkpt lat="44.96717" lon="5.32753">
        <ele>1091</ele>
        <time>2016-08-28T14:08:37Z</time>
      </trkpt>
      <trkpt lat="44.96727" lon="5.32756">
        <ele>1091</ele>
        <time>2016-08-28T14:08:41Z</time>
      </trkpt>
      <trkpt lat="44.96739" lon="5.3276">
        <ele>1091</ele>
        <time>2016-08-28T14:08:49Z</time>
      </trkpt>
      <trkpt lat="44.96749" lon="5.3276">
        <ele>1091</ele>
        <time>2016-08-28T14:09:01Z</time>
      </trkpt>
      <trkpt lat="44.96758" lon="5.32759">
        <ele>1092</ele>
        <time>2016-08-28T14:09:12Z</time>
      </trkpt>
      <trkpt lat="44.96768" lon="5.3276">
        <ele>1093</ele>
        <time>2016-08-28T14:09:18Z</time>
      </trkpt>
      <trkpt lat="44.96779" lon="5.32764">
        <ele>1094</ele>
        <time>2016-08-28T14:09:23Z</time>
      </trkpt>
      <trkpt lat="44.96791" lon="5.32766">
        <ele>1094</ele>
        <time>2016-08-28T14:09:32Z</time>
      </trkpt>
      <trkpt lat="44.96804" lon="5.32762">
        <ele>1094</ele>
        <time>2016-08-28T14:09:44Z</time>
      </trkpt>
      <trkpt lat="44.96814" lon="5.32761">
        <ele>1094</ele>
        <time>2016-08-28T14:09:47Z</time>
      </trkpt>
      <trkpt lat="44.96824" lon="5.32758">
        <ele>1094</ele>
        <time>2016-08-28T14:09:55Z</time>
      </trkpt>
      <trkpt lat="44.96832" lon="5.32751">
        <ele>1093</ele>
        <time>2016-08-28T14:10:02Z</time>
      </trkpt>
      <trkpt lat="44.96841" lon="5.32747">
        <ele>1093</ele>
        <time>2016-08-28T14:10:09Z</time>
      </trkpt>
      <trkpt lat="44.96848" lon="5.32737">
        <ele>1094</ele>
        <time>2016-08-28T14:10:15Z</time>
      </trkpt>
      <trkpt lat="44.96855" lon="5.32728">
        <ele>1094</ele>
        <time>2016-08-28T14:10:22Z</time>
      </trkpt>
      <trkpt lat="44.96863" lon="5.32722">
        <ele>1094</ele>
        <time>2016-08-28T14:10:28Z</time>
      </trkpt>
      <trkpt lat="44.96876" lon="5.32715">
        <ele>1095</ele>
        <time>2016-08-28T14:10:36Z</time>
      </trkpt>
      <trkpt lat="44.96885" lon="5.32705">
        <ele>1095</ele>
        <time>2016-08-28T14:10:40Z</time>
      </trkpt>
      <trkpt lat="44.96894" lon="5.327">
        <ele>1096</ele>
        <time>2016-08-28T14:10:45Z</time>
      </trkpt>
      <trkpt lat="44.96905" lon="5.32697">
        <ele>1096</ele>
        <time>2016-08-28T14:10:51Z</time>
      </trkpt>
      <trkpt lat="44.96918" lon="5.32696">
        <ele>1100</ele>
        <time>2016-08-28T14:10:56Z</time>
      </trkpt>
      <trkpt lat="44.9693" lon="5.327">
        <ele>1099</ele>
        <time>2016-08-28T14:11:00Z</time>
      </trkpt>
      <trkpt lat="44.96942" lon="5.32708">
        <ele>1099</ele>
        <time>2016-08-28T14:11:03Z</time>
      </trkpt>
      <trkpt lat="44.96952" lon="5.32717">
        <ele>1099</ele>
        <time>2016-08-28T14:11:05Z</time>
      </trkpt>
      <trkpt lat="44.9696" lon="5.32726">
        <ele>1098</ele>
        <time>2016-08-28T14:11:11Z</time>
      </trkpt>
      <trkpt lat="44.96962" lon="5.32741">
        <ele>1098</ele>
        <time>2016-08-28T14:11:19Z</time>
      </trkpt>
      <trkpt lat="44.96967" lon="5.32754">
        <ele>1094</ele>
        <time>2016-08-28T14:11:23Z</time>
      </trkpt>
      <trkpt lat="44.96971" lon="5.32766">
        <ele>1093</ele>
        <time>2016-08-28T14:11:26Z</time>
      </trkpt>
      <trkpt lat="44.96976" lon="5.32777">
        <ele>1093</ele>
        <time>2016-08-28T14:11:31Z</time>
      </trkpt>
      <trkpt lat="44.96984" lon="5.32789">
        <ele>1092</ele>
        <time>2016-08-28T14:11:34Z</time>
      </trkpt>
      <trkpt lat="44.96994" lon="5.32799">
        <ele>1092</ele>
        <time>2016-08-28T14:11:39Z</time>
      </trkpt>
      <trkpt lat="44.96996" lon="5.32812">
        <ele>1091</ele>
        <time>2016-08-28T14:11:44Z</time>
      </trkpt>
      <trkpt lat="44.97006" lon="5.32823">
        <ele>1091</ele>
        <time>2016-08-28T14:11:47Z</time>
      </trkpt>
      <trkpt lat="44.97016" lon="5.32831">
        <ele>1092</ele>
        <time>2016-08-28T14:11:51Z</time>
      </trkpt>
      <trkpt lat="44.97025" lon="5.32844">
        <ele>1089</ele>
        <time>2016-08-28T14:11:57Z</time>
      </trkpt>
      <trkpt lat="44.97038" lon="5.32851">
        <ele>1089</ele>
        <time>2016-08-28T14:12:00Z</time>
      </trkpt>
      <trkpt lat="44.97048" lon="5.32858">
        <ele>1090</ele>
        <time>2016-08-28T14:12:04Z</time>
      </trkpt>
      <trkpt lat="44.97059" lon="5.32866">
        <ele>1090</ele>
        <time>2016-08-28T14:12:05Z</time>
      </trkpt>
      <trkpt lat="44.97071" lon="5.32878">
        <ele>1089</ele>
        <time>2016-08-28T14:12:07Z</time>
      </trkpt>
      <trkpt lat="44.97083" lon="5.32891">
        <ele>1089</ele>
        <time>2016-08-28T14:12:10Z</time>
      </trkpt>
      <trkpt lat="44.97094" lon="5.32901">
        <ele>1090</ele>
        <time>2016-08-28T14:12:12Z</time>
      </trkpt>
      <trkpt lat="44.97105" lon="5.32912">
        <ele>1090</ele>
        <time>2016-08-28T14:12:14Z</time>
      </trkpt>
      <trkpt lat="44.97114" lon="5.32924">
        <ele>1085</ele>
        <time>2016-08-28T14:12:17Z</time>
      </trkpt>
      <trkpt lat="44.97126" lon="5.32931">
        <ele>1085</ele>
        <time>2016-08-28T14:12:20Z</time>
      </trkpt>
      <trkpt lat="44.97137" lon="5.32927">
        <ele>1085</ele>
        <time>2016-08-28T14:12:23Z</time>
      </trkpt>
      <trkpt lat="44.97148" lon="5.32924">
        <ele>1085</ele>
        <time>2016-08-28T14:12:25Z</time>
      </trkpt>
      <trkpt lat="44.97161" lon="5.32922">
        <ele>1085</ele>
        <time>2016-08-28T14:12:28Z</time>
      </trkpt>
      <trkpt lat="44.97171" lon="5.3292">
        <ele>1083</ele>
        <time>2016-08-28T14:12:30Z</time>
      </trkpt>
      <trkpt lat="44.97182" lon="5.32919">
        <ele>1081</ele>
        <time>2016-08-28T14:12:34Z</time>
      </trkpt>
      <trkpt lat="44.97193" lon="5.32913">
        <ele>1085</ele>
        <time>2016-08-28T14:12:38Z</time>
      </trkpt>
      <trkpt lat="44.97203" lon="5.32903">
        <ele>1085</ele>
        <time>2016-08-28T14:12:42Z</time>
      </trkpt>
      <trkpt lat="44.97213" lon="5.32888">
        <ele>1085</ele>
        <time>2016-08-28T14:12:48Z</time>
      </trkpt>
      <trkpt lat="44.97221" lon="5.32877">
        <ele>1086</ele>
        <time>2016-08-28T14:12:50Z</time>
      </trkpt>
      <trkpt lat="44.9723" lon="5.32865">
        <ele>1086</ele>
        <time>2016-08-28T14:12:54Z</time>
      </trkpt>
      <trkpt lat="44.97241" lon="5.32857">
        <ele>1086</ele>
        <time>2016-08-28T14:13:01Z</time>
      </trkpt>
      <trkpt lat="44.97249" lon="5.32843">
        <ele>1087</ele>
        <time>2016-08-28T14:13:06Z</time>
      </trkpt>
      <trkpt lat="44.97256" lon="5.32827">
        <ele>1087</ele>
        <time>2016-08-28T14:13:10Z</time>
      </trkpt>
      <trkpt lat="44.97258" lon="5.32814">
        <ele>1087</ele>
        <time>2016-08-28T14:13:14Z</time>
      </trkpt>
      <trkpt lat="44.97261" lon="5.32801">
        <ele>1088</ele>
        <time>2016-08-28T14:13:21Z</time>
      </trkpt>
      <trkpt lat="44.97268" lon="5.32789">
        <ele>1089</ele>
        <time>2016-08-28T14:13:29Z</time>
      </trkpt>
      <trkpt lat="44.97279" lon="5.32782">
        <ele>1089</ele>
        <time>2016-08-28T14:13:34Z</time>
      </trkpt>
      <trkpt lat="44.97286" lon="5.32773">
        <ele>1089</ele>
        <time>2016-08-28T14:13:39Z</time>
      </trkpt>
      <trkpt lat="44.97295" lon="5.32767">
        <ele>1088</ele>
        <time>2016-08-28T14:13:45Z</time>
      </trkpt>
      <trkpt lat="44.97311" lon="5.32757">
        <ele>1087</ele>
        <time>2016-08-28T14:13:53Z</time>
      </trkpt>
      <trkpt lat="44.9732" lon="5.32753">
        <ele>1086</ele>
        <time>2016-08-28T14:13:55Z</time>
      </trkpt>
      <trkpt lat="44.97329" lon="5.32745">
        <ele>1090</ele>
        <time>2016-08-28T14:13:58Z</time>
      </trkpt>
      <trkpt lat="44.97347" lon="5.32741">
        <ele>1091</ele>
        <time>2016-08-28T14:14:04Z</time>
      </trkpt>
      <trkpt lat="44.9736" lon="5.32741">
        <ele>1093</ele>
        <time>2016-08-28T14:14:09Z</time>
      </trkpt>
      <trkpt lat="44.97369" lon="5.3273">
        <ele>1094</ele>
        <time>2016-08-28T14:14:16Z</time>
      </trkpt>
      <trkpt lat="44.97379" lon="5.32723">
        <ele>1095</ele>
        <time>2016-08-28T14:14:24Z</time>
      </trkpt>
      <trkpt lat="44.97386" lon="5.32714">
        <ele>1096</ele>
        <time>2016-08-28T14:14:28Z</time>
      </trkpt>
      <trkpt lat="44.97397" lon="5.32719">
        <ele>1095</ele>
        <time>2016-08-28T14:14:36Z</time>
      </trkpt>
      <trkpt lat="44.97406" lon="5.32723">
        <ele>1094</ele>
        <time>2016-08-28T14:14:41Z</time>
      </trkpt>
      <trkpt lat="44.97418" lon="5.32726">
        <ele>1094</ele>
        <time>2016-08-28T14:14:53Z</time>
      </trkpt>
      <trkpt lat="44.97428" lon="5.32725">
        <ele>1095</ele>
        <time>2016-08-28T14:15:04Z</time>
      </trkpt>
      <trkpt lat="44.97439" lon="5.32726">
        <ele>1096</ele>
        <time>2016-08-28T14:15:10Z</time>
      </trkpt>
      <trkpt lat="44.97448" lon="5.32727">
        <ele>1097</ele>
        <time>2016-08-28T14:15:16Z</time>
      </trkpt>
      <trkpt lat="44.97457" lon="5.32735">
        <ele>1096</ele>
        <time>2016-08-28T14:15:18Z</time>
      </trkpt>
      <trkpt lat="44.97468" lon="5.32737">
        <ele>1097</ele>
        <time>2016-08-28T14:15:30Z</time>
      </trkpt>
      <trkpt lat="44.97478" lon="5.32741">
        <ele>1097</ele>
        <time>2016-08-28T14:15:36Z</time>
      </trkpt>
      <trkpt lat="44.97486" lon="5.32734">
        <ele>1097</ele>
        <time>2016-08-28T14:15:38Z</time>
      </trkpt>
      <trkpt lat="44.97497" lon="5.32734">
        <ele>1097</ele>
        <time>2016-08-28T14:15:44Z</time>
      </trkpt>
      <trkpt lat="44.97508" lon="5.32737">
        <ele>1100</ele>
        <time>2016-08-28T14:15:57Z</time>
      </trkpt>
      <trkpt lat="44.97518" lon="5.32741">
        <ele>1101</ele>
        <time>2016-08-28T14:16:06Z</time>
      </trkpt>
      <trkpt lat="44.97527" lon="5.32739">
        <ele>1102</ele>
        <time>2016-08-28T14:16:13Z</time>
      </trkpt>
      <trkpt lat="44.97538" lon="5.32738">
        <ele>1104</ele>
        <time>2016-08-28T14:16:22Z</time>
      </trkpt>
      <trkpt lat="44.97546" lon="5.32732">
        <ele>1105</ele>
        <time>2016-08-28T14:16:28Z</time>
      </trkpt>
      <trkpt lat="44.97556" lon="5.32727">
        <ele>1105</ele>
        <time>2016-08-28T14:16:33Z</time>
      </trkpt>
      <trkpt lat="44.97566" lon="5.32725">
        <ele>1106</ele>
        <time>2016-08-28T14:16:40Z</time>
      </trkpt>
      <trkpt lat="44.97575" lon="5.32722">
        <ele>1106</ele>
        <time>2016-08-28T14:16:47Z</time>
      </trkpt>
      <trkpt lat="44.97583" lon="5.32714">
        <ele>1113</ele>
        <time>2016-08-28T14:17:01Z</time>
      </trkpt>
      <trkpt lat="44.97594" lon="5.32715">
        <ele>1113</ele>
        <time>2016-08-28T14:17:18Z</time>
      </trkpt>
      <trkpt lat="44.97601" lon="5.32707">
        <ele>1114</ele>
        <time>2016-08-28T14:17:31Z</time>
      </trkpt>
      <trkpt lat="44.9761" lon="5.327">
        <ele>1115</ele>
        <time>2016-08-28T14:17:38Z</time>
      </trkpt>
      <trkpt lat="44.97617" lon="5.32709">
        <ele>1115</ele>
        <time>2016-08-28T14:17:56Z</time>
      </trkpt>
      <trkpt lat="44.9762" lon="5.32722">
        <ele>1115</ele>
        <time>2016-08-28T14:18:13Z</time>
      </trkpt>
      <trkpt lat="44.97626" lon="5.32732">
        <ele>1115</ele>
        <time>2016-08-28T14:18:21Z</time>
      </trkpt>
      <trkpt lat="44.97638" lon="5.32741">
        <ele>1116</ele>
        <time>2016-08-28T14:18:30Z</time>
      </trkpt>
      <trkpt lat="44.97643" lon="5.32753">
        <ele>1116</ele>
        <time>2016-08-28T14:18:41Z</time>
      </trkpt>
      <trkpt lat="44.97653" lon="5.32753">
        <ele>1117</ele>
        <time>2016-08-28T14:18:51Z</time>
      </trkpt>
      <trkpt lat="44.97661" lon="5.32761">
        <ele>1117</ele>
        <time>2016-08-28T14:18:53Z</time>
      </trkpt>
      <trkpt lat="44.9767" lon="5.32766">
        <ele>1121</ele>
        <time>2016-08-28T14:18:57Z</time>
      </trkpt>
      <trkpt lat="44.97679" lon="5.32769">
        <ele>1121</ele>
        <time>2016-08-28T14:19:04Z</time>
      </trkpt>
      <trkpt lat="44.97687" lon="5.32776">
        <ele>1121</ele>
        <time>2016-08-28T14:19:16Z</time>
      </trkpt>
      <trkpt lat="44.97694" lon="5.32787">
        <ele>1121</ele>
        <time>2016-08-28T14:19:24Z</time>
      </trkpt>
      <trkpt lat="44.97703" lon="5.32794">
        <ele>1121</ele>
        <time>2016-08-28T14:19:29Z</time>
      </trkpt>
      <trkpt lat="44.97713" lon="5.32801">
        <ele>1121</ele>
        <time>2016-08-28T14:19:34Z</time>
      </trkpt>
      <trkpt lat="44.97723" lon="5.32804">
        <ele>1121</ele>
        <time>2016-08-28T14:19:40Z</time>
      </trkpt>
      <trkpt lat="44.97732" lon="5.32809">
        <ele>1120</ele>
        <time>2016-08-28T14:19:45Z</time>
      </trkpt>
      <trkpt lat="44.97743" lon="5.32812">
        <ele>1120</ele>
        <time>2016-08-28T14:19:48Z</time>
      </trkpt>
      <trkpt lat="44.97752" lon="5.32812">
        <ele>1122</ele>
        <time>2016-08-28T14:19:55Z</time>
      </trkpt>
      <trkpt lat="44.97762" lon="5.32811">
        <ele>1123</ele>
        <time>2016-08-28T14:19:59Z</time>
      </trkpt>
      <trkpt lat="44.97773" lon="5.32809">
        <ele>1124</ele>
        <time>2016-08-28T14:20:04Z</time>
      </trkpt>
      <trkpt lat="44.97782" lon="5.32805">
        <ele>1125</ele>
        <time>2016-08-28T14:20:10Z</time>
      </trkpt>
      <trkpt lat="44.97793" lon="5.32802">
        <ele>1126</ele>
        <time>2016-08-28T14:20:15Z</time>
      </trkpt>
      <trkpt lat="44.97802" lon="5.32795">
        <ele>1126</ele>
        <time>2016-08-28T14:20:21Z</time>
      </trkpt>
      <trkpt lat="44.97812" lon="5.32791">
        <ele>1127</ele>
        <time>2016-08-28T14:20:25Z</time>
      </trkpt>
      <trkpt lat="44.97824" lon="5.32794">
        <ele>1127</ele>
        <time>2016-08-28T14:20:35Z</time>
      </trkpt>
      <trkpt lat="44.97831" lon="5.32803">
        <ele>1126</ele>
        <time>2016-08-28T14:20:40Z</time>
      </trkpt>
      <trkpt lat="44.97841" lon="5.32802">
        <ele>1129</ele>
        <time>2016-08-28T14:20:49Z</time>
      </trkpt>
      <trkpt lat="44.97851" lon="5.32794">
        <ele>1130</ele>
        <time>2016-08-28T14:20:55Z</time>
      </trkpt>
      <trkpt lat="44.97858" lon="5.32785">
        <ele>1131</ele>
        <time>2016-08-28T14:21:05Z</time>
      </trkpt>
      <trkpt lat="44.97867" lon="5.32777">
        <ele>1132</ele>
        <time>2016-08-28T14:21:13Z</time>
      </trkpt>
      <trkpt lat="44.97876" lon="5.32774">
        <ele>1132</ele>
        <time>2016-08-28T14:21:21Z</time>
      </trkpt>
      <trkpt lat="44.97882" lon="5.32763">
        <ele>1133</ele>
        <time>2016-08-28T14:21:31Z</time>
      </trkpt>
      <trkpt lat="44.97892" lon="5.3276">
        <ele>1133</ele>
        <time>2016-08-28T14:21:44Z</time>
      </trkpt>
      <trkpt lat="44.97898" lon="5.32749">
        <ele>1139</ele>
        <time>2016-08-28T14:21:57Z</time>
      </trkpt>
      <trkpt lat="44.97905" lon="5.3274">
        <ele>1139</ele>
        <time>2016-08-28T14:22:07Z</time>
      </trkpt>
      <trkpt lat="44.97914" lon="5.32735">
        <ele>1140</ele>
        <time>2016-08-28T14:22:16Z</time>
      </trkpt>
      <trkpt lat="44.97923" lon="5.32727">
        <ele>1142</ele>
        <time>2016-08-28T14:22:32Z</time>
      </trkpt>
      <trkpt lat="44.97932" lon="5.32722">
        <ele>1143</ele>
        <time>2016-08-28T14:22:54Z</time>
      </trkpt>
      <trkpt lat="44.97942" lon="5.32723">
        <ele>1144</ele>
        <time>2016-08-28T14:23:04Z</time>
      </trkpt>
      <trkpt lat="44.97951" lon="5.32726">
        <ele>1144</ele>
        <time>2016-08-28T14:23:12Z</time>
      </trkpt>
      <trkpt lat="44.97959" lon="5.32737">
        <ele>1144</ele>
        <time>2016-08-28T14:23:20Z</time>
      </trkpt>
      <trkpt lat="44.97969" lon="5.32739">
        <ele>1145</ele>
        <time>2016-08-28T14:23:25Z</time>
      </trkpt>
      <trkpt lat="44.97976" lon="5.3273">
        <ele>1145</ele>
        <time>2016-08-28T14:23:37Z</time>
      </trkpt>
      <trkpt lat="44.97977" lon="5.32716">
        <ele>1146</ele>
        <time>2016-08-28T14:23:45Z</time>
      </trkpt>
      <trkpt lat="44.97981" lon="5.32704">
        <ele>1146</ele>
        <time>2016-08-28T14:23:52Z</time>
      </trkpt>
      <trkpt lat="44.97982" lon="5.3269">
        <ele>1147</ele>
        <time>2016-08-28T14:24:42Z</time>
      </trkpt>
      <trkpt lat="44.97984" lon="5.32677">
        <ele>1147</ele>
        <time>2016-08-28T14:24:48Z</time>
      </trkpt>
      <trkpt lat="44.97982" lon="5.32662">
        <ele>1150</ele>
        <time>2016-08-28T14:24:56Z</time>
      </trkpt>
      <trkpt lat="44.97981" lon="5.32648">
        <ele>1150</ele>
        <time>2016-08-28T14:25:01Z</time>
      </trkpt>
      <trkpt lat="44.97975" lon="5.32634">
        <ele>1150</ele>
        <time>2016-08-28T14:25:08Z</time>
      </trkpt>
      <trkpt lat="44.97969" lon="5.32622">
        <ele>1150</ele>
        <time>2016-08-28T14:25:15Z</time>
      </trkpt>
      <trkpt lat="44.9796" lon="5.32613">
        <ele>1150</ele>
        <time>2016-08-28T14:25:23Z</time>
      </trkpt>
      <trkpt lat="44.97956" lon="5.326">
        <ele>1150</ele>
        <time>2016-08-28T14:25:30Z</time>
      </trkpt>
      <trkpt lat="44.97958" lon="5.32582">
        <ele>1151</ele>
        <time>2016-08-28T14:25:40Z</time>
      </trkpt>
      <trkpt lat="44.9796" lon="5.32566">
        <ele>1151</ele>
        <time>2016-08-28T14:25:43Z</time>
      </trkpt>
      <trkpt lat="44.97962" lon="5.32552">
        <ele>1151</ele>
        <time>2016-08-28T14:25:50Z</time>
      </trkpt>
      <trkpt lat="44.97963" lon="5.32538">
        <ele>1151</ele>
        <time>2016-08-28T14:25:56Z</time>
      </trkpt>
      <trkpt lat="44.97967" lon="5.32524">
        <ele>1151</ele>
        <time>2016-08-28T14:26:01Z</time>
      </trkpt>
      <trkpt lat="44.97966" lon="5.32511">
        <ele>1151</ele>
        <time>2016-08-28T14:26:06Z</time>
      </trkpt>
      <trkpt lat="44.97976" lon="5.32502">
        <ele>1151</ele>
        <time>2016-08-28T14:26:11Z</time>
      </trkpt>
      <trkpt lat="44.97985" lon="5.32494">
        <ele>1150</ele>
        <time>2016-08-28T14:26:15Z</time>
      </trkpt>
      <trkpt lat="44.97991" lon="5.32484">
        <ele>1150</ele>
        <time>2016-08-28T14:26:17Z</time>
      </trkpt>
      <trkpt lat="44.98002" lon="5.32472">
        <ele>1149</ele>
        <time>2016-08-28T14:26:20Z</time>
      </trkpt>
      <trkpt lat="44.98015" lon="5.3247">
        <ele>1149</ele>
        <time>2016-08-28T14:26:24Z</time>
      </trkpt>
      <trkpt lat="44.98026" lon="5.32467">
        <ele>1150</ele>
        <time>2016-08-28T14:26:28Z</time>
      </trkpt>
      <trkpt lat="44.98036" lon="5.32464">
        <ele>1150</ele>
        <time>2016-08-28T14:26:32Z</time>
      </trkpt>
      <trkpt lat="44.98045" lon="5.32458">
        <ele>1150</ele>
        <time>2016-08-28T14:26:35Z</time>
      </trkpt>
      <trkpt lat="44.98057" lon="5.32449">
        <ele>1149</ele>
        <time>2016-08-28T14:26:38Z</time>
      </trkpt>
      <trkpt lat="44.98074" lon="5.32428">
        <ele>1148</ele>
        <time>2016-08-28T14:26:43Z</time>
      </trkpt>
      <trkpt lat="44.98081" lon="5.32415">
        <ele>1146</ele>
        <time>2016-08-28T14:26:46Z</time>
      </trkpt>
      <trkpt lat="44.98089" lon="5.32407">
        <ele>1145</ele>
        <time>2016-08-28T14:26:50Z</time>
      </trkpt>
      <trkpt lat="44.98096" lon="5.32396">
        <ele>1145</ele>
        <time>2016-08-28T14:26:54Z</time>
      </trkpt>
      <trkpt lat="44.98108" lon="5.32384">
        <ele>1144</ele>
        <time>2016-08-28T14:27:00Z</time>
      </trkpt>
      <trkpt lat="44.98118" lon="5.32375">
        <ele>1144</ele>
        <time>2016-08-28T14:27:04Z</time>
      </trkpt>
      <trkpt lat="44.98125" lon="5.32362">
        <ele>1144</ele>
        <time>2016-08-28T14:27:08Z</time>
      </trkpt>
      <trkpt lat="44.98134" lon="5.32356">
        <ele>1143</ele>
        <time>2016-08-28T14:27:10Z</time>
      </trkpt>
      <trkpt lat="44.98143" lon="5.32349">
        <ele>1143</ele>
        <time>2016-08-28T14:27:13Z</time>
      </trkpt>
      <trkpt lat="44.98151" lon="5.32339">
        <ele>1142</ele>
        <time>2016-08-28T14:27:16Z</time>
      </trkpt>
      <trkpt lat="44.98159" lon="5.32329">
        <ele>1139</ele>
        <time>2016-08-28T14:27:19Z</time>
      </trkpt>
      <trkpt lat="44.98169" lon="5.32325">
        <ele>1138</ele>
        <time>2016-08-28T14:27:22Z</time>
      </trkpt>
      <trkpt lat="44.98178" lon="5.32321">
        <ele>1136</ele>
        <time>2016-08-28T14:27:24Z</time>
      </trkpt>
      <trkpt lat="44.98195" lon="5.32318">
        <ele>1135</ele>
        <time>2016-08-28T14:27:29Z</time>
      </trkpt>
      <trkpt lat="44.98209" lon="5.32316">
        <ele>1134</ele>
        <time>2016-08-28T14:27:31Z</time>
      </trkpt>
      <trkpt lat="44.9822" lon="5.32308">
        <ele>1133</ele>
        <time>2016-08-28T14:27:34Z</time>
      </trkpt>
      <trkpt lat="44.98232" lon="5.32302">
        <ele>1133</ele>
        <time>2016-08-28T14:27:38Z</time>
      </trkpt>
      <trkpt lat="44.98238" lon="5.32291">
        <ele>1132</ele>
        <time>2016-08-28T14:27:41Z</time>
      </trkpt>
      <trkpt lat="44.98245" lon="5.32274">
        <ele>1130</ele>
        <time>2016-08-28T14:27:44Z</time>
      </trkpt>
      <trkpt lat="44.98245" lon="5.32259">
        <ele>1128</ele>
        <time>2016-08-28T14:27:46Z</time>
      </trkpt>
      <trkpt lat="44.98244" lon="5.32243">
        <ele>1125</ele>
        <time>2016-08-28T14:27:48Z</time>
      </trkpt>
      <trkpt lat="44.98241" lon="5.32226">
        <ele>1125</ele>
        <time>2016-08-28T14:27:50Z</time>
      </trkpt>
      <trkpt lat="44.98239" lon="5.32204">
        <ele>1124</ele>
        <time>2016-08-28T14:27:52Z</time>
      </trkpt>
      <trkpt lat="44.98238" lon="5.3218">
        <ele>1123</ele>
        <time>2016-08-28T14:27:54Z</time>
      </trkpt>
      <trkpt lat="44.98236" lon="5.32161">
        <ele>1122</ele>
        <time>2016-08-28T14:27:56Z</time>
      </trkpt>
      <trkpt lat="44.98234" lon="5.32145">
        <ele>1122</ele>
        <time>2016-08-28T14:27:58Z</time>
      </trkpt>
      <trkpt lat="44.98227" lon="5.32131">
        <ele>1122</ele>
        <time>2016-08-28T14:28:01Z</time>
      </trkpt>
      <trkpt lat="44.98217" lon="5.3212">
        <ele>1123</ele>
        <time>2016-08-28T14:28:05Z</time>
      </trkpt>
      <trkpt lat="44.98204" lon="5.32109">
        <ele>1123</ele>
        <time>2016-08-28T14:28:09Z</time>
      </trkpt>
      <trkpt lat="44.98195" lon="5.32094">
        <ele>1123</ele>
        <time>2016-08-28T14:28:11Z</time>
      </trkpt>
      <trkpt lat="44.98188" lon="5.32084">
        <ele>1124</ele>
        <time>2016-08-28T14:28:13Z</time>
      </trkpt>
      <trkpt lat="44.9818" lon="5.32073">
        <ele>1124</ele>
        <time>2016-08-28T14:28:15Z</time>
      </trkpt>
      <trkpt lat="44.98173" lon="5.3206">
        <ele>1124</ele>
        <time>2016-08-28T14:28:18Z</time>
      </trkpt>
      <trkpt lat="44.98167" lon="5.32049">
        <ele>1124</ele>
        <time>2016-08-28T14:28:20Z</time>
      </trkpt>
      <trkpt lat="44.9816" lon="5.32034">
        <ele>1126</ele>
        <time>2016-08-28T14:28:22Z</time>
      </trkpt>
      <trkpt lat="44.98157" lon="5.32016">
        <ele>1126</ele>
        <time>2016-08-28T14:28:24Z</time>
      </trkpt>
      <trkpt lat="44.98153" lon="5.32004">
        <ele>1126</ele>
        <time>2016-08-28T14:28:26Z</time>
      </trkpt>
      <trkpt lat="44.98148" lon="5.31977">
        <ele>1125</ele>
        <time>2016-08-28T14:28:30Z</time>
      </trkpt>
      <trkpt lat="44.98146" lon="5.31955">
        <ele>1125</ele>
        <time>2016-08-28T14:28:32Z</time>
      </trkpt>
      <trkpt lat="44.98137" lon="5.31921">
        <ele>1125</ele>
        <time>2016-08-28T14:28:37Z</time>
      </trkpt>
      <trkpt lat="44.98134" lon="5.31904">
        <ele>1125</ele>
        <time>2016-08-28T14:28:40Z</time>
      </trkpt>
      <trkpt lat="44.98133" lon="5.31891">
        <ele>1125</ele>
        <time>2016-08-28T14:28:42Z</time>
      </trkpt>
      <trkpt lat="44.9813" lon="5.31878">
        <ele>1126</ele>
        <time>2016-08-28T14:28:44Z</time>
      </trkpt>
      <trkpt lat="44.98123" lon="5.31868">
        <ele>1127</ele>
        <time>2016-08-28T14:28:47Z</time>
      </trkpt>
      <trkpt lat="44.98117" lon="5.31857">
        <ele>1127</ele>
        <time>2016-08-28T14:28:50Z</time>
      </trkpt>
      <trkpt lat="44.98109" lon="5.31846">
        <ele>1129</ele>
        <time>2016-08-28T14:28:53Z</time>
      </trkpt>
      <trkpt lat="44.98101" lon="5.31831">
        <ele>1134</ele>
        <time>2016-08-28T14:28:56Z</time>
      </trkpt>
      <trkpt lat="44.98095" lon="5.31819">
        <ele>1134</ele>
        <time>2016-08-28T14:28:59Z</time>
      </trkpt>
      <trkpt lat="44.98091" lon="5.31807">
        <ele>1134</ele>
        <time>2016-08-28T14:29:03Z</time>
      </trkpt>
      <trkpt lat="44.98091" lon="5.31793">
        <ele>1135</ele>
        <time>2016-08-28T14:29:08Z</time>
      </trkpt>
      <trkpt lat="44.98099" lon="5.31781">
        <ele>1136</ele>
        <time>2016-08-28T14:29:15Z</time>
      </trkpt>
      <trkpt lat="44.98107" lon="5.31775">
        <ele>1136</ele>
        <time>2016-08-28T14:29:19Z</time>
      </trkpt>
      <trkpt lat="44.98116" lon="5.31769">
        <ele>1135</ele>
        <time>2016-08-28T14:29:26Z</time>
      </trkpt>
      <trkpt lat="44.98124" lon="5.3176">
        <ele>1135</ele>
        <time>2016-08-28T14:29:32Z</time>
      </trkpt>
      <trkpt lat="44.98133" lon="5.31751">
        <ele>1134</ele>
        <time>2016-08-28T14:29:40Z</time>
      </trkpt>
      <trkpt lat="44.98143" lon="5.3175">
        <ele>1144</ele>
        <time>2016-08-28T14:29:46Z</time>
      </trkpt>
      <trkpt lat="44.98152" lon="5.31751">
        <ele>1133</ele>
        <time>2016-08-28T14:29:54Z</time>
      </trkpt>
      <trkpt lat="44.98162" lon="5.31748">
        <ele>1137</ele>
        <time>2016-08-28T14:30:03Z</time>
      </trkpt>
      <trkpt lat="44.98173" lon="5.31747">
        <ele>1136</ele>
        <time>2016-08-28T14:30:10Z</time>
      </trkpt>
      <trkpt lat="44.98185" lon="5.31747">
        <ele>1138</ele>
        <time>2016-08-28T14:30:20Z</time>
      </trkpt>
      <trkpt lat="44.98193" lon="5.31741">
        <ele>1140</ele>
        <time>2016-08-28T14:30:26Z</time>
      </trkpt>
      <trkpt lat="44.98203" lon="5.31737">
        <ele>1140</ele>
        <time>2016-08-28T14:30:33Z</time>
      </trkpt>
      <trkpt lat="44.98213" lon="5.31731">
        <ele>1141</ele>
        <time>2016-08-28T14:30:43Z</time>
      </trkpt>
      <trkpt lat="44.98224" lon="5.31728">
        <ele>1140</ele>
        <time>2016-08-28T14:30:50Z</time>
      </trkpt>
      <trkpt lat="44.98234" lon="5.31726">
        <ele>1139</ele>
        <time>2016-08-28T14:30:56Z</time>
      </trkpt>
      <trkpt lat="44.98244" lon="5.31726">
        <ele>1138</ele>
        <time>2016-08-28T14:31:03Z</time>
      </trkpt>
      <trkpt lat="44.98254" lon="5.31725">
        <ele>1136</ele>
        <time>2016-08-28T14:31:10Z</time>
      </trkpt>
      <trkpt lat="44.98264" lon="5.31725">
        <ele>1136</ele>
        <time>2016-08-28T14:31:17Z</time>
      </trkpt>
      <trkpt lat="44.98273" lon="5.31722">
        <ele>1137</ele>
        <time>2016-08-28T14:31:24Z</time>
      </trkpt>
      <trkpt lat="44.98286" lon="5.31717">
        <ele>1138</ele>
        <time>2016-08-28T14:31:32Z</time>
      </trkpt>
      <trkpt lat="44.98294" lon="5.31708">
        <ele>1139</ele>
        <time>2016-08-28T14:31:36Z</time>
      </trkpt>
      <trkpt lat="44.98303" lon="5.31702">
        <ele>1140</ele>
        <time>2016-08-28T14:31:44Z</time>
      </trkpt>
      <trkpt lat="44.98312" lon="5.31696">
        <ele>1142</ele>
        <time>2016-08-28T14:31:53Z</time>
      </trkpt>
      <trkpt lat="44.98323" lon="5.31691">
        <ele>1143</ele>
        <time>2016-08-28T14:32:01Z</time>
      </trkpt>
      <trkpt lat="44.98333" lon="5.31689">
        <ele>1144</ele>
        <time>2016-08-28T14:32:08Z</time>
      </trkpt>
      <trkpt lat="44.98345" lon="5.31687">
        <ele>1144</ele>
        <time>2016-08-28T14:32:14Z</time>
      </trkpt>
      <trkpt lat="44.98356" lon="5.31684">
        <ele>1144</ele>
        <time>2016-08-28T14:32:20Z</time>
      </trkpt>
      <trkpt lat="44.98366" lon="5.31689">
        <ele>1143</ele>
        <time>2016-08-28T14:32:24Z</time>
      </trkpt>
      <trkpt lat="44.98375" lon="5.31693">
        <ele>1143</ele>
        <time>2016-08-28T14:32:27Z</time>
      </trkpt>
      <trkpt lat="44.98385" lon="5.31698">
        <ele>1142</ele>
        <time>2016-08-28T14:32:30Z</time>
      </trkpt>
      <trkpt lat="44.98418" lon="5.31708">
        <ele>1143</ele>
        <time>2016-08-28T14:32:39Z</time>
      </trkpt>
      <trkpt lat="44.98427" lon="5.31712">
        <ele>1142</ele>
        <time>2016-08-28T14:32:40Z</time>
      </trkpt>
      <trkpt lat="44.98442" lon="5.31706">
        <ele>1143</ele>
        <time>2016-08-28T14:32:43Z</time>
      </trkpt>
      <trkpt lat="44.98451" lon="5.31707">
        <ele>1143</ele>
        <time>2016-08-28T14:32:46Z</time>
      </trkpt>
      <trkpt lat="44.98465" lon="5.31707">
        <ele>1143</ele>
        <time>2016-08-28T14:32:50Z</time>
      </trkpt>
      <trkpt lat="44.9848" lon="5.31705">
        <ele>1143</ele>
        <time>2016-08-28T14:32:54Z</time>
      </trkpt>
      <trkpt lat="44.98492" lon="5.31693">
        <ele>1144</ele>
        <time>2016-08-28T14:32:56Z</time>
      </trkpt>
      <trkpt lat="44.985" lon="5.31681">
        <ele>1146</ele>
        <time>2016-08-28T14:32:58Z</time>
      </trkpt>
      <trkpt lat="44.98504" lon="5.31663">
        <ele>1146</ele>
        <time>2016-08-28T14:33:00Z</time>
      </trkpt>
      <trkpt lat="44.9851" lon="5.31651">
        <ele>1145</ele>
        <time>2016-08-28T14:33:02Z</time>
      </trkpt>
      <trkpt lat="44.98519" lon="5.31641">
        <ele>1144</ele>
        <time>2016-08-28T14:33:05Z</time>
      </trkpt>
      <trkpt lat="44.98531" lon="5.31625">
        <ele>1143</ele>
        <time>2016-08-28T14:33:09Z</time>
      </trkpt>
      <trkpt lat="44.9854" lon="5.31617">
        <ele>1143</ele>
        <time>2016-08-28T14:33:12Z</time>
      </trkpt>
      <trkpt lat="44.98548" lon="5.31599">
        <ele>1142</ele>
        <time>2016-08-28T14:33:16Z</time>
      </trkpt>
      <trkpt lat="44.98554" lon="5.31581">
        <ele>1136</ele>
        <time>2016-08-28T14:33:19Z</time>
      </trkpt>
      <trkpt lat="44.9856" lon="5.31567">
        <ele>1135</ele>
        <time>2016-08-28T14:33:21Z</time>
      </trkpt>
      <trkpt lat="44.98566" lon="5.31557">
        <ele>1135</ele>
        <time>2016-08-28T14:33:23Z</time>
      </trkpt>
      <trkpt lat="44.98574" lon="5.31548">
        <ele>1134</ele>
        <time>2016-08-28T14:33:25Z</time>
      </trkpt>
      <trkpt lat="44.98583" lon="5.31538">
        <ele>1133</ele>
        <time>2016-08-28T14:33:27Z</time>
      </trkpt>
      <trkpt lat="44.98593" lon="5.31532">
        <ele>1128</ele>
        <time>2016-08-28T14:33:29Z</time>
      </trkpt>
      <trkpt lat="44.98604" lon="5.3153">
        <ele>1127</ele>
        <time>2016-08-28T14:33:31Z</time>
      </trkpt>
      <trkpt lat="44.98615" lon="5.31527">
        <ele>1127</ele>
        <time>2016-08-28T14:33:33Z</time>
      </trkpt>
      <trkpt lat="44.98627" lon="5.31526">
        <ele>1126</ele>
        <time>2016-08-28T14:33:35Z</time>
      </trkpt>
      <trkpt lat="44.98638" lon="5.31525">
        <ele>1126</ele>
        <time>2016-08-28T14:33:37Z</time>
      </trkpt>
      <trkpt lat="44.98649" lon="5.31526">
        <ele>1125</ele>
        <time>2016-08-28T14:33:39Z</time>
      </trkpt>
      <trkpt lat="44.98663" lon="5.31531">
        <ele>1125</ele>
        <time>2016-08-28T14:33:45Z</time>
      </trkpt>
      <trkpt lat="44.98674" lon="5.31542">
        <ele>1120</ele>
        <time>2016-08-28T14:33:50Z</time>
      </trkpt>
      <trkpt lat="44.98683" lon="5.31553">
        <ele>1121</ele>
        <time>2016-08-28T14:33:54Z</time>
      </trkpt>
      <trkpt lat="44.98693" lon="5.31564">
        <ele>1121</ele>
        <time>2016-08-28T14:34:00Z</time>
      </trkpt>
      <trkpt lat="44.98699" lon="5.31575">
        <ele>1121</ele>
        <time>2016-08-28T14:34:04Z</time>
      </trkpt>
      <trkpt lat="44.98707" lon="5.31584">
        <ele>1127</ele>
        <time>2016-08-28T14:34:08Z</time>
      </trkpt>
      <trkpt lat="44.98711" lon="5.31597">
        <ele>1127</ele>
        <time>2016-08-28T14:34:12Z</time>
      </trkpt>
      <trkpt lat="44.98715" lon="5.3161">
        <ele>1127</ele>
        <time>2016-08-28T14:34:17Z</time>
      </trkpt>
      <trkpt lat="44.98718" lon="5.31623">
        <ele>1128</ele>
        <time>2016-08-28T14:34:21Z</time>
      </trkpt>
      <trkpt lat="44.98726" lon="5.31636">
        <ele>1128</ele>
        <time>2016-08-28T14:34:25Z</time>
      </trkpt>
      <trkpt lat="44.98735" lon="5.31653">
        <ele>1127</ele>
        <time>2016-08-28T14:34:30Z</time>
      </trkpt>
      <trkpt lat="44.98742" lon="5.31664">
        <ele>1126</ele>
        <time>2016-08-28T14:34:32Z</time>
      </trkpt>
      <trkpt lat="44.98748" lon="5.31676">
        <ele>1129</ele>
        <time>2016-08-28T14:34:34Z</time>
      </trkpt>
      <trkpt lat="44.9876" lon="5.31693">
        <ele>1122</ele>
        <time>2016-08-28T14:34:38Z</time>
      </trkpt>
      <trkpt lat="44.98776" lon="5.31701">
        <ele>1120</ele>
        <time>2016-08-28T14:34:40Z</time>
      </trkpt>
      <trkpt lat="44.9879" lon="5.31707">
        <ele>1119</ele>
        <time>2016-08-28T14:34:42Z</time>
      </trkpt>
      <trkpt lat="44.98804" lon="5.31714">
        <ele>1117</ele>
        <time>2016-08-28T14:34:44Z</time>
      </trkpt>
      <trkpt lat="44.9882" lon="5.31721">
        <ele>1116</ele>
        <time>2016-08-28T14:34:46Z</time>
      </trkpt>
      <trkpt lat="44.98836" lon="5.31729">
        <ele>1104</ele>
        <time>2016-08-28T14:34:48Z</time>
      </trkpt>
      <trkpt lat="44.98848" lon="5.31737">
        <ele>1104</ele>
        <time>2016-08-28T14:34:50Z</time>
      </trkpt>
      <trkpt lat="44.98857" lon="5.31747">
        <ele>1103</ele>
        <time>2016-08-28T14:34:52Z</time>
      </trkpt>
      <trkpt lat="44.98863" lon="5.31761">
        <ele>1105</ele>
        <time>2016-08-28T14:34:54Z</time>
      </trkpt>
      <trkpt lat="44.98866" lon="5.31776">
        <ele>1104</ele>
        <time>2016-08-28T14:34:56Z</time>
      </trkpt>
      <trkpt lat="44.98863" lon="5.31788">
        <ele>1104</ele>
        <time>2016-08-28T14:34:58Z</time>
      </trkpt>
      <trkpt lat="44.98864" lon="5.31808">
        <ele>1105</ele>
        <time>2016-08-28T14:35:00Z</time>
      </trkpt>
      <trkpt lat="44.98864" lon="5.31829">
        <ele>1106</ele>
        <time>2016-08-28T14:35:02Z</time>
      </trkpt>
      <trkpt lat="44.9886" lon="5.31846">
        <ele>1104</ele>
        <time>2016-08-28T14:35:04Z</time>
      </trkpt>
      <trkpt lat="44.9886" lon="5.31862">
        <ele>1102</ele>
        <time>2016-08-28T14:35:06Z</time>
      </trkpt>
      <trkpt lat="44.98858" lon="5.31877">
        <ele>1101</ele>
        <time>2016-08-28T14:35:08Z</time>
      </trkpt>
      <trkpt lat="44.98857" lon="5.31893">
        <ele>1101</ele>
        <time>2016-08-28T14:35:10Z</time>
      </trkpt>
      <trkpt lat="44.98848" lon="5.3192">
        <ele>1095</ele>
        <time>2016-08-28T14:35:14Z</time>
      </trkpt>
      <trkpt lat="44.98848" lon="5.31937">
        <ele>1093</ele>
        <time>2016-08-28T14:35:16Z</time>
      </trkpt>
      <trkpt lat="44.98862" lon="5.31938">
        <ele>1091</ele>
        <time>2016-08-28T14:35:27Z</time>
      </trkpt>
      <trkpt lat="44.98873" lon="5.31939">
        <ele>1090</ele>
        <time>2016-08-28T14:35:29Z</time>
      </trkpt>
      <trkpt lat="44.98888" lon="5.31944">
        <ele>1088</ele>
        <time>2016-08-28T14:35:31Z</time>
      </trkpt>
      <trkpt lat="44.98923" lon="5.31942">
        <ele>1084</ele>
        <time>2016-08-28T14:35:37Z</time>
      </trkpt>
      <trkpt lat="44.98932" lon="5.31937">
        <ele>1084</ele>
        <time>2016-08-28T14:35:38Z</time>
      </trkpt>
      <trkpt lat="44.98943" lon="5.31928">
        <ele>1084</ele>
        <time>2016-08-28T14:35:40Z</time>
      </trkpt>
      <trkpt lat="44.98962" lon="5.31916">
        <ele>1086</ele>
        <time>2016-08-28T14:35:45Z</time>
      </trkpt>
      <trkpt lat="44.9898" lon="5.3191">
        <ele>1086</ele>
        <time>2016-08-28T14:35:50Z</time>
      </trkpt>
      <trkpt lat="44.9899" lon="5.31907">
        <ele>1085</ele>
        <time>2016-08-28T14:35:52Z</time>
      </trkpt>
      <trkpt lat="44.99003" lon="5.31899">
        <ele>1083</ele>
        <time>2016-08-28T14:35:57Z</time>
      </trkpt>
      <trkpt lat="44.99012" lon="5.31894">
        <ele>1083</ele>
        <time>2016-08-28T14:36:01Z</time>
      </trkpt>
      <trkpt lat="44.99019" lon="5.31884">
        <ele>1083</ele>
        <time>2016-08-28T14:36:07Z</time>
      </trkpt>
      <trkpt lat="44.99024" lon="5.31871">
        <ele>1082</ele>
        <time>2016-08-28T14:36:11Z</time>
      </trkpt>
      <trkpt lat="44.99026" lon="5.31857">
        <ele>1082</ele>
        <time>2016-08-28T14:36:15Z</time>
      </trkpt>
      <trkpt lat="44.99029" lon="5.31842">
        <ele>1081</ele>
        <time>2016-08-28T14:36:18Z</time>
      </trkpt>
      <trkpt lat="44.9904" lon="5.31836">
        <ele>1081</ele>
        <time>2016-08-28T14:36:21Z</time>
      </trkpt>
      <trkpt lat="44.99048" lon="5.3183">
        <ele>1078</ele>
        <time>2016-08-28T14:36:23Z</time>
      </trkpt>
      <trkpt lat="44.99059" lon="5.31822">
        <ele>1078</ele>
        <time>2016-08-28T14:36:25Z</time>
      </trkpt>
      <trkpt lat="44.9907" lon="5.31815">
        <ele>1077</ele>
        <time>2016-08-28T14:36:27Z</time>
      </trkpt>
      <trkpt lat="44.99081" lon="5.31812">
        <ele>1077</ele>
        <time>2016-08-28T14:36:29Z</time>
      </trkpt>
      <trkpt lat="44.99094" lon="5.31805">
        <ele>1073</ele>
        <time>2016-08-28T14:36:31Z</time>
      </trkpt>
      <trkpt lat="44.99105" lon="5.31796">
        <ele>1072</ele>
        <time>2016-08-28T14:36:33Z</time>
      </trkpt>
      <trkpt lat="44.99115" lon="5.31785">
        <ele>1071</ele>
        <time>2016-08-28T14:36:35Z</time>
      </trkpt>
      <trkpt lat="44.99125" lon="5.31776">
        <ele>1070</ele>
        <time>2016-08-28T14:36:37Z</time>
      </trkpt>
      <trkpt lat="44.99134" lon="5.31767">
        <ele>1069</ele>
        <time>2016-08-28T14:36:39Z</time>
      </trkpt>
      <trkpt lat="44.99145" lon="5.3176">
        <ele>1068</ele>
        <time>2016-08-28T14:36:42Z</time>
      </trkpt>
      <trkpt lat="44.99152" lon="5.3175">
        <ele>1064</ele>
        <time>2016-08-28T14:36:46Z</time>
      </trkpt>
      <trkpt lat="44.99159" lon="5.31739">
        <ele>1064</ele>
        <time>2016-08-28T14:36:51Z</time>
      </trkpt>
      <trkpt lat="44.99166" lon="5.31729">
        <ele>1065</ele>
        <time>2016-08-28T14:37:03Z</time>
      </trkpt>
      <trkpt lat="44.99175" lon="5.31734">
        <ele>1058</ele>
        <time>2016-08-28T14:37:19Z</time>
      </trkpt>
      <trkpt lat="44.99185" lon="5.31729">
        <ele>1057</ele>
        <time>2016-08-28T14:38:05Z</time>
      </trkpt>
      <trkpt lat="44.99198" lon="5.31734">
        <ele>1055</ele>
        <time>2016-08-28T14:38:11Z</time>
      </trkpt>
      <trkpt lat="44.99208" lon="5.31735">
        <ele>1054</ele>
        <time>2016-08-28T14:38:13Z</time>
      </trkpt>
      <trkpt lat="44.9922" lon="5.31731">
        <ele>1053</ele>
        <time>2016-08-28T14:38:16Z</time>
      </trkpt>
      <trkpt lat="44.99232" lon="5.31728">
        <ele>1052</ele>
        <time>2016-08-28T14:38:19Z</time>
      </trkpt>
      <trkpt lat="44.9924" lon="5.31734">
        <ele>1052</ele>
        <time>2016-08-28T14:38:23Z</time>
      </trkpt>
      <trkpt lat="44.99249" lon="5.31742">
        <ele>1051</ele>
        <time>2016-08-28T14:38:29Z</time>
      </trkpt>
      <trkpt lat="44.99266" lon="5.31747">
        <ele>1046</ele>
        <time>2016-08-28T14:38:35Z</time>
      </trkpt>
      <trkpt lat="44.99288" lon="5.31749">
        <ele>1043</ele>
        <time>2016-08-28T14:38:40Z</time>
      </trkpt>
      <trkpt lat="44.99298" lon="5.3175">
        <ele>1043</ele>
        <time>2016-08-28T14:38:45Z</time>
      </trkpt>
      <trkpt lat="44.99309" lon="5.31748">
        <ele>1042</ele>
        <time>2016-08-28T14:38:48Z</time>
      </trkpt>
      <trkpt lat="44.99319" lon="5.31747">
        <ele>1041</ele>
        <time>2016-08-28T14:38:55Z</time>
      </trkpt>
      <trkpt lat="44.99331" lon="5.31747">
        <ele>1041</ele>
        <time>2016-08-28T14:39:00Z</time>
      </trkpt>
      <trkpt lat="44.99343" lon="5.31743">
        <ele>1037</ele>
        <time>2016-08-28T14:39:03Z</time>
      </trkpt>
      <trkpt lat="44.99355" lon="5.31743">
        <ele>1035</ele>
        <time>2016-08-28T14:39:22Z</time>
      </trkpt>
      <trkpt lat="44.99369" lon="5.31742">
        <ele>1033</ele>
        <time>2016-08-28T14:39:27Z</time>
      </trkpt>
      <trkpt lat="44.99381" lon="5.31738">
        <ele>1032</ele>
        <time>2016-08-28T14:39:29Z</time>
      </trkpt>
      <trkpt lat="44.99398" lon="5.31726">
        <ele>1030</ele>
        <time>2016-08-28T14:39:34Z</time>
      </trkpt>
      <trkpt lat="44.99409" lon="5.31718">
        <ele>1030</ele>
        <time>2016-08-28T14:39:37Z</time>
      </trkpt>
      <trkpt lat="44.99419" lon="5.31712">
        <ele>1021</ele>
        <time>2016-08-28T14:39:40Z</time>
      </trkpt>
      <trkpt lat="44.9943" lon="5.31705">
        <ele>1020</ele>
        <time>2016-08-28T14:39:43Z</time>
      </trkpt>
      <trkpt lat="44.99441" lon="5.31695">
        <ele>1018</ele>
        <time>2016-08-28T14:39:46Z</time>
      </trkpt>
      <trkpt lat="44.9945" lon="5.31683">
        <ele>1017</ele>
        <time>2016-08-28T14:39:49Z</time>
      </trkpt>
      <trkpt lat="44.9946" lon="5.31674">
        <ele>1016</ele>
        <time>2016-08-28T14:39:52Z</time>
      </trkpt>
      <trkpt lat="44.9947" lon="5.31669">
        <ele>1015</ele>
        <time>2016-08-28T14:39:55Z</time>
      </trkpt>
      <trkpt lat="44.99479" lon="5.31663">
        <ele>1010</ele>
        <time>2016-08-28T14:39:57Z</time>
      </trkpt>
      <trkpt lat="44.99488" lon="5.31654">
        <ele>1009</ele>
        <time>2016-08-28T14:40:00Z</time>
      </trkpt>
      <trkpt lat="44.99498" lon="5.31645">
        <ele>1008</ele>
        <time>2016-08-28T14:40:06Z</time>
      </trkpt>
      <trkpt lat="44.99502" lon="5.31631">
        <ele>1000</ele>
        <time>2016-08-28T14:40:10Z</time>
      </trkpt>
      <trkpt lat="44.99509" lon="5.31619">
        <ele>998</ele>
        <time>2016-08-28T14:40:15Z</time>
      </trkpt>
      <trkpt lat="44.99514" lon="5.31607">
        <ele>998</ele>
        <time>2016-08-28T14:40:19Z</time>
      </trkpt>
      <trkpt lat="44.99516" lon="5.3159">
        <ele>997</ele>
        <time>2016-08-28T14:40:24Z</time>
      </trkpt>
      <trkpt lat="44.99517" lon="5.31576">
        <ele>993</ele>
        <time>2016-08-28T14:40:28Z</time>
      </trkpt>
      <trkpt lat="44.99507" lon="5.31566">
        <ele>993</ele>
        <time>2016-08-28T14:40:33Z</time>
      </trkpt>
      <trkpt lat="44.99498" lon="5.31559">
        <ele>997</ele>
        <time>2016-08-28T14:40:38Z</time>
      </trkpt>
      <trkpt lat="44.99488" lon="5.31551">
        <ele>997</ele>
        <time>2016-08-28T14:40:43Z</time>
      </trkpt>
      <trkpt lat="44.99481" lon="5.31539">
        <ele>996</ele>
        <time>2016-08-28T14:40:45Z</time>
      </trkpt>
      <trkpt lat="44.99471" lon="5.31526">
        <ele>995</ele>
        <time>2016-08-28T14:40:47Z</time>
      </trkpt>
      <trkpt lat="44.99463" lon="5.31515">
        <ele>995</ele>
        <time>2016-08-28T14:40:49Z</time>
      </trkpt>
      <trkpt lat="44.9946" lon="5.31502">
        <ele>995</ele>
        <time>2016-08-28T14:40:51Z</time>
      </trkpt>
      <trkpt lat="44.99455" lon="5.31491">
        <ele>988</ele>
        <time>2016-08-28T14:40:53Z</time>
      </trkpt>
      <trkpt lat="44.99444" lon="5.31479">
        <ele>989</ele>
        <time>2016-08-28T14:40:56Z</time>
      </trkpt>
      <trkpt lat="44.99437" lon="5.31469">
        <ele>988</ele>
        <time>2016-08-28T14:40:59Z</time>
      </trkpt>
      <trkpt lat="44.99431" lon="5.31458">
        <ele>988</ele>
        <time>2016-08-28T14:41:03Z</time>
      </trkpt>
      <trkpt lat="44.99426" lon="5.31445">
        <ele>987</ele>
        <time>2016-08-28T14:41:06Z</time>
      </trkpt>
      <trkpt lat="44.99423" lon="5.31429">
        <ele>987</ele>
        <time>2016-08-28T14:41:09Z</time>
      </trkpt>
      <trkpt lat="44.99422" lon="5.31414">
        <ele>985</ele>
        <time>2016-08-28T14:41:11Z</time>
      </trkpt>
      <trkpt lat="44.99421" lon="5.31397">
        <ele>982</ele>
        <time>2016-08-28T14:41:13Z</time>
      </trkpt>
      <trkpt lat="44.9942" lon="5.31381">
        <ele>980</ele>
        <time>2016-08-28T14:41:15Z</time>
      </trkpt>
      <trkpt lat="44.9942" lon="5.31368">
        <ele>979</ele>
        <time>2016-08-28T14:41:17Z</time>
      </trkpt>
      <trkpt lat="44.9942" lon="5.31349">
        <ele>978</ele>
        <time>2016-08-28T14:41:20Z</time>
      </trkpt>
      <trkpt lat="44.99421" lon="5.3133">
        <ele>977</ele>
        <time>2016-08-28T14:41:23Z</time>
      </trkpt>
      <trkpt lat="44.99421" lon="5.31314">
        <ele>973</ele>
        <time>2016-08-28T14:41:26Z</time>
      </trkpt>
      <trkpt lat="44.99419" lon="5.31298">
        <ele>971</ele>
        <time>2016-08-28T14:41:29Z</time>
      </trkpt>
      <trkpt lat="44.99418" lon="5.3128">
        <ele>969</ele>
        <time>2016-08-28T14:41:32Z</time>
      </trkpt>
      <trkpt lat="44.99419" lon="5.31266">
        <ele>968</ele>
        <time>2016-08-28T14:41:34Z</time>
      </trkpt>
      <trkpt lat="44.99421" lon="5.31251">
        <ele>968</ele>
        <time>2016-08-28T14:41:36Z</time>
      </trkpt>
      <trkpt lat="44.99423" lon="5.31235">
        <ele>964</ele>
        <time>2016-08-28T14:41:38Z</time>
      </trkpt>
      <trkpt lat="44.99427" lon="5.31222">
        <ele>963</ele>
        <time>2016-08-28T14:41:40Z</time>
      </trkpt>
      <trkpt lat="44.99432" lon="5.31206">
        <ele>961</ele>
        <time>2016-08-28T14:41:43Z</time>
      </trkpt>
      <trkpt lat="44.99437" lon="5.31195">
        <ele>960</ele>
        <time>2016-08-28T14:41:47Z</time>
      </trkpt>
      <trkpt lat="44.99439" lon="5.31181">
        <ele>960</ele>
        <time>2016-08-28T14:41:51Z</time>
      </trkpt>
      <trkpt lat="44.99446" lon="5.31163">
        <ele>953</ele>
        <time>2016-08-28T14:41:56Z</time>
      </trkpt>
      <trkpt lat="44.99451" lon="5.31151">
        <ele>952</ele>
        <time>2016-08-28T14:41:58Z</time>
      </trkpt>
      <trkpt lat="44.99464" lon="5.31142">
        <ele>951</ele>
        <time>2016-08-28T14:42:02Z</time>
      </trkpt>
      <trkpt lat="44.99472" lon="5.31132">
        <ele>951</ele>
        <time>2016-08-28T14:42:04Z</time>
      </trkpt>
      <trkpt lat="44.99481" lon="5.31127">
        <ele>950</ele>
        <time>2016-08-28T14:42:08Z</time>
      </trkpt>
      <trkpt lat="44.99493" lon="5.31125">
        <ele>950</ele>
        <time>2016-08-28T14:42:13Z</time>
      </trkpt>
      <trkpt lat="44.99503" lon="5.31121">
        <ele>945</ele>
        <time>2016-08-28T14:42:17Z</time>
      </trkpt>
      <trkpt lat="44.99513" lon="5.31119">
        <ele>944</ele>
        <time>2016-08-28T14:42:20Z</time>
      </trkpt>
      <trkpt lat="44.99521" lon="5.31109">
        <ele>944</ele>
        <time>2016-08-28T14:42:23Z</time>
      </trkpt>
      <trkpt lat="44.99533" lon="5.31104">
        <ele>943</ele>
        <time>2016-08-28T14:42:28Z</time>
      </trkpt>
      <trkpt lat="44.99542" lon="5.31104">
        <ele>942</ele>
        <time>2016-08-28T14:42:31Z</time>
      </trkpt>
      <trkpt lat="44.99552" lon="5.31098">
        <ele>941</ele>
        <time>2016-08-28T14:42:36Z</time>
      </trkpt>
      <trkpt lat="44.99563" lon="5.31089">
        <ele>940</ele>
        <time>2016-08-28T14:42:39Z</time>
      </trkpt>
      <trkpt lat="44.99574" lon="5.31089">
        <ele>939</ele>
        <time>2016-08-28T14:42:51Z</time>
      </trkpt>
      <trkpt lat="44.99581" lon="5.31078">
        <ele>935</ele>
        <time>2016-08-28T14:42:59Z</time>
      </trkpt>
      <trkpt lat="44.99586" lon="5.31062">
        <ele>929</ele>
        <time>2016-08-28T14:43:05Z</time>
      </trkpt>
      <trkpt lat="44.99596" lon="5.31052">
        <ele>927</ele>
        <time>2016-08-28T14:43:09Z</time>
      </trkpt>
      <trkpt lat="44.996" lon="5.3104">
        <ele>925</ele>
        <time>2016-08-28T14:43:12Z</time>
      </trkpt>
      <trkpt lat="44.99606" lon="5.31028">
        <ele>924</ele>
        <time>2016-08-28T14:43:16Z</time>
      </trkpt>
      <trkpt lat="44.99608" lon="5.31009">
        <ele>924</ele>
        <time>2016-08-28T14:43:20Z</time>
      </trkpt>
      <trkpt lat="44.99611" lon="5.30992">
        <ele>919</ele>
        <time>2016-08-28T14:43:22Z</time>
      </trkpt>
      <trkpt lat="44.99616" lon="5.30979">
        <ele>918</ele>
        <time>2016-08-28T14:43:25Z</time>
      </trkpt>
      <trkpt lat="44.99622" lon="5.30968">
        <ele>917</ele>
        <time>2016-08-28T14:43:29Z</time>
      </trkpt>
      <trkpt lat="44.99628" lon="5.30956">
        <ele>916</ele>
        <time>2016-08-28T14:43:31Z</time>
      </trkpt>
      <trkpt lat="44.99632" lon="5.30941">
        <ele>915</ele>
        <time>2016-08-28T14:43:34Z</time>
      </trkpt>
      <trkpt lat="44.99634" lon="5.30928">
        <ele>915</ele>
        <time>2016-08-28T14:43:36Z</time>
      </trkpt>
      <trkpt lat="44.99639" lon="5.30905">
        <ele>910</ele>
        <time>2016-08-28T14:43:39Z</time>
      </trkpt>
      <trkpt lat="44.99641" lon="5.30891">
        <ele>910</ele>
        <time>2016-08-28T14:43:41Z</time>
      </trkpt>
      <trkpt lat="44.99645" lon="5.30876">
        <ele>909</ele>
        <time>2016-08-28T14:43:44Z</time>
      </trkpt>
      <trkpt lat="44.99655" lon="5.30874">
        <ele>909</ele>
        <time>2016-08-28T14:43:49Z</time>
      </trkpt>
      <trkpt lat="44.9966" lon="5.30885">
        <ele>910</ele>
        <time>2016-08-28T14:43:56Z</time>
      </trkpt>
      <trkpt lat="44.99664" lon="5.30898">
        <ele>910</ele>
        <time>2016-08-28T14:44:03Z</time>
      </trkpt>
      <trkpt lat="44.99669" lon="5.3091">
        <ele>909</ele>
        <time>2016-08-28T14:44:08Z</time>
      </trkpt>
      <trkpt lat="44.99672" lon="5.30924">
        <ele>910</ele>
        <time>2016-08-28T14:44:12Z</time>
      </trkpt>
      <trkpt lat="44.99677" lon="5.30936">
        <ele>908</ele>
        <time>2016-08-28T14:44:42Z</time>
      </trkpt>
      <trkpt lat="44.99685" lon="5.30948">
        <ele>908</ele>
        <time>2016-08-28T14:44:46Z</time>
      </trkpt>
      <trkpt lat="44.99694" lon="5.30953">
        <ele>907</ele>
        <time>2016-08-28T14:45:08Z</time>
      </trkpt>
      <trkpt lat="44.99704" lon="5.30957">
        <ele>906</ele>
        <time>2016-08-28T14:48:32Z</time>
      </trkpt>
      <trkpt lat="44.99711" lon="5.30967">
        <ele>906</ele>
        <time>2016-08-28T14:48:35Z</time>
      </trkpt>
      <trkpt lat="44.99718" lon="5.30981">
        <ele>905</ele>
        <time>2016-08-28T14:48:38Z</time>
      </trkpt>
      <trkpt lat="44.99741" lon="5.31014">
        <ele>903</ele>
        <time>2016-08-28T14:48:44Z</time>
      </trkpt>
      <trkpt lat="44.99748" lon="5.31027">
        <ele>904</ele>
        <time>2016-08-28T14:48:46Z</time>
      </trkpt>
      <trkpt lat="44.99754" lon="5.3104">
        <ele>898</ele>
        <time>2016-08-28T14:48:48Z</time>
      </trkpt>
      <trkpt lat="44.99759" lon="5.31054">
        <ele>898</ele>
        <time>2016-08-28T14:48:50Z</time>
      </trkpt>
      <trkpt lat="44.99763" lon="5.31066">
        <ele>898</ele>
        <time>2016-08-28T14:48:52Z</time>
      </trkpt>
      <trkpt lat="44.99769" lon="5.3108">
        <ele>898</ele>
        <time>2016-08-28T14:48:54Z</time>
      </trkpt>
      <trkpt lat="44.99778" lon="5.31091">
        <ele>897</ele>
        <time>2016-08-28T14:48:56Z</time>
      </trkpt>
      <trkpt lat="44.99789" lon="5.31097">
        <ele>896</ele>
        <time>2016-08-28T14:48:58Z</time>
      </trkpt>
      <trkpt lat="44.99802" lon="5.31101">
        <ele>895</ele>
        <time>2016-08-28T14:49:00Z</time>
      </trkpt>
      <trkpt lat="44.99815" lon="5.31105">
        <ele>895</ele>
        <time>2016-08-28T14:49:02Z</time>
      </trkpt>
      <trkpt lat="44.99828" lon="5.3111">
        <ele>895</ele>
        <time>2016-08-28T14:49:04Z</time>
      </trkpt>
      <trkpt lat="44.99839" lon="5.31119">
        <ele>890</ele>
        <time>2016-08-28T14:49:06Z</time>
      </trkpt>
      <trkpt lat="44.99848" lon="5.31135">
        <ele>890</ele>
        <time>2016-08-28T14:49:08Z</time>
      </trkpt>
      <trkpt lat="44.99856" lon="5.31151">
        <ele>890</ele>
        <time>2016-08-28T14:49:10Z</time>
      </trkpt>
      <trkpt lat="44.99866" lon="5.31165">
        <ele>890</ele>
        <time>2016-08-28T14:49:12Z</time>
      </trkpt>
      <trkpt lat="44.99877" lon="5.31177">
        <ele>889</ele>
        <time>2016-08-28T14:49:14Z</time>
      </trkpt>
      <trkpt lat="44.99887" lon="5.3119">
        <ele>889</ele>
        <time>2016-08-28T14:49:16Z</time>
      </trkpt>
      <trkpt lat="44.99896" lon="5.31204">
        <ele>888</ele>
        <time>2016-08-28T14:49:18Z</time>
      </trkpt>
      <trkpt lat="44.99903" lon="5.31217">
        <ele>888</ele>
        <time>2016-08-28T14:49:20Z</time>
      </trkpt>
      <trkpt lat="44.99914" lon="5.31228">
        <ele>887</ele>
        <time>2016-08-28T14:49:22Z</time>
      </trkpt>
      <trkpt lat="44.99926" lon="5.3123">
        <ele>882</ele>
        <time>2016-08-28T14:49:24Z</time>
      </trkpt>
      <trkpt lat="44.99934" lon="5.31235">
        <ele>882</ele>
        <time>2016-08-28T14:49:26Z</time>
      </trkpt>
      <trkpt lat="44.99943" lon="5.31231">
        <ele>881</ele>
        <time>2016-08-28T14:49:28Z</time>
      </trkpt>
      <trkpt lat="44.99953" lon="5.31228">
        <ele>881</ele>
        <time>2016-08-28T14:49:30Z</time>
      </trkpt>
      <trkpt lat="44.99966" lon="5.31225">
        <ele>880</ele>
        <time>2016-08-28T14:49:32Z</time>
      </trkpt>
      <trkpt lat="44.99981" lon="5.31222">
        <ele>879</ele>
        <time>2016-08-28T14:49:34Z</time>
      </trkpt>
      <trkpt lat="44.99996" lon="5.31224">
        <ele>879</ele>
        <time>2016-08-28T14:49:36Z</time>
      </trkpt>
      <trkpt lat="45.00009" lon="5.31226">
        <ele>874</ele>
        <time>2016-08-28T14:49:38Z</time>
      </trkpt>
      <trkpt lat="45.00022" lon="5.31228">
        <ele>874</ele>
        <time>2016-08-28T14:49:40Z</time>
      </trkpt>
      <trkpt lat="45.00035" lon="5.31233">
        <ele>873</ele>
        <time>2016-08-28T14:49:42Z</time>
      </trkpt>
      <trkpt lat="45.00047" lon="5.31241">
        <ele>873</ele>
        <time>2016-08-28T14:49:44Z</time>
      </trkpt>
      <trkpt lat="45.00058" lon="5.31248">
        <ele>872</ele>
        <time>2016-08-28T14:49:46Z</time>
      </trkpt>
      <trkpt lat="45.00077" lon="5.31258">
        <ele>871</ele>
        <time>2016-08-28T14:49:50Z</time>
      </trkpt>
      <trkpt lat="45.00091" lon="5.31266">
        <ele>870</ele>
        <time>2016-08-28T14:49:52Z</time>
      </trkpt>
      <trkpt lat="45.001" lon="5.31273">
        <ele>870</ele>
        <time>2016-08-28T14:49:54Z</time>
      </trkpt>
      <trkpt lat="45.00108" lon="5.3128">
        <ele>870</ele>
        <time>2016-08-28T14:49:56Z</time>
      </trkpt>
      <trkpt lat="45.00116" lon="5.31288">
        <ele>870</ele>
        <time>2016-08-28T14:49:58Z</time>
      </trkpt>
      <trkpt lat="45.00127" lon="5.31296">
        <ele>870</ele>
        <time>2016-08-28T14:50:01Z</time>
      </trkpt>
      <trkpt lat="45.00136" lon="5.31298">
        <ele>870</ele>
        <time>2016-08-28T14:50:03Z</time>
      </trkpt>
      <trkpt lat="45.00146" lon="5.31304">
        <ele>870</ele>
        <time>2016-08-28T14:50:05Z</time>
      </trkpt>
      <trkpt lat="45.00155" lon="5.31311">
        <ele>870</ele>
        <time>2016-08-28T14:50:07Z</time>
      </trkpt>
      <trkpt lat="45.00165" lon="5.31319">
        <ele>870</ele>
        <time>2016-08-28T14:50:09Z</time>
      </trkpt>
      <trkpt lat="45.00174" lon="5.31327">
        <ele>870</ele>
        <time>2016-08-28T14:50:11Z</time>
      </trkpt>
      <trkpt lat="45.00184" lon="5.3134">
        <ele>869</ele>
        <time>2016-08-28T14:50:13Z</time>
      </trkpt>
      <trkpt lat="45.00194" lon="5.31351">
        <ele>868</ele>
        <time>2016-08-28T14:50:15Z</time>
      </trkpt>
      <trkpt lat="45.00206" lon="5.3136">
        <ele>868</ele>
        <time>2016-08-28T14:50:17Z</time>
      </trkpt>
      <trkpt lat="45.0022" lon="5.3137">
        <ele>868</ele>
        <time>2016-08-28T14:50:19Z</time>
      </trkpt>
      <trkpt lat="45.00234" lon="5.3138">
        <ele>867</ele>
        <time>2016-08-28T14:50:21Z</time>
      </trkpt>
      <trkpt lat="45.00249" lon="5.3139">
        <ele>867</ele>
        <time>2016-08-28T14:50:23Z</time>
      </trkpt>
      <trkpt lat="45.00261" lon="5.31403">
        <ele>866</ele>
        <time>2016-08-28T14:50:25Z</time>
      </trkpt>
      <trkpt lat="45.00275" lon="5.31416">
        <ele>866</ele>
        <time>2016-08-28T14:50:27Z</time>
      </trkpt>
      <trkpt lat="45.00288" lon="5.31426">
        <ele>863</ele>
        <time>2016-08-28T14:50:29Z</time>
      </trkpt>
      <trkpt lat="45.00295" lon="5.31436">
        <ele>862</ele>
        <time>2016-08-28T14:50:31Z</time>
      </trkpt>
      <trkpt lat="45.00295" lon="5.31452">
        <ele>862</ele>
        <time>2016-08-28T14:50:34Z</time>
      </trkpt>
      <trkpt lat="45.00299" lon="5.31467">
        <ele>862</ele>
        <time>2016-08-28T14:50:37Z</time>
      </trkpt>
      <trkpt lat="45.00305" lon="5.3148">
        <ele>861</ele>
        <time>2016-08-28T14:50:40Z</time>
      </trkpt>
      <trkpt lat="45.00307" lon="5.31494">
        <ele>861</ele>
        <time>2016-08-28T14:50:43Z</time>
      </trkpt>
      <trkpt lat="45.00312" lon="5.31507">
        <ele>860</ele>
        <time>2016-08-28T14:50:47Z</time>
      </trkpt>
      <trkpt lat="45.00317" lon="5.31522">
        <ele>860</ele>
        <time>2016-08-28T14:50:51Z</time>
      </trkpt>
      <trkpt lat="45.00325" lon="5.31539">
        <ele>860</ele>
        <time>2016-08-28T14:50:56Z</time>
      </trkpt>
      <trkpt lat="45.00328" lon="5.31552">
        <ele>860</ele>
        <time>2016-08-28T14:51:00Z</time>
      </trkpt>
      <trkpt lat="45.00335" lon="5.31563">
        <ele>859</ele>
        <time>2016-08-28T14:51:05Z</time>
      </trkpt>
      <trkpt lat="45.0034" lon="5.31575">
        <ele>859</ele>
        <time>2016-08-28T14:51:13Z</time>
      </trkpt>
      <trkpt lat="45.00347" lon="5.31587">
        <ele>860</ele>
        <time>2016-08-28T14:51:19Z</time>
      </trkpt>
      <trkpt lat="45.00353" lon="5.31602">
        <ele>860</ele>
        <time>2016-08-28T14:51:26Z</time>
      </trkpt>
      <trkpt lat="45.00358" lon="5.31618">
        <ele>861</ele>
        <time>2016-08-28T14:51:29Z</time>
      </trkpt>
      <trkpt lat="45.00363" lon="5.31632">
        <ele>861</ele>
        <time>2016-08-28T14:51:34Z</time>
      </trkpt>
      <trkpt lat="45.00368" lon="5.31644">
        <ele>861</ele>
        <time>2016-08-28T14:51:37Z</time>
      </trkpt>
      <trkpt lat="45.00372" lon="5.31657">
        <ele>861</ele>
        <time>2016-08-28T14:51:43Z</time>
      </trkpt>
      <trkpt lat="45.00378" lon="5.31668">
        <ele>863</ele>
        <time>2016-08-28T14:51:49Z</time>
      </trkpt>
      <trkpt lat="45.00386" lon="5.31678">
        <ele>864</ele>
        <time>2016-08-28T14:51:55Z</time>
      </trkpt>
      <trkpt lat="45.00393" lon="5.31687">
        <ele>864</ele>
        <time>2016-08-28T14:52:02Z</time>
      </trkpt>
      <trkpt lat="45.0039" lon="5.31699">
        <ele>864</ele>
        <time>2016-08-28T14:52:09Z</time>
      </trkpt>
      <trkpt lat="45.00388" lon="5.31715">
        <ele>864</ele>
        <time>2016-08-28T14:52:15Z</time>
      </trkpt>
      <trkpt lat="45.00383" lon="5.31727">
        <ele>864</ele>
        <time>2016-08-28T14:52:21Z</time>
      </trkpt>
      <trkpt lat="45.00386" lon="5.31751">
        <ele>863</ele>
        <time>2016-08-28T14:52:26Z</time>
      </trkpt>
      <trkpt lat="45.00386" lon="5.31766">
        <ele>863</ele>
        <time>2016-08-28T14:52:27Z</time>
      </trkpt>
      <trkpt lat="45.00391" lon="5.31783">
        <ele>862</ele>
        <time>2016-08-28T14:52:29Z</time>
      </trkpt>
      <trkpt lat="45.00393" lon="5.31796">
        <ele>861</ele>
        <time>2016-08-28T14:52:31Z</time>
      </trkpt>
      <trkpt lat="45.00399" lon="5.31806">
        <ele>861</ele>
        <time>2016-08-28T14:52:34Z</time>
      </trkpt>
      <trkpt lat="45.00405" lon="5.31821">
        <ele>859</ele>
        <time>2016-08-28T14:52:37Z</time>
      </trkpt>
      <trkpt lat="45.00416" lon="5.31831">
        <ele>857</ele>
        <time>2016-08-28T14:52:40Z</time>
      </trkpt>
      <trkpt lat="45.00425" lon="5.31845">
        <ele>855</ele>
        <time>2016-08-28T14:52:43Z</time>
      </trkpt>
      <trkpt lat="45.00434" lon="5.31854">
        <ele>853</ele>
        <time>2016-08-28T14:52:45Z</time>
      </trkpt>
      <trkpt lat="45.00447" lon="5.31863">
        <ele>852</ele>
        <time>2016-08-28T14:52:48Z</time>
      </trkpt>
      <trkpt lat="45.00455" lon="5.3187">
        <ele>852</ele>
        <time>2016-08-28T14:52:50Z</time>
      </trkpt>
      <trkpt lat="45.00466" lon="5.31881">
        <ele>851</ele>
        <time>2016-08-28T14:52:53Z</time>
      </trkpt>
      <trkpt lat="45.0048" lon="5.31894">
        <ele>849</ele>
        <time>2016-08-28T14:52:57Z</time>
      </trkpt>
      <trkpt lat="45.00494" lon="5.31899">
        <ele>848</ele>
        <time>2016-08-28T14:52:59Z</time>
      </trkpt>
      <trkpt lat="45.00505" lon="5.31908">
        <ele>846</ele>
        <time>2016-08-28T14:53:01Z</time>
      </trkpt>
      <trkpt lat="45.00518" lon="5.31919">
        <ele>838</ele>
        <time>2016-08-28T14:53:05Z</time>
      </trkpt>
      <trkpt lat="45.00509" lon="5.31928">
        <ele>838</ele>
        <time>2016-08-28T14:53:20Z</time>
      </trkpt>
      <trkpt lat="45.00496" lon="5.31931">
        <ele>841</ele>
        <time>2016-08-28T14:53:27Z</time>
      </trkpt>
      <trkpt lat="45.00485" lon="5.31936">
        <ele>840</ele>
        <time>2016-08-28T14:53:31Z</time>
      </trkpt>
      <trkpt lat="45.00475" lon="5.3194">
        <ele>840</ele>
        <time>2016-08-28T14:53:36Z</time>
      </trkpt>
      <trkpt lat="45.00467" lon="5.31948">
        <ele>839</ele>
        <time>2016-08-28T14:53:39Z</time>
      </trkpt>
      <trkpt lat="45.00476" lon="5.31956">
        <ele>838</ele>
        <time>2016-08-28T14:53:43Z</time>
      </trkpt>
      <trkpt lat="45.00486" lon="5.31956">
        <ele>838</ele>
        <time>2016-08-28T14:53:45Z</time>
      </trkpt>
      <trkpt lat="45.00497" lon="5.31955">
        <ele>838</ele>
        <time>2016-08-28T14:53:47Z</time>
      </trkpt>
      <trkpt lat="45.00506" lon="5.31956">
        <ele>833</ele>
        <time>2016-08-28T14:53:49Z</time>
      </trkpt>
      <trkpt lat="45.00512" lon="5.31969">
        <ele>831</ele>
        <time>2016-08-28T14:53:54Z</time>
      </trkpt>
      <trkpt lat="45.00507" lon="5.31986">
        <ele>829</ele>
        <time>2016-08-28T14:53:57Z</time>
      </trkpt>
      <trkpt lat="45.00504" lon="5.31999">
        <ele>828</ele>
        <time>2016-08-28T14:53:59Z</time>
      </trkpt>
      <trkpt lat="45.00499" lon="5.32011">
        <ele>828</ele>
        <time>2016-08-28T14:54:01Z</time>
      </trkpt>
      <trkpt lat="45.00495" lon="5.32029">
        <ele>829</ele>
        <time>2016-08-28T14:54:04Z</time>
      </trkpt>
      <trkpt lat="45.00491" lon="5.32042">
        <ele>829</ele>
        <time>2016-08-28T14:54:07Z</time>
      </trkpt>
      <trkpt lat="45.00504" lon="5.3205">
        <ele>821</ele>
        <time>2016-08-28T14:54:14Z</time>
      </trkpt>
      <trkpt lat="45.00514" lon="5.32055">
        <ele>821</ele>
        <time>2016-08-28T14:54:18Z</time>
      </trkpt>
      <trkpt lat="45.00525" lon="5.3205">
        <ele>820</ele>
        <time>2016-08-28T14:54:21Z</time>
      </trkpt>
      <trkpt lat="45.00533" lon="5.32037">
        <ele>820</ele>
        <time>2016-08-28T14:54:24Z</time>
      </trkpt>
      <trkpt lat="45.00544" lon="5.32026">
        <ele>819</ele>
        <time>2016-08-28T14:54:27Z</time>
      </trkpt>
      <trkpt lat="45.00554" lon="5.3202">
        <ele>819</ele>
        <time>2016-08-28T14:54:30Z</time>
      </trkpt>
      <trkpt lat="45.00564" lon="5.32027">
        <ele>818</ele>
        <time>2016-08-28T14:54:33Z</time>
      </trkpt>
      <trkpt lat="45.00576" lon="5.3204">
        <ele>817</ele>
        <time>2016-08-28T14:54:37Z</time>
      </trkpt>
      <trkpt lat="45.0059" lon="5.32046">
        <ele>812</ele>
        <time>2016-08-28T14:54:39Z</time>
      </trkpt>
      <trkpt lat="45.00604" lon="5.3205">
        <ele>812</ele>
        <time>2016-08-28T14:54:41Z</time>
      </trkpt>
      <trkpt lat="45.0062" lon="5.32052">
        <ele>812</ele>
        <time>2016-08-28T14:54:43Z</time>
      </trkpt>
      <trkpt lat="45.0063" lon="5.32053">
        <ele>811</ele>
        <time>2016-08-28T14:54:45Z</time>
      </trkpt>
      <trkpt lat="45.00639" lon="5.32055">
        <ele>811</ele>
        <time>2016-08-28T14:54:48Z</time>
      </trkpt>
      <trkpt lat="45.0065" lon="5.32062">
        <ele>810</ele>
        <time>2016-08-28T14:54:51Z</time>
      </trkpt>
      <trkpt lat="45.00658" lon="5.32071">
        <ele>808</ele>
        <time>2016-08-28T14:54:53Z</time>
      </trkpt>
      <trkpt lat="45.00667" lon="5.32081">
        <ele>805</ele>
        <time>2016-08-28T14:54:55Z</time>
      </trkpt>
      <trkpt lat="45.0068" lon="5.32091">
        <ele>805</ele>
        <time>2016-08-28T14:54:59Z</time>
      </trkpt>
      <trkpt lat="45.00691" lon="5.32094">
        <ele>804</ele>
        <time>2016-08-28T14:55:02Z</time>
      </trkpt>
      <trkpt lat="45.00701" lon="5.32092">
        <ele>803</ele>
        <time>2016-08-28T14:55:05Z</time>
      </trkpt>
      <trkpt lat="45.00712" lon="5.32092">
        <ele>802</ele>
        <time>2016-08-28T14:55:08Z</time>
      </trkpt>
      <trkpt lat="45.00722" lon="5.32091">
        <ele>799</ele>
        <time>2016-08-28T14:55:10Z</time>
      </trkpt>
      <trkpt lat="45.00741" lon="5.32096">
        <ele>796</ele>
        <time>2016-08-28T14:55:12Z</time>
      </trkpt>
      <trkpt lat="45.0076" lon="5.32094">
        <ele>787</ele>
        <time>2016-08-28T14:55:15Z</time>
      </trkpt>
      <trkpt lat="45.00769" lon="5.32093">
        <ele>787</ele>
        <time>2016-08-28T14:55:16Z</time>
      </trkpt>
      <trkpt lat="45.00785" lon="5.3209">
        <ele>785</ele>
        <time>2016-08-28T14:55:18Z</time>
      </trkpt>
      <trkpt lat="45.00798" lon="5.3209">
        <ele>784</ele>
        <time>2016-08-28T14:55:20Z</time>
      </trkpt>
      <trkpt lat="45.00808" lon="5.32086">
        <ele>782</ele>
        <time>2016-08-28T14:55:22Z</time>
      </trkpt>
      <trkpt lat="45.00818" lon="5.3208">
        <ele>780</ele>
        <time>2016-08-28T14:55:24Z</time>
      </trkpt>
      <trkpt lat="45.00828" lon="5.32077">
        <ele>778</ele>
        <time>2016-08-28T14:55:26Z</time>
      </trkpt>
      <trkpt lat="45.00839" lon="5.32072">
        <ele>775</ele>
        <time>2016-08-28T14:55:28Z</time>
      </trkpt>
      <trkpt lat="45.0085" lon="5.32069">
        <ele>775</ele>
        <time>2016-08-28T14:55:30Z</time>
      </trkpt>
      <trkpt lat="45.0086" lon="5.32065">
        <ele>774</ele>
        <time>2016-08-28T14:55:33Z</time>
      </trkpt>
      <trkpt lat="45.0087" lon="5.32061">
        <ele>774</ele>
        <time>2016-08-28T14:55:36Z</time>
      </trkpt>
      <trkpt lat="45.00881" lon="5.32057">
        <ele>773</ele>
        <time>2016-08-28T14:55:39Z</time>
      </trkpt>
      <trkpt lat="45.00893" lon="5.32052">
        <ele>773</ele>
        <time>2016-08-28T14:55:47Z</time>
      </trkpt>
      <trkpt lat="45.00904" lon="5.32048">
        <ele>773</ele>
        <time>2016-08-28T14:55:51Z</time>
      </trkpt>
      <trkpt lat="45.00915" lon="5.32043">
        <ele>773</ele>
        <time>2016-08-28T14:55:55Z</time>
      </trkpt>
      <trkpt lat="45.00924" lon="5.32037">
        <ele>760</ele>
        <time>2016-08-28T14:55:58Z</time>
      </trkpt>
      <trkpt lat="45.00932" lon="5.32026">
        <ele>761</ele>
        <time>2016-08-28T14:56:01Z</time>
      </trkpt>
      <trkpt lat="45.00942" lon="5.32018">
        <ele>760</ele>
        <time>2016-08-28T14:56:04Z</time>
      </trkpt>
      <trkpt lat="45.00952" lon="5.3201">
        <ele>758</ele>
        <time>2016-08-28T14:56:08Z</time>
      </trkpt>
      <trkpt lat="45.00956" lon="5.31999">
        <ele>759</ele>
        <time>2016-08-28T14:56:11Z</time>
      </trkpt>
      <trkpt lat="45.00962" lon="5.31986">
        <ele>757</ele>
        <time>2016-08-28T14:56:14Z</time>
      </trkpt>
      <trkpt lat="45.0097" lon="5.31976">
        <ele>755</ele>
        <time>2016-08-28T14:56:17Z</time>
      </trkpt>
      <trkpt lat="45.00976" lon="5.31958">
        <ele>754</ele>
        <time>2016-08-28T14:56:21Z</time>
      </trkpt>
      <trkpt lat="45.00976" lon="5.31938">
        <ele>753</ele>
        <time>2016-08-28T14:56:24Z</time>
      </trkpt>
      <trkpt lat="45.00979" lon="5.3191">
        <ele>743</ele>
        <time>2016-08-28T14:56:28Z</time>
      </trkpt>
      <trkpt lat="45.00982" lon="5.31896">
        <ele>742</ele>
        <time>2016-08-28T14:56:29Z</time>
      </trkpt>
      <trkpt lat="45.00982" lon="5.31867">
        <ele>738</ele>
        <time>2016-08-28T14:56:33Z</time>
      </trkpt>
      <trkpt lat="45.00975" lon="5.31855">
        <ele>737</ele>
        <time>2016-08-28T14:56:35Z</time>
      </trkpt>
      <trkpt lat="45.00968" lon="5.31845">
        <ele>738</ele>
        <time>2016-08-28T14:56:37Z</time>
      </trkpt>
      <trkpt lat="45.00961" lon="5.31827">
        <ele>724</ele>
        <time>2016-08-28T14:56:40Z</time>
      </trkpt>
      <trkpt lat="45.00953" lon="5.31813">
        <ele>726</ele>
        <time>2016-08-28T14:56:42Z</time>
      </trkpt>
      <trkpt lat="45.00947" lon="5.31798">
        <ele>725</ele>
        <time>2016-08-28T14:56:44Z</time>
      </trkpt>
      <trkpt lat="45.0094" lon="5.31783">
        <ele>724</ele>
        <time>2016-08-28T14:56:47Z</time>
      </trkpt>
      <trkpt lat="45.00934" lon="5.31773">
        <ele>725</ele>
        <time>2016-08-28T14:56:51Z</time>
      </trkpt>
      <trkpt lat="45.00925" lon="5.31767">
        <ele>727</ele>
        <time>2016-08-28T14:57:15Z</time>
      </trkpt>
      <trkpt lat="45.00928" lon="5.31754">
        <ele>727</ele>
        <time>2016-08-28T14:57:26Z</time>
      </trkpt>
      <trkpt lat="45.00926" lon="5.3174">
        <ele>713</ele>
        <time>2016-08-28T14:57:32Z</time>
      </trkpt>
      <trkpt lat="45.00921" lon="5.31726">
        <ele>706</ele>
        <time>2016-08-28T14:57:38Z</time>
      </trkpt>
      <trkpt lat="45.00912" lon="5.31717">
        <ele>731</ele>
        <time>2016-08-28T14:57:41Z</time>
      </trkpt>
      <trkpt lat="45.00906" lon="5.31706">
        <ele>728</ele>
        <time>2016-08-28T14:57:44Z</time>
      </trkpt>
      <trkpt lat="45.009" lon="5.3169">
        <ele>724</ele>
        <time>2016-08-28T14:57:48Z</time>
      </trkpt>
      <trkpt lat="45.00892" lon="5.31681">
        <ele>724</ele>
        <time>2016-08-28T14:57:52Z</time>
      </trkpt>
      <trkpt lat="45.00884" lon="5.31671">
        <ele>726</ele>
        <time>2016-08-28T14:57:56Z</time>
      </trkpt>
      <trkpt lat="45.00877" lon="5.31659">
        <ele>706</ele>
        <time>2016-08-28T14:58:00Z</time>
      </trkpt>
      <trkpt lat="45.00866" lon="5.31642">
        <ele>707</ele>
        <time>2016-08-28T14:58:05Z</time>
      </trkpt>
      <trkpt lat="45.00858" lon="5.31628">
        <ele>706</ele>
        <time>2016-08-28T14:58:08Z</time>
      </trkpt>
      <trkpt lat="45.00852" lon="5.31615">
        <ele>704</ele>
        <time>2016-08-28T14:58:11Z</time>
      </trkpt>
      <trkpt lat="45.00849" lon="5.31598">
        <ele>702</ele>
        <time>2016-08-28T14:58:15Z</time>
      </trkpt>
      <trkpt lat="45.00843" lon="5.31572">
        <ele>687</ele>
        <time>2016-08-28T14:58:20Z</time>
      </trkpt>
      <trkpt lat="45.00837" lon="5.31558">
        <ele>681</ele>
        <time>2016-08-28T14:58:24Z</time>
      </trkpt>
      <trkpt lat="45.00831" lon="5.31541">
        <ele>705</ele>
        <time>2016-08-28T14:58:28Z</time>
      </trkpt>
      <trkpt lat="45.00823" lon="5.31531">
        <ele>703</ele>
        <time>2016-08-28T14:58:31Z</time>
      </trkpt>
      <trkpt lat="45.00816" lon="5.31514">
        <ele>698</ele>
        <time>2016-08-28T14:58:34Z</time>
      </trkpt>
      <trkpt lat="45.00811" lon="5.31502">
        <ele>698</ele>
        <time>2016-08-28T14:58:37Z</time>
      </trkpt>
      <trkpt lat="45.00806" lon="5.3149">
        <ele>684</ele>
        <time>2016-08-28T14:58:40Z</time>
      </trkpt>
      <trkpt lat="45.008" lon="5.31469">
        <ele>685</ele>
        <time>2016-08-28T14:58:45Z</time>
      </trkpt>
      <trkpt lat="45.00794" lon="5.31457">
        <ele>685</ele>
        <time>2016-08-28T14:58:48Z</time>
      </trkpt>
      <trkpt lat="45.00791" lon="5.31444">
        <ele>684</ele>
        <time>2016-08-28T14:58:51Z</time>
      </trkpt>
      <trkpt lat="45.00788" lon="5.3143">
        <ele>684</ele>
        <time>2016-08-28T14:58:54Z</time>
      </trkpt>
      <trkpt lat="45.00785" lon="5.31413">
        <ele>670</ele>
        <time>2016-08-28T14:58:57Z</time>
      </trkpt>
      <trkpt lat="45.00782" lon="5.31399">
        <ele>670</ele>
        <time>2016-08-28T14:59:00Z</time>
      </trkpt>
      <trkpt lat="45.00778" lon="5.31386">
        <ele>669</ele>
        <time>2016-08-28T14:59:03Z</time>
      </trkpt>
      <trkpt lat="45.00779" lon="5.31372">
        <ele>667</ele>
        <time>2016-08-28T14:59:06Z</time>
      </trkpt>
      <trkpt lat="45.0078" lon="5.31355">
        <ele>665</ele>
        <time>2016-08-28T14:59:09Z</time>
      </trkpt>
      <trkpt lat="45.00779" lon="5.3134">
        <ele>666</ele>
        <time>2016-08-28T14:59:12Z</time>
      </trkpt>
      <trkpt lat="45.00774" lon="5.31319">
        <ele>656</ele>
        <time>2016-08-28T14:59:17Z</time>
      </trkpt>
      <trkpt lat="45.00771" lon="5.31301">
        <ele>653</ele>
        <time>2016-08-28T14:59:20Z</time>
      </trkpt>
      <trkpt lat="45.00767" lon="5.31286">
        <ele>652</ele>
        <time>2016-08-28T14:59:23Z</time>
      </trkpt>
      <trkpt lat="45.00776" lon="5.31302">
        <ele>652</ele>
        <time>2016-08-28T14:59:36Z</time>
      </trkpt>
      <trkpt lat="45.00782" lon="5.31313">
        <ele>651</ele>
        <time>2016-08-28T14:59:38Z</time>
      </trkpt>
      <trkpt lat="45.00787" lon="5.31327">
        <ele>651</ele>
        <time>2016-08-28T14:59:42Z</time>
      </trkpt>
      <trkpt lat="45.00794" lon="5.31339">
        <ele>659</ele>
        <time>2016-08-28T14:59:49Z</time>
      </trkpt>
      <trkpt lat="45.00804" lon="5.31336">
        <ele>653</ele>
        <time>2016-08-28T14:59:53Z</time>
      </trkpt>
      <trkpt lat="45.00805" lon="5.31315">
        <ele>642</ele>
        <time>2016-08-28T14:59:55Z</time>
      </trkpt>
      <trkpt lat="45.00806" lon="5.31301">
        <ele>641</ele>
        <time>2016-08-28T14:59:57Z</time>
      </trkpt>
      <trkpt lat="45.00811" lon="5.31285">
        <ele>639</ele>
        <time>2016-08-28T14:59:59Z</time>
      </trkpt>
      <trkpt lat="45.00812" lon="5.3127">
        <ele>635</ele>
        <time>2016-08-28T15:00:01Z</time>
      </trkpt>
      <trkpt lat="45.00809" lon="5.31252">
        <ele>633</ele>
        <time>2016-08-28T15:00:03Z</time>
      </trkpt>
      <trkpt lat="45.00808" lon="5.31239">
        <ele>626</ele>
        <time>2016-08-28T15:00:05Z</time>
      </trkpt>
      <trkpt lat="45.00808" lon="5.31219">
        <ele>627</ele>
        <time>2016-08-28T15:00:07Z</time>
      </trkpt>
      <trkpt lat="45.00809" lon="5.31199">
        <ele>625</ele>
        <time>2016-08-28T15:00:09Z</time>
      </trkpt>
      <trkpt lat="45.00809" lon="5.31183">
        <ele>622</ele>
        <time>2016-08-28T15:00:11Z</time>
      </trkpt>
      <trkpt lat="45.00807" lon="5.31167">
        <ele>614</ele>
        <time>2016-08-28T15:00:13Z</time>
      </trkpt>
      <trkpt lat="45.00807" lon="5.31153">
        <ele>614</ele>
        <time>2016-08-28T15:00:15Z</time>
      </trkpt>
      <trkpt lat="45.00805" lon="5.31138">
        <ele>615</ele>
        <time>2016-08-28T15:00:17Z</time>
      </trkpt>
      <trkpt lat="45.00806" lon="5.3112">
        <ele>613</ele>
        <time>2016-08-28T15:00:19Z</time>
      </trkpt>
      <trkpt lat="45.00802" lon="5.31103">
        <ele>612</ele>
        <time>2016-08-28T15:00:21Z</time>
      </trkpt>
      <trkpt lat="45.00801" lon="5.31084">
        <ele>611</ele>
        <time>2016-08-28T15:00:23Z</time>
      </trkpt>
      <trkpt lat="45.00797" lon="5.31065">
        <ele>601</ele>
        <time>2016-08-28T15:00:25Z</time>
      </trkpt>
      <trkpt lat="45.00797" lon="5.31049">
        <ele>600</ele>
        <time>2016-08-28T15:00:27Z</time>
      </trkpt>
      <trkpt lat="45.00801" lon="5.31027">
        <ele>597</ele>
        <time>2016-08-28T15:00:31Z</time>
      </trkpt>
      <trkpt lat="45.00799" lon="5.31012">
        <ele>595</ele>
        <time>2016-08-28T15:00:36Z</time>
      </trkpt>
      <trkpt lat="45.00789" lon="5.31013">
        <ele>599</ele>
        <time>2016-08-28T15:00:42Z</time>
      </trkpt>
      <trkpt lat="45.00799" lon="5.31016">
        <ele>596</ele>
        <time>2016-08-28T15:01:01Z</time>
      </trkpt>
      <trkpt lat="45.0079" lon="5.31022">
        <ele>599</ele>
        <time>2016-08-28T15:01:16Z</time>
      </trkpt>
      <trkpt lat="45.0078" lon="5.3102">
        <ele>602</ele>
        <time>2016-08-28T15:01:24Z</time>
      </trkpt>
      <trkpt lat="45.00783" lon="5.31005">
        <ele>601</ele>
        <time>2016-08-28T15:01:45Z</time>
      </trkpt>
      <trkpt lat="45.00794" lon="5.31018">
        <ele>598</ele>
        <time>2016-08-28T15:02:00Z</time>
      </trkpt>
      <trkpt lat="45.00802" lon="5.31027">
        <ele>596</ele>
        <time>2016-08-28T15:02:04Z</time>
      </trkpt>
      <trkpt lat="45.00816" lon="5.31041">
        <ele>595</ele>
        <time>2016-08-28T15:02:08Z</time>
      </trkpt>
      <trkpt lat="45.00827" lon="5.31049">
        <ele>594</ele>
        <time>2016-08-28T15:02:10Z</time>
      </trkpt>
      <trkpt lat="45.00839" lon="5.3106">
        <ele>573</ele>
        <time>2016-08-28T15:02:12Z</time>
      </trkpt>
      <trkpt lat="45.00846" lon="5.31068">
        <ele>574</ele>
        <time>2016-08-28T15:02:14Z</time>
      </trkpt>
      <trkpt lat="45.00855" lon="5.31078">
        <ele>573</ele>
        <time>2016-08-28T15:02:16Z</time>
      </trkpt>
      <trkpt lat="45.00861" lon="5.31088">
        <ele>578</ele>
        <time>2016-08-28T15:02:18Z</time>
      </trkpt>
      <trkpt lat="45.00869" lon="5.31107">
        <ele>577</ele>
        <time>2016-08-28T15:02:23Z</time>
      </trkpt>
      <trkpt lat="45.00874" lon="5.31121">
        <ele>576</ele>
        <time>2016-08-28T15:02:25Z</time>
      </trkpt>
      <trkpt lat="45.00881" lon="5.31131">
        <ele>576</ele>
        <time>2016-08-28T15:02:35Z</time>
      </trkpt>
      <trkpt lat="45.0089" lon="5.31136">
        <ele>574</ele>
        <time>2016-08-28T15:02:46Z</time>
      </trkpt>
      <trkpt lat="45.00893" lon="5.31149">
        <ele>574</ele>
        <time>2016-08-28T15:02:49Z</time>
      </trkpt>
      <trkpt lat="45.0089" lon="5.31161">
        <ele>574</ele>
        <time>2016-08-28T15:02:55Z</time>
      </trkpt>
      <trkpt lat="45.00899" lon="5.31173">
        <ele>578</ele>
        <time>2016-08-28T15:03:21Z</time>
      </trkpt>
      <trkpt lat="45.0091" lon="5.3117">
        <ele>572</ele>
        <time>2016-08-28T15:03:25Z</time>
      </trkpt>
      <trkpt lat="45.00918" lon="5.31162">
        <ele>564</ele>
        <time>2016-08-28T15:03:27Z</time>
      </trkpt>
      <trkpt lat="45.00928" lon="5.3115">
        <ele>560</ele>
        <time>2016-08-28T15:03:30Z</time>
      </trkpt>
      <trkpt lat="45.00936" lon="5.31143">
        <ele>558</ele>
        <time>2016-08-28T15:03:33Z</time>
      </trkpt>
      <trkpt lat="45.00947" lon="5.31134">
        <ele>557</ele>
        <time>2016-08-28T15:03:36Z</time>
      </trkpt>
      <trkpt lat="45.00955" lon="5.31127">
        <ele>556</ele>
        <time>2016-08-28T15:03:40Z</time>
      </trkpt>
      <trkpt lat="45.00966" lon="5.31119">
        <ele>555</ele>
        <time>2016-08-28T15:03:46Z</time>
      </trkpt>
      <trkpt lat="45.00978" lon="5.31113">
        <ele>553</ele>
        <time>2016-08-28T15:03:50Z</time>
      </trkpt>
      <trkpt lat="45.00991" lon="5.31108">
        <ele>552</ele>
        <time>2016-08-28T15:03:53Z</time>
      </trkpt>
      <trkpt lat="45.01002" lon="5.31104">
        <ele>546</ele>
        <time>2016-08-28T15:03:55Z</time>
      </trkpt>
      <trkpt lat="45.01011" lon="5.311">
        <ele>546</ele>
        <time>2016-08-28T15:03:57Z</time>
      </trkpt>
      <trkpt lat="45.01023" lon="5.31092">
        <ele>545</ele>
        <time>2016-08-28T15:04:00Z</time>
      </trkpt>
      <trkpt lat="45.01033" lon="5.31085">
        <ele>545</ele>
        <time>2016-08-28T15:04:03Z</time>
      </trkpt>
      <trkpt lat="45.01043" lon="5.31075">
        <ele>536</ele>
        <time>2016-08-28T15:04:08Z</time>
      </trkpt>
      <trkpt lat="45.01054" lon="5.31066">
        <ele>535</ele>
        <time>2016-08-28T15:04:11Z</time>
      </trkpt>
      <trkpt lat="45.01063" lon="5.31062">
        <ele>534</ele>
        <time>2016-08-28T15:04:14Z</time>
      </trkpt>
      <trkpt lat="45.01073" lon="5.31055">
        <ele>534</ele>
        <time>2016-08-28T15:04:18Z</time>
      </trkpt>
      <trkpt lat="45.01087" lon="5.31048">
        <ele>526</ele>
        <time>2016-08-28T15:04:24Z</time>
      </trkpt>
      <trkpt lat="45.01098" lon="5.31042">
        <ele>525</ele>
        <time>2016-08-28T15:04:28Z</time>
      </trkpt>
      <trkpt lat="45.0111" lon="5.31045">
        <ele>524</ele>
        <time>2016-08-28T15:04:31Z</time>
      </trkpt>
      <trkpt lat="45.0112" lon="5.31043">
        <ele>523</ele>
        <time>2016-08-28T15:04:34Z</time>
      </trkpt>
      <trkpt lat="45.01131" lon="5.31045">
        <ele>522</ele>
        <time>2016-08-28T15:04:40Z</time>
      </trkpt>
      <trkpt lat="45.0114" lon="5.31051">
        <ele>522</ele>
        <time>2016-08-28T15:04:57Z</time>
      </trkpt>
      <trkpt lat="45.01148" lon="5.31043">
        <ele>521</ele>
        <time>2016-08-28T15:05:16Z</time>
      </trkpt>
      <trkpt lat="45.01159" lon="5.31045">
        <ele>520</ele>
        <time>2016-08-28T15:05:26Z</time>
      </trkpt>
      <trkpt lat="45.01168" lon="5.31054">
        <ele>508</ele>
        <time>2016-08-28T15:05:32Z</time>
      </trkpt>
      <trkpt lat="45.01177" lon="5.31063">
        <ele>510</ele>
        <time>2016-08-28T15:05:46Z</time>
      </trkpt>
      <trkpt lat="45.01187" lon="5.31062">
        <ele>507</ele>
        <time>2016-08-28T15:05:54Z</time>
      </trkpt>
      <trkpt lat="45.01194" lon="5.31053">
        <ele>504</ele>
        <time>2016-08-28T15:05:58Z</time>
      </trkpt>
      <trkpt lat="45.012" lon="5.31039">
        <ele>502</ele>
        <time>2016-08-28T15:06:03Z</time>
      </trkpt>
      <trkpt lat="45.01198" lon="5.31024">
        <ele>501</ele>
        <time>2016-08-28T15:06:08Z</time>
      </trkpt>
      <trkpt lat="45.01208" lon="5.31017">
        <ele>499</ele>
        <time>2016-08-28T15:06:18Z</time>
      </trkpt>
      <trkpt lat="45.01219" lon="5.3102">
        <ele>496</ele>
        <time>2016-08-28T15:06:23Z</time>
      </trkpt>
      <trkpt lat="45.01227" lon="5.31027">
        <ele>495</ele>
        <time>2016-08-28T15:06:28Z</time>
      </trkpt>
      <trkpt lat="45.01238" lon="5.31032">
        <ele>495</ele>
        <time>2016-08-28T15:06:35Z</time>
      </trkpt>
      <trkpt lat="45.01247" lon="5.31028">
        <ele>493</ele>
        <time>2016-08-28T15:06:39Z</time>
      </trkpt>
      <trkpt lat="45.01257" lon="5.31036">
        <ele>475</ele>
        <time>2016-08-28T15:06:57Z</time>
      </trkpt>
      <trkpt lat="45.01266" lon="5.31036">
        <ele>474</ele>
        <time>2016-08-28T15:07:01Z</time>
      </trkpt>
      <trkpt lat="45.01276" lon="5.31034">
        <ele>473</ele>
        <time>2016-08-28T15:07:06Z</time>
      </trkpt>
      <trkpt lat="45.01286" lon="5.31036">
        <ele>471</ele>
        <time>2016-08-28T15:07:11Z</time>
      </trkpt>
      <trkpt lat="45.01298" lon="5.31038">
        <ele>470</ele>
        <time>2016-08-28T15:07:17Z</time>
      </trkpt>
      <trkpt lat="45.01307" lon="5.31044">
        <ele>469</ele>
        <time>2016-08-28T15:07:22Z</time>
      </trkpt>
      <trkpt lat="45.01312" lon="5.31055">
        <ele>469</ele>
        <time>2016-08-28T15:07:34Z</time>
      </trkpt>
      <trkpt lat="45.01321" lon="5.31062">
        <ele>467</ele>
        <time>2016-08-28T15:07:44Z</time>
      </trkpt>
      <trkpt lat="45.01326" lon="5.31073">
        <ele>466</ele>
        <time>2016-08-28T15:07:50Z</time>
      </trkpt>
      <trkpt lat="45.01333" lon="5.31083">
        <ele>463</ele>
        <time>2016-08-28T15:07:58Z</time>
      </trkpt>
      <trkpt lat="45.01338" lon="5.31095">
        <ele>459</ele>
        <time>2016-08-28T15:08:06Z</time>
      </trkpt>
      <trkpt lat="45.0134" lon="5.31109">
        <ele>457</ele>
        <time>2016-08-28T15:08:12Z</time>
      </trkpt>
      <trkpt lat="45.01342" lon="5.31124">
        <ele>457</ele>
        <time>2016-08-28T15:08:16Z</time>
      </trkpt>
      <trkpt lat="45.01339" lon="5.31141">
        <ele>459</ele>
        <time>2016-08-28T15:08:20Z</time>
      </trkpt>
      <trkpt lat="45.01334" lon="5.31153">
        <ele>464</ele>
        <time>2016-08-28T15:08:25Z</time>
      </trkpt>
      <trkpt lat="45.01332" lon="5.31168">
        <ele>473</ele>
        <time>2016-08-28T15:08:28Z</time>
      </trkpt>
      <trkpt lat="45.01334" lon="5.31182">
        <ele>465</ele>
        <time>2016-08-28T15:08:32Z</time>
      </trkpt>
      <trkpt lat="45.01336" lon="5.31195">
        <ele>463</ele>
        <time>2016-08-28T15:08:38Z</time>
      </trkpt>
      <trkpt lat="45.01336" lon="5.3121">
        <ele>462</ele>
        <time>2016-08-28T15:08:42Z</time>
      </trkpt>
      <trkpt lat="45.01339" lon="5.31226">
        <ele>463</ele>
        <time>2016-08-28T15:08:47Z</time>
      </trkpt>
      <trkpt lat="45.01348" lon="5.31234">
        <ele>463</ele>
        <time>2016-08-28T15:08:52Z</time>
      </trkpt>
      <trkpt lat="45.01358" lon="5.31244">
        <ele>461</ele>
        <time>2016-08-28T15:08:54Z</time>
      </trkpt>
      <trkpt lat="45.01368" lon="5.3126">
        <ele>460</ele>
        <time>2016-08-28T15:08:57Z</time>
      </trkpt>
      <trkpt lat="45.01379" lon="5.31267">
        <ele>458</ele>
        <time>2016-08-28T15:09:01Z</time>
      </trkpt>
      <trkpt lat="45.01386" lon="5.31278">
        <ele>457</ele>
        <time>2016-08-28T15:09:05Z</time>
      </trkpt>
      <trkpt lat="45.01391" lon="5.31292">
        <ele>457</ele>
        <time>2016-08-28T15:09:11Z</time>
      </trkpt>
      <trkpt lat="45.01398" lon="5.31302">
        <ele>456</ele>
        <time>2016-08-28T15:09:16Z</time>
      </trkpt>
      <trkpt lat="45.01403" lon="5.31315">
        <ele>455</ele>
        <time>2016-08-28T15:09:26Z</time>
      </trkpt>
      <trkpt lat="45.01403" lon="5.31328">
        <ele>454</ele>
        <time>2016-08-28T15:09:36Z</time>
      </trkpt>
      <trkpt lat="45.01401" lon="5.31343">
        <ele>458</ele>
        <time>2016-08-28T15:09:49Z</time>
      </trkpt>
      <trkpt lat="45.01403" lon="5.31357">
        <ele>460</ele>
        <time>2016-08-28T15:09:58Z</time>
      </trkpt>
      <trkpt lat="45.01405" lon="5.31372">
        <ele>462</ele>
        <time>2016-08-28T15:10:05Z</time>
      </trkpt>
      <trkpt lat="45.01407" lon="5.31385">
        <ele>462</ele>
        <time>2016-08-28T15:10:18Z</time>
      </trkpt>
      <trkpt lat="45.01408" lon="5.31402">
        <ele>460</ele>
        <time>2016-08-28T15:10:22Z</time>
      </trkpt>
      <trkpt lat="45.01411" lon="5.31421">
        <ele>460</ele>
        <time>2016-08-28T15:10:25Z</time>
      </trkpt>
      <trkpt lat="45.01412" lon="5.31436">
        <ele>466</ele>
        <time>2016-08-28T15:10:31Z</time>
      </trkpt>
      <trkpt lat="45.01415" lon="5.3145">
        <ele>468</ele>
        <time>2016-08-28T15:10:35Z</time>
      </trkpt>
      <trkpt lat="45.01421" lon="5.31465">
        <ele>453</ele>
        <time>2016-08-28T15:10:39Z</time>
      </trkpt>
      <trkpt lat="45.01423" lon="5.31478">
        <ele>454</ele>
        <time>2016-08-28T15:10:46Z</time>
      </trkpt>
      <trkpt lat="45.01429" lon="5.31488">
        <ele>455</ele>
        <time>2016-08-28T15:10:53Z</time>
      </trkpt>
      <trkpt lat="45.01429" lon="5.31507">
        <ele>459</ele>
        <time>2016-08-28T15:11:04Z</time>
      </trkpt>
      <trkpt lat="45.01427" lon="5.31522">
        <ele>460</ele>
        <time>2016-08-28T15:11:10Z</time>
      </trkpt>
      <trkpt lat="45.01429" lon="5.31537">
        <ele>461</ele>
        <time>2016-08-28T15:11:15Z</time>
      </trkpt>
      <trkpt lat="45.01431" lon="5.3155">
        <ele>462</ele>
        <time>2016-08-28T15:11:20Z</time>
      </trkpt>
      <trkpt lat="45.01429" lon="5.31566">
        <ele>464</ele>
        <time>2016-08-28T15:11:25Z</time>
      </trkpt>
      <trkpt lat="45.01429" lon="5.31583">
        <ele>467</ele>
        <time>2016-08-28T15:11:29Z</time>
      </trkpt>
      <trkpt lat="45.01436" lon="5.31599">
        <ele>466</ele>
        <time>2016-08-28T15:11:32Z</time>
      </trkpt>
      <trkpt lat="45.0144" lon="5.31613">
        <ele>465</ele>
        <time>2016-08-28T15:11:34Z</time>
      </trkpt>
      <trkpt lat="45.01448" lon="5.31634">
        <ele>464</ele>
        <time>2016-08-28T15:11:38Z</time>
      </trkpt>
      <trkpt lat="45.01454" lon="5.31654">
        <ele>463</ele>
        <time>2016-08-28T15:11:42Z</time>
      </trkpt>
      <trkpt lat="45.01455" lon="5.3167">
        <ele>460</ele>
        <time>2016-08-28T15:11:45Z</time>
      </trkpt>
      <trkpt lat="45.01455" lon="5.31689">
        <ele>459</ele>
        <time>2016-08-28T15:11:48Z</time>
      </trkpt>
      <trkpt lat="45.01456" lon="5.31702">
        <ele>459</ele>
        <time>2016-08-28T15:11:50Z</time>
      </trkpt>
      <trkpt lat="45.01458" lon="5.31722">
        <ele>457</ele>
        <time>2016-08-28T15:11:54Z</time>
      </trkpt>
      <trkpt lat="45.01462" lon="5.31734">
        <ele>456</ele>
        <time>2016-08-28T15:11:56Z</time>
      </trkpt>
      <trkpt lat="45.01466" lon="5.31747">
        <ele>454</ele>
        <time>2016-08-28T15:11:58Z</time>
      </trkpt>
      <trkpt lat="45.01475" lon="5.31756">
        <ele>445</ele>
        <time>2016-08-28T15:12:01Z</time>
      </trkpt>
      <trkpt lat="45.01484" lon="5.31764">
        <ele>443</ele>
        <time>2016-08-28T15:12:05Z</time>
      </trkpt>
      <trkpt lat="45.01497" lon="5.31771">
        <ele>442</ele>
        <time>2016-08-28T15:12:08Z</time>
      </trkpt>
      <trkpt lat="45.01507" lon="5.31782">
        <ele>424</ele>
        <time>2016-08-28T15:12:10Z</time>
      </trkpt>
      <trkpt lat="45.01515" lon="5.31791">
        <ele>422</ele>
        <time>2016-08-28T15:12:12Z</time>
      </trkpt>
      <trkpt lat="45.01521" lon="5.31808">
        <ele>420</ele>
        <time>2016-08-28T15:12:15Z</time>
      </trkpt>
      <trkpt lat="45.01521" lon="5.31824">
        <ele>419</ele>
        <time>2016-08-28T15:12:19Z</time>
      </trkpt>
      <trkpt lat="45.0153" lon="5.31833">
        <ele>418</ele>
        <time>2016-08-28T15:12:25Z</time>
      </trkpt>
      <trkpt lat="45.0154" lon="5.3184">
        <ele>409</ele>
        <time>2016-08-28T15:12:29Z</time>
      </trkpt>
      <trkpt lat="45.01547" lon="5.31831">
        <ele>414</ele>
        <time>2016-08-28T15:12:32Z</time>
      </trkpt>
      <trkpt lat="45.01552" lon="5.31816">
        <ele>414</ele>
        <time>2016-08-28T15:12:35Z</time>
      </trkpt>
      <trkpt lat="45.01562" lon="5.31806">
        <ele>413</ele>
        <time>2016-08-28T15:12:41Z</time>
      </trkpt>
      <trkpt lat="45.01573" lon="5.31798">
        <ele>414</ele>
        <time>2016-08-28T15:12:44Z</time>
      </trkpt>
      <trkpt lat="45.01581" lon="5.31791">
        <ele>414</ele>
        <time>2016-08-28T15:12:46Z</time>
      </trkpt>
      <trkpt lat="45.0159" lon="5.31786">
        <ele>398</ele>
        <time>2016-08-28T15:12:48Z</time>
      </trkpt>
      <trkpt lat="45.01599" lon="5.31779">
        <ele>398</ele>
        <time>2016-08-28T15:12:50Z</time>
      </trkpt>
      <trkpt lat="45.0161" lon="5.31769">
        <ele>398</ele>
        <time>2016-08-28T15:12:52Z</time>
      </trkpt>
      <trkpt lat="45.01624" lon="5.31751">
        <ele>395</ele>
        <time>2016-08-28T15:12:55Z</time>
      </trkpt>
      <trkpt lat="45.01637" lon="5.31728">
        <ele>404</ele>
        <time>2016-08-28T15:12:58Z</time>
      </trkpt>
      <trkpt lat="45.01642" lon="5.31714">
        <ele>405</ele>
        <time>2016-08-28T15:12:59Z</time>
      </trkpt>
      <trkpt lat="45.01647" lon="5.31701">
        <ele>405</ele>
        <time>2016-08-28T15:13:00Z</time>
      </trkpt>
      <trkpt lat="45.01657" lon="5.31681">
        <ele>403</ele>
        <time>2016-08-28T15:13:02Z</time>
      </trkpt>
      <trkpt lat="45.01663" lon="5.31661">
        <ele>401</ele>
        <time>2016-08-28T15:13:04Z</time>
      </trkpt>
      <trkpt lat="45.01668" lon="5.31639">
        <ele>386</ele>
        <time>2016-08-28T15:13:06Z</time>
      </trkpt>
      <trkpt lat="45.01673" lon="5.31619">
        <ele>385</ele>
        <time>2016-08-28T15:13:08Z</time>
      </trkpt>
      <trkpt lat="45.01676" lon="5.31601">
        <ele>387</ele>
        <time>2016-08-28T15:13:10Z</time>
      </trkpt>
      <trkpt lat="45.01674" lon="5.3158">
        <ele>390</ele>
        <time>2016-08-28T15:13:12Z</time>
      </trkpt>
      <trkpt lat="45.0167" lon="5.31557">
        <ele>382</ele>
        <time>2016-08-28T15:13:14Z</time>
      </trkpt>
      <trkpt lat="45.01667" lon="5.31531">
        <ele>400</ele>
        <time>2016-08-28T15:13:16Z</time>
      </trkpt>
      <trkpt lat="45.0167" lon="5.31519">
        <ele>379</ele>
        <time>2016-08-28T15:13:17Z</time>
      </trkpt>
      <trkpt lat="45.01675" lon="5.31495">
        <ele>377</ele>
        <time>2016-08-28T15:13:19Z</time>
      </trkpt>
      <trkpt lat="45.01675" lon="5.3148">
        <ele>373</ele>
        <time>2016-08-28T15:13:20Z</time>
      </trkpt>
      <trkpt lat="45.01672" lon="5.31466">
        <ele>371</ele>
        <time>2016-08-28T15:13:21Z</time>
      </trkpt>
      <trkpt lat="45.01669" lon="5.31452">
        <ele>369</ele>
        <time>2016-08-28T15:13:22Z</time>
      </trkpt>
      <trkpt lat="45.01665" lon="5.3143">
        <ele>380</ele>
        <time>2016-08-28T15:13:24Z</time>
      </trkpt>
      <trkpt lat="45.01657" lon="5.3141">
        <ele>377</ele>
        <time>2016-08-28T15:13:26Z</time>
      </trkpt>
      <trkpt lat="45.01652" lon="5.31391">
        <ele>380</ele>
        <time>2016-08-28T15:13:28Z</time>
      </trkpt>
      <trkpt lat="45.01645" lon="5.3138">
        <ele>381</ele>
        <time>2016-08-28T15:13:30Z</time>
      </trkpt>
      <trkpt lat="45.01654" lon="5.31374">
        <ele>381</ele>
        <time>2016-08-28T15:13:37Z</time>
      </trkpt>
      <trkpt lat="45.01666" lon="5.31372">
        <ele>380</ele>
        <time>2016-08-28T15:13:40Z</time>
      </trkpt>
      <trkpt lat="45.01679" lon="5.3137">
        <ele>370</ele>
        <time>2016-08-28T15:13:43Z</time>
      </trkpt>
      <trkpt lat="45.01689" lon="5.31368">
        <ele>369</ele>
        <time>2016-08-28T15:13:45Z</time>
      </trkpt>
      <trkpt lat="45.01699" lon="5.31365">
        <ele>369</ele>
        <time>2016-08-28T15:13:47Z</time>
      </trkpt>
      <trkpt lat="45.01709" lon="5.31365">
        <ele>368</ele>
        <time>2016-08-28T15:13:49Z</time>
      </trkpt>
      <trkpt lat="45.01718" lon="5.31365">
        <ele>367</ele>
        <time>2016-08-28T15:13:51Z</time>
      </trkpt>
      <trkpt lat="45.01729" lon="5.31366">
        <ele>367</ele>
        <time>2016-08-28T15:13:53Z</time>
      </trkpt>
      <trkpt lat="45.0174" lon="5.31363">
        <ele>366</ele>
        <time>2016-08-28T15:13:55Z</time>
      </trkpt>
      <trkpt lat="45.01751" lon="5.31363">
        <ele>352</ele>
        <time>2016-08-28T15:13:58Z</time>
      </trkpt>
      <trkpt lat="45.01762" lon="5.31356">
        <ele>352</ele>
        <time>2016-08-28T15:14:02Z</time>
      </trkpt>
      <trkpt lat="45.01772" lon="5.31347">
        <ele>351</ele>
        <time>2016-08-28T15:14:06Z</time>
      </trkpt>
      <trkpt lat="45.01781" lon="5.3134">
        <ele>349</ele>
        <time>2016-08-28T15:14:10Z</time>
      </trkpt>
      <trkpt lat="45.0179" lon="5.31334">
        <ele>346</ele>
        <time>2016-08-28T15:14:15Z</time>
      </trkpt>
      <trkpt lat="45.01798" lon="5.31327">
        <ele>354</ele>
        <time>2016-08-28T15:14:18Z</time>
      </trkpt>
      <trkpt lat="45.01808" lon="5.31321">
        <ele>352</ele>
        <time>2016-08-28T15:14:22Z</time>
      </trkpt>
      <trkpt lat="45.01819" lon="5.31314">
        <ele>350</ele>
        <time>2016-08-28T15:14:27Z</time>
      </trkpt>
      <trkpt lat="45.01831" lon="5.31306">
        <ele>350</ele>
        <time>2016-08-28T15:14:35Z</time>
      </trkpt>
      <trkpt lat="45.01843" lon="5.313">
        <ele>330</ele>
        <time>2016-08-28T15:14:39Z</time>
      </trkpt>
      <trkpt lat="45.01853" lon="5.31291">
        <ele>330</ele>
        <time>2016-08-28T15:14:43Z</time>
      </trkpt>
      <trkpt lat="45.01862" lon="5.31281">
        <ele>330</ele>
        <time>2016-08-28T15:14:45Z</time>
      </trkpt>
      <trkpt lat="45.01865" lon="5.31266">
        <ele>331</ele>
        <time>2016-08-28T15:14:48Z</time>
      </trkpt>
      <trkpt lat="45.01872" lon="5.31256">
        <ele>330</ele>
        <time>2016-08-28T15:14:52Z</time>
      </trkpt>
      <trkpt lat="45.01879" lon="5.31246">
        <ele>336</ele>
        <time>2016-08-28T15:14:54Z</time>
      </trkpt>
      <trkpt lat="45.01886" lon="5.3123">
        <ele>335</ele>
        <time>2016-08-28T15:14:58Z</time>
      </trkpt>
      <trkpt lat="45.01891" lon="5.31219">
        <ele>335</ele>
        <time>2016-08-28T15:15:00Z</time>
      </trkpt>
      <trkpt lat="45.01895" lon="5.31204">
        <ele>335</ele>
        <time>2016-08-28T15:15:03Z</time>
      </trkpt>
      <trkpt lat="45.01898" lon="5.31188">
        <ele>334</ele>
        <time>2016-08-28T15:15:06Z</time>
      </trkpt>
      <trkpt lat="45.01904" lon="5.3117">
        <ele>330</ele>
        <time>2016-08-28T15:15:09Z</time>
      </trkpt>
      <trkpt lat="45.01907" lon="5.31156">
        <ele>334</ele>
        <time>2016-08-28T15:15:12Z</time>
      </trkpt>
      <trkpt lat="45.01914" lon="5.31146">
        <ele>335</ele>
        <time>2016-08-28T15:15:16Z</time>
      </trkpt>
      <trkpt lat="45.01923" lon="5.31129">
        <ele>318</ele>
        <time>2016-08-28T15:15:22Z</time>
      </trkpt>
      <trkpt lat="45.0193" lon="5.31117">
        <ele>319</ele>
        <time>2016-08-28T15:15:26Z</time>
      </trkpt>
      <trkpt lat="45.01935" lon="5.31106">
        <ele>319</ele>
        <time>2016-08-28T15:15:32Z</time>
      </trkpt>
      <trkpt lat="45.0194" lon="5.3109">
        <ele>320</ele>
        <time>2016-08-28T15:15:38Z</time>
      </trkpt>
      <trkpt lat="45.01946" lon="5.3108">
        <ele>321</ele>
        <time>2016-08-28T15:15:42Z</time>
      </trkpt>
      <trkpt lat="45.01953" lon="5.31069">
        <ele>319</ele>
        <time>2016-08-28T15:15:44Z</time>
      </trkpt>
      <trkpt lat="45.01958" lon="5.31058">
        <ele>318</ele>
        <time>2016-08-28T15:15:46Z</time>
      </trkpt>
      <trkpt lat="45.01967" lon="5.31045">
        <ele>317</ele>
        <time>2016-08-28T15:15:51Z</time>
      </trkpt>
      <trkpt lat="45.01971" lon="5.3103">
        <ele>316</ele>
        <time>2016-08-28T15:15:53Z</time>
      </trkpt>
      <trkpt lat="45.01976" lon="5.31016">
        <ele>315</ele>
        <time>2016-08-28T15:15:55Z</time>
      </trkpt>
      <trkpt lat="45.01979" lon="5.31001">
        <ele>313</ele>
        <time>2016-08-28T15:15:57Z</time>
      </trkpt>
      <trkpt lat="45.01984" lon="5.3098">
        <ele>314</ele>
        <time>2016-08-28T15:16:01Z</time>
      </trkpt>
      <trkpt lat="45.01981" lon="5.30962">
        <ele>315</ele>
        <time>2016-08-28T15:16:03Z</time>
      </trkpt>
      <trkpt lat="45.0198" lon="5.30948">
        <ele>315</ele>
        <time>2016-08-28T15:16:05Z</time>
      </trkpt>
      <trkpt lat="45.01977" lon="5.30933">
        <ele>314</ele>
        <time>2016-08-28T15:16:07Z</time>
      </trkpt>
      <trkpt lat="45.01977" lon="5.30917">
        <ele>314</ele>
        <time>2016-08-28T15:16:09Z</time>
      </trkpt>
      <trkpt lat="45.01977" lon="5.30903">
        <ele>315</ele>
        <time>2016-08-28T15:16:11Z</time>
      </trkpt>
      <trkpt lat="45.01978" lon="5.30889">
        <ele>316</ele>
        <time>2016-08-28T15:16:14Z</time>
      </trkpt>
      <trkpt lat="45.0198" lon="5.30875">
        <ele>316</ele>
        <time>2016-08-28T15:16:17Z</time>
      </trkpt>
      <trkpt lat="45.0198" lon="5.30861">
        <ele>316</ele>
        <time>2016-08-28T15:16:20Z</time>
      </trkpt>
      <trkpt lat="45.01983" lon="5.30847">
        <ele>315</ele>
        <time>2016-08-28T15:16:24Z</time>
      </trkpt>
      <trkpt lat="45.01988" lon="5.30832">
        <ele>315</ele>
        <time>2016-08-28T15:16:28Z</time>
      </trkpt>
      <trkpt lat="45.01997" lon="5.30825">
        <ele>314</ele>
        <time>2016-08-28T15:16:32Z</time>
      </trkpt>
      <trkpt lat="45.02006" lon="5.30819">
        <ele>310</ele>
        <time>2016-08-28T15:16:37Z</time>
      </trkpt>
      <trkpt lat="45.02014" lon="5.30812">
        <ele>309</ele>
        <time>2016-08-28T15:16:42Z</time>
      </trkpt>
      <trkpt lat="45.02023" lon="5.30803">
        <ele>309</ele>
        <time>2016-08-28T15:16:46Z</time>
      </trkpt>
      <trkpt lat="45.02031" lon="5.30795">
        <ele>308</ele>
        <time>2016-08-28T15:16:53Z</time>
      </trkpt>
      <trkpt lat="45.02042" lon="5.3078">
        <ele>308</ele>
        <time>2016-08-28T15:17:00Z</time>
      </trkpt>
      <trkpt lat="45.02049" lon="5.3077">
        <ele>307</ele>
        <time>2016-08-28T15:17:02Z</time>
      </trkpt>
      <trkpt lat="45.02058" lon="5.30757">
        <ele>306</ele>
        <time>2016-08-28T15:17:05Z</time>
      </trkpt>
      <trkpt lat="45.02067" lon="5.30741">
        <ele>306</ele>
        <time>2016-08-28T15:17:08Z</time>
      </trkpt>
      <trkpt lat="45.02072" lon="5.30727">
        <ele>307</ele>
        <time>2016-08-28T15:17:10Z</time>
      </trkpt>
      <trkpt lat="45.02076" lon="5.30715">
        <ele>307</ele>
        <time>2016-08-28T15:17:12Z</time>
      </trkpt>
      <trkpt lat="45.02081" lon="5.30701">
        <ele>307</ele>
        <time>2016-08-28T15:17:14Z</time>
      </trkpt>
      <trkpt lat="45.02085" lon="5.30689">
        <ele>299</ele>
        <time>2016-08-28T15:17:16Z</time>
      </trkpt>
      <trkpt lat="45.02089" lon="5.30675">
        <ele>300</ele>
        <time>2016-08-28T15:17:18Z</time>
      </trkpt>
      <trkpt lat="45.02091" lon="5.30657">
        <ele>299</ele>
        <time>2016-08-28T15:17:21Z</time>
      </trkpt>
      <trkpt lat="45.02088" lon="5.30638">
        <ele>297</ele>
        <time>2016-08-28T15:17:24Z</time>
      </trkpt>
      <trkpt lat="45.02083" lon="5.30626">
        <ele>302</ele>
        <time>2016-08-28T15:17:26Z</time>
      </trkpt>
      <trkpt lat="45.02077" lon="5.30611">
        <ele>301</ele>
        <time>2016-08-28T15:17:28Z</time>
      </trkpt>
      <trkpt lat="45.02072" lon="5.30593">
        <ele>300</ele>
        <time>2016-08-28T15:17:30Z</time>
      </trkpt>
      <trkpt lat="45.02066" lon="5.30572">
        <ele>296</ele>
        <time>2016-08-28T15:17:32Z</time>
      </trkpt>
      <trkpt lat="45.02063" lon="5.30559">
        <ele>296</ele>
        <time>2016-08-28T15:17:33Z</time>
      </trkpt>
      <trkpt lat="45.0206" lon="5.30543">
        <ele>295</ele>
        <time>2016-08-28T15:17:34Z</time>
      </trkpt>
      <trkpt lat="45.0206" lon="5.30527">
        <ele>294</ele>
        <time>2016-08-28T15:17:35Z</time>
      </trkpt>
      <trkpt lat="45.02063" lon="5.30512">
        <ele>293</ele>
        <time>2016-08-28T15:17:36Z</time>
      </trkpt>
      <trkpt lat="45.02067" lon="5.30497">
        <ele>290</ele>
        <time>2016-08-28T15:17:37Z</time>
      </trkpt>
      <trkpt lat="45.0207" lon="5.30483">
        <ele>289</ele>
        <time>2016-08-28T15:17:38Z</time>
      </trkpt>
      <trkpt lat="45.02073" lon="5.3047">
        <ele>289</ele>
        <time>2016-08-28T15:17:39Z</time>
      </trkpt>
      <trkpt lat="45.02077" lon="5.30448">
        <ele>288</ele>
        <time>2016-08-28T15:17:41Z</time>
      </trkpt>
      <trkpt lat="45.02083" lon="5.30429">
        <ele>287</ele>
        <time>2016-08-28T15:17:43Z</time>
      </trkpt>
      <trkpt lat="45.02087" lon="5.30412">
        <ele>286</ele>
        <time>2016-08-28T15:17:45Z</time>
      </trkpt>
      <trkpt lat="45.0209" lon="5.30395">
        <ele>286</ele>
        <time>2016-08-28T15:17:47Z</time>
      </trkpt>
      <trkpt lat="45.02093" lon="5.30382">
        <ele>286</ele>
        <time>2016-08-28T15:17:49Z</time>
      </trkpt>
      <trkpt lat="45.02097" lon="5.30365">
        <ele>286</ele>
        <time>2016-08-28T15:17:52Z</time>
      </trkpt>
      <trkpt lat="45.02099" lon="5.30349">
        <ele>285</ele>
        <time>2016-08-28T15:17:55Z</time>
      </trkpt>
      <trkpt lat="45.02102" lon="5.30337">
        <ele>285</ele>
        <time>2016-08-28T15:17:57Z</time>
      </trkpt>
      <trkpt lat="45.02105" lon="5.30323">
        <ele>284</ele>
        <time>2016-08-28T15:17:59Z</time>
      </trkpt>
      <trkpt lat="45.02107" lon="5.30308">
        <ele>284</ele>
        <time>2016-08-28T15:18:01Z</time>
      </trkpt>
      <trkpt lat="45.02109" lon="5.30294">
        <ele>284</ele>
        <time>2016-08-28T15:18:03Z</time>
      </trkpt>
      <trkpt lat="45.02111" lon="5.30279">
        <ele>284</ele>
        <time>2016-08-28T15:18:05Z</time>
      </trkpt>
      <trkpt lat="45.02114" lon="5.30265">
        <ele>284</ele>
        <time>2016-08-28T15:18:07Z</time>
      </trkpt>
      <trkpt lat="45.02115" lon="5.30251">
        <ele>284</ele>
        <time>2016-08-28T15:18:09Z</time>
      </trkpt>
      <trkpt lat="45.02117" lon="5.30237">
        <ele>283</ele>
        <time>2016-08-28T15:18:11Z</time>
      </trkpt>
      <trkpt lat="45.02119" lon="5.30223">
        <ele>283</ele>
        <time>2016-08-28T15:18:13Z</time>
      </trkpt>
      <trkpt lat="45.0212" lon="5.30208">
        <ele>283</ele>
        <time>2016-08-28T15:18:15Z</time>
      </trkpt>
      <trkpt lat="45.0212" lon="5.30194">
        <ele>283</ele>
        <time>2016-08-28T15:18:17Z</time>
      </trkpt>
      <trkpt lat="45.02121" lon="5.30178">
        <ele>283</ele>
        <time>2016-08-28T15:18:19Z</time>
      </trkpt>
      <trkpt lat="45.02122" lon="5.30162">
        <ele>279</ele>
        <time>2016-08-28T15:18:21Z</time>
      </trkpt>
      <trkpt lat="45.02124" lon="5.30145">
        <ele>279</ele>
        <time>2016-08-28T15:18:24Z</time>
      </trkpt>
      <trkpt lat="45.02126" lon="5.30132">
        <ele>278</ele>
        <time>2016-08-28T15:18:28Z</time>
      </trkpt>
      <trkpt lat="45.02137" lon="5.30124">
        <ele>277</ele>
        <time>2016-08-28T15:18:32Z</time>
      </trkpt>
      <trkpt lat="45.02148" lon="5.30119">
        <ele>277</ele>
        <time>2016-08-28T15:18:35Z</time>
      </trkpt>
      <trkpt lat="45.02144" lon="5.30103">
        <ele>276</ele>
        <time>2016-08-28T15:18:38Z</time>
      </trkpt>
      <trkpt lat="45.02137" lon="5.30084">
        <ele>275</ele>
        <time>2016-08-28T15:18:40Z</time>
      </trkpt>
      <trkpt lat="45.02132" lon="5.30068">
        <ele>269</ele>
        <time>2016-08-28T15:18:42Z</time>
      </trkpt>
      <trkpt lat="45.0213" lon="5.30055">
        <ele>268</ele>
        <time>2016-08-28T15:18:44Z</time>
      </trkpt>
      <trkpt lat="45.02122" lon="5.30024">
        <ele>267</ele>
        <time>2016-08-28T15:18:50Z</time>
      </trkpt>
      <trkpt lat="45.02118" lon="5.30011">
        <ele>266</ele>
        <time>2016-08-28T15:18:52Z</time>
      </trkpt>
      <trkpt lat="45.02114" lon="5.29995">
        <ele>262</ele>
        <time>2016-08-28T15:18:54Z</time>
      </trkpt>
      <trkpt lat="45.0211" lon="5.29983">
        <ele>262</ele>
        <time>2016-08-28T15:18:57Z</time>
      </trkpt>
      <trkpt lat="45.02097" lon="5.29982">
        <ele>263</ele>
        <time>2016-08-28T15:19:02Z</time>
      </trkpt>
      <trkpt lat="45.02087" lon="5.29978">
        <ele>263</ele>
        <time>2016-08-28T15:19:07Z</time>
      </trkpt>
      <trkpt lat="45.02078" lon="5.2997">
        <ele>266</ele>
        <time>2016-08-28T15:19:12Z</time>
      </trkpt>
      <trkpt lat="45.02079" lon="5.29957">
        <ele>266</ele>
        <time>2016-08-28T15:19:18Z</time>
      </trkpt>
      <trkpt lat="45.02072" lon="5.29947">
        <ele>266</ele>
        <time>2016-08-28T15:19:24Z</time>
      </trkpt>
      <trkpt lat="45.02064" lon="5.2994">
        <ele>266</ele>
        <time>2016-08-28T15:19:29Z</time>
      </trkpt>
      <trkpt lat="45.02053" lon="5.29932">
        <ele>266</ele>
        <time>2016-08-28T15:19:39Z</time>
      </trkpt>
      <trkpt lat="45.02046" lon="5.29923">
        <ele>266</ele>
        <time>2016-08-28T15:19:45Z</time>
      </trkpt>
      <trkpt lat="45.02037" lon="5.2992">
        <ele>267</ele>
        <time>2016-08-28T15:19:49Z</time>
      </trkpt>
      <trkpt lat="45.0203" lon="5.2991">
        <ele>265</ele>
        <time>2016-08-28T15:19:55Z</time>
      </trkpt>
      <trkpt lat="45.02022" lon="5.29898">
        <ele>265</ele>
        <time>2016-08-28T15:20:01Z</time>
      </trkpt>
      <trkpt lat="45.02014" lon="5.29889">
        <ele>265</ele>
        <time>2016-08-28T15:20:09Z</time>
      </trkpt>
      <trkpt lat="45.02005" lon="5.2988">
        <ele>265</ele>
        <time>2016-08-28T15:20:14Z</time>
      </trkpt>
      <trkpt lat="45.01997" lon="5.29873">
        <ele>268</ele>
        <time>2016-08-28T15:20:17Z</time>
      </trkpt>
      <trkpt lat="45.01988" lon="5.29864">
        <ele>267</ele>
        <time>2016-08-28T15:20:21Z</time>
      </trkpt>
      <trkpt lat="45.01977" lon="5.29861">
        <ele>268</ele>
        <time>2016-08-28T15:20:25Z</time>
      </trkpt>
      <trkpt lat="45.01967" lon="5.2985">
        <ele>268</ele>
        <time>2016-08-28T15:20:28Z</time>
      </trkpt>
      <trkpt lat="45.01956" lon="5.29843">
        <ele>268</ele>
        <time>2016-08-28T15:20:31Z</time>
      </trkpt>
      <trkpt lat="45.01947" lon="5.29835">
        <ele>268</ele>
        <time>2016-08-28T15:20:34Z</time>
      </trkpt>
      <trkpt lat="45.01937" lon="5.29827">
        <ele>266</ele>
        <time>2016-08-28T15:20:38Z</time>
      </trkpt>
      <trkpt lat="45.01929" lon="5.29818">
        <ele>266</ele>
        <time>2016-08-28T15:20:42Z</time>
      </trkpt>
      <trkpt lat="45.01921" lon="5.29811">
        <ele>266</ele>
        <time>2016-08-28T15:20:46Z</time>
      </trkpt>
      <trkpt lat="45.01912" lon="5.298">
        <ele>268</ele>
        <time>2016-08-28T15:20:51Z</time>
      </trkpt>
      <trkpt lat="45.01904" lon="5.2979">
        <ele>268</ele>
        <time>2016-08-28T15:20:56Z</time>
      </trkpt>
      <trkpt lat="45.01897" lon="5.29781">
        <ele>268</ele>
        <time>2016-08-28T15:21:01Z</time>
      </trkpt>
      <trkpt lat="45.01891" lon="5.29771">
        <ele>268</ele>
        <time>2016-08-28T15:21:06Z</time>
      </trkpt>
      <trkpt lat="45.01883" lon="5.29764">
        <ele>268</ele>
        <time>2016-08-28T15:21:11Z</time>
      </trkpt>
      <trkpt lat="45.01874" lon="5.29754">
        <ele>269</ele>
        <time>2016-08-28T15:21:17Z</time>
      </trkpt>
      <trkpt lat="45.0187" lon="5.29738">
        <ele>267</ele>
        <time>2016-08-28T15:21:22Z</time>
      </trkpt>
      <trkpt lat="45.01863" lon="5.29726">
        <ele>268</ele>
        <time>2016-08-28T15:21:27Z</time>
      </trkpt>
      <trkpt lat="45.01855" lon="5.29716">
        <ele>268</ele>
        <time>2016-08-28T15:21:32Z</time>
      </trkpt>
      <trkpt lat="45.01847" lon="5.29707">
        <ele>268</ele>
        <time>2016-08-28T15:21:37Z</time>
      </trkpt>
      <trkpt lat="45.0184" lon="5.29696">
        <ele>267</ele>
        <time>2016-08-28T15:21:42Z</time>
      </trkpt>
      <trkpt lat="45.01833" lon="5.29688">
        <ele>269</ele>
        <time>2016-08-28T15:21:47Z</time>
      </trkpt>
      <trkpt lat="45.01825" lon="5.29678">
        <ele>269</ele>
        <time>2016-08-28T15:21:52Z</time>
      </trkpt>
      <trkpt lat="45.01815" lon="5.29672">
        <ele>269</ele>
        <time>2016-08-28T15:21:57Z</time>
      </trkpt>
      <trkpt lat="45.01807" lon="5.29666">
        <ele>270</ele>
        <time>2016-08-28T15:22:01Z</time>
      </trkpt>
      <trkpt lat="45.01798" lon="5.29657">
        <ele>270</ele>
        <time>2016-08-28T15:22:06Z</time>
      </trkpt>
      <trkpt lat="45.01789" lon="5.29649">
        <ele>271</ele>
        <time>2016-08-28T15:22:11Z</time>
      </trkpt>
      <trkpt lat="45.01781" lon="5.29642">
        <ele>271</ele>
        <time>2016-08-28T15:22:15Z</time>
      </trkpt>
      <trkpt lat="45.01772" lon="5.29634">
        <ele>271</ele>
        <time>2016-08-28T15:22:20Z</time>
      </trkpt>
      <trkpt lat="45.01763" lon="5.29628">
        <ele>271</ele>
        <time>2016-08-28T15:22:25Z</time>
      </trkpt>
      <trkpt lat="45.01754" lon="5.29621">
        <ele>271</ele>
        <time>2016-08-28T15:22:30Z</time>
      </trkpt>
      <trkpt lat="45.01747" lon="5.29611">
        <ele>273</ele>
        <time>2016-08-28T15:22:35Z</time>
      </trkpt>
      <trkpt lat="45.01746" lon="5.29596">
        <ele>272</ele>
        <time>2016-08-28T15:22:40Z</time>
      </trkpt>
      <trkpt lat="45.01747" lon="5.29582">
        <ele>273</ele>
        <time>2016-08-28T15:22:44Z</time>
      </trkpt>
      <trkpt lat="45.01749" lon="5.29567">
        <ele>274</ele>
        <time>2016-08-28T15:22:50Z</time>
      </trkpt>
      <trkpt lat="45.01748" lon="5.29552">
        <ele>275</ele>
        <time>2016-08-28T15:22:57Z</time>
      </trkpt>
      <trkpt lat="45.01746" lon="5.2954">
        <ele>276</ele>
        <time>2016-08-28T15:23:06Z</time>
      </trkpt>
      <trkpt lat="45.01744" lon="5.29525">
        <ele>277</ele>
        <time>2016-08-28T15:23:15Z</time>
      </trkpt>
      <trkpt lat="45.01741" lon="5.29513">
        <ele>278</ele>
        <time>2016-08-28T15:23:21Z</time>
      </trkpt>
      <trkpt lat="45.01744" lon="5.295">
        <ele>278</ele>
        <time>2016-08-28T15:23:34Z</time>
      </trkpt>
      <trkpt lat="45.01751" lon="5.2949">
        <ele>278</ele>
        <time>2016-08-28T15:23:39Z</time>
      </trkpt>
      <trkpt lat="45.01759" lon="5.29477">
        <ele>277</ele>
        <time>2016-08-28T15:23:42Z</time>
      </trkpt>
      <trkpt lat="45.01766" lon="5.29466">
        <ele>276</ele>
        <time>2016-08-28T15:23:44Z</time>
      </trkpt>
      <trkpt lat="45.01773" lon="5.29455">
        <ele>276</ele>
        <time>2016-08-28T15:23:46Z</time>
      </trkpt>
      <trkpt lat="45.01781" lon="5.29444">
        <ele>275</ele>
        <time>2016-08-28T15:23:48Z</time>
      </trkpt>
      <trkpt lat="45.01788" lon="5.29432">
        <ele>275</ele>
        <time>2016-08-28T15:23:51Z</time>
      </trkpt>
      <trkpt lat="45.01797" lon="5.29419">
        <ele>274</ele>
        <time>2016-08-28T15:23:54Z</time>
      </trkpt>
      <trkpt lat="45.01807" lon="5.2941">
        <ele>268</ele>
        <time>2016-08-28T15:23:56Z</time>
      </trkpt>
      <trkpt lat="45.01818" lon="5.29403">
        <ele>268</ele>
        <time>2016-08-28T15:23:58Z</time>
      </trkpt>
      <trkpt lat="45.01829" lon="5.294">
        <ele>268</ele>
        <time>2016-08-28T15:24:00Z</time>
      </trkpt>
      <trkpt lat="45.01842" lon="5.29395">
        <ele>266</ele>
        <time>2016-08-28T15:24:03Z</time>
      </trkpt>
      <trkpt lat="45.01849" lon="5.29386">
        <ele>265</ele>
        <time>2016-08-28T15:24:08Z</time>
      </trkpt>
      <trkpt lat="45.01848" lon="5.29373">
        <ele>264</ele>
        <time>2016-08-28T15:24:15Z</time>
      </trkpt>
      <trkpt lat="45.01838" lon="5.29359">
        <ele>263</ele>
        <time>2016-08-28T15:24:20Z</time>
      </trkpt>
      <trkpt lat="45.01833" lon="5.29347">
        <ele>262</ele>
        <time>2016-08-28T15:24:22Z</time>
      </trkpt>
      <trkpt lat="45.01831" lon="5.29328">
        <ele>260</ele>
        <time>2016-08-28T15:24:24Z</time>
      </trkpt>
      <trkpt lat="45.0183" lon="5.2931">
        <ele>259</ele>
        <time>2016-08-28T15:24:26Z</time>
      </trkpt>
      <trkpt lat="45.01828" lon="5.29292">
        <ele>259</ele>
        <time>2016-08-28T15:24:28Z</time>
      </trkpt>
      <trkpt lat="45.01832" lon="5.29279">
        <ele>258</ele>
        <time>2016-08-28T15:24:31Z</time>
      </trkpt>
      <trkpt lat="45.0184" lon="5.29269">
        <ele>256</ele>
        <time>2016-08-28T15:24:34Z</time>
      </trkpt>
      <trkpt lat="45.01853" lon="5.29264">
        <ele>256</ele>
        <time>2016-08-28T15:24:37Z</time>
      </trkpt>
      <trkpt lat="45.01863" lon="5.29265">
        <ele>256</ele>
        <time>2016-08-28T15:24:39Z</time>
      </trkpt>
      <trkpt lat="45.01877" lon="5.2927">
        <ele>256</ele>
        <time>2016-08-28T15:24:42Z</time>
      </trkpt>
      <trkpt lat="45.01887" lon="5.29276">
        <ele>256</ele>
        <time>2016-08-28T15:24:44Z</time>
      </trkpt>
      <trkpt lat="45.01898" lon="5.2928">
        <ele>256</ele>
        <time>2016-08-28T15:24:47Z</time>
      </trkpt>
      <trkpt lat="45.0191" lon="5.29288">
        <ele>256</ele>
        <time>2016-08-28T15:24:50Z</time>
      </trkpt>
      <trkpt lat="45.0192" lon="5.29292">
        <ele>254</ele>
        <time>2016-08-28T15:24:53Z</time>
      </trkpt>
      <trkpt lat="45.01929" lon="5.29296">
        <ele>254</ele>
        <time>2016-08-28T15:25:05Z</time>
      </trkpt>
      <trkpt lat="45.01938" lon="5.29289">
        <ele>253</ele>
        <time>2016-08-28T15:26:55Z</time>
      </trkpt>
      <trkpt lat="45.01929" lon="5.29296">
        <ele>254</ele>
        <time>2016-08-28T15:28:50Z</time>
      </trkpt>
    </trkseg>
  </trk>
</gpx>